<?xml version="1.0" encoding="UTF-8" standalone="no" ?>
<gpx xmlns="http://www.topografix.com/GPX/1/1" xmlns:xsi="http://www.w3.org/2001/XMLSchema-instance" xsi:schemaLocation="http://www.topografix.com/GPX/1/1 http://www.topografix.com/GPX/1/1/gpx.xsd" version="1.1" creator="VisuGPX - https://www.visugpx.com">
  <metadata>
    <name>Floressas (46700) boucle n°3</name>
    <desc><![CDATA[Dénivelés intéressants sur ce circuit et paysages exceptionnels !]]></desc>
  </metadata>
  <trk>
    <name><![CDATA[001-2009-08-13-07-59-12-MNT]]></name>
    <trkseg>
      <trkpt lat="44.44447" lon="1.12104">
        <ele>257.341736</ele>
        <time>2009-08-13T05:59:12Z</time>
      </trkpt>
      <trkpt lat="44.44417" lon="1.12113">
        <ele>257.920197</ele>
        <time>2009-08-13T06:00:05Z</time>
      </trkpt>
      <trkpt lat="44.44411" lon="1.12112">
        <ele>258.019135</ele>
        <time>2009-08-13T06:00:09Z</time>
      </trkpt>
      <trkpt lat="44.44404" lon="1.12112">
        <ele>258.086212</ele>
        <time>2009-08-13T06:00:12Z</time>
      </trkpt>
      <trkpt lat="44.44399" lon="1.12107">
        <ele>258.486847</ele>
        <time>2009-08-13T06:00:15Z</time>
      </trkpt>
      <trkpt lat="44.44395" lon="1.12112">
        <ele>258.156647</ele>
        <time>2009-08-13T06:00:19Z</time>
      </trkpt>
      <trkpt lat="44.44385" lon="1.12107">
        <ele>258.125275</ele>
        <time>2009-08-13T06:00:22Z</time>
      </trkpt>
      <trkpt lat="44.44376" lon="1.121">
        <ele>258.227448</ele>
        <time>2009-08-13T06:00:26Z</time>
      </trkpt>
      <trkpt lat="44.44364" lon="1.12096">
        <ele>258.049164</ele>
        <time>2009-08-13T06:00:30Z</time>
      </trkpt>
      <trkpt lat="44.44357" lon="1.12094">
        <ele>257.835114</ele>
        <time>2009-08-13T06:00:33Z</time>
      </trkpt>
      <trkpt lat="44.44344" lon="1.12086">
        <ele>257.879364</ele>
        <time>2009-08-13T06:00:37Z</time>
      </trkpt>
      <trkpt lat="44.44332" lon="1.12073">
        <ele>258.00531</ele>
        <time>2009-08-13T06:00:41Z</time>
      </trkpt>
      <trkpt lat="44.44324" lon="1.12061">
        <ele>257.818329</ele>
        <time>2009-08-13T06:00:44Z</time>
      </trkpt>
      <trkpt lat="44.44316" lon="1.12046">
        <ele>257.747101</ele>
        <time>2009-08-13T06:00:47Z</time>
      </trkpt>
      <trkpt lat="44.44309" lon="1.1203">
        <ele>257.861969</ele>
        <time>2009-08-13T06:00:50Z</time>
      </trkpt>
      <trkpt lat="44.44302" lon="1.12015">
        <ele>258.001923</ele>
        <time>2009-08-13T06:00:53Z</time>
      </trkpt>
      <trkpt lat="44.44297" lon="1.11995">
        <ele>258.138672</ele>
        <time>2009-08-13T06:00:56Z</time>
      </trkpt>
      <trkpt lat="44.44292" lon="1.11974">
        <ele>258.374481</ele>
        <time>2009-08-13T06:00:59Z</time>
      </trkpt>
      <trkpt lat="44.44288" lon="1.11953">
        <ele>258.695587</ele>
        <time>2009-08-13T06:01:02Z</time>
      </trkpt>
      <trkpt lat="44.44281" lon="1.11933">
        <ele>258.833588</ele>
        <time>2009-08-13T06:01:05Z</time>
      </trkpt>
      <trkpt lat="44.44271" lon="1.11916">
        <ele>259.130524</ele>
        <time>2009-08-13T06:01:08Z</time>
      </trkpt>
      <trkpt lat="44.4426" lon="1.11901">
        <ele>259.615967</ele>
        <time>2009-08-13T06:01:11Z</time>
      </trkpt>
      <trkpt lat="44.44249" lon="1.11888">
        <ele>260.00824</ele>
        <time>2009-08-13T06:01:14Z</time>
      </trkpt>
      <trkpt lat="44.44234" lon="1.11879">
        <ele>260.095795</ele>
        <time>2009-08-13T06:01:17Z</time>
      </trkpt>
      <trkpt lat="44.4422" lon="1.1187">
        <ele>260.271423</ele>
        <time>2009-08-13T06:01:20Z</time>
      </trkpt>
      <trkpt lat="44.44206" lon="1.1186">
        <ele>260.407501</ele>
        <time>2009-08-13T06:01:23Z</time>
      </trkpt>
      <trkpt lat="44.44194" lon="1.11849">
        <ele>260.311249</ele>
        <time>2009-08-13T06:01:26Z</time>
      </trkpt>
      <trkpt lat="44.44181" lon="1.11835">
        <ele>260.262482</ele>
        <time>2009-08-13T06:01:29Z</time>
      </trkpt>
      <trkpt lat="44.44168" lon="1.11818">
        <ele>259.868134</ele>
        <time>2009-08-13T06:01:32Z</time>
      </trkpt>
      <trkpt lat="44.44155" lon="1.11801">
        <ele>259.074005</ele>
        <time>2009-08-13T06:01:35Z</time>
      </trkpt>
      <trkpt lat="44.44141" lon="1.11782">
        <ele>258.467712</ele>
        <time>2009-08-13T06:01:38Z</time>
      </trkpt>
      <trkpt lat="44.44127" lon="1.11761">
        <ele>258.030334</ele>
        <time>2009-08-13T06:01:41Z</time>
      </trkpt>
      <trkpt lat="44.44113" lon="1.11742">
        <ele>257.134003</ele>
        <time>2009-08-13T06:01:44Z</time>
      </trkpt>
      <trkpt lat="44.441" lon="1.11723">
        <ele>256.177277</ele>
        <time>2009-08-13T06:01:47Z</time>
      </trkpt>
      <trkpt lat="44.44087" lon="1.11704">
        <ele>255.619797</ele>
        <time>2009-08-13T06:01:50Z</time>
      </trkpt>
      <trkpt lat="44.44074" lon="1.11685">
        <ele>255.672501</ele>
        <time>2009-08-13T06:01:53Z</time>
      </trkpt>
      <trkpt lat="44.4406" lon="1.11666">
        <ele>255.402496</ele>
        <time>2009-08-13T06:01:56Z</time>
      </trkpt>
      <trkpt lat="44.44046" lon="1.11645">
        <ele>255.166245</ele>
        <time>2009-08-13T06:01:59Z</time>
      </trkpt>
      <trkpt lat="44.44034" lon="1.11625">
        <ele>255.227493</ele>
        <time>2009-08-13T06:02:02Z</time>
      </trkpt>
      <trkpt lat="44.44024" lon="1.11603">
        <ele>255.414459</ele>
        <time>2009-08-13T06:02:05Z</time>
      </trkpt>
      <trkpt lat="44.44015" lon="1.11578">
        <ele>255.562881</ele>
        <time>2009-08-13T06:02:08Z</time>
      </trkpt>
      <trkpt lat="44.44007" lon="1.11553">
        <ele>255.978043</ele>
        <time>2009-08-13T06:02:11Z</time>
      </trkpt>
      <trkpt lat="44.43999" lon="1.11529">
        <ele>256.367615</ele>
        <time>2009-08-13T06:02:14Z</time>
      </trkpt>
      <trkpt lat="44.43991" lon="1.11508">
        <ele>256.53006</ele>
        <time>2009-08-13T06:02:17Z</time>
      </trkpt>
      <trkpt lat="44.43983" lon="1.11486">
        <ele>256.732758</ele>
        <time>2009-08-13T06:02:20Z</time>
      </trkpt>
      <trkpt lat="44.43973" lon="1.11465">
        <ele>256.908356</ele>
        <time>2009-08-13T06:02:23Z</time>
      </trkpt>
      <trkpt lat="44.43962" lon="1.11443">
        <ele>256.429169</ele>
        <time>2009-08-13T06:02:26Z</time>
      </trkpt>
      <trkpt lat="44.43952" lon="1.11419">
        <ele>255.855682</ele>
        <time>2009-08-13T06:02:29Z</time>
      </trkpt>
      <trkpt lat="44.43941" lon="1.11398">
        <ele>255.303299</ele>
        <time>2009-08-13T06:02:32Z</time>
      </trkpt>
      <trkpt lat="44.43929" lon="1.11375">
        <ele>254.041138</ele>
        <time>2009-08-13T06:02:35Z</time>
      </trkpt>
      <trkpt lat="44.43917" lon="1.11352">
        <ele>252.831848</ele>
        <time>2009-08-13T06:02:38Z</time>
      </trkpt>
      <trkpt lat="44.43905" lon="1.11328">
        <ele>251.997955</ele>
        <time>2009-08-13T06:02:41Z</time>
      </trkpt>
      <trkpt lat="44.43893" lon="1.11306">
        <ele>251.191116</ele>
        <time>2009-08-13T06:02:44Z</time>
      </trkpt>
      <trkpt lat="44.43882" lon="1.11283">
        <ele>250.730179</ele>
        <time>2009-08-13T06:02:47Z</time>
      </trkpt>
      <trkpt lat="44.43866" lon="1.11251">
        <ele>250.323273</ele>
        <time>2009-08-13T06:02:51Z</time>
      </trkpt>
      <trkpt lat="44.43854" lon="1.11228">
        <ele>250.067444</ele>
        <time>2009-08-13T06:02:54Z</time>
      </trkpt>
      <trkpt lat="44.43842" lon="1.11206">
        <ele>249.973923</ele>
        <time>2009-08-13T06:02:57Z</time>
      </trkpt>
      <trkpt lat="44.4383" lon="1.11184">
        <ele>249.827454</ele>
        <time>2009-08-13T06:03:00Z</time>
      </trkpt>
      <trkpt lat="44.43819" lon="1.11163">
        <ele>249.867157</ele>
        <time>2009-08-13T06:03:03Z</time>
      </trkpt>
      <trkpt lat="44.43807" lon="1.1114">
        <ele>250.31749</ele>
        <time>2009-08-13T06:03:06Z</time>
      </trkpt>
      <trkpt lat="44.43795" lon="1.11117">
        <ele>251.537506</ele>
        <time>2009-08-13T06:03:09Z</time>
      </trkpt>
      <trkpt lat="44.43783" lon="1.11095">
        <ele>252.856247</ele>
        <time>2009-08-13T06:03:12Z</time>
      </trkpt>
      <trkpt lat="44.43772" lon="1.11073">
        <ele>254.05899</ele>
        <time>2009-08-13T06:03:15Z</time>
      </trkpt>
      <trkpt lat="44.43762" lon="1.11053">
        <ele>255.235687</ele>
        <time>2009-08-13T06:03:18Z</time>
      </trkpt>
      <trkpt lat="44.43753" lon="1.11034">
        <ele>256.466431</ele>
        <time>2009-08-13T06:03:21Z</time>
      </trkpt>
      <trkpt lat="44.43744" lon="1.11015">
        <ele>257.326202</ele>
        <time>2009-08-13T06:03:24Z</time>
      </trkpt>
      <trkpt lat="44.43736" lon="1.10996">
        <ele>258.183685</ele>
        <time>2009-08-13T06:03:27Z</time>
      </trkpt>
      <trkpt lat="44.43731" lon="1.10978">
        <ele>259.10791</ele>
        <time>2009-08-13T06:03:30Z</time>
      </trkpt>
      <trkpt lat="44.43727" lon="1.10959">
        <ele>260.179871</ele>
        <time>2009-08-13T06:03:33Z</time>
      </trkpt>
      <trkpt lat="44.43725" lon="1.10941">
        <ele>261.246185</ele>
        <time>2009-08-13T06:03:36Z</time>
      </trkpt>
      <trkpt lat="44.43724" lon="1.10923">
        <ele>262.26413</ele>
        <time>2009-08-13T06:03:39Z</time>
      </trkpt>
      <trkpt lat="44.43722" lon="1.10907">
        <ele>263.176514</ele>
        <time>2009-08-13T06:03:42Z</time>
      </trkpt>
      <trkpt lat="44.4372" lon="1.10889">
        <ele>264.119385</ele>
        <time>2009-08-13T06:03:45Z</time>
      </trkpt>
      <trkpt lat="44.43717" lon="1.10872">
        <ele>264.99939</ele>
        <time>2009-08-13T06:03:48Z</time>
      </trkpt>
      <trkpt lat="44.43713" lon="1.10857">
        <ele>265.804382</ele>
        <time>2009-08-13T06:03:51Z</time>
      </trkpt>
      <trkpt lat="44.4371" lon="1.1084">
        <ele>266.667511</ele>
        <time>2009-08-13T06:03:54Z</time>
      </trkpt>
      <trkpt lat="44.43706" lon="1.10826">
        <ele>266.977844</ele>
        <time>2009-08-13T06:03:58Z</time>
      </trkpt>
      <trkpt lat="44.43702" lon="1.10812">
        <ele>266.820007</ele>
        <time>2009-08-13T06:04:01Z</time>
      </trkpt>
      <trkpt lat="44.43698" lon="1.10796">
        <ele>266.579987</ele>
        <time>2009-08-13T06:04:04Z</time>
      </trkpt>
      <trkpt lat="44.43692" lon="1.1077">
        <ele>266.060364</ele>
        <time>2009-08-13T06:04:07Z</time>
      </trkpt>
      <trkpt lat="44.43686" lon="1.10748">
        <ele>264.86673</ele>
        <time>2009-08-13T06:04:10Z</time>
      </trkpt>
      <trkpt lat="44.4368" lon="1.10723">
        <ele>263.39566</ele>
        <time>2009-08-13T06:04:13Z</time>
      </trkpt>
      <trkpt lat="44.43673" lon="1.10695">
        <ele>261.297485</ele>
        <time>2009-08-13T06:04:16Z</time>
      </trkpt>
      <trkpt lat="44.43664" lon="1.10665">
        <ele>258.654999</ele>
        <time>2009-08-13T06:04:19Z</time>
      </trkpt>
      <trkpt lat="44.43655" lon="1.10633">
        <ele>256.58252</ele>
        <time>2009-08-13T06:04:22Z</time>
      </trkpt>
      <trkpt lat="44.43645" lon="1.106">
        <ele>255.791122</ele>
        <time>2009-08-13T06:04:25Z</time>
      </trkpt>
      <trkpt lat="44.43635" lon="1.10567">
        <ele>255.828125</ele>
        <time>2009-08-13T06:04:29Z</time>
      </trkpt>
      <trkpt lat="44.43624" lon="1.10537">
        <ele>256.066254</ele>
        <time>2009-08-13T06:04:32Z</time>
      </trkpt>
      <trkpt lat="44.4361" lon="1.10505">
        <ele>256.308746</ele>
        <time>2009-08-13T06:04:35Z</time>
      </trkpt>
      <trkpt lat="44.43599" lon="1.10485">
        <ele>256.630005</ele>
        <time>2009-08-13T06:04:38Z</time>
      </trkpt>
      <trkpt lat="44.43588" lon="1.1047">
        <ele>256.869385</ele>
        <time>2009-08-13T06:04:41Z</time>
      </trkpt>
      <trkpt lat="44.43577" lon="1.10459">
        <ele>257</ele>
        <time>2009-08-13T06:04:44Z</time>
      </trkpt>
      <trkpt lat="44.43566" lon="1.10449">
        <ele>257</ele>
        <time>2009-08-13T06:04:47Z</time>
      </trkpt>
      <trkpt lat="44.43553" lon="1.10443">
        <ele>256.734985</ele>
        <time>2009-08-13T06:04:50Z</time>
      </trkpt>
      <trkpt lat="44.43535" lon="1.10451">
        <ele>256.32251</ele>
        <time>2009-08-13T06:04:54Z</time>
      </trkpt>
      <trkpt lat="44.43522" lon="1.10464">
        <ele>256.019989</ele>
        <time>2009-08-13T06:04:57Z</time>
      </trkpt>
      <trkpt lat="44.43509" lon="1.1048">
        <ele>255.55687</ele>
        <time>2009-08-13T06:05:00Z</time>
      </trkpt>
      <trkpt lat="44.43497" lon="1.10495">
        <ele>255.233749</ele>
        <time>2009-08-13T06:05:03Z</time>
      </trkpt>
      <trkpt lat="44.43484" lon="1.1051">
        <ele>255.047791</ele>
        <time>2009-08-13T06:05:06Z</time>
      </trkpt>
      <trkpt lat="44.43472" lon="1.10525">
        <ele>254.904999</ele>
        <time>2009-08-13T06:05:09Z</time>
      </trkpt>
      <trkpt lat="44.4346" lon="1.10539">
        <ele>254.322327</ele>
        <time>2009-08-13T06:05:12Z</time>
      </trkpt>
      <trkpt lat="44.43448" lon="1.10554">
        <ele>253.800339</ele>
        <time>2009-08-13T06:05:15Z</time>
      </trkpt>
      <trkpt lat="44.43438" lon="1.10558">
        <ele>253.603989</ele>
        <time>2009-08-13T06:05:19Z</time>
      </trkpt>
      <trkpt lat="44.43434" lon="1.10559">
        <ele>253.52948</ele>
        <time>2009-08-13T06:05:25Z</time>
      </trkpt>
      <trkpt lat="44.43432" lon="1.10565">
        <ele>253.415817</ele>
        <time>2009-08-13T06:05:29Z</time>
      </trkpt>
      <trkpt lat="44.43429" lon="1.10577">
        <ele>253.151245</ele>
        <time>2009-08-13T06:05:32Z</time>
      </trkpt>
      <trkpt lat="44.43422" lon="1.10585">
        <ele>252.88063</ele>
        <time>2009-08-13T06:05:36Z</time>
      </trkpt>
      <trkpt lat="44.43417" lon="1.10593">
        <ele>252.616257</ele>
        <time>2009-08-13T06:05:39Z</time>
      </trkpt>
      <trkpt lat="44.43407" lon="1.106">
        <ele>252.173752</ele>
        <time>2009-08-13T06:05:42Z</time>
      </trkpt>
      <trkpt lat="44.43393" lon="1.10609">
        <ele>251.588745</ele>
        <time>2009-08-13T06:05:46Z</time>
      </trkpt>
      <trkpt lat="44.43387" lon="1.10621">
        <ele>251.039108</ele>
        <time>2009-08-13T06:05:49Z</time>
      </trkpt>
      <trkpt lat="44.43388" lon="1.10631">
        <ele>250.767502</ele>
        <time>2009-08-13T06:05:52Z</time>
      </trkpt>
      <trkpt lat="44.43388" lon="1.1064">
        <ele>250.478745</ele>
        <time>2009-08-13T06:05:56Z</time>
      </trkpt>
      <trkpt lat="44.43391" lon="1.10637">
        <ele>250.638748</ele>
        <time>2009-08-13T06:06:00Z</time>
      </trkpt>
      <trkpt lat="44.43386" lon="1.1063">
        <ele>250.747345</ele>
        <time>2009-08-13T06:06:03Z</time>
      </trkpt>
      <trkpt lat="44.43385" lon="1.10621">
        <ele>250.994766</ele>
        <time>2009-08-13T06:06:09Z</time>
      </trkpt>
      <trkpt lat="44.43385" lon="1.1062">
        <ele>251.021088</ele>
        <time>2009-08-13T06:06:24Z</time>
      </trkpt>
      <trkpt lat="44.43384" lon="1.10621">
        <ele>250.949966</ele>
        <time>2009-08-13T06:06:45Z</time>
      </trkpt>
      <trkpt lat="44.43385" lon="1.1062">
        <ele>251.030518</ele>
        <time>2009-08-13T06:07:32Z</time>
      </trkpt>
      <trkpt lat="44.43386" lon="1.10618">
        <ele>251.135391</ele>
        <time>2009-08-13T06:07:50Z</time>
      </trkpt>
      <trkpt lat="44.43385" lon="1.10616">
        <ele>251.181732</ele>
        <time>2009-08-13T06:07:54Z</time>
      </trkpt>
      <trkpt lat="44.43389" lon="1.10616">
        <ele>251.246246</ele>
        <time>2009-08-13T06:07:59Z</time>
      </trkpt>
      <trkpt lat="44.43388" lon="1.10619">
        <ele>251.143753</ele>
        <time>2009-08-13T06:08:03Z</time>
      </trkpt>
      <trkpt lat="44.43388" lon="1.10621">
        <ele>251.083755</ele>
        <time>2009-08-13T06:08:08Z</time>
      </trkpt>
      <trkpt lat="44.43388" lon="1.10622">
        <ele>251.029999</ele>
        <time>2009-08-13T06:08:13Z</time>
      </trkpt>
      <trkpt lat="44.43389" lon="1.10623">
        <ele>251.041245</ele>
        <time>2009-08-13T06:08:22Z</time>
      </trkpt>
      <trkpt lat="44.4339" lon="1.10623">
        <ele>251.082504</ele>
        <time>2009-08-13T06:08:29Z</time>
      </trkpt>
      <trkpt lat="44.43391" lon="1.10621">
        <ele>251.152496</ele>
        <time>2009-08-13T06:08:44Z</time>
      </trkpt>
      <trkpt lat="44.43391" lon="1.1062">
        <ele>251.195007</ele>
        <time>2009-08-13T06:08:53Z</time>
      </trkpt>
      <trkpt lat="44.43389" lon="1.1062">
        <ele>251.152496</ele>
        <time>2009-08-13T06:09:00Z</time>
      </trkpt>
      <trkpt lat="44.43388" lon="1.10621">
        <ele>251.100006</ele>
        <time>2009-08-13T06:09:12Z</time>
      </trkpt>
      <trkpt lat="44.43387" lon="1.10622">
        <ele>251.021439</ele>
        <time>2009-08-13T06:09:19Z</time>
      </trkpt>
      <trkpt lat="44.43387" lon="1.10624">
        <ele>250.954834</ele>
        <time>2009-08-13T06:09:25Z</time>
      </trkpt>
      <trkpt lat="44.43386" lon="1.10622">
        <ele>250.992874</ele>
        <time>2009-08-13T06:09:36Z</time>
      </trkpt>
      <trkpt lat="44.43387" lon="1.10621">
        <ele>251.065521</ele>
        <time>2009-08-13T06:09:40Z</time>
      </trkpt>
      <trkpt lat="44.43388" lon="1.10619">
        <ele>251.142502</ele>
        <time>2009-08-13T06:09:45Z</time>
      </trkpt>
      <trkpt lat="44.43389" lon="1.10618">
        <ele>251.210007</ele>
        <time>2009-08-13T06:09:51Z</time>
      </trkpt>
      <trkpt lat="44.43389" lon="1.10616">
        <ele>251.272507</ele>
        <time>2009-08-13T06:10:00Z</time>
      </trkpt>
      <trkpt lat="44.43388" lon="1.10614">
        <ele>251.304993</ele>
        <time>2009-08-13T06:10:06Z</time>
      </trkpt>
      <trkpt lat="44.43387" lon="1.10613">
        <ele>251.333755</ele>
        <time>2009-08-13T06:10:12Z</time>
      </trkpt>
      <trkpt lat="44.43386" lon="1.10612">
        <ele>251.318924</ele>
        <time>2009-08-13T06:10:20Z</time>
      </trkpt>
      <trkpt lat="44.43387" lon="1.10614">
        <ele>251.28949</ele>
        <time>2009-08-13T06:10:52Z</time>
      </trkpt>
      <trkpt lat="44.43386" lon="1.10615">
        <ele>251.222504</ele>
        <time>2009-08-13T06:11:02Z</time>
      </trkpt>
      <trkpt lat="44.43386" lon="1.10617">
        <ele>251.166946</ele>
        <time>2009-08-13T06:11:08Z</time>
      </trkpt>
      <trkpt lat="44.43387" lon="1.10619">
        <ele>251.124084</ele>
        <time>2009-08-13T06:11:13Z</time>
      </trkpt>
      <trkpt lat="44.43389" lon="1.1062">
        <ele>251.128754</ele>
        <time>2009-08-13T06:11:29Z</time>
      </trkpt>
      <trkpt lat="44.43388" lon="1.1062">
        <ele>251.111252</ele>
        <time>2009-08-13T06:11:37Z</time>
      </trkpt>
      <trkpt lat="44.43388" lon="1.10622">
        <ele>251.056259</ele>
        <time>2009-08-13T06:11:42Z</time>
      </trkpt>
      <trkpt lat="44.43387" lon="1.1062">
        <ele>251.098755</ele>
        <time>2009-08-13T06:12:11Z</time>
      </trkpt>
      <trkpt lat="44.43388" lon="1.10622">
        <ele>251.046249</ele>
        <time>2009-08-13T06:12:19Z</time>
      </trkpt>
      <trkpt lat="44.43389" lon="1.10622">
        <ele>251.057495</ele>
        <time>2009-08-13T06:12:37Z</time>
      </trkpt>
      <trkpt lat="44.43389" lon="1.10621">
        <ele>251.117493</ele>
        <time>2009-08-13T06:13:00Z</time>
      </trkpt>
      <trkpt lat="44.4339" lon="1.10619">
        <ele>251.169998</ele>
        <time>2009-08-13T06:13:56Z</time>
      </trkpt>
      <trkpt lat="44.4339" lon="1.10621">
        <ele>251.119995</ele>
        <time>2009-08-13T06:14:27Z</time>
      </trkpt>
      <trkpt lat="44.4339" lon="1.10623">
        <ele>251.072495</ele>
        <time>2009-08-13T06:14:45Z</time>
      </trkpt>
      <trkpt lat="44.43389" lon="1.10623">
        <ele>251.039993</ele>
        <time>2009-08-13T06:15:12Z</time>
      </trkpt>
      <trkpt lat="44.43388" lon="1.10621">
        <ele>251.077499</ele>
        <time>2009-08-13T06:15:30Z</time>
      </trkpt>
      <trkpt lat="44.43389" lon="1.10621">
        <ele>251.09874</ele>
        <time>2009-08-13T06:16:01Z</time>
      </trkpt>
      <trkpt lat="44.4339" lon="1.10623">
        <ele>251.063751</ele>
        <time>2009-08-13T06:16:10Z</time>
      </trkpt>
      <trkpt lat="44.4339" lon="1.10624">
        <ele>251.020004</ele>
        <time>2009-08-13T06:16:20Z</time>
      </trkpt>
      <trkpt lat="44.43389" lon="1.10626">
        <ele>250.948746</ele>
        <time>2009-08-13T06:17:43Z</time>
      </trkpt>
      <trkpt lat="44.43388" lon="1.10626">
        <ele>250.925003</ele>
        <time>2009-08-13T06:18:18Z</time>
      </trkpt>
      <trkpt lat="44.43386" lon="1.10626">
        <ele>250.890411</ele>
        <time>2009-08-13T06:18:58Z</time>
      </trkpt>
      <trkpt lat="44.43385" lon="1.10626">
        <ele>250.851974</ele>
        <time>2009-08-13T06:19:09Z</time>
      </trkpt>
      <trkpt lat="44.43384" lon="1.10626">
        <ele>250.814819</ele>
        <time>2009-08-13T06:19:27Z</time>
      </trkpt>
      <trkpt lat="44.43385" lon="1.10626">
        <ele>250.849426</ele>
        <time>2009-08-13T06:20:38Z</time>
      </trkpt>
      <trkpt lat="44.43387" lon="1.10625">
        <ele>250.904404</ele>
        <time>2009-08-13T06:20:41Z</time>
      </trkpt>
      <trkpt lat="44.43388" lon="1.10625">
        <ele>250.956253</ele>
        <time>2009-08-13T06:20:49Z</time>
      </trkpt>
      <trkpt lat="44.43389" lon="1.10624">
        <ele>250.993744</ele>
        <time>2009-08-13T06:21:04Z</time>
      </trkpt>
      <trkpt lat="44.43389" lon="1.10623">
        <ele>251.053741</ele>
        <time>2009-08-13T06:21:38Z</time>
      </trkpt>
      <trkpt lat="44.43391" lon="1.10622">
        <ele>251.119995</ele>
        <time>2009-08-13T06:22:09Z</time>
      </trkpt>
      <trkpt lat="44.43392" lon="1.10622">
        <ele>251.138748</ele>
        <time>2009-08-13T06:22:16Z</time>
      </trkpt>
      <trkpt lat="44.43393" lon="1.10622">
        <ele>251.168747</ele>
        <time>2009-08-13T06:22:25Z</time>
      </trkpt>
      <trkpt lat="44.43394" lon="1.10622">
        <ele>251.194992</ele>
        <time>2009-08-13T06:22:38Z</time>
      </trkpt>
      <trkpt lat="44.43395" lon="1.10621">
        <ele>251.232498</ele>
        <time>2009-08-13T06:23:23Z</time>
      </trkpt>
      <trkpt lat="44.43394" lon="1.1062">
        <ele>251.257507</ele>
        <time>2009-08-13T06:24:08Z</time>
      </trkpt>
      <trkpt lat="44.43393" lon="1.1062">
        <ele>251.217499</ele>
        <time>2009-08-13T06:24:45Z</time>
      </trkpt>
      <trkpt lat="44.43392" lon="1.10621">
        <ele>251.175003</ele>
        <time>2009-08-13T06:24:57Z</time>
      </trkpt>
      <trkpt lat="44.43391" lon="1.10622">
        <ele>251.126251</ele>
        <time>2009-08-13T06:25:08Z</time>
      </trkpt>
      <trkpt lat="44.4339" lon="1.10622">
        <ele>251.077499</ele>
        <time>2009-08-13T06:25:21Z</time>
      </trkpt>
      <trkpt lat="44.43388" lon="1.10623">
        <ele>251.024994</ele>
        <time>2009-08-13T06:25:37Z</time>
      </trkpt>
      <trkpt lat="44.43387" lon="1.10624">
        <ele>250.967468</ele>
        <time>2009-08-13T06:26:00Z</time>
      </trkpt>
      <trkpt lat="44.43388" lon="1.10623">
        <ele>251.03125</ele>
        <time>2009-08-13T06:26:29Z</time>
      </trkpt>
      <trkpt lat="44.43389" lon="1.10621">
        <ele>251.098755</ele>
        <time>2009-08-13T06:26:45Z</time>
      </trkpt>
      <trkpt lat="44.43389" lon="1.1062">
        <ele>251.158752</ele>
        <time>2009-08-13T06:27:09Z</time>
      </trkpt>
      <trkpt lat="44.43391" lon="1.1062">
        <ele>251.184998</ele>
        <time>2009-08-13T06:27:33Z</time>
      </trkpt>
      <trkpt lat="44.43392" lon="1.10619">
        <ele>251.233749</ele>
        <time>2009-08-13T06:28:21Z</time>
      </trkpt>
      <trkpt lat="44.43393" lon="1.10617">
        <ele>251.298752</ele>
        <time>2009-08-13T06:28:41Z</time>
      </trkpt>
      <trkpt lat="44.43393" lon="1.1062">
        <ele>251.233749</ele>
        <time>2009-08-13T06:28:54Z</time>
      </trkpt>
      <trkpt lat="44.43389" lon="1.1062">
        <ele>251.139999</ele>
        <time>2009-08-13T06:28:57Z</time>
      </trkpt>
      <trkpt lat="44.43384" lon="1.10617">
        <ele>251.121902</ele>
        <time>2009-08-13T06:29:01Z</time>
      </trkpt>
      <trkpt lat="44.43381" lon="1.10621">
        <ele>250.8909</ele>
        <time>2009-08-13T06:29:05Z</time>
      </trkpt>
      <trkpt lat="44.43379" lon="1.10626">
        <ele>250.646652</ele>
        <time>2009-08-13T06:29:09Z</time>
      </trkpt>
      <trkpt lat="44.43378" lon="1.1063">
        <ele>250.442154</ele>
        <time>2009-08-13T06:29:13Z</time>
      </trkpt>
      <trkpt lat="44.43381" lon="1.10631">
        <ele>250.523727</ele>
        <time>2009-08-13T06:29:16Z</time>
      </trkpt>
      <trkpt lat="44.43384" lon="1.10623">
        <ele>250.883743</ele>
        <time>2009-08-13T06:29:20Z</time>
      </trkpt>
      <trkpt lat="44.43389" lon="1.10617">
        <ele>251.247498</ele>
        <time>2009-08-13T06:29:23Z</time>
      </trkpt>
      <trkpt lat="44.43396" lon="1.10608">
        <ele>251.669998</ele>
        <time>2009-08-13T06:29:27Z</time>
      </trkpt>
      <trkpt lat="44.43404" lon="1.10603">
        <ele>252.006256</ele>
        <time>2009-08-13T06:29:30Z</time>
      </trkpt>
      <trkpt lat="44.43414" lon="1.10595">
        <ele>252.5</ele>
        <time>2009-08-13T06:29:35Z</time>
      </trkpt>
      <trkpt lat="44.43424" lon="1.10583">
        <ele>252.938126</ele>
        <time>2009-08-13T06:29:38Z</time>
      </trkpt>
      <trkpt lat="44.4343" lon="1.10575">
        <ele>253.217499</ele>
        <time>2009-08-13T06:29:41Z</time>
      </trkpt>
      <trkpt lat="44.43437" lon="1.10566">
        <ele>253.434692</ele>
        <time>2009-08-13T06:29:44Z</time>
      </trkpt>
      <trkpt lat="44.43444" lon="1.10558">
        <ele>253.667709</ele>
        <time>2009-08-13T06:29:47Z</time>
      </trkpt>
      <trkpt lat="44.43451" lon="1.10549">
        <ele>253.941406</ele>
        <time>2009-08-13T06:29:50Z</time>
      </trkpt>
      <trkpt lat="44.43459" lon="1.10542">
        <ele>254.244568</ele>
        <time>2009-08-13T06:29:53Z</time>
      </trkpt>
      <trkpt lat="44.43467" lon="1.10533">
        <ele>254.612076</ele>
        <time>2009-08-13T06:29:57Z</time>
      </trkpt>
      <trkpt lat="44.43477" lon="1.10521">
        <ele>255.001816</ele>
        <time>2009-08-13T06:30:00Z</time>
      </trkpt>
      <trkpt lat="44.43485" lon="1.10513">
        <ele>255.042511</ele>
        <time>2009-08-13T06:30:03Z</time>
      </trkpt>
      <trkpt lat="44.43492" lon="1.10504">
        <ele>255.129349</ele>
        <time>2009-08-13T06:30:06Z</time>
      </trkpt>
      <trkpt lat="44.435" lon="1.10495">
        <ele>255.262436</ele>
        <time>2009-08-13T06:30:09Z</time>
      </trkpt>
      <trkpt lat="44.43507" lon="1.10487">
        <ele>255.427261</ele>
        <time>2009-08-13T06:30:12Z</time>
      </trkpt>
      <trkpt lat="44.43514" lon="1.10478">
        <ele>255.642929</ele>
        <time>2009-08-13T06:30:15Z</time>
      </trkpt>
      <trkpt lat="44.43521" lon="1.10469">
        <ele>255.921249</ele>
        <time>2009-08-13T06:30:19Z</time>
      </trkpt>
      <trkpt lat="44.43532" lon="1.10456">
        <ele>256.252502</ele>
        <time>2009-08-13T06:30:22Z</time>
      </trkpt>
      <trkpt lat="44.43541" lon="1.10448">
        <ele>256.467499</ele>
        <time>2009-08-13T06:30:25Z</time>
      </trkpt>
      <trkpt lat="44.43552" lon="1.1045">
        <ele>256.704987</ele>
        <time>2009-08-13T06:30:28Z</time>
      </trkpt>
      <trkpt lat="44.43568" lon="1.1046">
        <ele>257</ele>
        <time>2009-08-13T06:30:32Z</time>
      </trkpt>
      <trkpt lat="44.4358" lon="1.1047">
        <ele>256.868744</ele>
        <time>2009-08-13T06:30:35Z</time>
      </trkpt>
      <trkpt lat="44.43593" lon="1.10485">
        <ele>256.636871</ele>
        <time>2009-08-13T06:30:38Z</time>
      </trkpt>
      <trkpt lat="44.43604" lon="1.10504">
        <ele>256.325623</ele>
        <time>2009-08-13T06:30:41Z</time>
      </trkpt>
      <trkpt lat="44.43615" lon="1.10526">
        <ele>256.045624</ele>
        <time>2009-08-13T06:30:44Z</time>
      </trkpt>
      <trkpt lat="44.43625" lon="1.10549">
        <ele>255.88562</ele>
        <time>2009-08-13T06:30:47Z</time>
      </trkpt>
      <trkpt lat="44.43633" lon="1.10573">
        <ele>255.686249</ele>
        <time>2009-08-13T06:30:50Z</time>
      </trkpt>
      <trkpt lat="44.43641" lon="1.10596">
        <ele>255.634644</ele>
        <time>2009-08-13T06:30:53Z</time>
      </trkpt>
      <trkpt lat="44.43648" lon="1.10618">
        <ele>255.983612</ele>
        <time>2009-08-13T06:30:56Z</time>
      </trkpt>
      <trkpt lat="44.43654" lon="1.10638">
        <ele>256.548431</ele>
        <time>2009-08-13T06:30:59Z</time>
      </trkpt>
      <trkpt lat="44.43659" lon="1.10656">
        <ele>257.625</ele>
        <time>2009-08-13T06:31:02Z</time>
      </trkpt>
      <trkpt lat="44.43664" lon="1.10673">
        <ele>259.157501</ele>
        <time>2009-08-13T06:31:05Z</time>
      </trkpt>
      <trkpt lat="44.43669" lon="1.1069">
        <ele>260.605011</ele>
        <time>2009-08-13T06:31:08Z</time>
      </trkpt>
      <trkpt lat="44.43674" lon="1.10705">
        <ele>262.017517</ele>
        <time>2009-08-13T06:31:11Z</time>
      </trkpt>
      <trkpt lat="44.43678" lon="1.1072">
        <ele>263.100677</ele>
        <time>2009-08-13T06:31:14Z</time>
      </trkpt>
      <trkpt lat="44.43682" lon="1.10734">
        <ele>264.026581</ele>
        <time>2009-08-13T06:31:17Z</time>
      </trkpt>
      <trkpt lat="44.43691" lon="1.10747">
        <ele>265.210938</ele>
        <time>2009-08-13T06:31:21Z</time>
      </trkpt>
      <trkpt lat="44.437" lon="1.10755">
        <ele>266.165924</ele>
        <time>2009-08-13T06:31:25Z</time>
      </trkpt>
      <trkpt lat="44.43707" lon="1.1076">
        <ele>266.68399</ele>
        <time>2009-08-13T06:31:28Z</time>
      </trkpt>
      <trkpt lat="44.43714" lon="1.10765">
        <ele>267.007568</ele>
        <time>2009-08-13T06:31:31Z</time>
      </trkpt>
      <trkpt lat="44.43721" lon="1.1077">
        <ele>267.309418</ele>
        <time>2009-08-13T06:31:34Z</time>
      </trkpt>
      <trkpt lat="44.43728" lon="1.10775">
        <ele>267.486633</ele>
        <time>2009-08-13T06:31:37Z</time>
      </trkpt>
      <trkpt lat="44.43735" lon="1.10782">
        <ele>267.495239</ele>
        <time>2009-08-13T06:31:40Z</time>
      </trkpt>
      <trkpt lat="44.43744" lon="1.10788">
        <ele>267.451843</ele>
        <time>2009-08-13T06:31:43Z</time>
      </trkpt>
      <trkpt lat="44.43753" lon="1.10793">
        <ele>267.359406</ele>
        <time>2009-08-13T06:31:46Z</time>
      </trkpt>
      <trkpt lat="44.43761" lon="1.10796">
        <ele>267.282104</ele>
        <time>2009-08-13T06:31:49Z</time>
      </trkpt>
      <trkpt lat="44.43769" lon="1.108">
        <ele>267.149933</ele>
        <time>2009-08-13T06:31:52Z</time>
      </trkpt>
      <trkpt lat="44.43777" lon="1.10804">
        <ele>266.957275</ele>
        <time>2009-08-13T06:31:55Z</time>
      </trkpt>
      <trkpt lat="44.43785" lon="1.10808">
        <ele>266.724731</ele>
        <time>2009-08-13T06:31:58Z</time>
      </trkpt>
      <trkpt lat="44.43794" lon="1.10812">
        <ele>266.382507</ele>
        <time>2009-08-13T06:32:01Z</time>
      </trkpt>
      <trkpt lat="44.43803" lon="1.10816">
        <ele>266.127502</ele>
        <time>2009-08-13T06:32:04Z</time>
      </trkpt>
      <trkpt lat="44.43813" lon="1.1082">
        <ele>265.847504</ele>
        <time>2009-08-13T06:32:07Z</time>
      </trkpt>
      <trkpt lat="44.43822" lon="1.10824">
        <ele>265.609985</ele>
        <time>2009-08-13T06:32:10Z</time>
      </trkpt>
      <trkpt lat="44.43834" lon="1.10828">
        <ele>265.320007</ele>
        <time>2009-08-13T06:32:13Z</time>
      </trkpt>
      <trkpt lat="44.43845" lon="1.1083">
        <ele>265.077484</ele>
        <time>2009-08-13T06:32:16Z</time>
      </trkpt>
      <trkpt lat="44.43858" lon="1.1083">
        <ele>264.774994</ele>
        <time>2009-08-13T06:32:19Z</time>
      </trkpt>
      <trkpt lat="44.43872" lon="1.10831">
        <ele>264.337494</ele>
        <time>2009-08-13T06:32:22Z</time>
      </trkpt>
      <trkpt lat="44.43885" lon="1.10832">
        <ele>263.975006</ele>
        <time>2009-08-13T06:32:25Z</time>
      </trkpt>
      <trkpt lat="44.43897" lon="1.10833">
        <ele>263.94751</ele>
        <time>2009-08-13T06:32:28Z</time>
      </trkpt>
      <trkpt lat="44.43907" lon="1.10832">
        <ele>263.994995</ele>
        <time>2009-08-13T06:32:31Z</time>
      </trkpt>
      <trkpt lat="44.43919" lon="1.10829">
        <ele>264.076263</ele>
        <time>2009-08-13T06:32:34Z</time>
      </trkpt>
      <trkpt lat="44.43931" lon="1.10828">
        <ele>263.992493</ele>
        <time>2009-08-13T06:32:37Z</time>
      </trkpt>
      <trkpt lat="44.43945" lon="1.10828">
        <ele>263.418762</ele>
        <time>2009-08-13T06:32:40Z</time>
      </trkpt>
      <trkpt lat="44.43958" lon="1.10827">
        <ele>262.831238</ele>
        <time>2009-08-13T06:32:43Z</time>
      </trkpt>
      <trkpt lat="44.43973" lon="1.10824">
        <ele>262.241241</ele>
        <time>2009-08-13T06:32:46Z</time>
      </trkpt>
      <trkpt lat="44.43987" lon="1.10823">
        <ele>262.146179</ele>
        <time>2009-08-13T06:32:49Z</time>
      </trkpt>
      <trkpt lat="44.44001" lon="1.10823">
        <ele>262.080963</ele>
        <time>2009-08-13T06:32:52Z</time>
      </trkpt>
      <trkpt lat="44.44015" lon="1.10826">
        <ele>262.011078</ele>
        <time>2009-08-13T06:32:55Z</time>
      </trkpt>
      <trkpt lat="44.44028" lon="1.10828">
        <ele>262</ele>
        <time>2009-08-13T06:32:58Z</time>
      </trkpt>
      <trkpt lat="44.44041" lon="1.10833">
        <ele>261.827606</ele>
        <time>2009-08-13T06:33:01Z</time>
      </trkpt>
      <trkpt lat="44.44053" lon="1.10836">
        <ele>261.740417</ele>
        <time>2009-08-13T06:33:04Z</time>
      </trkpt>
      <trkpt lat="44.44064" lon="1.10838">
        <ele>261.69751</ele>
        <time>2009-08-13T06:33:07Z</time>
      </trkpt>
      <trkpt lat="44.44074" lon="1.10838">
        <ele>261.665009</ele>
        <time>2009-08-13T06:33:10Z</time>
      </trkpt>
      <trkpt lat="44.44086" lon="1.1084">
        <ele>261.596252</ele>
        <time>2009-08-13T06:33:13Z</time>
      </trkpt>
      <trkpt lat="44.44099" lon="1.10844">
        <ele>261.482513</ele>
        <time>2009-08-13T06:33:16Z</time>
      </trkpt>
      <trkpt lat="44.44112" lon="1.10846">
        <ele>261.399994</ele>
        <time>2009-08-13T06:33:19Z</time>
      </trkpt>
      <trkpt lat="44.44124" lon="1.10846">
        <ele>261.391235</ele>
        <time>2009-08-13T06:33:22Z</time>
      </trkpt>
      <trkpt lat="44.44138" lon="1.10848">
        <ele>261.304993</ele>
        <time>2009-08-13T06:33:25Z</time>
      </trkpt>
      <trkpt lat="44.44151" lon="1.1085">
        <ele>261.255005</ele>
        <time>2009-08-13T06:33:28Z</time>
      </trkpt>
      <trkpt lat="44.44167" lon="1.10852">
        <ele>261.179993</ele>
        <time>2009-08-13T06:33:31Z</time>
      </trkpt>
      <trkpt lat="44.44181" lon="1.10856">
        <ele>261.042511</ele>
        <time>2009-08-13T06:33:34Z</time>
      </trkpt>
      <trkpt lat="44.44193" lon="1.1086">
        <ele>260.90625</ele>
        <time>2009-08-13T06:33:37Z</time>
      </trkpt>
      <trkpt lat="44.44205" lon="1.10865">
        <ele>260.756226</ele>
        <time>2009-08-13T06:33:40Z</time>
      </trkpt>
      <trkpt lat="44.44215" lon="1.10871">
        <ele>260.682373</ele>
        <time>2009-08-13T06:33:43Z</time>
      </trkpt>
      <trkpt lat="44.44225" lon="1.1088">
        <ele>260.660461</ele>
        <time>2009-08-13T06:33:46Z</time>
      </trkpt>
      <trkpt lat="44.44238" lon="1.10895">
        <ele>260.591248</ele>
        <time>2009-08-13T06:33:49Z</time>
      </trkpt>
      <trkpt lat="44.44247" lon="1.10906">
        <ele>260.387512</ele>
        <time>2009-08-13T06:33:52Z</time>
      </trkpt>
      <trkpt lat="44.44255" lon="1.10919">
        <ele>259.983765</ele>
        <time>2009-08-13T06:33:55Z</time>
      </trkpt>
      <trkpt lat="44.44262" lon="1.10932">
        <ele>259.538757</ele>
        <time>2009-08-13T06:33:58Z</time>
      </trkpt>
      <trkpt lat="44.44268" lon="1.10949">
        <ele>258.993774</ele>
        <time>2009-08-13T06:34:01Z</time>
      </trkpt>
      <trkpt lat="44.44275" lon="1.10966">
        <ele>258.626221</ele>
        <time>2009-08-13T06:34:04Z</time>
      </trkpt>
      <trkpt lat="44.44284" lon="1.1098">
        <ele>258.68924</ele>
        <time>2009-08-13T06:34:07Z</time>
      </trkpt>
      <trkpt lat="44.44297" lon="1.10995">
        <ele>259.1026</ele>
        <time>2009-08-13T06:34:11Z</time>
      </trkpt>
      <trkpt lat="44.44309" lon="1.11006">
        <ele>259.357819</ele>
        <time>2009-08-13T06:34:14Z</time>
      </trkpt>
      <trkpt lat="44.44322" lon="1.11017">
        <ele>259.743225</ele>
        <time>2009-08-13T06:34:17Z</time>
      </trkpt>
      <trkpt lat="44.44336" lon="1.11027">
        <ele>259.99881</ele>
        <time>2009-08-13T06:34:20Z</time>
      </trkpt>
      <trkpt lat="44.44351" lon="1.11034">
        <ele>259.665009</ele>
        <time>2009-08-13T06:34:23Z</time>
      </trkpt>
      <trkpt lat="44.44367" lon="1.11038">
        <ele>259.309998</ele>
        <time>2009-08-13T06:34:27Z</time>
      </trkpt>
      <trkpt lat="44.44383" lon="1.11039">
        <ele>258.945007</ele>
        <time>2009-08-13T06:34:30Z</time>
      </trkpt>
      <trkpt lat="44.44403" lon="1.11039">
        <ele>258.024994</ele>
        <time>2009-08-13T06:34:33Z</time>
      </trkpt>
      <trkpt lat="44.44419" lon="1.1104">
        <ele>257.334991</ele>
        <time>2009-08-13T06:34:36Z</time>
      </trkpt>
      <trkpt lat="44.44434" lon="1.11041">
        <ele>256.762695</ele>
        <time>2009-08-13T06:34:39Z</time>
      </trkpt>
      <trkpt lat="44.44449" lon="1.1104">
        <ele>256.245667</ele>
        <time>2009-08-13T06:34:42Z</time>
      </trkpt>
      <trkpt lat="44.44466" lon="1.11039">
        <ele>255.68869</ele>
        <time>2009-08-13T06:34:45Z</time>
      </trkpt>
      <trkpt lat="44.44483" lon="1.1104">
        <ele>254.985001</ele>
        <time>2009-08-13T06:34:48Z</time>
      </trkpt>
      <trkpt lat="44.445" lon="1.11041">
        <ele>254.268127</ele>
        <time>2009-08-13T06:34:51Z</time>
      </trkpt>
      <trkpt lat="44.44517" lon="1.11042">
        <ele>253.53688</ele>
        <time>2009-08-13T06:34:54Z</time>
      </trkpt>
      <trkpt lat="44.44533" lon="1.11042">
        <ele>252.821869</ele>
        <time>2009-08-13T06:34:57Z</time>
      </trkpt>
      <trkpt lat="44.4455" lon="1.11044">
        <ele>252.126251</ele>
        <time>2009-08-13T06:35:00Z</time>
      </trkpt>
      <trkpt lat="44.44567" lon="1.11046">
        <ele>251.59903</ele>
        <time>2009-08-13T06:35:03Z</time>
      </trkpt>
      <trkpt lat="44.44585" lon="1.11048">
        <ele>251.530518</ele>
        <time>2009-08-13T06:35:06Z</time>
      </trkpt>
      <trkpt lat="44.44602" lon="1.11049">
        <ele>251.449463</ele>
        <time>2009-08-13T06:35:09Z</time>
      </trkpt>
      <trkpt lat="44.4462" lon="1.1105">
        <ele>251.443756</ele>
        <time>2009-08-13T06:35:13Z</time>
      </trkpt>
      <trkpt lat="44.44644" lon="1.11049">
        <ele>251.449997</ele>
        <time>2009-08-13T06:35:16Z</time>
      </trkpt>
      <trkpt lat="44.4466" lon="1.11048">
        <ele>251.433746</ele>
        <time>2009-08-13T06:35:19Z</time>
      </trkpt>
      <trkpt lat="44.44672" lon="1.11048">
        <ele>251.425003</ele>
        <time>2009-08-13T06:35:22Z</time>
      </trkpt>
      <trkpt lat="44.44682" lon="1.11046">
        <ele>251.381256</ele>
        <time>2009-08-13T06:35:25Z</time>
      </trkpt>
      <trkpt lat="44.44694" lon="1.11044">
        <ele>251.309998</ele>
        <time>2009-08-13T06:35:28Z</time>
      </trkpt>
      <trkpt lat="44.44707" lon="1.11043">
        <ele>251.061249</ele>
        <time>2009-08-13T06:35:31Z</time>
      </trkpt>
      <trkpt lat="44.44721" lon="1.11046">
        <ele>250.838745</ele>
        <time>2009-08-13T06:35:34Z</time>
      </trkpt>
      <trkpt lat="44.44735" lon="1.11048">
        <ele>250.603745</ele>
        <time>2009-08-13T06:35:37Z</time>
      </trkpt>
      <trkpt lat="44.44749" lon="1.11049">
        <ele>250.388885</ele>
        <time>2009-08-13T06:35:41Z</time>
      </trkpt>
      <trkpt lat="44.4477" lon="1.11052">
        <ele>250.110764</ele>
        <time>2009-08-13T06:35:44Z</time>
      </trkpt>
      <trkpt lat="44.44786" lon="1.11055">
        <ele>249.863754</ele>
        <time>2009-08-13T06:35:47Z</time>
      </trkpt>
      <trkpt lat="44.44803" lon="1.11056">
        <ele>248.758743</ele>
        <time>2009-08-13T06:35:50Z</time>
      </trkpt>
      <trkpt lat="44.4482" lon="1.11055">
        <ele>247.594376</ele>
        <time>2009-08-13T06:35:53Z</time>
      </trkpt>
      <trkpt lat="44.44837" lon="1.11053">
        <ele>246.672119</ele>
        <time>2009-08-13T06:35:56Z</time>
      </trkpt>
      <trkpt lat="44.44854" lon="1.11051">
        <ele>246.133972</ele>
        <time>2009-08-13T06:35:59Z</time>
      </trkpt>
      <trkpt lat="44.44871" lon="1.11049">
        <ele>245.545486</ele>
        <time>2009-08-13T06:36:03Z</time>
      </trkpt>
      <trkpt lat="44.44893" lon="1.11048">
        <ele>245.392502</ele>
        <time>2009-08-13T06:36:06Z</time>
      </trkpt>
      <trkpt lat="44.44908" lon="1.11052">
        <ele>245.595001</ele>
        <time>2009-08-13T06:36:09Z</time>
      </trkpt>
      <trkpt lat="44.44924" lon="1.11056">
        <ele>245.907806</ele>
        <time>2009-08-13T06:36:12Z</time>
      </trkpt>
      <trkpt lat="44.44939" lon="1.1106">
        <ele>246.760071</ele>
        <time>2009-08-13T06:36:15Z</time>
      </trkpt>
      <trkpt lat="44.44954" lon="1.11062">
        <ele>247.390549</ele>
        <time>2009-08-13T06:36:18Z</time>
      </trkpt>
      <trkpt lat="44.44969" lon="1.11062">
        <ele>248.041245</ele>
        <time>2009-08-13T06:36:22Z</time>
      </trkpt>
      <trkpt lat="44.44988" lon="1.11062">
        <ele>248.861252</ele>
        <time>2009-08-13T06:36:25Z</time>
      </trkpt>
      <trkpt lat="44.45002" lon="1.11062">
        <ele>249.485001</ele>
        <time>2009-08-13T06:36:28Z</time>
      </trkpt>
      <trkpt lat="44.45015" lon="1.11063">
        <ele>249.951248</ele>
        <time>2009-08-13T06:36:31Z</time>
      </trkpt>
      <trkpt lat="44.45028" lon="1.11066">
        <ele>250.128754</ele>
        <time>2009-08-13T06:36:34Z</time>
      </trkpt>
      <trkpt lat="44.45039" lon="1.11069">
        <ele>250.261246</ele>
        <time>2009-08-13T06:36:37Z</time>
      </trkpt>
      <trkpt lat="44.4505" lon="1.11065">
        <ele>250.643753</ele>
        <time>2009-08-13T06:36:41Z</time>
      </trkpt>
      <trkpt lat="44.45051" lon="1.11056">
        <ele>250.903259</ele>
        <time>2009-08-13T06:36:44Z</time>
      </trkpt>
      <trkpt lat="44.45054" lon="1.11045">
        <ele>251.142426</ele>
        <time>2009-08-13T06:36:47Z</time>
      </trkpt>
      <trkpt lat="44.45059" lon="1.11028">
        <ele>251.503723</ele>
        <time>2009-08-13T06:36:51Z</time>
      </trkpt>
      <trkpt lat="44.45063" lon="1.11013">
        <ele>251.833206</ele>
        <time>2009-08-13T06:36:54Z</time>
      </trkpt>
      <trkpt lat="44.45069" lon="1.10998">
        <ele>252.233429</ele>
        <time>2009-08-13T06:36:57Z</time>
      </trkpt>
      <trkpt lat="44.45075" lon="1.10983">
        <ele>252.404846</ele>
        <time>2009-08-13T06:37:00Z</time>
      </trkpt>
      <trkpt lat="44.45084" lon="1.10971">
        <ele>252.875381</ele>
        <time>2009-08-13T06:37:03Z</time>
      </trkpt>
      <trkpt lat="44.45094" lon="1.1096">
        <ele>253.65184</ele>
        <time>2009-08-13T06:37:06Z</time>
      </trkpt>
      <trkpt lat="44.45102" lon="1.10948">
        <ele>254.491379</ele>
        <time>2009-08-13T06:37:09Z</time>
      </trkpt>
      <trkpt lat="44.4511" lon="1.10936">
        <ele>255.056732</ele>
        <time>2009-08-13T06:37:12Z</time>
      </trkpt>
      <trkpt lat="44.45115" lon="1.10924">
        <ele>255.39238</ele>
        <time>2009-08-13T06:37:15Z</time>
      </trkpt>
      <trkpt lat="44.45121" lon="1.10912">
        <ele>255.613342</ele>
        <time>2009-08-13T06:37:18Z</time>
      </trkpt>
      <trkpt lat="44.45128" lon="1.10893">
        <ele>256.035583</ele>
        <time>2009-08-13T06:37:23Z</time>
      </trkpt>
      <trkpt lat="44.45132" lon="1.10882">
        <ele>256.304443</ele>
        <time>2009-08-13T06:37:26Z</time>
      </trkpt>
      <trkpt lat="44.45136" lon="1.10872">
        <ele>256.595856</ele>
        <time>2009-08-13T06:37:29Z</time>
      </trkpt>
      <trkpt lat="44.4514" lon="1.10861">
        <ele>256.781311</ele>
        <time>2009-08-13T06:37:32Z</time>
      </trkpt>
      <trkpt lat="44.45143" lon="1.10852">
        <ele>256.972809</ele>
        <time>2009-08-13T06:37:35Z</time>
      </trkpt>
      <trkpt lat="44.45147" lon="1.10845">
        <ele>257.074799</ele>
        <time>2009-08-13T06:37:38Z</time>
      </trkpt>
      <trkpt lat="44.45151" lon="1.10839">
        <ele>257.216888</ele>
        <time>2009-08-13T06:37:41Z</time>
      </trkpt>
      <trkpt lat="44.45155" lon="1.10833">
        <ele>257.403595</ele>
        <time>2009-08-13T06:37:44Z</time>
      </trkpt>
      <trkpt lat="44.45158" lon="1.10828">
        <ele>257.616272</ele>
        <time>2009-08-13T06:37:47Z</time>
      </trkpt>
      <trkpt lat="44.45162" lon="1.10823">
        <ele>257.847351</ele>
        <time>2009-08-13T06:37:50Z</time>
      </trkpt>
      <trkpt lat="44.45165" lon="1.10819">
        <ele>258.112427</ele>
        <time>2009-08-13T06:37:53Z</time>
      </trkpt>
      <trkpt lat="44.45169" lon="1.10815">
        <ele>258.408813</ele>
        <time>2009-08-13T06:37:56Z</time>
      </trkpt>
      <trkpt lat="44.45174" lon="1.1081">
        <ele>258.84021</ele>
        <time>2009-08-13T06:38:00Z</time>
      </trkpt>
      <trkpt lat="44.45178" lon="1.10805">
        <ele>259.250793</ele>
        <time>2009-08-13T06:38:03Z</time>
      </trkpt>
      <trkpt lat="44.45182" lon="1.10802">
        <ele>259.586731</ele>
        <time>2009-08-13T06:38:06Z</time>
      </trkpt>
      <trkpt lat="44.45186" lon="1.10797">
        <ele>259.979462</ele>
        <time>2009-08-13T06:38:10Z</time>
      </trkpt>
      <trkpt lat="44.4519" lon="1.1079">
        <ele>260.240997</ele>
        <time>2009-08-13T06:38:14Z</time>
      </trkpt>
      <trkpt lat="44.45192" lon="1.10784">
        <ele>260.388031</ele>
        <time>2009-08-13T06:38:17Z</time>
      </trkpt>
      <trkpt lat="44.45195" lon="1.10777">
        <ele>260.607056</ele>
        <time>2009-08-13T06:38:21Z</time>
      </trkpt>
      <trkpt lat="44.45197" lon="1.10773">
        <ele>260.783997</ele>
        <time>2009-08-13T06:38:24Z</time>
      </trkpt>
      <trkpt lat="44.452" lon="1.10767">
        <ele>261.075256</ele>
        <time>2009-08-13T06:38:28Z</time>
      </trkpt>
      <trkpt lat="44.45201" lon="1.10761">
        <ele>261.277069</ele>
        <time>2009-08-13T06:38:31Z</time>
      </trkpt>
      <trkpt lat="44.45202" lon="1.10755">
        <ele>261.481262</ele>
        <time>2009-08-13T06:38:35Z</time>
      </trkpt>
      <trkpt lat="44.452" lon="1.10749">
        <ele>261.563049</ele>
        <time>2009-08-13T06:38:39Z</time>
      </trkpt>
      <trkpt lat="44.45197" lon="1.1074">
        <ele>261.652496</ele>
        <time>2009-08-13T06:38:42Z</time>
      </trkpt>
      <trkpt lat="44.45195" lon="1.10732">
        <ele>261.391876</ele>
        <time>2009-08-13T06:38:45Z</time>
      </trkpt>
      <trkpt lat="44.45188" lon="1.10718">
        <ele>260.683746</ele>
        <time>2009-08-13T06:38:49Z</time>
      </trkpt>
      <trkpt lat="44.4518" lon="1.10704">
        <ele>259.638123</ele>
        <time>2009-08-13T06:38:52Z</time>
      </trkpt>
      <trkpt lat="44.45172" lon="1.10685">
        <ele>258.475006</ele>
        <time>2009-08-13T06:38:55Z</time>
      </trkpt>
      <trkpt lat="44.45162" lon="1.10659">
        <ele>256.308136</ele>
        <time>2009-08-13T06:38:58Z</time>
      </trkpt>
      <trkpt lat="44.45149" lon="1.10628">
        <ele>253.410629</ele>
        <time>2009-08-13T06:39:01Z</time>
      </trkpt>
      <trkpt lat="44.45137" lon="1.10597">
        <ele>250.694382</ele>
        <time>2009-08-13T06:39:04Z</time>
      </trkpt>
      <trkpt lat="44.45128" lon="1.10573">
        <ele>248.47438</ele>
        <time>2009-08-13T06:39:07Z</time>
      </trkpt>
      <trkpt lat="44.45119" lon="1.1055">
        <ele>246.585785</ele>
        <time>2009-08-13T06:39:10Z</time>
      </trkpt>
      <trkpt lat="44.45119" lon="1.1051">
        <ele>245.613174</ele>
        <time>2009-08-13T06:39:14Z</time>
      </trkpt>
      <trkpt lat="44.45119" lon="1.10481">
        <ele>245.065338</ele>
        <time>2009-08-13T06:39:17Z</time>
      </trkpt>
      <trkpt lat="44.45117" lon="1.10456">
        <ele>244.753128</ele>
        <time>2009-08-13T06:39:20Z</time>
      </trkpt>
      <trkpt lat="44.45118" lon="1.10425">
        <ele>244.514954</ele>
        <time>2009-08-13T06:39:24Z</time>
      </trkpt>
      <trkpt lat="44.4512" lon="1.10404">
        <ele>244.162125</ele>
        <time>2009-08-13T06:39:27Z</time>
      </trkpt>
      <trkpt lat="44.45122" lon="1.10381">
        <ele>243.912766</ele>
        <time>2009-08-13T06:39:30Z</time>
      </trkpt>
      <trkpt lat="44.45126" lon="1.10358">
        <ele>243.744492</ele>
        <time>2009-08-13T06:39:33Z</time>
      </trkpt>
      <trkpt lat="44.45131" lon="1.10334">
        <ele>243.569229</ele>
        <time>2009-08-13T06:39:36Z</time>
      </trkpt>
      <trkpt lat="44.45138" lon="1.10311">
        <ele>243.264679</ele>
        <time>2009-08-13T06:39:39Z</time>
      </trkpt>
      <trkpt lat="44.45146" lon="1.10287">
        <ele>242.840424</ele>
        <time>2009-08-13T06:39:42Z</time>
      </trkpt>
      <trkpt lat="44.45153" lon="1.10263">
        <ele>242.246964</ele>
        <time>2009-08-13T06:39:45Z</time>
      </trkpt>
      <trkpt lat="44.4516" lon="1.10238">
        <ele>241.452957</ele>
        <time>2009-08-13T06:39:48Z</time>
      </trkpt>
      <trkpt lat="44.45169" lon="1.10211">
        <ele>240.265106</ele>
        <time>2009-08-13T06:39:51Z</time>
      </trkpt>
      <trkpt lat="44.45181" lon="1.10182">
        <ele>239.257553</ele>
        <time>2009-08-13T06:39:54Z</time>
      </trkpt>
      <trkpt lat="44.45194" lon="1.10151">
        <ele>237.567215</ele>
        <time>2009-08-13T06:39:57Z</time>
      </trkpt>
      <trkpt lat="44.45209" lon="1.10119">
        <ele>235.990555</ele>
        <time>2009-08-13T06:40:00Z</time>
      </trkpt>
      <trkpt lat="44.45225" lon="1.10087">
        <ele>234.772507</ele>
        <time>2009-08-13T06:40:03Z</time>
      </trkpt>
      <trkpt lat="44.45245" lon="1.10057">
        <ele>234.209488</ele>
        <time>2009-08-13T06:40:06Z</time>
      </trkpt>
      <trkpt lat="44.45268" lon="1.10036">
        <ele>234.544739</ele>
        <time>2009-08-13T06:40:09Z</time>
      </trkpt>
      <trkpt lat="44.45289" lon="1.10032">
        <ele>235.9375</ele>
        <time>2009-08-13T06:40:12Z</time>
      </trkpt>
      <trkpt lat="44.45305" lon="1.10029">
        <ele>237.049744</ele>
        <time>2009-08-13T06:40:15Z</time>
      </trkpt>
      <trkpt lat="44.45317" lon="1.10028">
        <ele>237.91275</ele>
        <time>2009-08-13T06:40:18Z</time>
      </trkpt>
      <trkpt lat="44.45326" lon="1.10027">
        <ele>238.512817</ele>
        <time>2009-08-13T06:40:21Z</time>
      </trkpt>
      <trkpt lat="44.45333" lon="1.10028">
        <ele>239.080933</ele>
        <time>2009-08-13T06:40:24Z</time>
      </trkpt>
      <trkpt lat="44.4534" lon="1.10026">
        <ele>239.592804</ele>
        <time>2009-08-13T06:40:27Z</time>
      </trkpt>
      <trkpt lat="44.45347" lon="1.10025">
        <ele>240.106384</ele>
        <time>2009-08-13T06:40:30Z</time>
      </trkpt>
      <trkpt lat="44.45354" lon="1.10025">
        <ele>240.614822</ele>
        <time>2009-08-13T06:40:33Z</time>
      </trkpt>
      <trkpt lat="44.45361" lon="1.10024">
        <ele>241.032501</ele>
        <time>2009-08-13T06:40:36Z</time>
      </trkpt>
      <trkpt lat="44.45367" lon="1.10023">
        <ele>241.162506</ele>
        <time>2009-08-13T06:40:39Z</time>
      </trkpt>
      <trkpt lat="44.45373" lon="1.10023">
        <ele>241.294998</ele>
        <time>2009-08-13T06:40:42Z</time>
      </trkpt>
      <trkpt lat="44.45384" lon="1.10023">
        <ele>241.539993</ele>
        <time>2009-08-13T06:40:47Z</time>
      </trkpt>
      <trkpt lat="44.45392" lon="1.1002">
        <ele>241.729996</ele>
        <time>2009-08-13T06:40:51Z</time>
      </trkpt>
      <trkpt lat="44.45397" lon="1.10018">
        <ele>241.850006</ele>
        <time>2009-08-13T06:40:54Z</time>
      </trkpt>
      <trkpt lat="44.45403" lon="1.10015">
        <ele>241.979996</ele>
        <time>2009-08-13T06:40:57Z</time>
      </trkpt>
      <trkpt lat="44.45409" lon="1.10013">
        <ele>242.051682</ele>
        <time>2009-08-13T06:41:00Z</time>
      </trkpt>
      <trkpt lat="44.45415" lon="1.10012">
        <ele>242.098755</ele>
        <time>2009-08-13T06:41:03Z</time>
      </trkpt>
      <trkpt lat="44.45422" lon="1.10011">
        <ele>242.154083</ele>
        <time>2009-08-13T06:41:06Z</time>
      </trkpt>
      <trkpt lat="44.4543" lon="1.10009">
        <ele>242.16748</ele>
        <time>2009-08-13T06:41:09Z</time>
      </trkpt>
      <trkpt lat="44.45438" lon="1.10007">
        <ele>242.16037</ele>
        <time>2009-08-13T06:41:12Z</time>
      </trkpt>
      <trkpt lat="44.45447" lon="1.10005">
        <ele>242.112503</ele>
        <time>2009-08-13T06:41:15Z</time>
      </trkpt>
      <trkpt lat="44.45458" lon="1.10002">
        <ele>242.276001</ele>
        <time>2009-08-13T06:41:18Z</time>
      </trkpt>
      <trkpt lat="44.45469" lon="1.09996">
        <ele>242.242264</ele>
        <time>2009-08-13T06:41:21Z</time>
      </trkpt>
      <trkpt lat="44.4548" lon="1.09989">
        <ele>242.151428</ele>
        <time>2009-08-13T06:41:24Z</time>
      </trkpt>
      <trkpt lat="44.45493" lon="1.0998">
        <ele>241.97258</ele>
        <time>2009-08-13T06:41:27Z</time>
      </trkpt>
      <trkpt lat="44.45505" lon="1.09973">
        <ele>242.233124</ele>
        <time>2009-08-13T06:41:30Z</time>
      </trkpt>
      <trkpt lat="44.45516" lon="1.09966">
        <ele>242.490479</ele>
        <time>2009-08-13T06:41:33Z</time>
      </trkpt>
      <trkpt lat="44.45526" lon="1.09961">
        <ele>242.789581</ele>
        <time>2009-08-13T06:41:36Z</time>
      </trkpt>
      <trkpt lat="44.45537" lon="1.09954">
        <ele>242.875137</ele>
        <time>2009-08-13T06:41:39Z</time>
      </trkpt>
      <trkpt lat="44.45548" lon="1.09945">
        <ele>242.78653</ele>
        <time>2009-08-13T06:41:42Z</time>
      </trkpt>
      <trkpt lat="44.4556" lon="1.09936">
        <ele>242.693054</ele>
        <time>2009-08-13T06:41:45Z</time>
      </trkpt>
      <trkpt lat="44.45571" lon="1.09928">
        <ele>242.54361</ele>
        <time>2009-08-13T06:41:48Z</time>
      </trkpt>
      <trkpt lat="44.45583" lon="1.0992">
        <ele>242.421066</ele>
        <time>2009-08-13T06:41:51Z</time>
      </trkpt>
      <trkpt lat="44.45595" lon="1.09913">
        <ele>242.323257</ele>
        <time>2009-08-13T06:41:54Z</time>
      </trkpt>
      <trkpt lat="44.45606" lon="1.09905">
        <ele>242.369125</ele>
        <time>2009-08-13T06:41:57Z</time>
      </trkpt>
      <trkpt lat="44.45617" lon="1.09897">
        <ele>242.553894</ele>
        <time>2009-08-13T06:42:00Z</time>
      </trkpt>
      <trkpt lat="44.45628" lon="1.0989">
        <ele>242.795822</ele>
        <time>2009-08-13T06:42:03Z</time>
      </trkpt>
      <trkpt lat="44.45639" lon="1.0988">
        <ele>242.491287</ele>
        <time>2009-08-13T06:42:06Z</time>
      </trkpt>
      <trkpt lat="44.45648" lon="1.09871">
        <ele>242.247681</ele>
        <time>2009-08-13T06:42:09Z</time>
      </trkpt>
      <trkpt lat="44.45659" lon="1.09862">
        <ele>242.068771</ele>
        <time>2009-08-13T06:42:12Z</time>
      </trkpt>
      <trkpt lat="44.45668" lon="1.09851">
        <ele>241.890121</ele>
        <time>2009-08-13T06:42:15Z</time>
      </trkpt>
      <trkpt lat="44.45677" lon="1.09842">
        <ele>241.599564</ele>
        <time>2009-08-13T06:42:18Z</time>
      </trkpt>
      <trkpt lat="44.45689" lon="1.09829">
        <ele>241.372955</ele>
        <time>2009-08-13T06:42:22Z</time>
      </trkpt>
      <trkpt lat="44.45699" lon="1.09823">
        <ele>241.49324</ele>
        <time>2009-08-13T06:42:25Z</time>
      </trkpt>
      <trkpt lat="44.45713" lon="1.09815">
        <ele>241.87915</ele>
        <time>2009-08-13T06:42:29Z</time>
      </trkpt>
      <trkpt lat="44.45725" lon="1.0981">
        <ele>241.558197</ele>
        <time>2009-08-13T06:42:32Z</time>
      </trkpt>
      <trkpt lat="44.45736" lon="1.09804">
        <ele>241.002304</ele>
        <time>2009-08-13T06:42:35Z</time>
      </trkpt>
      <trkpt lat="44.45748" lon="1.09798">
        <ele>240.489914</ele>
        <time>2009-08-13T06:42:38Z</time>
      </trkpt>
      <trkpt lat="44.4576" lon="1.09792">
        <ele>239.965912</ele>
        <time>2009-08-13T06:42:41Z</time>
      </trkpt>
      <trkpt lat="44.45774" lon="1.09785">
        <ele>239.410553</ele>
        <time>2009-08-13T06:42:44Z</time>
      </trkpt>
      <trkpt lat="44.45788" lon="1.09777">
        <ele>238.615662</ele>
        <time>2009-08-13T06:42:47Z</time>
      </trkpt>
      <trkpt lat="44.45804" lon="1.09771">
        <ele>237.844696</ele>
        <time>2009-08-13T06:42:50Z</time>
      </trkpt>
      <trkpt lat="44.45822" lon="1.09765">
        <ele>236.99437</ele>
        <time>2009-08-13T06:42:53Z</time>
      </trkpt>
      <trkpt lat="44.45839" lon="1.09757">
        <ele>236.081879</ele>
        <time>2009-08-13T06:42:56Z</time>
      </trkpt>
      <trkpt lat="44.45854" lon="1.09747">
        <ele>235.280624</ele>
        <time>2009-08-13T06:42:59Z</time>
      </trkpt>
      <trkpt lat="44.45866" lon="1.09735">
        <ele>234.553757</ele>
        <time>2009-08-13T06:43:02Z</time>
      </trkpt>
      <trkpt lat="44.45875" lon="1.09722">
        <ele>233.938126</ele>
        <time>2009-08-13T06:43:05Z</time>
      </trkpt>
      <trkpt lat="44.45883" lon="1.09711">
        <ele>233.327637</ele>
        <time>2009-08-13T06:43:08Z</time>
      </trkpt>
      <trkpt lat="44.45889" lon="1.097">
        <ele>232.851501</ele>
        <time>2009-08-13T06:43:11Z</time>
      </trkpt>
      <trkpt lat="44.45896" lon="1.09686">
        <ele>232.421707</ele>
        <time>2009-08-13T06:43:14Z</time>
      </trkpt>
      <trkpt lat="44.45903" lon="1.0967">
        <ele>232.126175</ele>
        <time>2009-08-13T06:43:17Z</time>
      </trkpt>
      <trkpt lat="44.4591" lon="1.09653">
        <ele>231.950119</ele>
        <time>2009-08-13T06:43:20Z</time>
      </trkpt>
      <trkpt lat="44.45916" lon="1.09633">
        <ele>231.798508</ele>
        <time>2009-08-13T06:43:23Z</time>
      </trkpt>
      <trkpt lat="44.45922" lon="1.09611">
        <ele>231.723953</ele>
        <time>2009-08-13T06:43:26Z</time>
      </trkpt>
      <trkpt lat="44.45928" lon="1.09589">
        <ele>231.628128</ele>
        <time>2009-08-13T06:43:29Z</time>
      </trkpt>
      <trkpt lat="44.45934" lon="1.09568">
        <ele>231.389999</ele>
        <time>2009-08-13T06:43:32Z</time>
      </trkpt>
      <trkpt lat="44.45941" lon="1.09548">
        <ele>231.191208</ele>
        <time>2009-08-13T06:43:35Z</time>
      </trkpt>
      <trkpt lat="44.45949" lon="1.0953">
        <ele>230.712158</ele>
        <time>2009-08-13T06:43:38Z</time>
      </trkpt>
      <trkpt lat="44.4596" lon="1.09505">
        <ele>229.463181</ele>
        <time>2009-08-13T06:43:42Z</time>
      </trkpt>
      <trkpt lat="44.45968" lon="1.09485">
        <ele>228.618118</ele>
        <time>2009-08-13T06:43:45Z</time>
      </trkpt>
      <trkpt lat="44.45978" lon="1.09467">
        <ele>227.947495</ele>
        <time>2009-08-13T06:43:48Z</time>
      </trkpt>
      <trkpt lat="44.4599" lon="1.0945">
        <ele>226.993744</ele>
        <time>2009-08-13T06:43:51Z</time>
      </trkpt>
      <trkpt lat="44.46003" lon="1.09434">
        <ele>225.954376</ele>
        <time>2009-08-13T06:43:54Z</time>
      </trkpt>
      <trkpt lat="44.46016" lon="1.09416">
        <ele>224.828125</ele>
        <time>2009-08-13T06:43:57Z</time>
      </trkpt>
      <trkpt lat="44.46029" lon="1.09398">
        <ele>223.655624</ele>
        <time>2009-08-13T06:44:00Z</time>
      </trkpt>
      <trkpt lat="44.46043" lon="1.0938">
        <ele>222.495621</ele>
        <time>2009-08-13T06:44:03Z</time>
      </trkpt>
      <trkpt lat="44.46056" lon="1.09362">
        <ele>221.363129</ele>
        <time>2009-08-13T06:44:06Z</time>
      </trkpt>
      <trkpt lat="44.46069" lon="1.09345">
        <ele>220.268127</ele>
        <time>2009-08-13T06:44:09Z</time>
      </trkpt>
      <trkpt lat="44.46082" lon="1.09328">
        <ele>219.817505</ele>
        <time>2009-08-13T06:44:12Z</time>
      </trkpt>
      <trkpt lat="44.46097" lon="1.09315">
        <ele>219.615631</ele>
        <time>2009-08-13T06:44:15Z</time>
      </trkpt>
      <trkpt lat="44.46114" lon="1.09306">
        <ele>219.478745</ele>
        <time>2009-08-13T06:44:18Z</time>
      </trkpt>
      <trkpt lat="44.46135" lon="1.09301">
        <ele>219.23172</ele>
        <time>2009-08-13T06:44:21Z</time>
      </trkpt>
      <trkpt lat="44.46157" lon="1.09297">
        <ele>219.024414</ele>
        <time>2009-08-13T06:44:24Z</time>
      </trkpt>
      <trkpt lat="44.46179" lon="1.09294">
        <ele>219</ele>
        <time>2009-08-13T06:44:27Z</time>
      </trkpt>
      <trkpt lat="44.46197" lon="1.09292">
        <ele>219</ele>
        <time>2009-08-13T06:44:30Z</time>
      </trkpt>
      <trkpt lat="44.46214" lon="1.0929">
        <ele>219.046417</ele>
        <time>2009-08-13T06:44:34Z</time>
      </trkpt>
      <trkpt lat="44.46224" lon="1.09286">
        <ele>219.083969</ele>
        <time>2009-08-13T06:44:37Z</time>
      </trkpt>
      <trkpt lat="44.46235" lon="1.09282">
        <ele>219.090881</ele>
        <time>2009-08-13T06:44:40Z</time>
      </trkpt>
      <trkpt lat="44.46245" lon="1.09279">
        <ele>219.076019</ele>
        <time>2009-08-13T06:44:43Z</time>
      </trkpt>
      <trkpt lat="44.46254" lon="1.09277">
        <ele>219.236877</ele>
        <time>2009-08-13T06:44:46Z</time>
      </trkpt>
      <trkpt lat="44.46262" lon="1.09276">
        <ele>219.559998</ele>
        <time>2009-08-13T06:44:49Z</time>
      </trkpt>
      <trkpt lat="44.4627" lon="1.09274">
        <ele>219.911255</ele>
        <time>2009-08-13T06:44:52Z</time>
      </trkpt>
      <trkpt lat="44.46279" lon="1.09273">
        <ele>220.296249</ele>
        <time>2009-08-13T06:44:55Z</time>
      </trkpt>
      <trkpt lat="44.46288" lon="1.09272">
        <ele>220.677109</ele>
        <time>2009-08-13T06:44:58Z</time>
      </trkpt>
      <trkpt lat="44.46297" lon="1.0927">
        <ele>221.089371</ele>
        <time>2009-08-13T06:45:01Z</time>
      </trkpt>
      <trkpt lat="44.46306" lon="1.09267">
        <ele>221.643753</ele>
        <time>2009-08-13T06:45:04Z</time>
      </trkpt>
      <trkpt lat="44.46316" lon="1.09264">
        <ele>222.293121</ele>
        <time>2009-08-13T06:45:08Z</time>
      </trkpt>
      <trkpt lat="44.46325" lon="1.0926">
        <ele>222.828125</ele>
        <time>2009-08-13T06:45:11Z</time>
      </trkpt>
      <trkpt lat="44.46334" lon="1.09256">
        <ele>223.379379</ele>
        <time>2009-08-13T06:45:14Z</time>
      </trkpt>
      <trkpt lat="44.46344" lon="1.09252">
        <ele>223.938751</ele>
        <time>2009-08-13T06:45:17Z</time>
      </trkpt>
      <trkpt lat="44.46353" lon="1.09248">
        <ele>224.476883</ele>
        <time>2009-08-13T06:45:20Z</time>
      </trkpt>
      <trkpt lat="44.46362" lon="1.09243">
        <ele>225.032501</ele>
        <time>2009-08-13T06:45:23Z</time>
      </trkpt>
      <trkpt lat="44.4637" lon="1.09239">
        <ele>225.54187</ele>
        <time>2009-08-13T06:45:26Z</time>
      </trkpt>
      <trkpt lat="44.46378" lon="1.09236">
        <ele>226.024368</ele>
        <time>2009-08-13T06:45:29Z</time>
      </trkpt>
      <trkpt lat="44.46386" lon="1.09232">
        <ele>226.435486</ele>
        <time>2009-08-13T06:45:32Z</time>
      </trkpt>
      <trkpt lat="44.46396" lon="1.09228">
        <ele>226.76004</ele>
        <time>2009-08-13T06:45:36Z</time>
      </trkpt>
      <trkpt lat="44.46404" lon="1.09226">
        <ele>227.029221</ele>
        <time>2009-08-13T06:45:39Z</time>
      </trkpt>
      <trkpt lat="44.46411" lon="1.09223">
        <ele>227.281982</ele>
        <time>2009-08-13T06:45:42Z</time>
      </trkpt>
      <trkpt lat="44.46418" lon="1.09219">
        <ele>227.554184</ele>
        <time>2009-08-13T06:45:45Z</time>
      </trkpt>
      <trkpt lat="44.46426" lon="1.09216">
        <ele>227.856293</ele>
        <time>2009-08-13T06:45:48Z</time>
      </trkpt>
      <trkpt lat="44.46434" lon="1.09212">
        <ele>228.167389</ele>
        <time>2009-08-13T06:45:51Z</time>
      </trkpt>
      <trkpt lat="44.46441" lon="1.09209">
        <ele>228.482956</ele>
        <time>2009-08-13T06:45:54Z</time>
      </trkpt>
      <trkpt lat="44.46448" lon="1.09208">
        <ele>228.806168</ele>
        <time>2009-08-13T06:45:57Z</time>
      </trkpt>
      <trkpt lat="44.46459" lon="1.09201">
        <ele>229.314636</ele>
        <time>2009-08-13T06:46:02Z</time>
      </trkpt>
      <trkpt lat="44.46467" lon="1.09189">
        <ele>229.621353</ele>
        <time>2009-08-13T06:46:06Z</time>
      </trkpt>
      <trkpt lat="44.46473" lon="1.09181">
        <ele>229.952042</ele>
        <time>2009-08-13T06:46:09Z</time>
      </trkpt>
      <trkpt lat="44.46479" lon="1.09172">
        <ele>230.197067</ele>
        <time>2009-08-13T06:46:12Z</time>
      </trkpt>
      <trkpt lat="44.46486" lon="1.09162">
        <ele>230.549713</ele>
        <time>2009-08-13T06:46:15Z</time>
      </trkpt>
      <trkpt lat="44.46492" lon="1.09152">
        <ele>231.02713</ele>
        <time>2009-08-13T06:46:18Z</time>
      </trkpt>
      <trkpt lat="44.46498" lon="1.09141">
        <ele>231.59993</ele>
        <time>2009-08-13T06:46:21Z</time>
      </trkpt>
      <trkpt lat="44.46504" lon="1.09131">
        <ele>231.792297</ele>
        <time>2009-08-13T06:46:24Z</time>
      </trkpt>
      <trkpt lat="44.4651" lon="1.0912">
        <ele>232.060074</ele>
        <time>2009-08-13T06:46:27Z</time>
      </trkpt>
      <trkpt lat="44.46516" lon="1.09108">
        <ele>232.320999</ele>
        <time>2009-08-13T06:46:30Z</time>
      </trkpt>
      <trkpt lat="44.46523" lon="1.09096">
        <ele>232.553192</ele>
        <time>2009-08-13T06:46:33Z</time>
      </trkpt>
      <trkpt lat="44.4653" lon="1.09084">
        <ele>232.839203</ele>
        <time>2009-08-13T06:46:36Z</time>
      </trkpt>
      <trkpt lat="44.46536" lon="1.09071">
        <ele>233.015625</ele>
        <time>2009-08-13T06:46:39Z</time>
      </trkpt>
      <trkpt lat="44.46542" lon="1.09058">
        <ele>233.169403</ele>
        <time>2009-08-13T06:46:42Z</time>
      </trkpt>
      <trkpt lat="44.46548" lon="1.09045">
        <ele>233.371796</ele>
        <time>2009-08-13T06:46:45Z</time>
      </trkpt>
      <trkpt lat="44.46556" lon="1.0903">
        <ele>233.739197</ele>
        <time>2009-08-13T06:46:49Z</time>
      </trkpt>
      <trkpt lat="44.46562" lon="1.09017">
        <ele>234.002747</ele>
        <time>2009-08-13T06:46:52Z</time>
      </trkpt>
      <trkpt lat="44.46568" lon="1.09007">
        <ele>234.63237</ele>
        <time>2009-08-13T06:46:55Z</time>
      </trkpt>
      <trkpt lat="44.4658" lon="1.0901">
        <ele>235.957443</ele>
        <time>2009-08-13T06:47:00Z</time>
      </trkpt>
      <trkpt lat="44.46589" lon="1.09019">
        <ele>237.00563</ele>
        <time>2009-08-13T06:47:04Z</time>
      </trkpt>
      <trkpt lat="44.46595" lon="1.09027">
        <ele>237.692856</ele>
        <time>2009-08-13T06:47:07Z</time>
      </trkpt>
      <trkpt lat="44.46602" lon="1.09036">
        <ele>238.43045</ele>
        <time>2009-08-13T06:47:10Z</time>
      </trkpt>
      <trkpt lat="44.46609" lon="1.09046">
        <ele>239.081009</ele>
        <time>2009-08-13T06:47:13Z</time>
      </trkpt>
      <trkpt lat="44.46616" lon="1.09054">
        <ele>239.442383</ele>
        <time>2009-08-13T06:47:16Z</time>
      </trkpt>
      <trkpt lat="44.46624" lon="1.09064">
        <ele>239.79335</ele>
        <time>2009-08-13T06:47:19Z</time>
      </trkpt>
      <trkpt lat="44.46632" lon="1.09075">
        <ele>240.080368</ele>
        <time>2009-08-13T06:47:22Z</time>
      </trkpt>
      <trkpt lat="44.46639" lon="1.09085">
        <ele>240.014832</ele>
        <time>2009-08-13T06:47:25Z</time>
      </trkpt>
      <trkpt lat="44.46647" lon="1.09095">
        <ele>239.905472</ele>
        <time>2009-08-13T06:47:28Z</time>
      </trkpt>
      <trkpt lat="44.46655" lon="1.09105">
        <ele>239.547165</ele>
        <time>2009-08-13T06:47:31Z</time>
      </trkpt>
      <trkpt lat="44.46666" lon="1.09114">
        <ele>238.676514</ele>
        <time>2009-08-13T06:47:34Z</time>
      </trkpt>
      <trkpt lat="44.46679" lon="1.09126">
        <ele>237.57637</ele>
        <time>2009-08-13T06:47:37Z</time>
      </trkpt>
      <trkpt lat="44.46692" lon="1.09143">
        <ele>235.980591</ele>
        <time>2009-08-13T06:47:40Z</time>
      </trkpt>
      <trkpt lat="44.46709" lon="1.09171">
        <ele>232.636948</ele>
        <time>2009-08-13T06:47:44Z</time>
      </trkpt>
      <trkpt lat="44.46725" lon="1.09193">
        <ele>229.518921</ele>
        <time>2009-08-13T06:47:47Z</time>
      </trkpt>
      <trkpt lat="44.46738" lon="1.09223">
        <ele>226.797897</ele>
        <time>2009-08-13T06:47:50Z</time>
      </trkpt>
      <trkpt lat="44.46751" lon="1.09253">
        <ele>224.701401</ele>
        <time>2009-08-13T06:47:53Z</time>
      </trkpt>
      <trkpt lat="44.46764" lon="1.09266">
        <ele>223.732574</ele>
        <time>2009-08-13T06:47:57Z</time>
      </trkpt>
      <trkpt lat="44.46768" lon="1.09246">
        <ele>222.758209</ele>
        <time>2009-08-13T06:48:00Z</time>
      </trkpt>
      <trkpt lat="44.4678" lon="1.09204">
        <ele>217.812744</ele>
        <time>2009-08-13T06:48:05Z</time>
      </trkpt>
      <trkpt lat="44.46786" lon="1.09177">
        <ele>216.366409</ele>
        <time>2009-08-13T06:48:08Z</time>
      </trkpt>
      <trkpt lat="44.46802" lon="1.09139">
        <ele>212.287613</ele>
        <time>2009-08-13T06:48:12Z</time>
      </trkpt>
      <trkpt lat="44.46827" lon="1.09109">
        <ele>208.406204</ele>
        <time>2009-08-13T06:48:15Z</time>
      </trkpt>
      <trkpt lat="44.46853" lon="1.09088">
        <ele>205.904816</ele>
        <time>2009-08-13T06:48:18Z</time>
      </trkpt>
      <trkpt lat="44.46871" lon="1.09079">
        <ele>203.35498</ele>
        <time>2009-08-13T06:48:21Z</time>
      </trkpt>
      <trkpt lat="44.46873" lon="1.09092">
        <ele>201.252197</ele>
        <time>2009-08-13T06:48:25Z</time>
      </trkpt>
      <trkpt lat="44.46867" lon="1.09103">
        <ele>200.985504</ele>
        <time>2009-08-13T06:48:28Z</time>
      </trkpt>
      <trkpt lat="44.46854" lon="1.09137">
        <ele>198.830002</ele>
        <time>2009-08-13T06:48:32Z</time>
      </trkpt>
      <trkpt lat="44.46856" lon="1.09154">
        <ele>199.365631</ele>
        <time>2009-08-13T06:48:35Z</time>
      </trkpt>
      <trkpt lat="44.46865" lon="1.09157">
        <ele>198.199371</ele>
        <time>2009-08-13T06:48:39Z</time>
      </trkpt>
      <trkpt lat="44.46876" lon="1.09155">
        <ele>196.322495</ele>
        <time>2009-08-13T06:48:42Z</time>
      </trkpt>
      <trkpt lat="44.46896" lon="1.09147">
        <ele>190.989563</ele>
        <time>2009-08-13T06:48:45Z</time>
      </trkpt>
      <trkpt lat="44.46922" lon="1.09146">
        <ele>183.627777</ele>
        <time>2009-08-13T06:48:48Z</time>
      </trkpt>
      <trkpt lat="44.46956" lon="1.09142">
        <ele>179.674637</ele>
        <time>2009-08-13T06:48:51Z</time>
      </trkpt>
      <trkpt lat="44.46984" lon="1.09139">
        <ele>176.348129</ele>
        <time>2009-08-13T06:48:54Z</time>
      </trkpt>
      <trkpt lat="44.47015" lon="1.09147">
        <ele>174.224396</ele>
        <time>2009-08-13T06:48:57Z</time>
      </trkpt>
      <trkpt lat="44.47059" lon="1.09168">
        <ele>171.778885</ele>
        <time>2009-08-13T06:49:00Z</time>
      </trkpt>
      <trkpt lat="44.47094" lon="1.09185">
        <ele>167.443008</ele>
        <time>2009-08-13T06:49:03Z</time>
      </trkpt>
      <trkpt lat="44.47125" lon="1.09199">
        <ele>165.411499</ele>
        <time>2009-08-13T06:49:06Z</time>
      </trkpt>
      <trkpt lat="44.47152" lon="1.0921">
        <ele>164.687546</ele>
        <time>2009-08-13T06:49:10Z</time>
      </trkpt>
      <trkpt lat="44.47171" lon="1.09219">
        <ele>163.254456</ele>
        <time>2009-08-13T06:49:13Z</time>
      </trkpt>
      <trkpt lat="44.47186" lon="1.09224">
        <ele>161.803909</ele>
        <time>2009-08-13T06:49:16Z</time>
      </trkpt>
      <trkpt lat="44.47204" lon="1.09228">
        <ele>159.897202</ele>
        <time>2009-08-13T06:49:19Z</time>
      </trkpt>
      <trkpt lat="44.4723" lon="1.09231">
        <ele>157.236404</ele>
        <time>2009-08-13T06:49:22Z</time>
      </trkpt>
      <trkpt lat="44.47256" lon="1.0924">
        <ele>152.480103</ele>
        <time>2009-08-13T06:49:25Z</time>
      </trkpt>
      <trkpt lat="44.47281" lon="1.09249">
        <ele>146.789063</ele>
        <time>2009-08-13T06:49:28Z</time>
      </trkpt>
      <trkpt lat="44.47312" lon="1.09265">
        <ele>147.183624</ele>
        <time>2009-08-13T06:49:31Z</time>
      </trkpt>
      <trkpt lat="44.47341" lon="1.09281">
        <ele>144.868744</ele>
        <time>2009-08-13T06:49:34Z</time>
      </trkpt>
      <trkpt lat="44.47367" lon="1.09301">
        <ele>140.158234</ele>
        <time>2009-08-13T06:49:37Z</time>
      </trkpt>
      <trkpt lat="44.47394" lon="1.0933">
        <ele>137.919098</ele>
        <time>2009-08-13T06:49:40Z</time>
      </trkpt>
      <trkpt lat="44.47424" lon="1.09361">
        <ele>133.355316</ele>
        <time>2009-08-13T06:49:43Z</time>
      </trkpt>
      <trkpt lat="44.47445" lon="1.094">
        <ele>130.459061</ele>
        <time>2009-08-13T06:49:46Z</time>
      </trkpt>
      <trkpt lat="44.4746" lon="1.09423">
        <ele>128.455872</ele>
        <time>2009-08-13T06:49:49Z</time>
      </trkpt>
      <trkpt lat="44.47462" lon="1.09424">
        <ele>128.348999</ele>
        <time>2009-08-13T06:49:52Z</time>
      </trkpt>
      <trkpt lat="44.47461" lon="1.09419">
        <ele>128.929565</ele>
        <time>2009-08-13T06:49:58Z</time>
      </trkpt>
      <trkpt lat="44.47459" lon="1.09419">
        <ele>128.839584</ele>
        <time>2009-08-13T06:50:01Z</time>
      </trkpt>
      <trkpt lat="44.47456" lon="1.09416">
        <ele>129.125565</ele>
        <time>2009-08-13T06:50:06Z</time>
      </trkpt>
      <trkpt lat="44.47456" lon="1.09413">
        <ele>129.521317</ele>
        <time>2009-08-13T06:50:12Z</time>
      </trkpt>
      <trkpt lat="44.47455" lon="1.09412">
        <ele>129.552765</ele>
        <time>2009-08-13T06:50:17Z</time>
      </trkpt>
      <trkpt lat="44.47456" lon="1.09409">
        <ele>129.964752</ele>
        <time>2009-08-13T06:50:24Z</time>
      </trkpt>
      <trkpt lat="44.47454" lon="1.09405">
        <ele>130.335068</ele>
        <time>2009-08-13T06:50:32Z</time>
      </trkpt>
      <trkpt lat="44.47452" lon="1.09406">
        <ele>130.156509</ele>
        <time>2009-08-13T06:50:41Z</time>
      </trkpt>
      <trkpt lat="44.47454" lon="1.09409">
        <ele>129.914658</ele>
        <time>2009-08-13T06:50:47Z</time>
      </trkpt>
      <trkpt lat="44.47454" lon="1.0941">
        <ele>129.749588</ele>
        <time>2009-08-13T06:50:56Z</time>
      </trkpt>
      <trkpt lat="44.47456" lon="1.09413">
        <ele>129.507187</ele>
        <time>2009-08-13T06:51:02Z</time>
      </trkpt>
      <trkpt lat="44.47458" lon="1.09417">
        <ele>129.135559</ele>
        <time>2009-08-13T06:51:05Z</time>
      </trkpt>
      <trkpt lat="44.47467" lon="1.09423">
        <ele>128.490219</ele>
        <time>2009-08-13T06:51:10Z</time>
      </trkpt>
      <trkpt lat="44.47472" lon="1.09431">
        <ele>127.454224</ele>
        <time>2009-08-13T06:51:13Z</time>
      </trkpt>
      <trkpt lat="44.47469" lon="1.09441">
        <ele>126.508965</ele>
        <time>2009-08-13T06:51:17Z</time>
      </trkpt>
      <trkpt lat="44.47465" lon="1.09444">
        <ele>126.283455</ele>
        <time>2009-08-13T06:51:20Z</time>
      </trkpt>
      <trkpt lat="44.47463" lon="1.09458">
        <ele>125.417755</ele>
        <time>2009-08-13T06:51:25Z</time>
      </trkpt>
      <trkpt lat="44.47458" lon="1.09473">
        <ele>124.809151</ele>
        <time>2009-08-13T06:51:29Z</time>
      </trkpt>
      <trkpt lat="44.47449" lon="1.09494">
        <ele>124.871872</ele>
        <time>2009-08-13T06:51:32Z</time>
      </trkpt>
      <trkpt lat="44.47444" lon="1.09504">
        <ele>125.323326</ele>
        <time>2009-08-13T06:51:35Z</time>
      </trkpt>
      <trkpt lat="44.47438" lon="1.09517">
        <ele>125.627724</ele>
        <time>2009-08-13T06:51:38Z</time>
      </trkpt>
      <trkpt lat="44.47431" lon="1.0953">
        <ele>125.952354</ele>
        <time>2009-08-13T06:51:41Z</time>
      </trkpt>
      <trkpt lat="44.47422" lon="1.09543">
        <ele>126.189316</ele>
        <time>2009-08-13T06:51:44Z</time>
      </trkpt>
      <trkpt lat="44.47415" lon="1.09557">
        <ele>126.527611</ele>
        <time>2009-08-13T06:51:47Z</time>
      </trkpt>
      <trkpt lat="44.47407" lon="1.0957">
        <ele>126.837387</ele>
        <time>2009-08-13T06:51:50Z</time>
      </trkpt>
      <trkpt lat="44.47403" lon="1.09584">
        <ele>126.296104</ele>
        <time>2009-08-13T06:51:54Z</time>
      </trkpt>
      <trkpt lat="44.47403" lon="1.09602">
        <ele>124.791</ele>
        <time>2009-08-13T06:51:57Z</time>
      </trkpt>
      <trkpt lat="44.47411" lon="1.09621">
        <ele>122.788483</ele>
        <time>2009-08-13T06:52:00Z</time>
      </trkpt>
      <trkpt lat="44.47417" lon="1.09631">
        <ele>123.073273</ele>
        <time>2009-08-13T06:52:04Z</time>
      </trkpt>
      <trkpt lat="44.47424" lon="1.09639">
        <ele>124.131874</ele>
        <time>2009-08-13T06:52:07Z</time>
      </trkpt>
      <trkpt lat="44.47427" lon="1.09645">
        <ele>125.361496</ele>
        <time>2009-08-13T06:52:11Z</time>
      </trkpt>
      <trkpt lat="44.47427" lon="1.09651">
        <ele>126.208839</ele>
        <time>2009-08-13T06:52:15Z</time>
      </trkpt>
      <trkpt lat="44.47423" lon="1.09655">
        <ele>126.426849</ele>
        <time>2009-08-13T06:52:19Z</time>
      </trkpt>
      <trkpt lat="44.47419" lon="1.09661">
        <ele>127.027748</ele>
        <time>2009-08-13T06:52:22Z</time>
      </trkpt>
      <trkpt lat="44.47415" lon="1.09666">
        <ele>127.280411</ele>
        <time>2009-08-13T06:52:25Z</time>
      </trkpt>
      <trkpt lat="44.4741" lon="1.09671">
        <ele>127.442337</ele>
        <time>2009-08-13T06:52:28Z</time>
      </trkpt>
      <trkpt lat="44.47404" lon="1.09677">
        <ele>127.435997</ele>
        <time>2009-08-13T06:52:31Z</time>
      </trkpt>
      <trkpt lat="44.47395" lon="1.09687">
        <ele>127.048851</ele>
        <time>2009-08-13T06:52:35Z</time>
      </trkpt>
      <trkpt lat="44.4739" lon="1.09693">
        <ele>127.775146</ele>
        <time>2009-08-13T06:52:38Z</time>
      </trkpt>
      <trkpt lat="44.47385" lon="1.09701">
        <ele>128.743637</ele>
        <time>2009-08-13T06:52:41Z</time>
      </trkpt>
      <trkpt lat="44.47377" lon="1.09707">
        <ele>129.208984</ele>
        <time>2009-08-13T06:52:44Z</time>
      </trkpt>
      <trkpt lat="44.47371" lon="1.09713">
        <ele>129.992004</ele>
        <time>2009-08-13T06:52:47Z</time>
      </trkpt>
      <trkpt lat="44.47365" lon="1.09719">
        <ele>130.643005</ele>
        <time>2009-08-13T06:52:50Z</time>
      </trkpt>
      <trkpt lat="44.47358" lon="1.09726">
        <ele>130.983444</ele>
        <time>2009-08-13T06:52:53Z</time>
      </trkpt>
      <trkpt lat="44.47352" lon="1.09732">
        <ele>131.288452</ele>
        <time>2009-08-13T06:52:56Z</time>
      </trkpt>
      <trkpt lat="44.47344" lon="1.0974">
        <ele>131.231995</ele>
        <time>2009-08-13T06:53:00Z</time>
      </trkpt>
      <trkpt lat="44.47339" lon="1.09746">
        <ele>131.080246</ele>
        <time>2009-08-13T06:53:03Z</time>
      </trkpt>
      <trkpt lat="44.47332" lon="1.09752">
        <ele>130.852844</ele>
        <time>2009-08-13T06:53:06Z</time>
      </trkpt>
      <trkpt lat="44.47323" lon="1.09758">
        <ele>131.484406</ele>
        <time>2009-08-13T06:53:09Z</time>
      </trkpt>
      <trkpt lat="44.47315" lon="1.09764">
        <ele>131.711746</ele>
        <time>2009-08-13T06:53:12Z</time>
      </trkpt>
      <trkpt lat="44.47308" lon="1.09769">
        <ele>131.71167</ele>
        <time>2009-08-13T06:53:15Z</time>
      </trkpt>
      <trkpt lat="44.47303" lon="1.09779">
        <ele>132.18013</ele>
        <time>2009-08-13T06:53:19Z</time>
      </trkpt>
      <trkpt lat="44.473" lon="1.09787">
        <ele>132.595093</ele>
        <time>2009-08-13T06:53:22Z</time>
      </trkpt>
      <trkpt lat="44.47294" lon="1.09794">
        <ele>132.250565</ele>
        <time>2009-08-13T06:53:25Z</time>
      </trkpt>
      <trkpt lat="44.47286" lon="1.09796">
        <ele>131.995071</ele>
        <time>2009-08-13T06:53:29Z</time>
      </trkpt>
      <trkpt lat="44.47276" lon="1.09799">
        <ele>132.80455</ele>
        <time>2009-08-13T06:53:33Z</time>
      </trkpt>
      <trkpt lat="44.47269" lon="1.09801">
        <ele>133.371475</ele>
        <time>2009-08-13T06:53:36Z</time>
      </trkpt>
      <trkpt lat="44.47263" lon="1.09802">
        <ele>133.83783</ele>
        <time>2009-08-13T06:53:39Z</time>
      </trkpt>
      <trkpt lat="44.47256" lon="1.09803">
        <ele>134.347137</ele>
        <time>2009-08-13T06:53:43Z</time>
      </trkpt>
      <trkpt lat="44.47251" lon="1.09805">
        <ele>134.76442</ele>
        <time>2009-08-13T06:53:46Z</time>
      </trkpt>
      <trkpt lat="44.47246" lon="1.09806">
        <ele>135.131897</ele>
        <time>2009-08-13T06:53:49Z</time>
      </trkpt>
      <trkpt lat="44.47242" lon="1.09809">
        <ele>135.970886</ele>
        <time>2009-08-13T06:53:52Z</time>
      </trkpt>
      <trkpt lat="44.47237" lon="1.09813">
        <ele>136.897888</ele>
        <time>2009-08-13T06:53:55Z</time>
      </trkpt>
      <trkpt lat="44.47234" lon="1.09812">
        <ele>137.410217</ele>
        <time>2009-08-13T06:54:01Z</time>
      </trkpt>
      <trkpt lat="44.47235" lon="1.09812">
        <ele>137.262802</ele>
        <time>2009-08-13T06:54:12Z</time>
      </trkpt>
      <trkpt lat="44.47235" lon="1.0981">
        <ele>137.061646</ele>
        <time>2009-08-13T06:54:17Z</time>
      </trkpt>
      <trkpt lat="44.47234" lon="1.09806">
        <ele>136.863358</ele>
        <time>2009-08-13T06:54:20Z</time>
      </trkpt>
      <trkpt lat="44.47233" lon="1.09802">
        <ele>136.449707</ele>
        <time>2009-08-13T06:54:23Z</time>
      </trkpt>
      <trkpt lat="44.47229" lon="1.09796">
        <ele>136.405045</ele>
        <time>2009-08-13T06:54:26Z</time>
      </trkpt>
      <trkpt lat="44.47225" lon="1.09793">
        <ele>136.555542</ele>
        <time>2009-08-13T06:54:31Z</time>
      </trkpt>
      <trkpt lat="44.47221" lon="1.09792">
        <ele>136.898132</ele>
        <time>2009-08-13T06:54:34Z</time>
      </trkpt>
      <trkpt lat="44.47214" lon="1.09787">
        <ele>137.176514</ele>
        <time>2009-08-13T06:54:39Z</time>
      </trkpt>
      <trkpt lat="44.47208" lon="1.09784">
        <ele>137.388199</ele>
        <time>2009-08-13T06:54:42Z</time>
      </trkpt>
      <trkpt lat="44.47203" lon="1.09781">
        <ele>137.398621</ele>
        <time>2009-08-13T06:54:46Z</time>
      </trkpt>
      <trkpt lat="44.47199" lon="1.09777">
        <ele>137.346954</ele>
        <time>2009-08-13T06:54:50Z</time>
      </trkpt>
      <trkpt lat="44.47191" lon="1.09774">
        <ele>137.7957</ele>
        <time>2009-08-13T06:54:54Z</time>
      </trkpt>
      <trkpt lat="44.47183" lon="1.0977">
        <ele>137.875656</ele>
        <time>2009-08-13T06:54:58Z</time>
      </trkpt>
      <trkpt lat="44.47174" lon="1.09763">
        <ele>137.680847</ele>
        <time>2009-08-13T06:55:03Z</time>
      </trkpt>
      <trkpt lat="44.47166" lon="1.09761">
        <ele>137.956497</ele>
        <time>2009-08-13T06:55:06Z</time>
      </trkpt>
      <trkpt lat="44.47157" lon="1.09756">
        <ele>137.8452</ele>
        <time>2009-08-13T06:55:09Z</time>
      </trkpt>
      <trkpt lat="44.47145" lon="1.0975">
        <ele>137.71048</ele>
        <time>2009-08-13T06:55:13Z</time>
      </trkpt>
      <trkpt lat="44.47133" lon="1.09745">
        <ele>137.460144</ele>
        <time>2009-08-13T06:55:16Z</time>
      </trkpt>
      <trkpt lat="44.4712" lon="1.09742">
        <ele>137.555786</ele>
        <time>2009-08-13T06:55:21Z</time>
      </trkpt>
      <trkpt lat="44.4711" lon="1.09739">
        <ele>137.505478</ele>
        <time>2009-08-13T06:55:24Z</time>
      </trkpt>
      <trkpt lat="44.47102" lon="1.09738">
        <ele>137.846161</ele>
        <time>2009-08-13T06:55:27Z</time>
      </trkpt>
      <trkpt lat="44.47095" lon="1.09735">
        <ele>137.995575</ele>
        <time>2009-08-13T06:55:30Z</time>
      </trkpt>
      <trkpt lat="44.47088" lon="1.09733">
        <ele>138.140091</ele>
        <time>2009-08-13T06:55:33Z</time>
      </trkpt>
      <trkpt lat="44.47081" lon="1.09731">
        <ele>138.238907</ele>
        <time>2009-08-13T06:55:36Z</time>
      </trkpt>
      <trkpt lat="44.47075" lon="1.09728">
        <ele>138.144638</ele>
        <time>2009-08-13T06:55:39Z</time>
      </trkpt>
      <trkpt lat="44.47068" lon="1.09726">
        <ele>138.174606</ele>
        <time>2009-08-13T06:55:42Z</time>
      </trkpt>
      <trkpt lat="44.47059" lon="1.0972">
        <ele>137.849701</ele>
        <time>2009-08-13T06:55:45Z</time>
      </trkpt>
      <trkpt lat="44.47052" lon="1.09718">
        <ele>137.858505</ele>
        <time>2009-08-13T06:55:48Z</time>
      </trkpt>
      <trkpt lat="44.47046" lon="1.09716">
        <ele>138.071426</ele>
        <time>2009-08-13T06:55:51Z</time>
      </trkpt>
      <trkpt lat="44.4704" lon="1.09713">
        <ele>137.966385</ele>
        <time>2009-08-13T06:55:54Z</time>
      </trkpt>
      <trkpt lat="44.47033" lon="1.09713">
        <ele>138.250824</ele>
        <time>2009-08-13T06:55:57Z</time>
      </trkpt>
      <trkpt lat="44.47028" lon="1.09713">
        <ele>138.639236</ele>
        <time>2009-08-13T06:56:00Z</time>
      </trkpt>
      <trkpt lat="44.47021" lon="1.0971">
        <ele>138.526154</ele>
        <time>2009-08-13T06:56:04Z</time>
      </trkpt>
      <trkpt lat="44.47011" lon="1.09707">
        <ele>138.736496</ele>
        <time>2009-08-13T06:56:07Z</time>
      </trkpt>
      <trkpt lat="44.47005" lon="1.09706">
        <ele>138.951187</ele>
        <time>2009-08-13T06:56:10Z</time>
      </trkpt>
      <trkpt lat="44.46998" lon="1.09704">
        <ele>138.938446</ele>
        <time>2009-08-13T06:56:13Z</time>
      </trkpt>
      <trkpt lat="44.4699" lon="1.09702">
        <ele>139.047653</ele>
        <time>2009-08-13T06:56:16Z</time>
      </trkpt>
      <trkpt lat="44.46985" lon="1.09699">
        <ele>138.766174</ele>
        <time>2009-08-13T06:56:20Z</time>
      </trkpt>
      <trkpt lat="44.46977" lon="1.09697">
        <ele>138.810806</ele>
        <time>2009-08-13T06:56:23Z</time>
      </trkpt>
      <trkpt lat="44.46971" lon="1.09692">
        <ele>139.196243</ele>
        <time>2009-08-13T06:56:26Z</time>
      </trkpt>
      <trkpt lat="44.46965" lon="1.09687">
        <ele>139.448532</ele>
        <time>2009-08-13T06:56:29Z</time>
      </trkpt>
      <trkpt lat="44.46959" lon="1.09686">
        <ele>139.60643</ele>
        <time>2009-08-13T06:56:33Z</time>
      </trkpt>
      <trkpt lat="44.4695" lon="1.09681">
        <ele>139.776138</ele>
        <time>2009-08-13T06:56:36Z</time>
      </trkpt>
      <trkpt lat="44.46946" lon="1.0968">
        <ele>139.832779</ele>
        <time>2009-08-13T06:56:39Z</time>
      </trkpt>
      <trkpt lat="44.46937" lon="1.09679">
        <ele>139.98262</ele>
        <time>2009-08-13T06:56:43Z</time>
      </trkpt>
      <trkpt lat="44.46928" lon="1.09679">
        <ele>140.09642</ele>
        <time>2009-08-13T06:56:48Z</time>
      </trkpt>
      <trkpt lat="44.46924" lon="1.09679">
        <ele>140.198395</ele>
        <time>2009-08-13T06:56:51Z</time>
      </trkpt>
      <trkpt lat="44.46916" lon="1.09681">
        <ele>140.417053</ele>
        <time>2009-08-13T06:56:54Z</time>
      </trkpt>
      <trkpt lat="44.46911" lon="1.09679">
        <ele>140.46904</ele>
        <time>2009-08-13T06:56:57Z</time>
      </trkpt>
      <trkpt lat="44.46905" lon="1.0968">
        <ele>140.591965</ele>
        <time>2009-08-13T06:57:01Z</time>
      </trkpt>
      <trkpt lat="44.46899" lon="1.09679">
        <ele>140.704315</ele>
        <time>2009-08-13T06:57:05Z</time>
      </trkpt>
      <trkpt lat="44.46895" lon="1.09681">
        <ele>140.802521</ele>
        <time>2009-08-13T06:57:08Z</time>
      </trkpt>
      <trkpt lat="44.46888" lon="1.09683">
        <ele>140.948425</ele>
        <time>2009-08-13T06:57:11Z</time>
      </trkpt>
      <trkpt lat="44.46882" lon="1.09685">
        <ele>140.9944</ele>
        <time>2009-08-13T06:57:15Z</time>
      </trkpt>
      <trkpt lat="44.46877" lon="1.09686">
        <ele>140.973312</ele>
        <time>2009-08-13T06:57:18Z</time>
      </trkpt>
      <trkpt lat="44.4687" lon="1.09686">
        <ele>140.948029</ele>
        <time>2009-08-13T06:57:21Z</time>
      </trkpt>
      <trkpt lat="44.46863" lon="1.09688">
        <ele>140.862091</ele>
        <time>2009-08-13T06:57:24Z</time>
      </trkpt>
      <trkpt lat="44.46858" lon="1.09689">
        <ele>140.791763</ele>
        <time>2009-08-13T06:57:27Z</time>
      </trkpt>
      <trkpt lat="44.46852" lon="1.09693">
        <ele>140.567429</ele>
        <time>2009-08-13T06:57:30Z</time>
      </trkpt>
      <trkpt lat="44.46848" lon="1.09698">
        <ele>140.29361</ele>
        <time>2009-08-13T06:57:33Z</time>
      </trkpt>
      <trkpt lat="44.46844" lon="1.09702">
        <ele>140.534378</ele>
        <time>2009-08-13T06:57:36Z</time>
      </trkpt>
      <trkpt lat="44.46838" lon="1.09705">
        <ele>141.18985</ele>
        <time>2009-08-13T06:57:39Z</time>
      </trkpt>
      <trkpt lat="44.46831" lon="1.0971">
        <ele>142.06192</ele>
        <time>2009-08-13T06:57:42Z</time>
      </trkpt>
      <trkpt lat="44.46826" lon="1.09714">
        <ele>142.616013</ele>
        <time>2009-08-13T06:57:45Z</time>
      </trkpt>
      <trkpt lat="44.46821" lon="1.0972">
        <ele>143.310883</ele>
        <time>2009-08-13T06:57:49Z</time>
      </trkpt>
      <trkpt lat="44.46816" lon="1.09725">
        <ele>143.591125</ele>
        <time>2009-08-13T06:57:52Z</time>
      </trkpt>
      <trkpt lat="44.46813" lon="1.09732">
        <ele>144.212418</ele>
        <time>2009-08-13T06:57:57Z</time>
      </trkpt>
      <trkpt lat="44.46809" lon="1.09739">
        <ele>144.537643</ele>
        <time>2009-08-13T06:58:01Z</time>
      </trkpt>
      <trkpt lat="44.46804" lon="1.09748">
        <ele>144.69516</ele>
        <time>2009-08-13T06:58:06Z</time>
      </trkpt>
      <trkpt lat="44.468" lon="1.09755">
        <ele>144.514069</ele>
        <time>2009-08-13T06:58:10Z</time>
      </trkpt>
      <trkpt lat="44.46796" lon="1.09764">
        <ele>144.265228</ele>
        <time>2009-08-13T06:58:13Z</time>
      </trkpt>
      <trkpt lat="44.46792" lon="1.09772">
        <ele>145.634003</ele>
        <time>2009-08-13T06:58:16Z</time>
      </trkpt>
      <trkpt lat="44.46788" lon="1.09781">
        <ele>147.109344</ele>
        <time>2009-08-13T06:58:19Z</time>
      </trkpt>
      <trkpt lat="44.46786" lon="1.09788">
        <ele>148.071899</ele>
        <time>2009-08-13T06:58:23Z</time>
      </trkpt>
      <trkpt lat="44.46783" lon="1.09796">
        <ele>148.940399</ele>
        <time>2009-08-13T06:58:26Z</time>
      </trkpt>
      <trkpt lat="44.46778" lon="1.09804">
        <ele>149.378723</ele>
        <time>2009-08-13T06:58:30Z</time>
      </trkpt>
      <trkpt lat="44.46774" lon="1.09813">
        <ele>149.538605</ele>
        <time>2009-08-13T06:58:33Z</time>
      </trkpt>
      <trkpt lat="44.4677" lon="1.09819">
        <ele>149.11908</ele>
        <time>2009-08-13T06:58:36Z</time>
      </trkpt>
      <trkpt lat="44.46768" lon="1.09825">
        <ele>148.942261</ele>
        <time>2009-08-13T06:58:39Z</time>
      </trkpt>
      <trkpt lat="44.46766" lon="1.09831">
        <ele>149.10733</ele>
        <time>2009-08-13T06:58:43Z</time>
      </trkpt>
      <trkpt lat="44.46765" lon="1.0984">
        <ele>149.881058</ele>
        <time>2009-08-13T06:58:47Z</time>
      </trkpt>
      <trkpt lat="44.46763" lon="1.09847">
        <ele>150.038757</ele>
        <time>2009-08-13T06:58:50Z</time>
      </trkpt>
      <trkpt lat="44.4676" lon="1.09854">
        <ele>149.772797</ele>
        <time>2009-08-13T06:58:53Z</time>
      </trkpt>
      <trkpt lat="44.46758" lon="1.09861">
        <ele>149.844727</ele>
        <time>2009-08-13T06:58:56Z</time>
      </trkpt>
      <trkpt lat="44.46755" lon="1.09869">
        <ele>149.532608</ele>
        <time>2009-08-13T06:59:01Z</time>
      </trkpt>
      <trkpt lat="44.46751" lon="1.09878">
        <ele>149.145157</ele>
        <time>2009-08-13T06:59:05Z</time>
      </trkpt>
      <trkpt lat="44.46748" lon="1.09887">
        <ele>150.143036</ele>
        <time>2009-08-13T06:59:09Z</time>
      </trkpt>
      <trkpt lat="44.46746" lon="1.09898">
        <ele>151.599594</ele>
        <time>2009-08-13T06:59:13Z</time>
      </trkpt>
      <trkpt lat="44.46743" lon="1.09908">
        <ele>153.043488</ele>
        <time>2009-08-13T06:59:17Z</time>
      </trkpt>
      <trkpt lat="44.46742" lon="1.09915">
        <ele>153.999908</ele>
        <time>2009-08-13T06:59:20Z</time>
      </trkpt>
      <trkpt lat="44.4674" lon="1.09925">
        <ele>155.041443</ele>
        <time>2009-08-13T06:59:24Z</time>
      </trkpt>
      <trkpt lat="44.46738" lon="1.09936">
        <ele>155.963257</ele>
        <time>2009-08-13T06:59:28Z</time>
      </trkpt>
      <trkpt lat="44.46734" lon="1.09946">
        <ele>156.264328</ele>
        <time>2009-08-13T06:59:32Z</time>
      </trkpt>
      <trkpt lat="44.46731" lon="1.09955">
        <ele>156.395554</ele>
        <time>2009-08-13T06:59:35Z</time>
      </trkpt>
      <trkpt lat="44.46731" lon="1.09963">
        <ele>156.646606</ele>
        <time>2009-08-13T06:59:38Z</time>
      </trkpt>
      <trkpt lat="44.46729" lon="1.09971">
        <ele>156.467834</ele>
        <time>2009-08-13T06:59:42Z</time>
      </trkpt>
      <trkpt lat="44.46726" lon="1.09983">
        <ele>156.14093</ele>
        <time>2009-08-13T06:59:46Z</time>
      </trkpt>
      <trkpt lat="44.46723" lon="1.09992">
        <ele>155.855835</ele>
        <time>2009-08-13T06:59:50Z</time>
      </trkpt>
      <trkpt lat="44.46724" lon="1.10001">
        <ele>156.320999</ele>
        <time>2009-08-13T06:59:54Z</time>
      </trkpt>
      <trkpt lat="44.46724" lon="1.10009">
        <ele>156.573715</ele>
        <time>2009-08-13T06:59:57Z</time>
      </trkpt>
      <trkpt lat="44.46721" lon="1.10018">
        <ele>155.973373</ele>
        <time>2009-08-13T07:00:00Z</time>
      </trkpt>
      <trkpt lat="44.46719" lon="1.10026">
        <ele>155.585129</ele>
        <time>2009-08-13T07:00:04Z</time>
      </trkpt>
      <trkpt lat="44.46718" lon="1.10032">
        <ele>155.483749</ele>
        <time>2009-08-13T07:00:07Z</time>
      </trkpt>
      <trkpt lat="44.46718" lon="1.10041">
        <ele>155.90184</ele>
        <time>2009-08-13T07:00:11Z</time>
      </trkpt>
      <trkpt lat="44.4672" lon="1.10049">
        <ele>156.807816</ele>
        <time>2009-08-13T07:00:14Z</time>
      </trkpt>
      <trkpt lat="44.4672" lon="1.10056">
        <ele>157.159683</ele>
        <time>2009-08-13T07:00:18Z</time>
      </trkpt>
      <trkpt lat="44.4672" lon="1.10065">
        <ele>157.442184</ele>
        <time>2009-08-13T07:00:21Z</time>
      </trkpt>
      <trkpt lat="44.46721" lon="1.10073">
        <ele>157.882843</ele>
        <time>2009-08-13T07:00:26Z</time>
      </trkpt>
      <trkpt lat="44.46722" lon="1.1008">
        <ele>158.543732</ele>
        <time>2009-08-13T07:00:29Z</time>
      </trkpt>
      <trkpt lat="44.46723" lon="1.1009">
        <ele>158.826859</ele>
        <time>2009-08-13T07:00:32Z</time>
      </trkpt>
      <trkpt lat="44.46726" lon="1.10098">
        <ele>159.323471</ele>
        <time>2009-08-13T07:00:35Z</time>
      </trkpt>
      <trkpt lat="44.46727" lon="1.10106">
        <ele>159.58252</ele>
        <time>2009-08-13T07:00:38Z</time>
      </trkpt>
      <trkpt lat="44.46728" lon="1.10115">
        <ele>159.658081</ele>
        <time>2009-08-13T07:00:42Z</time>
      </trkpt>
      <trkpt lat="44.46728" lon="1.10125">
        <ele>159.567932</ele>
        <time>2009-08-13T07:00:45Z</time>
      </trkpt>
      <trkpt lat="44.46725" lon="1.10139">
        <ele>159.010513</ele>
        <time>2009-08-13T07:00:49Z</time>
      </trkpt>
      <trkpt lat="44.46721" lon="1.10149">
        <ele>158.593628</ele>
        <time>2009-08-13T07:00:52Z</time>
      </trkpt>
      <trkpt lat="44.46721" lon="1.10158">
        <ele>158.568756</ele>
        <time>2009-08-13T07:00:55Z</time>
      </trkpt>
      <trkpt lat="44.46718" lon="1.10163">
        <ele>158.381149</ele>
        <time>2009-08-13T07:00:58Z</time>
      </trkpt>
      <trkpt lat="44.46716" lon="1.10171">
        <ele>158.351456</ele>
        <time>2009-08-13T07:01:02Z</time>
      </trkpt>
      <trkpt lat="44.46714" lon="1.10182">
        <ele>158.460831</ele>
        <time>2009-08-13T07:01:06Z</time>
      </trkpt>
      <trkpt lat="44.46714" lon="1.10192">
        <ele>158.70343</ele>
        <time>2009-08-13T07:01:10Z</time>
      </trkpt>
      <trkpt lat="44.46711" lon="1.10199">
        <ele>158.804794</ele>
        <time>2009-08-13T07:01:14Z</time>
      </trkpt>
      <trkpt lat="44.46705" lon="1.10202">
        <ele>159.05571</ele>
        <time>2009-08-13T07:01:18Z</time>
      </trkpt>
      <trkpt lat="44.46695" lon="1.10208">
        <ele>159.732895</ele>
        <time>2009-08-13T07:01:21Z</time>
      </trkpt>
      <trkpt lat="44.46687" lon="1.10215">
        <ele>160.61084</ele>
        <time>2009-08-13T07:01:25Z</time>
      </trkpt>
      <trkpt lat="44.46683" lon="1.1022">
        <ele>161.228973</ele>
        <time>2009-08-13T07:01:29Z</time>
      </trkpt>
      <trkpt lat="44.46675" lon="1.10227">
        <ele>161.835312</ele>
        <time>2009-08-13T07:01:32Z</time>
      </trkpt>
      <trkpt lat="44.4667" lon="1.10233">
        <ele>162.224396</ele>
        <time>2009-08-13T07:01:35Z</time>
      </trkpt>
      <trkpt lat="44.46666" lon="1.10238">
        <ele>162.543671</ele>
        <time>2009-08-13T07:01:38Z</time>
      </trkpt>
      <trkpt lat="44.46663" lon="1.10242">
        <ele>163.286148</ele>
        <time>2009-08-13T07:01:41Z</time>
      </trkpt>
      <trkpt lat="44.46658" lon="1.10248">
        <ele>164.228378</ele>
        <time>2009-08-13T07:01:44Z</time>
      </trkpt>
      <trkpt lat="44.46653" lon="1.10253">
        <ele>164.938293</ele>
        <time>2009-08-13T07:01:47Z</time>
      </trkpt>
      <trkpt lat="44.4665" lon="1.10259">
        <ele>165.291473</ele>
        <time>2009-08-13T07:01:50Z</time>
      </trkpt>
      <trkpt lat="44.46647" lon="1.10264">
        <ele>165.481995</ele>
        <time>2009-08-13T07:01:53Z</time>
      </trkpt>
      <trkpt lat="44.46643" lon="1.1027">
        <ele>165.548721</ele>
        <time>2009-08-13T07:01:56Z</time>
      </trkpt>
      <trkpt lat="44.4664" lon="1.10276">
        <ele>166.712402</ele>
        <time>2009-08-13T07:01:59Z</time>
      </trkpt>
      <trkpt lat="44.46638" lon="1.10282">
        <ele>167.812317</ele>
        <time>2009-08-13T07:02:03Z</time>
      </trkpt>
      <trkpt lat="44.46635" lon="1.1029">
        <ele>169.060333</ele>
        <time>2009-08-13T07:02:06Z</time>
      </trkpt>
      <trkpt lat="44.46632" lon="1.10296">
        <ele>169.832642</ele>
        <time>2009-08-13T07:02:09Z</time>
      </trkpt>
      <trkpt lat="44.46631" lon="1.10301">
        <ele>170.480164</ele>
        <time>2009-08-13T07:02:13Z</time>
      </trkpt>
      <trkpt lat="44.46627" lon="1.10307">
        <ele>170.728775</ele>
        <time>2009-08-13T07:02:16Z</time>
      </trkpt>
      <trkpt lat="44.46622" lon="1.10314">
        <ele>170.947495</ele>
        <time>2009-08-13T07:02:20Z</time>
      </trkpt>
      <trkpt lat="44.46618" lon="1.1032">
        <ele>171.903244</ele>
        <time>2009-08-13T07:02:23Z</time>
      </trkpt>
      <trkpt lat="44.46615" lon="1.10326">
        <ele>172.552505</ele>
        <time>2009-08-13T07:02:26Z</time>
      </trkpt>
      <trkpt lat="44.46614" lon="1.10331">
        <ele>172.921371</ele>
        <time>2009-08-13T07:02:29Z</time>
      </trkpt>
      <trkpt lat="44.46611" lon="1.10337">
        <ele>173.874771</ele>
        <time>2009-08-13T07:02:32Z</time>
      </trkpt>
      <trkpt lat="44.46608" lon="1.10343">
        <ele>174.823975</ele>
        <time>2009-08-13T07:02:35Z</time>
      </trkpt>
      <trkpt lat="44.46605" lon="1.10349">
        <ele>175.725098</ele>
        <time>2009-08-13T07:02:38Z</time>
      </trkpt>
      <trkpt lat="44.46602" lon="1.10354">
        <ele>176.301727</ele>
        <time>2009-08-13T07:02:41Z</time>
      </trkpt>
      <trkpt lat="44.46598" lon="1.10359">
        <ele>176.68074</ele>
        <time>2009-08-13T07:02:44Z</time>
      </trkpt>
      <trkpt lat="44.46594" lon="1.10364">
        <ele>176.964157</ele>
        <time>2009-08-13T07:02:47Z</time>
      </trkpt>
      <trkpt lat="44.4659" lon="1.10368">
        <ele>176.939377</ele>
        <time>2009-08-13T07:02:50Z</time>
      </trkpt>
      <trkpt lat="44.46586" lon="1.10373">
        <ele>176.867249</ele>
        <time>2009-08-13T07:02:53Z</time>
      </trkpt>
      <trkpt lat="44.46583" lon="1.10378">
        <ele>176.757675</ele>
        <time>2009-08-13T07:02:57Z</time>
      </trkpt>
      <trkpt lat="44.46579" lon="1.10382">
        <ele>176.406601</ele>
        <time>2009-08-13T07:03:00Z</time>
      </trkpt>
      <trkpt lat="44.46575" lon="1.10387">
        <ele>176.618668</ele>
        <time>2009-08-13T07:03:03Z</time>
      </trkpt>
      <trkpt lat="44.46571" lon="1.10392">
        <ele>177.074081</ele>
        <time>2009-08-13T07:03:06Z</time>
      </trkpt>
      <trkpt lat="44.46566" lon="1.10397">
        <ele>177.369156</ele>
        <time>2009-08-13T07:03:09Z</time>
      </trkpt>
      <trkpt lat="44.46564" lon="1.10403">
        <ele>178.359863</ele>
        <time>2009-08-13T07:03:14Z</time>
      </trkpt>
      <trkpt lat="44.46561" lon="1.1041">
        <ele>179.528824</ele>
        <time>2009-08-13T07:03:18Z</time>
      </trkpt>
      <trkpt lat="44.4656" lon="1.10413">
        <ele>180.090256</ele>
        <time>2009-08-13T07:03:21Z</time>
      </trkpt>
      <trkpt lat="44.46556" lon="1.10419">
        <ele>180.797318</ele>
        <time>2009-08-13T07:03:24Z</time>
      </trkpt>
      <trkpt lat="44.46552" lon="1.10425">
        <ele>181.137695</ele>
        <time>2009-08-13T07:03:27Z</time>
      </trkpt>
      <trkpt lat="44.46548" lon="1.10429">
        <ele>181.206802</ele>
        <time>2009-08-13T07:03:30Z</time>
      </trkpt>
      <trkpt lat="44.46543" lon="1.10434">
        <ele>181.156784</ele>
        <time>2009-08-13T07:03:33Z</time>
      </trkpt>
      <trkpt lat="44.46539" lon="1.1044">
        <ele>180.920944</ele>
        <time>2009-08-13T07:03:38Z</time>
      </trkpt>
      <trkpt lat="44.46537" lon="1.10444">
        <ele>180.882568</ele>
        <time>2009-08-13T07:03:42Z</time>
      </trkpt>
      <trkpt lat="44.46532" lon="1.1045">
        <ele>180.566055</ele>
        <time>2009-08-13T07:03:45Z</time>
      </trkpt>
      <trkpt lat="44.46528" lon="1.10455">
        <ele>180.873215</ele>
        <time>2009-08-13T07:03:48Z</time>
      </trkpt>
      <trkpt lat="44.46525" lon="1.10458">
        <ele>180.976151</ele>
        <time>2009-08-13T07:03:52Z</time>
      </trkpt>
      <trkpt lat="44.46522" lon="1.10463">
        <ele>181.556198</ele>
        <time>2009-08-13T07:03:55Z</time>
      </trkpt>
      <trkpt lat="44.4652" lon="1.10468">
        <ele>182.471985</ele>
        <time>2009-08-13T07:03:59Z</time>
      </trkpt>
      <trkpt lat="44.46518" lon="1.10472">
        <ele>183.07431</ele>
        <time>2009-08-13T07:04:03Z</time>
      </trkpt>
      <trkpt lat="44.46515" lon="1.10478">
        <ele>183.830704</ele>
        <time>2009-08-13T07:04:06Z</time>
      </trkpt>
      <trkpt lat="44.46513" lon="1.10483">
        <ele>184.34523</ele>
        <time>2009-08-13T07:04:09Z</time>
      </trkpt>
      <trkpt lat="44.46511" lon="1.10488">
        <ele>184.793182</ele>
        <time>2009-08-13T07:04:13Z</time>
      </trkpt>
      <trkpt lat="44.46508" lon="1.10494">
        <ele>185.266983</ele>
        <time>2009-08-13T07:04:16Z</time>
      </trkpt>
      <trkpt lat="44.46505" lon="1.10501">
        <ele>185.403061</ele>
        <time>2009-08-13T07:04:19Z</time>
      </trkpt>
      <trkpt lat="44.46502" lon="1.10507">
        <ele>185.405777</ele>
        <time>2009-08-13T07:04:22Z</time>
      </trkpt>
      <trkpt lat="44.46499" lon="1.10513">
        <ele>185.154129</ele>
        <time>2009-08-13T07:04:25Z</time>
      </trkpt>
      <trkpt lat="44.46495" lon="1.1052">
        <ele>184.679688</ele>
        <time>2009-08-13T07:04:28Z</time>
      </trkpt>
      <trkpt lat="44.46493" lon="1.10525">
        <ele>184.412872</ele>
        <time>2009-08-13T07:04:32Z</time>
      </trkpt>
      <trkpt lat="44.46491" lon="1.10533">
        <ele>184.632935</ele>
        <time>2009-08-13T07:04:36Z</time>
      </trkpt>
      <trkpt lat="44.46488" lon="1.10539">
        <ele>185.325745</ele>
        <time>2009-08-13T07:04:39Z</time>
      </trkpt>
      <trkpt lat="44.46487" lon="1.10544">
        <ele>186.370316</ele>
        <time>2009-08-13T07:04:42Z</time>
      </trkpt>
      <trkpt lat="44.46488" lon="1.10552">
        <ele>187.00383</ele>
        <time>2009-08-13T07:04:45Z</time>
      </trkpt>
      <trkpt lat="44.46488" lon="1.10558">
        <ele>187.797836</ele>
        <time>2009-08-13T07:04:48Z</time>
      </trkpt>
      <trkpt lat="44.46487" lon="1.10564">
        <ele>188.810211</ele>
        <time>2009-08-13T07:04:51Z</time>
      </trkpt>
      <trkpt lat="44.46485" lon="1.10571">
        <ele>190.039124</ele>
        <time>2009-08-13T07:04:54Z</time>
      </trkpt>
      <trkpt lat="44.46485" lon="1.10579">
        <ele>190.825119</ele>
        <time>2009-08-13T07:04:59Z</time>
      </trkpt>
      <trkpt lat="44.46485" lon="1.10585">
        <ele>191.659241</ele>
        <time>2009-08-13T07:05:02Z</time>
      </trkpt>
      <trkpt lat="44.46485" lon="1.10591">
        <ele>192.52298</ele>
        <time>2009-08-13T07:05:05Z</time>
      </trkpt>
      <trkpt lat="44.46482" lon="1.10598">
        <ele>194.205933</ele>
        <time>2009-08-13T07:05:08Z</time>
      </trkpt>
      <trkpt lat="44.4648" lon="1.10603">
        <ele>195.144394</ele>
        <time>2009-08-13T07:05:11Z</time>
      </trkpt>
      <trkpt lat="44.46477" lon="1.10608">
        <ele>196.047134</ele>
        <time>2009-08-13T07:05:14Z</time>
      </trkpt>
      <trkpt lat="44.46474" lon="1.10614">
        <ele>196.984512</ele>
        <time>2009-08-13T07:05:17Z</time>
      </trkpt>
      <trkpt lat="44.46471" lon="1.10619">
        <ele>197.5979</ele>
        <time>2009-08-13T07:05:20Z</time>
      </trkpt>
      <trkpt lat="44.46467" lon="1.10624">
        <ele>198.003006</ele>
        <time>2009-08-13T07:05:24Z</time>
      </trkpt>
      <trkpt lat="44.46465" lon="1.10628">
        <ele>198.274048</ele>
        <time>2009-08-13T07:05:27Z</time>
      </trkpt>
      <trkpt lat="44.46461" lon="1.10632">
        <ele>198.340942</ele>
        <time>2009-08-13T07:05:31Z</time>
      </trkpt>
      <trkpt lat="44.46456" lon="1.10636">
        <ele>198.149643</ele>
        <time>2009-08-13T07:05:34Z</time>
      </trkpt>
      <trkpt lat="44.46452" lon="1.1064">
        <ele>197.878098</ele>
        <time>2009-08-13T07:05:37Z</time>
      </trkpt>
      <trkpt lat="44.46445" lon="1.10645">
        <ele>197.101257</ele>
        <time>2009-08-13T07:05:40Z</time>
      </trkpt>
      <trkpt lat="44.46441" lon="1.10648">
        <ele>197.377441</ele>
        <time>2009-08-13T07:05:43Z</time>
      </trkpt>
      <trkpt lat="44.46436" lon="1.10652">
        <ele>197.924057</ele>
        <time>2009-08-13T07:05:46Z</time>
      </trkpt>
      <trkpt lat="44.46432" lon="1.10657">
        <ele>198.884247</ele>
        <time>2009-08-13T07:05:50Z</time>
      </trkpt>
      <trkpt lat="44.46428" lon="1.10661">
        <ele>199.624374</ele>
        <time>2009-08-13T07:05:53Z</time>
      </trkpt>
      <trkpt lat="44.46424" lon="1.10665">
        <ele>200.20726</ele>
        <time>2009-08-13T07:05:56Z</time>
      </trkpt>
      <trkpt lat="44.46418" lon="1.10673">
        <ele>201.025131</ele>
        <time>2009-08-13T07:06:00Z</time>
      </trkpt>
      <trkpt lat="44.46414" lon="1.10678">
        <ele>201.329315</ele>
        <time>2009-08-13T07:06:03Z</time>
      </trkpt>
      <trkpt lat="44.4641" lon="1.10683">
        <ele>201.519608</ele>
        <time>2009-08-13T07:06:07Z</time>
      </trkpt>
      <trkpt lat="44.46407" lon="1.10687">
        <ele>201.566818</ele>
        <time>2009-08-13T07:06:10Z</time>
      </trkpt>
      <trkpt lat="44.46403" lon="1.10692">
        <ele>201.488312</ele>
        <time>2009-08-13T07:06:14Z</time>
      </trkpt>
      <trkpt lat="44.46401" lon="1.10696">
        <ele>201.439636</ele>
        <time>2009-08-13T07:06:17Z</time>
      </trkpt>
      <trkpt lat="44.46398" lon="1.107">
        <ele>201.708786</ele>
        <time>2009-08-13T07:06:21Z</time>
      </trkpt>
      <trkpt lat="44.46396" lon="1.10705">
        <ele>201.87706</ele>
        <time>2009-08-13T07:06:24Z</time>
      </trkpt>
      <trkpt lat="44.46394" lon="1.10708">
        <ele>201.982193</ele>
        <time>2009-08-13T07:06:27Z</time>
      </trkpt>
      <trkpt lat="44.46391" lon="1.10713">
        <ele>202.013504</ele>
        <time>2009-08-13T07:06:30Z</time>
      </trkpt>
      <trkpt lat="44.46386" lon="1.10719">
        <ele>202.780594</ele>
        <time>2009-08-13T07:06:34Z</time>
      </trkpt>
      <trkpt lat="44.46383" lon="1.10723">
        <ele>203.541855</ele>
        <time>2009-08-13T07:06:37Z</time>
      </trkpt>
      <trkpt lat="44.46379" lon="1.10728">
        <ele>204.238693</ele>
        <time>2009-08-13T07:06:40Z</time>
      </trkpt>
      <trkpt lat="44.46376" lon="1.10732">
        <ele>204.767181</ele>
        <time>2009-08-13T07:06:43Z</time>
      </trkpt>
      <trkpt lat="44.46373" lon="1.10736">
        <ele>205.189102</ele>
        <time>2009-08-13T07:06:46Z</time>
      </trkpt>
      <trkpt lat="44.4637" lon="1.1074">
        <ele>205.586349</ele>
        <time>2009-08-13T07:06:49Z</time>
      </trkpt>
      <trkpt lat="44.46367" lon="1.10744">
        <ele>206.014404</ele>
        <time>2009-08-13T07:06:52Z</time>
      </trkpt>
      <trkpt lat="44.46364" lon="1.10749">
        <ele>206.437958</ele>
        <time>2009-08-13T07:06:56Z</time>
      </trkpt>
      <trkpt lat="44.46361" lon="1.10753">
        <ele>206.601563</ele>
        <time>2009-08-13T07:06:59Z</time>
      </trkpt>
      <trkpt lat="44.46358" lon="1.10756">
        <ele>206.684326</ele>
        <time>2009-08-13T07:07:02Z</time>
      </trkpt>
      <trkpt lat="44.46353" lon="1.10759">
        <ele>206.880386</ele>
        <time>2009-08-13T07:07:05Z</time>
      </trkpt>
      <trkpt lat="44.46349" lon="1.10763">
        <ele>207.102936</ele>
        <time>2009-08-13T07:07:08Z</time>
      </trkpt>
      <trkpt lat="44.46345" lon="1.10766">
        <ele>207.150757</ele>
        <time>2009-08-13T07:07:11Z</time>
      </trkpt>
      <trkpt lat="44.4634" lon="1.10769">
        <ele>207.127335</ele>
        <time>2009-08-13T07:07:14Z</time>
      </trkpt>
      <trkpt lat="44.46334" lon="1.10772">
        <ele>206.883652</ele>
        <time>2009-08-13T07:07:18Z</time>
      </trkpt>
      <trkpt lat="44.46327" lon="1.10774">
        <ele>206.419632</ele>
        <time>2009-08-13T07:07:22Z</time>
      </trkpt>
      <trkpt lat="44.4632" lon="1.10775">
        <ele>205.892899</ele>
        <time>2009-08-13T07:07:25Z</time>
      </trkpt>
      <trkpt lat="44.46316" lon="1.10777">
        <ele>205.474319</ele>
        <time>2009-08-13T07:07:28Z</time>
      </trkpt>
      <trkpt lat="44.46311" lon="1.10778">
        <ele>205.068726</ele>
        <time>2009-08-13T07:07:32Z</time>
      </trkpt>
      <trkpt lat="44.46306" lon="1.10779">
        <ele>205.17215</ele>
        <time>2009-08-13T07:07:35Z</time>
      </trkpt>
      <trkpt lat="44.46301" lon="1.1078">
        <ele>205.361557</ele>
        <time>2009-08-13T07:07:38Z</time>
      </trkpt>
      <trkpt lat="44.46296" lon="1.10781">
        <ele>205.646851</ele>
        <time>2009-08-13T07:07:41Z</time>
      </trkpt>
      <trkpt lat="44.46291" lon="1.10781">
        <ele>205.851303</ele>
        <time>2009-08-13T07:07:44Z</time>
      </trkpt>
      <trkpt lat="44.46286" lon="1.10783">
        <ele>206.172958</ele>
        <time>2009-08-13T07:07:47Z</time>
      </trkpt>
      <trkpt lat="44.46282" lon="1.10784">
        <ele>206.472153</ele>
        <time>2009-08-13T07:07:50Z</time>
      </trkpt>
      <trkpt lat="44.46278" lon="1.10785">
        <ele>206.696335</ele>
        <time>2009-08-13T07:07:53Z</time>
      </trkpt>
      <trkpt lat="44.46275" lon="1.10786">
        <ele>207.008972</ele>
        <time>2009-08-13T07:07:56Z</time>
      </trkpt>
      <trkpt lat="44.46271" lon="1.10788">
        <ele>207.539978</ele>
        <time>2009-08-13T07:07:59Z</time>
      </trkpt>
      <trkpt lat="44.46268" lon="1.10792">
        <ele>208.340927</ele>
        <time>2009-08-13T07:08:03Z</time>
      </trkpt>
      <trkpt lat="44.46264" lon="1.10797">
        <ele>209.57431</ele>
        <time>2009-08-13T07:08:07Z</time>
      </trkpt>
      <trkpt lat="44.46261" lon="1.10803">
        <ele>210.721069</ele>
        <time>2009-08-13T07:08:11Z</time>
      </trkpt>
      <trkpt lat="44.46257" lon="1.10807">
        <ele>211.529221</ele>
        <time>2009-08-13T07:08:14Z</time>
      </trkpt>
      <trkpt lat="44.46254" lon="1.10812">
        <ele>212.172607</ele>
        <time>2009-08-13T07:08:18Z</time>
      </trkpt>
      <trkpt lat="44.46251" lon="1.10816">
        <ele>212.615417</ele>
        <time>2009-08-13T07:08:21Z</time>
      </trkpt>
      <trkpt lat="44.46248" lon="1.10821">
        <ele>212.899612</ele>
        <time>2009-08-13T07:08:24Z</time>
      </trkpt>
      <trkpt lat="44.46245" lon="1.10826">
        <ele>213.039169</ele>
        <time>2009-08-13T07:08:27Z</time>
      </trkpt>
      <trkpt lat="44.46242" lon="1.10831">
        <ele>212.955002</ele>
        <time>2009-08-13T07:08:30Z</time>
      </trkpt>
      <trkpt lat="44.46239" lon="1.10835">
        <ele>212.72261</ele>
        <time>2009-08-13T07:08:33Z</time>
      </trkpt>
      <trkpt lat="44.46236" lon="1.1084">
        <ele>212.359116</ele>
        <time>2009-08-13T07:08:36Z</time>
      </trkpt>
      <trkpt lat="44.46234" lon="1.10845">
        <ele>212.270905</ele>
        <time>2009-08-13T07:08:39Z</time>
      </trkpt>
      <trkpt lat="44.46232" lon="1.1085">
        <ele>212.674988</ele>
        <time>2009-08-13T07:08:42Z</time>
      </trkpt>
      <trkpt lat="44.4623" lon="1.10855">
        <ele>213.213257</ele>
        <time>2009-08-13T07:08:46Z</time>
      </trkpt>
      <trkpt lat="44.46228" lon="1.10859">
        <ele>213.742233</ele>
        <time>2009-08-13T07:08:49Z</time>
      </trkpt>
      <trkpt lat="44.46226" lon="1.10867">
        <ele>214.756058</ele>
        <time>2009-08-13T07:08:52Z</time>
      </trkpt>
      <trkpt lat="44.46225" lon="1.10872">
        <ele>215.542877</ele>
        <time>2009-08-13T07:08:56Z</time>
      </trkpt>
      <trkpt lat="44.46223" lon="1.10877">
        <ele>216.375</ele>
        <time>2009-08-13T07:08:59Z</time>
      </trkpt>
      <trkpt lat="44.46222" lon="1.10883">
        <ele>217.468933</ele>
        <time>2009-08-13T07:09:02Z</time>
      </trkpt>
      <trkpt lat="44.46221" lon="1.10888">
        <ele>218.440094</ele>
        <time>2009-08-13T07:09:05Z</time>
      </trkpt>
      <trkpt lat="44.4622" lon="1.10892">
        <ele>219.241501</ele>
        <time>2009-08-13T07:09:08Z</time>
      </trkpt>
      <trkpt lat="44.46219" lon="1.10899">
        <ele>220.457993</ele>
        <time>2009-08-13T07:09:12Z</time>
      </trkpt>
      <trkpt lat="44.46218" lon="1.10907">
        <ele>221.646835</ele>
        <time>2009-08-13T07:09:15Z</time>
      </trkpt>
      <trkpt lat="44.46217" lon="1.10913">
        <ele>222.30481</ele>
        <time>2009-08-13T07:09:18Z</time>
      </trkpt>
      <trkpt lat="44.46215" lon="1.10917">
        <ele>222.725998</ele>
        <time>2009-08-13T07:09:22Z</time>
      </trkpt>
      <trkpt lat="44.46207" lon="1.10922">
        <ele>222.856705</ele>
        <time>2009-08-13T07:09:27Z</time>
      </trkpt>
      <trkpt lat="44.46201" lon="1.10921">
        <ele>222.526596</ele>
        <time>2009-08-13T07:09:30Z</time>
      </trkpt>
      <trkpt lat="44.46197" lon="1.10921">
        <ele>222.242401</ele>
        <time>2009-08-13T07:09:33Z</time>
      </trkpt>
      <trkpt lat="44.46194" lon="1.10919">
        <ele>221.823151</ele>
        <time>2009-08-13T07:09:36Z</time>
      </trkpt>
      <trkpt lat="44.4619" lon="1.10919">
        <ele>221.681244</ele>
        <time>2009-08-13T07:09:39Z</time>
      </trkpt>
      <trkpt lat="44.46186" lon="1.10919">
        <ele>221.442795</ele>
        <time>2009-08-13T07:09:42Z</time>
      </trkpt>
      <trkpt lat="44.46185" lon="1.10923">
        <ele>221.969193</ele>
        <time>2009-08-13T07:09:46Z</time>
      </trkpt>
      <trkpt lat="44.46189" lon="1.10923">
        <ele>222.248322</ele>
        <time>2009-08-13T07:09:49Z</time>
      </trkpt>
      <trkpt lat="44.46193" lon="1.10926">
        <ele>222.885681</ele>
        <time>2009-08-13T07:09:52Z</time>
      </trkpt>
      <trkpt lat="44.46197" lon="1.10927">
        <ele>223.236908</ele>
        <time>2009-08-13T07:09:56Z</time>
      </trkpt>
      <trkpt lat="44.462" lon="1.10928">
        <ele>223.449249</ele>
        <time>2009-08-13T07:09:59Z</time>
      </trkpt>
      <trkpt lat="44.46207" lon="1.10931">
        <ele>224.190216</ele>
        <time>2009-08-13T07:10:02Z</time>
      </trkpt>
      <trkpt lat="44.46213" lon="1.10934">
        <ele>224.661774</ele>
        <time>2009-08-13T07:10:05Z</time>
      </trkpt>
      <trkpt lat="44.46217" lon="1.10936">
        <ele>225.056534</ele>
        <time>2009-08-13T07:10:08Z</time>
      </trkpt>
      <trkpt lat="44.46222" lon="1.10937">
        <ele>225.297943</ele>
        <time>2009-08-13T07:10:11Z</time>
      </trkpt>
      <trkpt lat="44.46226" lon="1.10938">
        <ele>225.740189</ele>
        <time>2009-08-13T07:10:14Z</time>
      </trkpt>
      <trkpt lat="44.46231" lon="1.10941">
        <ele>226.35466</ele>
        <time>2009-08-13T07:10:17Z</time>
      </trkpt>
      <trkpt lat="44.46235" lon="1.10943">
        <ele>226.902344</ele>
        <time>2009-08-13T07:10:20Z</time>
      </trkpt>
      <trkpt lat="44.4624" lon="1.10945">
        <ele>227.498215</ele>
        <time>2009-08-13T07:10:23Z</time>
      </trkpt>
      <trkpt lat="44.46244" lon="1.10946">
        <ele>228.01268</ele>
        <time>2009-08-13T07:10:26Z</time>
      </trkpt>
      <trkpt lat="44.46248" lon="1.10948">
        <ele>228.483917</ele>
        <time>2009-08-13T07:10:29Z</time>
      </trkpt>
      <trkpt lat="44.46252" lon="1.1095">
        <ele>229.002884</ele>
        <time>2009-08-13T07:10:32Z</time>
      </trkpt>
      <trkpt lat="44.46257" lon="1.10953">
        <ele>229.674561</ele>
        <time>2009-08-13T07:10:35Z</time>
      </trkpt>
      <trkpt lat="44.46263" lon="1.10956">
        <ele>230.390381</ele>
        <time>2009-08-13T07:10:38Z</time>
      </trkpt>
      <trkpt lat="44.46268" lon="1.10958">
        <ele>230.925629</ele>
        <time>2009-08-13T07:10:41Z</time>
      </trkpt>
      <trkpt lat="44.46272" lon="1.10961">
        <ele>231.623886</ele>
        <time>2009-08-13T07:10:44Z</time>
      </trkpt>
      <trkpt lat="44.46277" lon="1.10964">
        <ele>232.39035</ele>
        <time>2009-08-13T07:10:47Z</time>
      </trkpt>
      <trkpt lat="44.46281" lon="1.10964">
        <ele>232.880341</ele>
        <time>2009-08-13T07:10:50Z</time>
      </trkpt>
      <trkpt lat="44.46285" lon="1.10967">
        <ele>233.69516</ele>
        <time>2009-08-13T07:10:53Z</time>
      </trkpt>
      <trkpt lat="44.4629" lon="1.10968">
        <ele>234.287506</ele>
        <time>2009-08-13T07:10:57Z</time>
      </trkpt>
      <trkpt lat="44.46296" lon="1.1097">
        <ele>235.135971</ele>
        <time>2009-08-13T07:11:00Z</time>
      </trkpt>
      <trkpt lat="44.463" lon="1.1097">
        <ele>235.672363</ele>
        <time>2009-08-13T07:11:03Z</time>
      </trkpt>
      <trkpt lat="44.46305" lon="1.10971">
        <ele>236.226776</ele>
        <time>2009-08-13T07:11:06Z</time>
      </trkpt>
      <trkpt lat="44.46311" lon="1.10971">
        <ele>236.96022</ele>
        <time>2009-08-13T07:11:10Z</time>
      </trkpt>
      <trkpt lat="44.46318" lon="1.10972">
        <ele>237.722504</ele>
        <time>2009-08-13T07:11:14Z</time>
      </trkpt>
      <trkpt lat="44.46324" lon="1.10972">
        <ele>238.243744</ele>
        <time>2009-08-13T07:11:17Z</time>
      </trkpt>
      <trkpt lat="44.46329" lon="1.10972">
        <ele>238.701248</ele>
        <time>2009-08-13T07:11:20Z</time>
      </trkpt>
      <trkpt lat="44.46334" lon="1.10971">
        <ele>239.051254</ele>
        <time>2009-08-13T07:11:23Z</time>
      </trkpt>
      <trkpt lat="44.46339" lon="1.1097">
        <ele>239.438126</ele>
        <time>2009-08-13T07:11:26Z</time>
      </trkpt>
      <trkpt lat="44.46343" lon="1.1097">
        <ele>239.793747</ele>
        <time>2009-08-13T07:11:29Z</time>
      </trkpt>
      <trkpt lat="44.46348" lon="1.1097">
        <ele>240.263123</ele>
        <time>2009-08-13T07:11:32Z</time>
      </trkpt>
      <trkpt lat="44.46353" lon="1.10969">
        <ele>240.631256</ele>
        <time>2009-08-13T07:11:35Z</time>
      </trkpt>
      <trkpt lat="44.46358" lon="1.10968">
        <ele>241.059372</ele>
        <time>2009-08-13T07:11:38Z</time>
      </trkpt>
      <trkpt lat="44.46363" lon="1.10968">
        <ele>241.498749</ele>
        <time>2009-08-13T07:11:41Z</time>
      </trkpt>
      <trkpt lat="44.46368" lon="1.10968">
        <ele>241.988129</ele>
        <time>2009-08-13T07:11:44Z</time>
      </trkpt>
      <trkpt lat="44.46373" lon="1.10968">
        <ele>242.447495</ele>
        <time>2009-08-13T07:11:47Z</time>
      </trkpt>
      <trkpt lat="44.46379" lon="1.10968">
        <ele>242.913757</ele>
        <time>2009-08-13T07:11:50Z</time>
      </trkpt>
      <trkpt lat="44.46384" lon="1.10968">
        <ele>243.371246</ele>
        <time>2009-08-13T07:11:53Z</time>
      </trkpt>
      <trkpt lat="44.46389" lon="1.10968">
        <ele>243.876251</ele>
        <time>2009-08-13T07:11:56Z</time>
      </trkpt>
      <trkpt lat="44.46394" lon="1.10968">
        <ele>244.345627</ele>
        <time>2009-08-13T07:11:59Z</time>
      </trkpt>
      <trkpt lat="44.464" lon="1.10967">
        <ele>244.743118</ele>
        <time>2009-08-13T07:12:02Z</time>
      </trkpt>
      <trkpt lat="44.46405" lon="1.10967">
        <ele>245.262283</ele>
        <time>2009-08-13T07:12:05Z</time>
      </trkpt>
      <trkpt lat="44.4641" lon="1.10966">
        <ele>245.598633</ele>
        <time>2009-08-13T07:12:08Z</time>
      </trkpt>
      <trkpt lat="44.46416" lon="1.10966">
        <ele>246.106003</ele>
        <time>2009-08-13T07:12:12Z</time>
      </trkpt>
      <trkpt lat="44.46423" lon="1.10966">
        <ele>246.745834</ele>
        <time>2009-08-13T07:12:15Z</time>
      </trkpt>
      <trkpt lat="44.46429" lon="1.10965">
        <ele>247.220612</ele>
        <time>2009-08-13T07:12:18Z</time>
      </trkpt>
      <trkpt lat="44.46434" lon="1.10964">
        <ele>247.620621</ele>
        <time>2009-08-13T07:12:21Z</time>
      </trkpt>
      <trkpt lat="44.4644" lon="1.10964">
        <ele>248.164993</ele>
        <time>2009-08-13T07:12:24Z</time>
      </trkpt>
      <trkpt lat="44.46445" lon="1.10965">
        <ele>248.698792</ele>
        <time>2009-08-13T07:12:28Z</time>
      </trkpt>
      <trkpt lat="44.4645" lon="1.10968">
        <ele>249.289719</ele>
        <time>2009-08-13T07:12:31Z</time>
      </trkpt>
      <trkpt lat="44.46456" lon="1.10976">
        <ele>250.07782</ele>
        <time>2009-08-13T07:12:34Z</time>
      </trkpt>
      <trkpt lat="44.46459" lon="1.10982">
        <ele>250.6073</ele>
        <time>2009-08-13T07:12:37Z</time>
      </trkpt>
      <trkpt lat="44.46462" lon="1.10988">
        <ele>251.046738</ele>
        <time>2009-08-13T07:12:40Z</time>
      </trkpt>
      <trkpt lat="44.46465" lon="1.10994">
        <ele>251.465805</ele>
        <time>2009-08-13T07:12:43Z</time>
      </trkpt>
      <trkpt lat="44.46467" lon="1.11">
        <ele>251.815582</ele>
        <time>2009-08-13T07:12:46Z</time>
      </trkpt>
      <trkpt lat="44.46471" lon="1.11006">
        <ele>252.142929</ele>
        <time>2009-08-13T07:12:49Z</time>
      </trkpt>
      <trkpt lat="44.46474" lon="1.11011">
        <ele>252.40947</ele>
        <time>2009-08-13T07:12:52Z</time>
      </trkpt>
      <trkpt lat="44.46477" lon="1.11015">
        <ele>252.595749</ele>
        <time>2009-08-13T07:12:55Z</time>
      </trkpt>
      <trkpt lat="44.4648" lon="1.1102">
        <ele>252.785263</ele>
        <time>2009-08-13T07:12:59Z</time>
      </trkpt>
      <trkpt lat="44.46482" lon="1.11026">
        <ele>252.980606</ele>
        <time>2009-08-13T07:13:02Z</time>
      </trkpt>
      <trkpt lat="44.46486" lon="1.11031">
        <ele>252.951584</ele>
        <time>2009-08-13T07:13:05Z</time>
      </trkpt>
      <trkpt lat="44.4649" lon="1.11038">
        <ele>252.856567</ele>
        <time>2009-08-13T07:13:08Z</time>
      </trkpt>
      <trkpt lat="44.46493" lon="1.11045">
        <ele>252.728699</ele>
        <time>2009-08-13T07:13:11Z</time>
      </trkpt>
      <trkpt lat="44.46496" lon="1.11056">
        <ele>252.471451</ele>
        <time>2009-08-13T07:13:14Z</time>
      </trkpt>
      <trkpt lat="44.46497" lon="1.11069">
        <ele>252.104782</ele>
        <time>2009-08-13T07:13:17Z</time>
      </trkpt>
      <trkpt lat="44.46497" lon="1.11081">
        <ele>251.910217</ele>
        <time>2009-08-13T07:13:20Z</time>
      </trkpt>
      <trkpt lat="44.46497" lon="1.11095">
        <ele>251.533752</ele>
        <time>2009-08-13T07:13:23Z</time>
      </trkpt>
      <trkpt lat="44.46498" lon="1.11112">
        <ele>250.836258</ele>
        <time>2009-08-13T07:13:26Z</time>
      </trkpt>
      <trkpt lat="44.46498" lon="1.11132">
        <ele>250.251251</ele>
        <time>2009-08-13T07:13:29Z</time>
      </trkpt>
      <trkpt lat="44.46498" lon="1.11152">
        <ele>249.71402</ele>
        <time>2009-08-13T07:13:32Z</time>
      </trkpt>
      <trkpt lat="44.46499" lon="1.11172">
        <ele>250.014481</ele>
        <time>2009-08-13T07:13:35Z</time>
      </trkpt>
      <trkpt lat="44.465" lon="1.1119">
        <ele>250.203262</ele>
        <time>2009-08-13T07:13:38Z</time>
      </trkpt>
      <trkpt lat="44.46503" lon="1.11208">
        <ele>250.190857</ele>
        <time>2009-08-13T07:13:41Z</time>
      </trkpt>
      <trkpt lat="44.4651" lon="1.11225">
        <ele>249.834839</ele>
        <time>2009-08-13T07:13:44Z</time>
      </trkpt>
      <trkpt lat="44.46518" lon="1.11239">
        <ele>249.67395</ele>
        <time>2009-08-13T07:13:47Z</time>
      </trkpt>
      <trkpt lat="44.46523" lon="1.1125">
        <ele>249.691879</ele>
        <time>2009-08-13T07:13:50Z</time>
      </trkpt>
      <trkpt lat="44.46529" lon="1.11261">
        <ele>249.819031</ele>
        <time>2009-08-13T07:13:53Z</time>
      </trkpt>
      <trkpt lat="44.46535" lon="1.11272">
        <ele>250.089371</ele>
        <time>2009-08-13T07:13:56Z</time>
      </trkpt>
      <trkpt lat="44.4654" lon="1.11284">
        <ele>249.868744</ele>
        <time>2009-08-13T07:13:59Z</time>
      </trkpt>
      <trkpt lat="44.46542" lon="1.11308">
        <ele>249.029999</ele>
        <time>2009-08-13T07:14:03Z</time>
      </trkpt>
      <trkpt lat="44.4654" lon="1.11326">
        <ele>248.558746</ele>
        <time>2009-08-13T07:14:06Z</time>
      </trkpt>
      <trkpt lat="44.46538" lon="1.11344">
        <ele>247.987488</ele>
        <time>2009-08-13T07:14:09Z</time>
      </trkpt>
      <trkpt lat="44.46535" lon="1.11363">
        <ele>247.043381</ele>
        <time>2009-08-13T07:14:12Z</time>
      </trkpt>
      <trkpt lat="44.46532" lon="1.11381">
        <ele>245.992065</ele>
        <time>2009-08-13T07:14:15Z</time>
      </trkpt>
      <trkpt lat="44.46538" lon="1.11402">
        <ele>244.829727</ele>
        <time>2009-08-13T07:14:20Z</time>
      </trkpt>
      <trkpt lat="44.46549" lon="1.11408">
        <ele>244.848755</ele>
        <time>2009-08-13T07:14:23Z</time>
      </trkpt>
      <trkpt lat="44.46563" lon="1.11414">
        <ele>245.310226</ele>
        <time>2009-08-13T07:14:27Z</time>
      </trkpt>
      <trkpt lat="44.46574" lon="1.11419">
        <ele>245.745682</ele>
        <time>2009-08-13T07:14:30Z</time>
      </trkpt>
      <trkpt lat="44.46585" lon="1.11422">
        <ele>246.319473</ele>
        <time>2009-08-13T07:14:33Z</time>
      </trkpt>
      <trkpt lat="44.46595" lon="1.11424">
        <ele>247.00621</ele>
        <time>2009-08-13T07:14:36Z</time>
      </trkpt>
      <trkpt lat="44.46605" lon="1.11427">
        <ele>247.637878</ele>
        <time>2009-08-13T07:14:39Z</time>
      </trkpt>
      <trkpt lat="44.46614" lon="1.11431">
        <ele>248.251633</ele>
        <time>2009-08-13T07:14:42Z</time>
      </trkpt>
      <trkpt lat="44.46623" lon="1.11435">
        <ele>248.902649</ele>
        <time>2009-08-13T07:14:45Z</time>
      </trkpt>
      <trkpt lat="44.46632" lon="1.11438">
        <ele>249.544022</ele>
        <time>2009-08-13T07:14:48Z</time>
      </trkpt>
      <trkpt lat="44.46638" lon="1.1144">
        <ele>249.898743</ele>
        <time>2009-08-13T07:14:51Z</time>
      </trkpt>
      <trkpt lat="44.46645" lon="1.11442">
        <ele>250.128754</ele>
        <time>2009-08-13T07:14:54Z</time>
      </trkpt>
      <trkpt lat="44.46651" lon="1.11444">
        <ele>250.327499</ele>
        <time>2009-08-13T07:14:57Z</time>
      </trkpt>
      <trkpt lat="44.46658" lon="1.11448">
        <ele>250.505005</ele>
        <time>2009-08-13T07:15:00Z</time>
      </trkpt>
      <trkpt lat="44.46664" lon="1.1145">
        <ele>250.706253</ele>
        <time>2009-08-13T07:15:03Z</time>
      </trkpt>
      <trkpt lat="44.4667" lon="1.11452">
        <ele>250.919998</ele>
        <time>2009-08-13T07:15:06Z</time>
      </trkpt>
      <trkpt lat="44.46678" lon="1.11453">
        <ele>251.211243</ele>
        <time>2009-08-13T07:15:09Z</time>
      </trkpt>
      <trkpt lat="44.46685" lon="1.11453">
        <ele>251.642502</ele>
        <time>2009-08-13T07:15:13Z</time>
      </trkpt>
      <trkpt lat="44.46692" lon="1.11454">
        <ele>252.061249</ele>
        <time>2009-08-13T07:15:17Z</time>
      </trkpt>
      <trkpt lat="44.46698" lon="1.11456">
        <ele>252.413742</ele>
        <time>2009-08-13T07:15:20Z</time>
      </trkpt>
      <trkpt lat="44.46704" lon="1.11457">
        <ele>252.758759</ele>
        <time>2009-08-13T07:15:23Z</time>
      </trkpt>
      <trkpt lat="44.46712" lon="1.11459">
        <ele>253.268753</ele>
        <time>2009-08-13T07:15:26Z</time>
      </trkpt>
      <trkpt lat="44.46719" lon="1.1146">
        <ele>253.666245</ele>
        <time>2009-08-13T07:15:29Z</time>
      </trkpt>
      <trkpt lat="44.46725" lon="1.1146">
        <ele>254.065002</ele>
        <time>2009-08-13T07:15:32Z</time>
      </trkpt>
      <trkpt lat="44.46731" lon="1.11461">
        <ele>254.404999</ele>
        <time>2009-08-13T07:15:35Z</time>
      </trkpt>
      <trkpt lat="44.46738" lon="1.11462">
        <ele>254.660004</ele>
        <time>2009-08-13T07:15:38Z</time>
      </trkpt>
      <trkpt lat="44.46744" lon="1.11463">
        <ele>254.938126</ele>
        <time>2009-08-13T07:15:41Z</time>
      </trkpt>
      <trkpt lat="44.46751" lon="1.11465">
        <ele>255.228119</ele>
        <time>2009-08-13T07:15:45Z</time>
      </trkpt>
      <trkpt lat="44.46756" lon="1.11466">
        <ele>255.423752</ele>
        <time>2009-08-13T07:15:48Z</time>
      </trkpt>
      <trkpt lat="44.46762" lon="1.11468">
        <ele>255.634369</ele>
        <time>2009-08-13T07:15:51Z</time>
      </trkpt>
      <trkpt lat="44.46768" lon="1.1147">
        <ele>255.804993</ele>
        <time>2009-08-13T07:15:54Z</time>
      </trkpt>
      <trkpt lat="44.46775" lon="1.11472">
        <ele>255.730698</ele>
        <time>2009-08-13T07:15:57Z</time>
      </trkpt>
      <trkpt lat="44.4678" lon="1.11475">
        <ele>255.585175</ele>
        <time>2009-08-13T07:16:00Z</time>
      </trkpt>
      <trkpt lat="44.46786" lon="1.11476">
        <ele>255.565002</ele>
        <time>2009-08-13T07:16:03Z</time>
      </trkpt>
      <trkpt lat="44.46791" lon="1.11478">
        <ele>255.490601</ele>
        <time>2009-08-13T07:16:06Z</time>
      </trkpt>
      <trkpt lat="44.46795" lon="1.1148">
        <ele>255.449493</ele>
        <time>2009-08-13T07:16:09Z</time>
      </trkpt>
      <trkpt lat="44.46799" lon="1.11481">
        <ele>255.421768</ele>
        <time>2009-08-13T07:16:12Z</time>
      </trkpt>
      <trkpt lat="44.46804" lon="1.11483">
        <ele>255.386597</ele>
        <time>2009-08-13T07:16:15Z</time>
      </trkpt>
      <trkpt lat="44.46811" lon="1.11485">
        <ele>255.397324</ele>
        <time>2009-08-13T07:16:18Z</time>
      </trkpt>
      <trkpt lat="44.46821" lon="1.11488">
        <ele>255.191254</ele>
        <time>2009-08-13T07:16:21Z</time>
      </trkpt>
      <trkpt lat="44.46828" lon="1.1149">
        <ele>255.011246</ele>
        <time>2009-08-13T07:16:24Z</time>
      </trkpt>
      <trkpt lat="44.46836" lon="1.11491">
        <ele>254.891251</ele>
        <time>2009-08-13T07:16:27Z</time>
      </trkpt>
      <trkpt lat="44.46846" lon="1.11492">
        <ele>254.726257</ele>
        <time>2009-08-13T07:16:30Z</time>
      </trkpt>
      <trkpt lat="44.46859" lon="1.11493">
        <ele>254.632507</ele>
        <time>2009-08-13T07:16:33Z</time>
      </trkpt>
      <trkpt lat="44.46875" lon="1.11491">
        <ele>253.152756</ele>
        <time>2009-08-13T07:16:36Z</time>
      </trkpt>
      <trkpt lat="44.46893" lon="1.11483">
        <ele>251.708801</ele>
        <time>2009-08-13T07:16:40Z</time>
      </trkpt>
      <trkpt lat="44.46914" lon="1.11475">
        <ele>249.865372</ele>
        <time>2009-08-13T07:16:43Z</time>
      </trkpt>
      <trkpt lat="44.46939" lon="1.11474">
        <ele>247.435059</ele>
        <time>2009-08-13T07:16:46Z</time>
      </trkpt>
      <trkpt lat="44.46964" lon="1.11482">
        <ele>246.572159</ele>
        <time>2009-08-13T07:16:49Z</time>
      </trkpt>
      <trkpt lat="44.46987" lon="1.1149">
        <ele>247.271408</ele>
        <time>2009-08-13T07:16:52Z</time>
      </trkpt>
      <trkpt lat="44.47006" lon="1.11499">
        <ele>248.22438</ele>
        <time>2009-08-13T07:16:55Z</time>
      </trkpt>
      <trkpt lat="44.47022" lon="1.11505">
        <ele>249.00563</ele>
        <time>2009-08-13T07:16:58Z</time>
      </trkpt>
      <trkpt lat="44.47033" lon="1.11507">
        <ele>249.530624</ele>
        <time>2009-08-13T07:17:01Z</time>
      </trkpt>
      <trkpt lat="44.47041" lon="1.11509">
        <ele>249.980835</ele>
        <time>2009-08-13T07:17:04Z</time>
      </trkpt>
      <trkpt lat="44.47048" lon="1.11511">
        <ele>250.591797</ele>
        <time>2009-08-13T07:17:07Z</time>
      </trkpt>
      <trkpt lat="44.47055" lon="1.11513">
        <ele>251.285461</ele>
        <time>2009-08-13T07:17:10Z</time>
      </trkpt>
      <trkpt lat="44.4706" lon="1.11515">
        <ele>251.745682</ele>
        <time>2009-08-13T07:17:13Z</time>
      </trkpt>
      <trkpt lat="44.47064" lon="1.11517">
        <ele>252.124405</ele>
        <time>2009-08-13T07:17:16Z</time>
      </trkpt>
      <trkpt lat="44.47071" lon="1.11519">
        <ele>252.690933</ele>
        <time>2009-08-13T07:17:20Z</time>
      </trkpt>
      <trkpt lat="44.47076" lon="1.11521">
        <ele>253.118423</ele>
        <time>2009-08-13T07:17:23Z</time>
      </trkpt>
      <trkpt lat="44.47083" lon="1.11524">
        <ele>253.676971</ele>
        <time>2009-08-13T07:17:27Z</time>
      </trkpt>
      <trkpt lat="44.47089" lon="1.11528">
        <ele>254.344788</ele>
        <time>2009-08-13T07:17:30Z</time>
      </trkpt>
      <trkpt lat="44.47093" lon="1.11531">
        <ele>254.914902</ele>
        <time>2009-08-13T07:17:33Z</time>
      </trkpt>
      <trkpt lat="44.47098" lon="1.11534">
        <ele>255.501312</ele>
        <time>2009-08-13T07:17:36Z</time>
      </trkpt>
      <trkpt lat="44.47103" lon="1.11537">
        <ele>256.239838</ele>
        <time>2009-08-13T07:17:39Z</time>
      </trkpt>
      <trkpt lat="44.47108" lon="1.11542">
        <ele>256.852051</ele>
        <time>2009-08-13T07:17:44Z</time>
      </trkpt>
      <trkpt lat="44.47113" lon="1.11544">
        <ele>257.510742</ele>
        <time>2009-08-13T07:17:48Z</time>
      </trkpt>
      <trkpt lat="44.47116" lon="1.11547">
        <ele>257.997223</ele>
        <time>2009-08-13T07:17:51Z</time>
      </trkpt>
      <trkpt lat="44.4712" lon="1.1155">
        <ele>258.474365</ele>
        <time>2009-08-13T07:17:54Z</time>
      </trkpt>
      <trkpt lat="44.47124" lon="1.11554">
        <ele>259.0242</ele>
        <time>2009-08-13T07:17:57Z</time>
      </trkpt>
      <trkpt lat="44.47127" lon="1.11556">
        <ele>259.533813</ele>
        <time>2009-08-13T07:18:00Z</time>
      </trkpt>
      <trkpt lat="44.47131" lon="1.1156">
        <ele>260.083923</ele>
        <time>2009-08-13T07:18:04Z</time>
      </trkpt>
      <trkpt lat="44.47136" lon="1.11563">
        <ele>260.79599</ele>
        <time>2009-08-13T07:18:07Z</time>
      </trkpt>
      <trkpt lat="44.47139" lon="1.11567">
        <ele>261.297333</ele>
        <time>2009-08-13T07:18:10Z</time>
      </trkpt>
      <trkpt lat="44.47143" lon="1.1157">
        <ele>261.858093</ele>
        <time>2009-08-13T07:18:13Z</time>
      </trkpt>
      <trkpt lat="44.47146" lon="1.11573">
        <ele>262.463257</ele>
        <time>2009-08-13T07:18:16Z</time>
      </trkpt>
      <trkpt lat="44.47149" lon="1.11576">
        <ele>262.917267</ele>
        <time>2009-08-13T07:18:19Z</time>
      </trkpt>
      <trkpt lat="44.47154" lon="1.11581">
        <ele>263.411652</ele>
        <time>2009-08-13T07:18:23Z</time>
      </trkpt>
      <trkpt lat="44.47158" lon="1.11585">
        <ele>263.79776</ele>
        <time>2009-08-13T07:18:26Z</time>
      </trkpt>
      <trkpt lat="44.47162" lon="1.11588">
        <ele>264.324707</ele>
        <time>2009-08-13T07:18:29Z</time>
      </trkpt>
      <trkpt lat="44.47167" lon="1.11592">
        <ele>264.913574</ele>
        <time>2009-08-13T07:18:32Z</time>
      </trkpt>
      <trkpt lat="44.4717" lon="1.11594">
        <ele>265.377258</ele>
        <time>2009-08-13T07:18:35Z</time>
      </trkpt>
      <trkpt lat="44.47173" lon="1.11598">
        <ele>265.830139</ele>
        <time>2009-08-13T07:18:39Z</time>
      </trkpt>
      <trkpt lat="44.47178" lon="1.11603">
        <ele>266.577454</ele>
        <time>2009-08-13T07:18:42Z</time>
      </trkpt>
      <trkpt lat="44.47181" lon="1.11607">
        <ele>266.970001</ele>
        <time>2009-08-13T07:18:45Z</time>
      </trkpt>
      <trkpt lat="44.47186" lon="1.11611">
        <ele>267.578796</ele>
        <time>2009-08-13T07:18:49Z</time>
      </trkpt>
      <trkpt lat="44.47189" lon="1.11614">
        <ele>268.11496</ele>
        <time>2009-08-13T07:18:52Z</time>
      </trkpt>
      <trkpt lat="44.47193" lon="1.11619">
        <ele>268.752899</ele>
        <time>2009-08-13T07:18:57Z</time>
      </trkpt>
      <trkpt lat="44.47197" lon="1.11623">
        <ele>269.334747</ele>
        <time>2009-08-13T07:19:00Z</time>
      </trkpt>
      <trkpt lat="44.472" lon="1.11627">
        <ele>269.848938</ele>
        <time>2009-08-13T07:19:04Z</time>
      </trkpt>
      <trkpt lat="44.47203" lon="1.11631">
        <ele>270.380676</ele>
        <time>2009-08-13T07:19:07Z</time>
      </trkpt>
      <trkpt lat="44.47206" lon="1.11636">
        <ele>271.029602</ele>
        <time>2009-08-13T07:19:11Z</time>
      </trkpt>
      <trkpt lat="44.47208" lon="1.1164">
        <ele>271.422241</ele>
        <time>2009-08-13T07:19:14Z</time>
      </trkpt>
      <trkpt lat="44.47211" lon="1.11645">
        <ele>271.762268</ele>
        <time>2009-08-13T07:19:18Z</time>
      </trkpt>
      <trkpt lat="44.47215" lon="1.11652">
        <ele>272.430817</ele>
        <time>2009-08-13T07:19:22Z</time>
      </trkpt>
      <trkpt lat="44.47217" lon="1.11657">
        <ele>272.89917</ele>
        <time>2009-08-13T07:19:26Z</time>
      </trkpt>
      <trkpt lat="44.47219" lon="1.1166">
        <ele>273.229889</ele>
        <time>2009-08-13T07:19:30Z</time>
      </trkpt>
      <trkpt lat="44.47223" lon="1.11666">
        <ele>273.725037</ele>
        <time>2009-08-13T07:19:33Z</time>
      </trkpt>
      <trkpt lat="44.47226" lon="1.11671">
        <ele>274.039612</ele>
        <time>2009-08-13T07:19:36Z</time>
      </trkpt>
      <trkpt lat="44.4723" lon="1.11677">
        <ele>274.410248</ele>
        <time>2009-08-13T07:19:39Z</time>
      </trkpt>
      <trkpt lat="44.47234" lon="1.11684">
        <ele>274.858734</ele>
        <time>2009-08-13T07:19:45Z</time>
      </trkpt>
      <trkpt lat="44.47237" lon="1.11689">
        <ele>275.209381</ele>
        <time>2009-08-13T07:19:49Z</time>
      </trkpt>
      <trkpt lat="44.47243" lon="1.11691">
        <ele>275.934662</ele>
        <time>2009-08-13T07:19:52Z</time>
      </trkpt>
      <trkpt lat="44.47247" lon="1.11686">
        <ele>276.460663</ele>
        <time>2009-08-13T07:19:56Z</time>
      </trkpt>
      <trkpt lat="44.47251" lon="1.1168">
        <ele>277.012878</ele>
        <time>2009-08-13T07:20:02Z</time>
      </trkpt>
      <trkpt lat="44.47254" lon="1.11675">
        <ele>277.421539</ele>
        <time>2009-08-13T07:20:05Z</time>
      </trkpt>
      <trkpt lat="44.47259" lon="1.11667">
        <ele>278.111633</ele>
        <time>2009-08-13T07:20:10Z</time>
      </trkpt>
      <trkpt lat="44.47263" lon="1.1166">
        <ele>278.638</ele>
        <time>2009-08-13T07:20:14Z</time>
      </trkpt>
      <trkpt lat="44.47266" lon="1.11655">
        <ele>278.960358</ele>
        <time>2009-08-13T07:20:17Z</time>
      </trkpt>
      <trkpt lat="44.4727" lon="1.11649">
        <ele>279.2547</ele>
        <time>2009-08-13T07:20:20Z</time>
      </trkpt>
      <trkpt lat="44.47276" lon="1.11643">
        <ele>279.664093</ele>
        <time>2009-08-13T07:20:23Z</time>
      </trkpt>
      <trkpt lat="44.47283" lon="1.11644">
        <ele>280.171661</ele>
        <time>2009-08-13T07:20:26Z</time>
      </trkpt>
      <trkpt lat="44.4729" lon="1.1165">
        <ele>280.683624</ele>
        <time>2009-08-13T07:20:30Z</time>
      </trkpt>
      <trkpt lat="44.47299" lon="1.11658">
        <ele>281.396454</ele>
        <time>2009-08-13T07:20:34Z</time>
      </trkpt>
      <trkpt lat="44.47304" lon="1.11664">
        <ele>281.898346</ele>
        <time>2009-08-13T07:20:37Z</time>
      </trkpt>
      <trkpt lat="44.47311" lon="1.1167">
        <ele>282.477661</ele>
        <time>2009-08-13T07:20:40Z</time>
      </trkpt>
      <trkpt lat="44.47317" lon="1.11676">
        <ele>282.71225</ele>
        <time>2009-08-13T07:20:43Z</time>
      </trkpt>
      <trkpt lat="44.47323" lon="1.11683">
        <ele>282.935455</ele>
        <time>2009-08-13T07:20:46Z</time>
      </trkpt>
      <trkpt lat="44.47329" lon="1.1169">
        <ele>283.173462</ele>
        <time>2009-08-13T07:20:49Z</time>
      </trkpt>
      <trkpt lat="44.47334" lon="1.11695">
        <ele>283.417023</ele>
        <time>2009-08-13T07:20:52Z</time>
      </trkpt>
      <trkpt lat="44.47342" lon="1.11701">
        <ele>283.6698</ele>
        <time>2009-08-13T07:20:56Z</time>
      </trkpt>
      <trkpt lat="44.47349" lon="1.11704">
        <ele>283.810669</ele>
        <time>2009-08-13T07:20:59Z</time>
      </trkpt>
      <trkpt lat="44.47356" lon="1.11714">
        <ele>283.97818</ele>
        <time>2009-08-13T07:21:02Z</time>
      </trkpt>
      <trkpt lat="44.4736" lon="1.11724">
        <ele>283.794037</ele>
        <time>2009-08-13T07:21:06Z</time>
      </trkpt>
      <trkpt lat="44.47362" lon="1.11734">
        <ele>283.665558</ele>
        <time>2009-08-13T07:21:09Z</time>
      </trkpt>
      <trkpt lat="44.47367" lon="1.11742">
        <ele>283.428558</ele>
        <time>2009-08-13T07:21:12Z</time>
      </trkpt>
      <trkpt lat="44.47376" lon="1.11749">
        <ele>282.986908</ele>
        <time>2009-08-13T07:21:16Z</time>
      </trkpt>
      <trkpt lat="44.47384" lon="1.11751">
        <ele>282.64743</ele>
        <time>2009-08-13T07:21:19Z</time>
      </trkpt>
      <trkpt lat="44.47396" lon="1.11756">
        <ele>282.16922</ele>
        <time>2009-08-13T07:21:22Z</time>
      </trkpt>
      <trkpt lat="44.47405" lon="1.11761">
        <ele>281.503723</ele>
        <time>2009-08-13T07:21:25Z</time>
      </trkpt>
      <trkpt lat="44.47415" lon="1.11769">
        <ele>279.910187</ele>
        <time>2009-08-13T07:21:28Z</time>
      </trkpt>
      <trkpt lat="44.47419" lon="1.11783">
        <ele>279.257965</ele>
        <time>2009-08-13T07:21:34Z</time>
      </trkpt>
      <trkpt lat="44.4742" lon="1.11784">
        <ele>279.088837</ele>
        <time>2009-08-13T07:21:38Z</time>
      </trkpt>
      <trkpt lat="44.47421" lon="1.11785">
        <ele>279.02478</ele>
        <time>2009-08-13T07:21:42Z</time>
      </trkpt>
      <trkpt lat="44.47422" lon="1.11787">
        <ele>278.85672</ele>
        <time>2009-08-13T07:21:49Z</time>
      </trkpt>
      <trkpt lat="44.47423" lon="1.11788">
        <ele>278.772339</ele>
        <time>2009-08-13T07:21:54Z</time>
      </trkpt>
      <trkpt lat="44.47424" lon="1.1179">
        <ele>278.678253</ele>
        <time>2009-08-13T07:22:00Z</time>
      </trkpt>
      <trkpt lat="44.47422" lon="1.11789">
        <ele>278.819519</ele>
        <time>2009-08-13T07:22:41Z</time>
      </trkpt>
      <trkpt lat="44.47424" lon="1.11789">
        <ele>278.641418</ele>
        <time>2009-08-13T07:22:48Z</time>
      </trkpt>
      <trkpt lat="44.47427" lon="1.11791">
        <ele>278.248871</ele>
        <time>2009-08-13T07:22:51Z</time>
      </trkpt>
      <trkpt lat="44.4743" lon="1.11796">
        <ele>277.996094</ele>
        <time>2009-08-13T07:22:54Z</time>
      </trkpt>
      <trkpt lat="44.47432" lon="1.11802">
        <ele>277.86795</ele>
        <time>2009-08-13T07:22:59Z</time>
      </trkpt>
      <trkpt lat="44.47436" lon="1.11811">
        <ele>277.641479</ele>
        <time>2009-08-13T07:23:03Z</time>
      </trkpt>
      <trkpt lat="44.47441" lon="1.11821">
        <ele>277.427521</ele>
        <time>2009-08-13T07:23:06Z</time>
      </trkpt>
      <trkpt lat="44.4745" lon="1.11835">
        <ele>276.347687</ele>
        <time>2009-08-13T07:23:09Z</time>
      </trkpt>
      <trkpt lat="44.47455" lon="1.11852">
        <ele>275.097107</ele>
        <time>2009-08-13T07:23:12Z</time>
      </trkpt>
      <trkpt lat="44.47458" lon="1.11859">
        <ele>274.61795</ele>
        <time>2009-08-13T07:23:16Z</time>
      </trkpt>
      <trkpt lat="44.47471" lon="1.11865">
        <ele>272.757385</ele>
        <time>2009-08-13T07:23:19Z</time>
      </trkpt>
      <trkpt lat="44.47487" lon="1.11876">
        <ele>270.788635</ele>
        <time>2009-08-13T07:23:22Z</time>
      </trkpt>
      <trkpt lat="44.47504" lon="1.11891">
        <ele>267.384705</ele>
        <time>2009-08-13T07:23:25Z</time>
      </trkpt>
      <trkpt lat="44.47519" lon="1.11913">
        <ele>263.991089</ele>
        <time>2009-08-13T07:23:28Z</time>
      </trkpt>
      <trkpt lat="44.47535" lon="1.1194">
        <ele>262.207031</ele>
        <time>2009-08-13T07:23:31Z</time>
      </trkpt>
      <trkpt lat="44.47553" lon="1.11966">
        <ele>260.570007</ele>
        <time>2009-08-13T07:23:34Z</time>
      </trkpt>
      <trkpt lat="44.47571" lon="1.11992">
        <ele>259.454529</ele>
        <time>2009-08-13T07:23:37Z</time>
      </trkpt>
      <trkpt lat="44.4759" lon="1.12013">
        <ele>258.047089</ele>
        <time>2009-08-13T07:23:40Z</time>
      </trkpt>
      <trkpt lat="44.47605" lon="1.12028">
        <ele>255.460098</ele>
        <time>2009-08-13T07:23:43Z</time>
      </trkpt>
      <trkpt lat="44.4762" lon="1.12039">
        <ele>253.248047</ele>
        <time>2009-08-13T07:23:46Z</time>
      </trkpt>
      <trkpt lat="44.47637" lon="1.12048">
        <ele>250.808502</ele>
        <time>2009-08-13T07:23:49Z</time>
      </trkpt>
      <trkpt lat="44.47669" lon="1.12047">
        <ele>246.822327</ele>
        <time>2009-08-13T07:23:53Z</time>
      </trkpt>
      <trkpt lat="44.47696" lon="1.12047">
        <ele>242.782303</ele>
        <time>2009-08-13T07:23:56Z</time>
      </trkpt>
      <trkpt lat="44.47718" lon="1.12056">
        <ele>240.262527</ele>
        <time>2009-08-13T07:23:59Z</time>
      </trkpt>
      <trkpt lat="44.47731" lon="1.12064">
        <ele>238.870224</ele>
        <time>2009-08-13T07:24:02Z</time>
      </trkpt>
      <trkpt lat="44.47739" lon="1.12071">
        <ele>237.200394</ele>
        <time>2009-08-13T07:24:06Z</time>
      </trkpt>
      <trkpt lat="44.47745" lon="1.1208">
        <ele>235.282471</ele>
        <time>2009-08-13T07:24:09Z</time>
      </trkpt>
      <trkpt lat="44.47744" lon="1.12091">
        <ele>234.234177</ele>
        <time>2009-08-13T07:24:12Z</time>
      </trkpt>
      <trkpt lat="44.47749" lon="1.12104">
        <ele>232.500397</ele>
        <time>2009-08-13T07:24:15Z</time>
      </trkpt>
      <trkpt lat="44.47755" lon="1.12121">
        <ele>230.633774</ele>
        <time>2009-08-13T07:24:18Z</time>
      </trkpt>
      <trkpt lat="44.47762" lon="1.12143">
        <ele>229.136002</ele>
        <time>2009-08-13T07:24:21Z</time>
      </trkpt>
      <trkpt lat="44.47767" lon="1.12165">
        <ele>228.269714</ele>
        <time>2009-08-13T07:24:24Z</time>
      </trkpt>
      <trkpt lat="44.47773" lon="1.12184">
        <ele>226.861633</ele>
        <time>2009-08-13T07:24:27Z</time>
      </trkpt>
      <trkpt lat="44.47776" lon="1.12199">
        <ele>226.555008</ele>
        <time>2009-08-13T07:24:30Z</time>
      </trkpt>
      <trkpt lat="44.47778" lon="1.12213">
        <ele>227.074997</ele>
        <time>2009-08-13T07:24:33Z</time>
      </trkpt>
      <trkpt lat="44.47774" lon="1.12229">
        <ele>228.141876</ele>
        <time>2009-08-13T07:24:36Z</time>
      </trkpt>
      <trkpt lat="44.47771" lon="1.12252">
        <ele>229.604996</ele>
        <time>2009-08-13T07:24:41Z</time>
      </trkpt>
      <trkpt lat="44.4777" lon="1.12267">
        <ele>231.376343</ele>
        <time>2009-08-13T07:24:44Z</time>
      </trkpt>
      <trkpt lat="44.47769" lon="1.12278">
        <ele>232.867905</ele>
        <time>2009-08-13T07:24:47Z</time>
      </trkpt>
      <trkpt lat="44.47769" lon="1.12287">
        <ele>234.146317</ele>
        <time>2009-08-13T07:24:50Z</time>
      </trkpt>
      <trkpt lat="44.4777" lon="1.12298">
        <ele>235.465302</ele>
        <time>2009-08-13T07:24:54Z</time>
      </trkpt>
      <trkpt lat="44.47769" lon="1.12309">
        <ele>236.893127</ele>
        <time>2009-08-13T07:24:58Z</time>
      </trkpt>
      <trkpt lat="44.47766" lon="1.12317">
        <ele>237.40506</ele>
        <time>2009-08-13T07:25:02Z</time>
      </trkpt>
      <trkpt lat="44.47765" lon="1.12323">
        <ele>237.510452</ele>
        <time>2009-08-13T07:25:05Z</time>
      </trkpt>
      <trkpt lat="44.47764" lon="1.12331">
        <ele>237.968994</ele>
        <time>2009-08-13T07:25:08Z</time>
      </trkpt>
      <trkpt lat="44.47765" lon="1.12336">
        <ele>238.444092</ele>
        <time>2009-08-13T07:25:11Z</time>
      </trkpt>
      <trkpt lat="44.47764" lon="1.12343">
        <ele>238.980881</ele>
        <time>2009-08-13T07:25:15Z</time>
      </trkpt>
      <trkpt lat="44.47764" lon="1.1235">
        <ele>239.528976</ele>
        <time>2009-08-13T07:25:18Z</time>
      </trkpt>
      <trkpt lat="44.47764" lon="1.12356">
        <ele>240.057449</ele>
        <time>2009-08-13T07:25:21Z</time>
      </trkpt>
      <trkpt lat="44.47764" lon="1.12365">
        <ele>240.638626</ele>
        <time>2009-08-13T07:25:24Z</time>
      </trkpt>
      <trkpt lat="44.47764" lon="1.12371">
        <ele>241.224594</ele>
        <time>2009-08-13T07:25:27Z</time>
      </trkpt>
      <trkpt lat="44.47764" lon="1.12378">
        <ele>241.834808</ele>
        <time>2009-08-13T07:25:30Z</time>
      </trkpt>
      <trkpt lat="44.47765" lon="1.12384">
        <ele>242.117142</ele>
        <time>2009-08-13T07:25:34Z</time>
      </trkpt>
      <trkpt lat="44.47765" lon="1.1239">
        <ele>242.085251</ele>
        <time>2009-08-13T07:25:37Z</time>
      </trkpt>
      <trkpt lat="44.47765" lon="1.12395">
        <ele>242.100082</ele>
        <time>2009-08-13T07:25:40Z</time>
      </trkpt>
      <trkpt lat="44.47763" lon="1.12397">
        <ele>241.817917</ele>
        <time>2009-08-13T07:26:03Z</time>
      </trkpt>
      <trkpt lat="44.47762" lon="1.12402">
        <ele>241.528549</ele>
        <time>2009-08-13T07:26:17Z</time>
      </trkpt>
      <trkpt lat="44.47761" lon="1.12411">
        <ele>241.220856</ele>
        <time>2009-08-13T07:26:21Z</time>
      </trkpt>
      <trkpt lat="44.47761" lon="1.12418">
        <ele>241.224579</ele>
        <time>2009-08-13T07:26:24Z</time>
      </trkpt>
      <trkpt lat="44.47763" lon="1.12428">
        <ele>241.48671</ele>
        <time>2009-08-13T07:26:29Z</time>
      </trkpt>
      <trkpt lat="44.47764" lon="1.12436">
        <ele>241.862579</ele>
        <time>2009-08-13T07:26:32Z</time>
      </trkpt>
      <trkpt lat="44.47766" lon="1.12443">
        <ele>242.274994</ele>
        <time>2009-08-13T07:26:35Z</time>
      </trkpt>
      <trkpt lat="44.47766" lon="1.12447">
        <ele>241.875046</ele>
        <time>2009-08-13T07:26:56Z</time>
      </trkpt>
      <trkpt lat="44.47766" lon="1.1245">
        <ele>241.694443</ele>
        <time>2009-08-13T07:27:01Z</time>
      </trkpt>
      <trkpt lat="44.4777" lon="1.12457">
        <ele>242.085007</ele>
        <time>2009-08-13T07:27:05Z</time>
      </trkpt>
      <trkpt lat="44.47772" lon="1.12465">
        <ele>241.845215</ele>
        <time>2009-08-13T07:27:08Z</time>
      </trkpt>
      <trkpt lat="44.47775" lon="1.12476">
        <ele>241.475204</ele>
        <time>2009-08-13T07:27:11Z</time>
      </trkpt>
      <trkpt lat="44.4778" lon="1.12485">
        <ele>241.445786</ele>
        <time>2009-08-13T07:27:14Z</time>
      </trkpt>
      <trkpt lat="44.47783" lon="1.12495">
        <ele>241.269516</ele>
        <time>2009-08-13T07:27:17Z</time>
      </trkpt>
      <trkpt lat="44.47785" lon="1.12509">
        <ele>240.930618</ele>
        <time>2009-08-13T07:27:20Z</time>
      </trkpt>
      <trkpt lat="44.47788" lon="1.12527">
        <ele>241.014999</ele>
        <time>2009-08-13T07:27:23Z</time>
      </trkpt>
      <trkpt lat="44.47792" lon="1.12546">
        <ele>241.151871</ele>
        <time>2009-08-13T07:27:26Z</time>
      </trkpt>
      <trkpt lat="44.4779" lon="1.12564">
        <ele>240.543747</ele>
        <time>2009-08-13T07:27:29Z</time>
      </trkpt>
      <trkpt lat="44.47787" lon="1.12579">
        <ele>240.414993</ele>
        <time>2009-08-13T07:27:34Z</time>
      </trkpt>
      <trkpt lat="44.47782" lon="1.12587">
        <ele>239.984436</ele>
        <time>2009-08-13T07:27:37Z</time>
      </trkpt>
      <trkpt lat="44.47781" lon="1.126">
        <ele>240.157242</ele>
        <time>2009-08-13T07:27:40Z</time>
      </trkpt>
      <trkpt lat="44.47777" lon="1.12611">
        <ele>239.994873</ele>
        <time>2009-08-13T07:27:44Z</time>
      </trkpt>
      <trkpt lat="44.47766" lon="1.12621">
        <ele>237.620392</ele>
        <time>2009-08-13T07:27:48Z</time>
      </trkpt>
      <trkpt lat="44.47758" lon="1.12636">
        <ele>236.081207</ele>
        <time>2009-08-13T07:27:51Z</time>
      </trkpt>
      <trkpt lat="44.47752" lon="1.12652">
        <ele>236.060532</ele>
        <time>2009-08-13T07:27:56Z</time>
      </trkpt>
      <trkpt lat="44.47748" lon="1.12661">
        <ele>236.380707</ele>
        <time>2009-08-13T07:27:59Z</time>
      </trkpt>
      <trkpt lat="44.47743" lon="1.12674">
        <ele>237.036636</ele>
        <time>2009-08-13T07:28:02Z</time>
      </trkpt>
      <trkpt lat="44.47739" lon="1.12683">
        <ele>237.618927</ele>
        <time>2009-08-13T07:28:05Z</time>
      </trkpt>
      <trkpt lat="44.47736" lon="1.12692">
        <ele>238.570847</ele>
        <time>2009-08-13T07:28:09Z</time>
      </trkpt>
      <trkpt lat="44.47732" lon="1.12702">
        <ele>239.168289</ele>
        <time>2009-08-13T07:28:12Z</time>
      </trkpt>
      <trkpt lat="44.47724" lon="1.12713">
        <ele>238.375198</ele>
        <time>2009-08-13T07:28:17Z</time>
      </trkpt>
      <trkpt lat="44.47706" lon="1.12729">
        <ele>236.604874</ele>
        <time>2009-08-13T07:28:20Z</time>
      </trkpt>
      <trkpt lat="44.47695" lon="1.12745">
        <ele>237.839172</ele>
        <time>2009-08-13T07:28:24Z</time>
      </trkpt>
      <trkpt lat="44.47689" lon="1.12753">
        <ele>238.991333</ele>
        <time>2009-08-13T07:28:27Z</time>
      </trkpt>
      <trkpt lat="44.47683" lon="1.12762">
        <ele>240.09375</ele>
        <time>2009-08-13T07:28:30Z</time>
      </trkpt>
      <trkpt lat="44.47683" lon="1.1277">
        <ele>240.322083</ele>
        <time>2009-08-13T07:28:34Z</time>
      </trkpt>
      <trkpt lat="44.47685" lon="1.12774">
        <ele>240.606522</ele>
        <time>2009-08-13T07:28:38Z</time>
      </trkpt>
      <trkpt lat="44.47687" lon="1.1278">
        <ele>240.856308</ele>
        <time>2009-08-13T07:28:41Z</time>
      </trkpt>
      <trkpt lat="44.47689" lon="1.12787">
        <ele>241.16539</ele>
        <time>2009-08-13T07:28:44Z</time>
      </trkpt>
      <trkpt lat="44.47693" lon="1.12794">
        <ele>241.501007</ele>
        <time>2009-08-13T07:28:49Z</time>
      </trkpt>
      <trkpt lat="44.47696" lon="1.128">
        <ele>241.760834</ele>
        <time>2009-08-13T07:28:52Z</time>
      </trkpt>
      <trkpt lat="44.47699" lon="1.12805">
        <ele>242.000595</ele>
        <time>2009-08-13T07:28:56Z</time>
      </trkpt>
      <trkpt lat="44.477" lon="1.12806">
        <ele>242.049667</ele>
        <time>2009-08-13T07:29:01Z</time>
      </trkpt>
      <trkpt lat="44.47701" lon="1.12805">
        <ele>242.068253</ele>
        <time>2009-08-13T07:29:09Z</time>
      </trkpt>
      <trkpt lat="44.47701" lon="1.12806">
        <ele>242.074997</ele>
        <time>2009-08-13T07:29:24Z</time>
      </trkpt>
      <trkpt lat="44.47698" lon="1.1281">
        <ele>242.057266</ele>
        <time>2009-08-13T07:29:28Z</time>
      </trkpt>
      <trkpt lat="44.47695" lon="1.12813">
        <ele>242.046814</ele>
        <time>2009-08-13T07:29:32Z</time>
      </trkpt>
      <trkpt lat="44.47698" lon="1.12811">
        <ele>242.087479</ele>
        <time>2009-08-13T07:29:43Z</time>
      </trkpt>
      <trkpt lat="44.47701" lon="1.12813">
        <ele>242.211044</ele>
        <time>2009-08-13T07:29:47Z</time>
      </trkpt>
      <trkpt lat="44.47704" lon="1.12815">
        <ele>242.328903</ele>
        <time>2009-08-13T07:29:51Z</time>
      </trkpt>
      <trkpt lat="44.47708" lon="1.12817">
        <ele>242.473907</ele>
        <time>2009-08-13T07:29:54Z</time>
      </trkpt>
      <trkpt lat="44.47713" lon="1.12822">
        <ele>242.464188</ele>
        <time>2009-08-13T07:29:57Z</time>
      </trkpt>
      <trkpt lat="44.47717" lon="1.12825">
        <ele>241.587952</ele>
        <time>2009-08-13T07:30:00Z</time>
      </trkpt>
      <trkpt lat="44.47721" lon="1.12827">
        <ele>241.016464</ele>
        <time>2009-08-13T07:30:03Z</time>
      </trkpt>
      <trkpt lat="44.47728" lon="1.12832">
        <ele>239.577545</ele>
        <time>2009-08-13T07:30:06Z</time>
      </trkpt>
      <trkpt lat="44.47741" lon="1.12838">
        <ele>237.954712</ele>
        <time>2009-08-13T07:30:10Z</time>
      </trkpt>
      <trkpt lat="44.47763" lon="1.1285">
        <ele>236.256531</ele>
        <time>2009-08-13T07:30:13Z</time>
      </trkpt>
      <trkpt lat="44.47778" lon="1.12866">
        <ele>234.806168</ele>
        <time>2009-08-13T07:30:16Z</time>
      </trkpt>
      <trkpt lat="44.47789" lon="1.12882">
        <ele>234.824646</ele>
        <time>2009-08-13T07:30:19Z</time>
      </trkpt>
      <trkpt lat="44.47795" lon="1.12889">
        <ele>235.215576</ele>
        <time>2009-08-13T07:30:22Z</time>
      </trkpt>
      <trkpt lat="44.47798" lon="1.12895">
        <ele>235.270035</ele>
        <time>2009-08-13T07:30:25Z</time>
      </trkpt>
      <trkpt lat="44.47803" lon="1.12901">
        <ele>235.76622</ele>
        <time>2009-08-13T07:30:29Z</time>
      </trkpt>
      <trkpt lat="44.47808" lon="1.12909">
        <ele>236.344604</ele>
        <time>2009-08-13T07:30:32Z</time>
      </trkpt>
      <trkpt lat="44.47811" lon="1.12916">
        <ele>236.522827</ele>
        <time>2009-08-13T07:30:35Z</time>
      </trkpt>
      <trkpt lat="44.47818" lon="1.12933">
        <ele>237.092331</ele>
        <time>2009-08-13T07:30:38Z</time>
      </trkpt>
      <trkpt lat="44.47822" lon="1.12944">
        <ele>237.522507</ele>
        <time>2009-08-13T07:30:41Z</time>
      </trkpt>
      <trkpt lat="44.47825" lon="1.12954">
        <ele>237.149261</ele>
        <time>2009-08-13T07:30:44Z</time>
      </trkpt>
      <trkpt lat="44.47828" lon="1.12971">
        <ele>235.942734</ele>
        <time>2009-08-13T07:30:48Z</time>
      </trkpt>
      <trkpt lat="44.47829" lon="1.12983">
        <ele>235.024475</ele>
        <time>2009-08-13T07:30:52Z</time>
      </trkpt>
      <trkpt lat="44.4783" lon="1.1299">
        <ele>234.555954</ele>
        <time>2009-08-13T07:30:56Z</time>
      </trkpt>
      <trkpt lat="44.4783" lon="1.12992">
        <ele>234.230133</ele>
        <time>2009-08-13T07:31:00Z</time>
      </trkpt>
      <trkpt lat="44.47834" lon="1.12997">
        <ele>234.745041</ele>
        <time>2009-08-13T07:31:03Z</time>
      </trkpt>
      <trkpt lat="44.47837" lon="1.13001">
        <ele>235.36557</ele>
        <time>2009-08-13T07:31:06Z</time>
      </trkpt>
      <trkpt lat="44.4784" lon="1.13005">
        <ele>235.772034</ele>
        <time>2009-08-13T07:31:09Z</time>
      </trkpt>
      <trkpt lat="44.47846" lon="1.13012">
        <ele>236.681473</ele>
        <time>2009-08-13T07:31:12Z</time>
      </trkpt>
      <trkpt lat="44.47851" lon="1.1302">
        <ele>237.731522</ele>
        <time>2009-08-13T07:31:15Z</time>
      </trkpt>
      <trkpt lat="44.47857" lon="1.13028">
        <ele>238.930374</ele>
        <time>2009-08-13T07:31:18Z</time>
      </trkpt>
      <trkpt lat="44.47862" lon="1.13041">
        <ele>240.230774</ele>
        <time>2009-08-13T07:31:22Z</time>
      </trkpt>
      <trkpt lat="44.47867" lon="1.13051">
        <ele>241.639999</ele>
        <time>2009-08-13T07:31:25Z</time>
      </trkpt>
      <trkpt lat="44.4787" lon="1.1306">
        <ele>241.705002</ele>
        <time>2009-08-13T07:31:28Z</time>
      </trkpt>
      <trkpt lat="44.47873" lon="1.13064">
        <ele>241.847504</ele>
        <time>2009-08-13T07:31:31Z</time>
      </trkpt>
      <trkpt lat="44.47877" lon="1.13069">
        <ele>242.201248</ele>
        <time>2009-08-13T07:31:36Z</time>
      </trkpt>
      <trkpt lat="44.47882" lon="1.13074">
        <ele>242.620392</ele>
        <time>2009-08-13T07:31:40Z</time>
      </trkpt>
      <trkpt lat="44.47886" lon="1.13078">
        <ele>242.847076</ele>
        <time>2009-08-13T07:31:44Z</time>
      </trkpt>
      <trkpt lat="44.47888" lon="1.1308">
        <ele>242.912308</ele>
        <time>2009-08-13T07:31:49Z</time>
      </trkpt>
      <trkpt lat="44.47889" lon="1.13082">
        <ele>242.961441</ele>
        <time>2009-08-13T07:31:55Z</time>
      </trkpt>
      <trkpt lat="44.47891" lon="1.13082">
        <ele>243.075089</ele>
        <time>2009-08-13T07:31:59Z</time>
      </trkpt>
      <trkpt lat="44.47892" lon="1.13083">
        <ele>243.162994</ele>
        <time>2009-08-13T07:32:04Z</time>
      </trkpt>
      <trkpt lat="44.47893" lon="1.13084">
        <ele>243.230667</ele>
        <time>2009-08-13T07:32:13Z</time>
      </trkpt>
      <trkpt lat="44.47894" lon="1.13087">
        <ele>243.124863</ele>
        <time>2009-08-13T07:32:38Z</time>
      </trkpt>
      <trkpt lat="44.47895" lon="1.13092">
        <ele>242.978592</ele>
        <time>2009-08-13T07:32:41Z</time>
      </trkpt>
      <trkpt lat="44.47893" lon="1.13103">
        <ele>242.295761</ele>
        <time>2009-08-13T07:32:45Z</time>
      </trkpt>
      <trkpt lat="44.47888" lon="1.13127">
        <ele>241.15094</ele>
        <time>2009-08-13T07:32:49Z</time>
      </trkpt>
      <trkpt lat="44.4788" lon="1.13152">
        <ele>238.422699</ele>
        <time>2009-08-13T07:32:52Z</time>
      </trkpt>
      <trkpt lat="44.47866" lon="1.13182">
        <ele>234.990997</ele>
        <time>2009-08-13T07:32:55Z</time>
      </trkpt>
      <trkpt lat="44.47852" lon="1.13217">
        <ele>228.841034</ele>
        <time>2009-08-13T07:32:58Z</time>
      </trkpt>
      <trkpt lat="44.47843" lon="1.13245">
        <ele>225.543015</ele>
        <time>2009-08-13T07:33:01Z</time>
      </trkpt>
      <trkpt lat="44.47827" lon="1.13264">
        <ele>224.676865</ele>
        <time>2009-08-13T07:33:04Z</time>
      </trkpt>
      <trkpt lat="44.4781" lon="1.13282">
        <ele>221.137253</ele>
        <time>2009-08-13T07:33:07Z</time>
      </trkpt>
      <trkpt lat="44.47797" lon="1.13299">
        <ele>218.52298</ele>
        <time>2009-08-13T07:33:10Z</time>
      </trkpt>
      <trkpt lat="44.47782" lon="1.1332">
        <ele>217.192505</ele>
        <time>2009-08-13T07:33:13Z</time>
      </trkpt>
      <trkpt lat="44.47768" lon="1.13346">
        <ele>213.089157</ele>
        <time>2009-08-13T07:33:16Z</time>
      </trkpt>
      <trkpt lat="44.47759" lon="1.13363">
        <ele>210.214905</ele>
        <time>2009-08-13T07:33:19Z</time>
      </trkpt>
      <trkpt lat="44.47756" lon="1.13366">
        <ele>209.346497</ele>
        <time>2009-08-13T07:33:23Z</time>
      </trkpt>
      <trkpt lat="44.47754" lon="1.13366">
        <ele>208.73381</ele>
        <time>2009-08-13T07:33:32Z</time>
      </trkpt>
      <trkpt lat="44.47753" lon="1.13365">
        <ele>208.332993</ele>
        <time>2009-08-13T07:33:43Z</time>
      </trkpt>
      <trkpt lat="44.47754" lon="1.13364">
        <ele>208.715408</ele>
        <time>2009-08-13T07:33:54Z</time>
      </trkpt>
      <trkpt lat="44.47755" lon="1.13362">
        <ele>209.200546</ele>
        <time>2009-08-13T07:33:59Z</time>
      </trkpt>
      <trkpt lat="44.47757" lon="1.13359">
        <ele>209.679626</ele>
        <time>2009-08-13T07:34:11Z</time>
      </trkpt>
      <trkpt lat="44.47755" lon="1.13358">
        <ele>209.164261</ele>
        <time>2009-08-13T07:34:16Z</time>
      </trkpt>
      <trkpt lat="44.47751" lon="1.13345">
        <ele>207.812622</ele>
        <time>2009-08-13T07:34:20Z</time>
      </trkpt>
      <trkpt lat="44.47749" lon="1.13333">
        <ele>206.982162</ele>
        <time>2009-08-13T07:34:23Z</time>
      </trkpt>
      <trkpt lat="44.47747" lon="1.13325">
        <ele>206.070068</ele>
        <time>2009-08-13T07:34:26Z</time>
      </trkpt>
      <trkpt lat="44.47745" lon="1.13322">
        <ele>205.406906</ele>
        <time>2009-08-13T07:34:37Z</time>
      </trkpt>
      <trkpt lat="44.47737" lon="1.13331">
        <ele>203.057617</ele>
        <time>2009-08-13T07:34:40Z</time>
      </trkpt>
      <trkpt lat="44.47722" lon="1.13354">
        <ele>195.87471</ele>
        <time>2009-08-13T07:34:44Z</time>
      </trkpt>
      <trkpt lat="44.47713" lon="1.13371">
        <ele>191.841202</ele>
        <time>2009-08-13T07:34:47Z</time>
      </trkpt>
      <trkpt lat="44.47708" lon="1.13379">
        <ele>189.468002</ele>
        <time>2009-08-13T07:34:51Z</time>
      </trkpt>
      <trkpt lat="44.47703" lon="1.13366">
        <ele>186.400803</ele>
        <time>2009-08-13T07:34:55Z</time>
      </trkpt>
      <trkpt lat="44.47696" lon="1.13345">
        <ele>182.079132</ele>
        <time>2009-08-13T07:34:58Z</time>
      </trkpt>
      <trkpt lat="44.47695" lon="1.13324">
        <ele>180.744034</ele>
        <time>2009-08-13T07:35:01Z</time>
      </trkpt>
      <trkpt lat="44.47698" lon="1.13297">
        <ele>177.071259</ele>
        <time>2009-08-13T07:35:04Z</time>
      </trkpt>
      <trkpt lat="44.47701" lon="1.13269">
        <ele>173.626312</ele>
        <time>2009-08-13T07:35:07Z</time>
      </trkpt>
      <trkpt lat="44.47706" lon="1.13241">
        <ele>172.459991</ele>
        <time>2009-08-13T07:35:10Z</time>
      </trkpt>
      <trkpt lat="44.47707" lon="1.13216">
        <ele>170.175003</ele>
        <time>2009-08-13T07:35:13Z</time>
      </trkpt>
      <trkpt lat="44.47706" lon="1.13195">
        <ele>167.43811</ele>
        <time>2009-08-13T07:35:16Z</time>
      </trkpt>
      <trkpt lat="44.47706" lon="1.13172">
        <ele>166.074005</ele>
        <time>2009-08-13T07:35:19Z</time>
      </trkpt>
      <trkpt lat="44.47705" lon="1.13155">
        <ele>164.858459</ele>
        <time>2009-08-13T07:35:22Z</time>
      </trkpt>
      <trkpt lat="44.47693" lon="1.13137">
        <ele>159.22522</ele>
        <time>2009-08-13T07:35:27Z</time>
      </trkpt>
      <trkpt lat="44.47693" lon="1.13133">
        <ele>159.653351</ele>
        <time>2009-08-13T07:35:32Z</time>
      </trkpt>
      <trkpt lat="44.47691" lon="1.13135">
        <ele>158.372818</ele>
        <time>2009-08-13T07:35:37Z</time>
      </trkpt>
      <trkpt lat="44.47689" lon="1.13134">
        <ele>157.860138</ele>
        <time>2009-08-13T07:35:46Z</time>
      </trkpt>
      <trkpt lat="44.47688" lon="1.13133">
        <ele>157.992722</ele>
        <time>2009-08-13T07:35:50Z</time>
      </trkpt>
      <trkpt lat="44.47687" lon="1.13131">
        <ele>157.910004</ele>
        <time>2009-08-13T07:35:55Z</time>
      </trkpt>
      <trkpt lat="44.47684" lon="1.13131">
        <ele>158.274902</ele>
        <time>2009-08-13T07:36:03Z</time>
      </trkpt>
      <trkpt lat="44.47681" lon="1.13131">
        <ele>158.662537</ele>
        <time>2009-08-13T07:36:08Z</time>
      </trkpt>
      <trkpt lat="44.47679" lon="1.13131">
        <ele>158.724777</ele>
        <time>2009-08-13T07:36:13Z</time>
      </trkpt>
      <trkpt lat="44.47678" lon="1.13132">
        <ele>158.628006</ele>
        <time>2009-08-13T07:36:19Z</time>
      </trkpt>
      <trkpt lat="44.47678" lon="1.13134">
        <ele>158.311783</ele>
        <time>2009-08-13T07:36:26Z</time>
      </trkpt>
      <trkpt lat="44.47678" lon="1.13135">
        <ele>157.987991</ele>
        <time>2009-08-13T07:36:40Z</time>
      </trkpt>
      <trkpt lat="44.47677" lon="1.13139">
        <ele>157.689194</ele>
        <time>2009-08-13T07:36:44Z</time>
      </trkpt>
      <trkpt lat="44.47678" lon="1.13141">
        <ele>157.467499</ele>
        <time>2009-08-13T07:36:50Z</time>
      </trkpt>
      <trkpt lat="44.47679" lon="1.13145">
        <ele>157.220718</ele>
        <time>2009-08-13T07:36:53Z</time>
      </trkpt>
      <trkpt lat="44.47681" lon="1.13151">
        <ele>156.891113</ele>
        <time>2009-08-13T07:36:57Z</time>
      </trkpt>
      <trkpt lat="44.47674" lon="1.13165">
        <ele>155.580688</ele>
        <time>2009-08-13T07:37:01Z</time>
      </trkpt>
      <trkpt lat="44.47666" lon="1.13184">
        <ele>151.907806</ele>
        <time>2009-08-13T07:37:04Z</time>
      </trkpt>
      <trkpt lat="44.47656" lon="1.13199">
        <ele>146.277649</ele>
        <time>2009-08-13T07:37:07Z</time>
      </trkpt>
      <trkpt lat="44.47637" lon="1.13231">
        <ele>140.51062</ele>
        <time>2009-08-13T07:37:10Z</time>
      </trkpt>
      <trkpt lat="44.47607" lon="1.13256">
        <ele>131.923355</ele>
        <time>2009-08-13T07:37:14Z</time>
      </trkpt>
      <trkpt lat="44.47588" lon="1.13275">
        <ele>127.244667</ele>
        <time>2009-08-13T07:37:17Z</time>
      </trkpt>
      <trkpt lat="44.47582" lon="1.13283">
        <ele>126.280945</ele>
        <time>2009-08-13T07:37:20Z</time>
      </trkpt>
      <trkpt lat="44.47574" lon="1.13294">
        <ele>124.345032</ele>
        <time>2009-08-13T07:37:24Z</time>
      </trkpt>
      <trkpt lat="44.47566" lon="1.13313">
        <ele>120.641129</ele>
        <time>2009-08-13T07:37:27Z</time>
      </trkpt>
      <trkpt lat="44.47555" lon="1.13334">
        <ele>115.168449</ele>
        <time>2009-08-13T07:37:30Z</time>
      </trkpt>
      <trkpt lat="44.47547" lon="1.13351">
        <ele>112.483315</ele>
        <time>2009-08-13T07:37:33Z</time>
      </trkpt>
      <trkpt lat="44.47537" lon="1.13371">
        <ele>107.884148</ele>
        <time>2009-08-13T07:37:36Z</time>
      </trkpt>
      <trkpt lat="44.47528" lon="1.1339">
        <ele>102.853035</ele>
        <time>2009-08-13T07:37:39Z</time>
      </trkpt>
      <trkpt lat="44.47523" lon="1.13407">
        <ele>100.104515</ele>
        <time>2009-08-13T07:37:43Z</time>
      </trkpt>
      <trkpt lat="44.47523" lon="1.13411">
        <ele>99.984291</ele>
        <time>2009-08-13T07:37:53Z</time>
      </trkpt>
      <trkpt lat="44.47523" lon="1.13414">
        <ele>99.940422</ele>
        <time>2009-08-13T07:37:57Z</time>
      </trkpt>
      <trkpt lat="44.4752" lon="1.13424">
        <ele>98.54084</ele>
        <time>2009-08-13T07:38:02Z</time>
      </trkpt>
      <trkpt lat="44.47509" lon="1.13424">
        <ele>95.661896</ele>
        <time>2009-08-13T07:38:05Z</time>
      </trkpt>
      <trkpt lat="44.47507" lon="1.13419">
        <ele>95.857727</ele>
        <time>2009-08-13T07:38:08Z</time>
      </trkpt>
      <trkpt lat="44.47506" lon="1.13413">
        <ele>95.781044</ele>
        <time>2009-08-13T07:38:12Z</time>
      </trkpt>
      <trkpt lat="44.47505" lon="1.13405">
        <ele>95.739059</ele>
        <time>2009-08-13T07:38:17Z</time>
      </trkpt>
      <trkpt lat="44.47504" lon="1.13391">
        <ele>95.604874</ele>
        <time>2009-08-13T07:38:20Z</time>
      </trkpt>
      <trkpt lat="44.47501" lon="1.1338">
        <ele>96.869659</ele>
        <time>2009-08-13T07:38:23Z</time>
      </trkpt>
      <trkpt lat="44.47499" lon="1.13368">
        <ele>98.066406</ele>
        <time>2009-08-13T07:38:26Z</time>
      </trkpt>
      <trkpt lat="44.47497" lon="1.13356">
        <ele>99.169861</ele>
        <time>2009-08-13T07:38:29Z</time>
      </trkpt>
      <trkpt lat="44.47493" lon="1.13346">
        <ele>99.869133</ele>
        <time>2009-08-13T07:38:33Z</time>
      </trkpt>
      <trkpt lat="44.47492" lon="1.13328">
        <ele>101.019447</ele>
        <time>2009-08-13T07:38:36Z</time>
      </trkpt>
      <trkpt lat="44.47491" lon="1.13315">
        <ele>101.451309</ele>
        <time>2009-08-13T07:38:39Z</time>
      </trkpt>
      <trkpt lat="44.47493" lon="1.13299">
        <ele>102.304649</ele>
        <time>2009-08-13T07:38:43Z</time>
      </trkpt>
      <trkpt lat="44.47498" lon="1.13281">
        <ele>103.985001</ele>
        <time>2009-08-13T07:38:47Z</time>
      </trkpt>
      <trkpt lat="44.47499" lon="1.13269">
        <ele>104.892303</ele>
        <time>2009-08-13T07:38:50Z</time>
      </trkpt>
      <trkpt lat="44.47497" lon="1.13252">
        <ele>105.720871</ele>
        <time>2009-08-13T07:38:54Z</time>
      </trkpt>
      <trkpt lat="44.47496" lon="1.13237">
        <ele>106.443184</ele>
        <time>2009-08-13T07:38:58Z</time>
      </trkpt>
      <trkpt lat="44.47491" lon="1.1322">
        <ele>106.502113</ele>
        <time>2009-08-13T07:39:01Z</time>
      </trkpt>
      <trkpt lat="44.47482" lon="1.1321">
        <ele>104.559006</ele>
        <time>2009-08-13T07:39:04Z</time>
      </trkpt>
      <trkpt lat="44.47473" lon="1.13201">
        <ele>102.280647</ele>
        <time>2009-08-13T07:39:07Z</time>
      </trkpt>
      <trkpt lat="44.47463" lon="1.13191">
        <ele>101.413574</ele>
        <time>2009-08-13T07:39:10Z</time>
      </trkpt>
      <trkpt lat="44.47453" lon="1.13181">
        <ele>103.422379</ele>
        <time>2009-08-13T07:39:14Z</time>
      </trkpt>
      <trkpt lat="44.47443" lon="1.1317">
        <ele>104.281204</ele>
        <time>2009-08-13T07:39:17Z</time>
      </trkpt>
      <trkpt lat="44.47435" lon="1.1316">
        <ele>104.13945</ele>
        <time>2009-08-13T07:39:20Z</time>
      </trkpt>
      <trkpt lat="44.47426" lon="1.13151">
        <ele>102.993073</ele>
        <time>2009-08-13T07:39:23Z</time>
      </trkpt>
      <trkpt lat="44.47417" lon="1.13138">
        <ele>101.817802</ele>
        <time>2009-08-13T07:39:26Z</time>
      </trkpt>
      <trkpt lat="44.47407" lon="1.1313">
        <ele>103.833878</ele>
        <time>2009-08-13T07:39:29Z</time>
      </trkpt>
      <trkpt lat="44.47399" lon="1.13117">
        <ele>105.581749</ele>
        <time>2009-08-13T07:39:32Z</time>
      </trkpt>
      <trkpt lat="44.47387" lon="1.131">
        <ele>105.890099</ele>
        <time>2009-08-13T07:39:35Z</time>
      </trkpt>
      <trkpt lat="44.47376" lon="1.13088">
        <ele>104.168373</ele>
        <time>2009-08-13T07:39:38Z</time>
      </trkpt>
      <trkpt lat="44.47366" lon="1.13078">
        <ele>103.115814</ele>
        <time>2009-08-13T07:39:41Z</time>
      </trkpt>
      <trkpt lat="44.47356" lon="1.13069">
        <ele>104.749878</ele>
        <time>2009-08-13T07:39:44Z</time>
      </trkpt>
      <trkpt lat="44.47346" lon="1.13055">
        <ele>106.323097</ele>
        <time>2009-08-13T07:39:48Z</time>
      </trkpt>
      <trkpt lat="44.47338" lon="1.13044">
        <ele>106.389938</ele>
        <time>2009-08-13T07:39:51Z</time>
      </trkpt>
      <trkpt lat="44.47329" lon="1.13035">
        <ele>105.345398</ele>
        <time>2009-08-13T07:39:54Z</time>
      </trkpt>
      <trkpt lat="44.47321" lon="1.13025">
        <ele>105.09536</ele>
        <time>2009-08-13T07:39:57Z</time>
      </trkpt>
      <trkpt lat="44.47313" lon="1.13015">
        <ele>105.369553</ele>
        <time>2009-08-13T07:40:00Z</time>
      </trkpt>
      <trkpt lat="44.47302" lon="1.13008">
        <ele>106.010712</ele>
        <time>2009-08-13T07:40:03Z</time>
      </trkpt>
      <trkpt lat="44.47296" lon="1.12998">
        <ele>107.156044</ele>
        <time>2009-08-13T07:40:06Z</time>
      </trkpt>
      <trkpt lat="44.47287" lon="1.12986">
        <ele>107.817398</ele>
        <time>2009-08-13T07:40:10Z</time>
      </trkpt>
      <trkpt lat="44.47278" lon="1.12974">
        <ele>107.863434</ele>
        <time>2009-08-13T07:40:13Z</time>
      </trkpt>
      <trkpt lat="44.4727" lon="1.12963">
        <ele>108.153252</ele>
        <time>2009-08-13T07:40:16Z</time>
      </trkpt>
      <trkpt lat="44.47261" lon="1.12953">
        <ele>107.214249</ele>
        <time>2009-08-13T07:40:19Z</time>
      </trkpt>
      <trkpt lat="44.47252" lon="1.12943">
        <ele>106.838654</ele>
        <time>2009-08-13T07:40:22Z</time>
      </trkpt>
      <trkpt lat="44.47243" lon="1.12928">
        <ele>106.413918</ele>
        <time>2009-08-13T07:40:25Z</time>
      </trkpt>
      <trkpt lat="44.47238" lon="1.12916">
        <ele>106.531052</ele>
        <time>2009-08-13T07:40:28Z</time>
      </trkpt>
      <trkpt lat="44.47236" lon="1.12905">
        <ele>107.232155</ele>
        <time>2009-08-13T07:40:31Z</time>
      </trkpt>
      <trkpt lat="44.47233" lon="1.12892">
        <ele>108.349953</ele>
        <time>2009-08-13T07:40:34Z</time>
      </trkpt>
      <trkpt lat="44.4723" lon="1.12878">
        <ele>109.519249</ele>
        <time>2009-08-13T07:40:37Z</time>
      </trkpt>
      <trkpt lat="44.47225" lon="1.12865">
        <ele>110.614197</ele>
        <time>2009-08-13T07:40:40Z</time>
      </trkpt>
      <trkpt lat="44.47218" lon="1.12851">
        <ele>111.396049</ele>
        <time>2009-08-13T07:40:43Z</time>
      </trkpt>
      <trkpt lat="44.47212" lon="1.12838">
        <ele>111.808754</ele>
        <time>2009-08-13T07:40:46Z</time>
      </trkpt>
      <trkpt lat="44.47201" lon="1.12824">
        <ele>112.372574</ele>
        <time>2009-08-13T07:40:50Z</time>
      </trkpt>
      <trkpt lat="44.47194" lon="1.12815">
        <ele>112.938278</ele>
        <time>2009-08-13T07:40:53Z</time>
      </trkpt>
      <trkpt lat="44.47181" lon="1.12808">
        <ele>113.412445</ele>
        <time>2009-08-13T07:40:57Z</time>
      </trkpt>
      <trkpt lat="44.47172" lon="1.12804">
        <ele>113.970062</ele>
        <time>2009-08-13T07:41:00Z</time>
      </trkpt>
      <trkpt lat="44.47162" lon="1.12799">
        <ele>114.555389</ele>
        <time>2009-08-13T07:41:03Z</time>
      </trkpt>
      <trkpt lat="44.47152" lon="1.12794">
        <ele>115.085251</ele>
        <time>2009-08-13T07:41:07Z</time>
      </trkpt>
      <trkpt lat="44.47141" lon="1.12785">
        <ele>115.882813</ele>
        <time>2009-08-13T07:41:10Z</time>
      </trkpt>
      <trkpt lat="44.4713" lon="1.12781">
        <ele>116.287247</ele>
        <time>2009-08-13T07:41:13Z</time>
      </trkpt>
      <trkpt lat="44.47119" lon="1.12777">
        <ele>116.395248</ele>
        <time>2009-08-13T07:41:16Z</time>
      </trkpt>
      <trkpt lat="44.47104" lon="1.12772">
        <ele>116.121498</ele>
        <time>2009-08-13T07:41:19Z</time>
      </trkpt>
      <trkpt lat="44.47093" lon="1.12769">
        <ele>116.766685</ele>
        <time>2009-08-13T07:41:22Z</time>
      </trkpt>
      <trkpt lat="44.47081" lon="1.12766">
        <ele>117.404541</ele>
        <time>2009-08-13T07:41:25Z</time>
      </trkpt>
      <trkpt lat="44.4707" lon="1.12761">
        <ele>118.484299</ele>
        <time>2009-08-13T07:41:28Z</time>
      </trkpt>
      <trkpt lat="44.47059" lon="1.1276">
        <ele>118.390778</ele>
        <time>2009-08-13T07:41:31Z</time>
      </trkpt>
      <trkpt lat="44.47048" lon="1.12757">
        <ele>118.76886</ele>
        <time>2009-08-13T07:41:34Z</time>
      </trkpt>
      <trkpt lat="44.47038" lon="1.1275">
        <ele>119.543861</ele>
        <time>2009-08-13T07:41:37Z</time>
      </trkpt>
      <trkpt lat="44.47024" lon="1.12736">
        <ele>120.318756</ele>
        <time>2009-08-13T07:41:41Z</time>
      </trkpt>
      <trkpt lat="44.47014" lon="1.12729">
        <ele>119.918625</ele>
        <time>2009-08-13T07:41:44Z</time>
      </trkpt>
      <trkpt lat="44.47002" lon="1.12724">
        <ele>119.114944</ele>
        <time>2009-08-13T07:41:47Z</time>
      </trkpt>
      <trkpt lat="44.4699" lon="1.12719">
        <ele>118.015327</ele>
        <time>2009-08-13T07:41:50Z</time>
      </trkpt>
      <trkpt lat="44.4698" lon="1.12717">
        <ele>116.825401</ele>
        <time>2009-08-13T07:41:53Z</time>
      </trkpt>
      <trkpt lat="44.46965" lon="1.1272">
        <ele>115.608948</ele>
        <time>2009-08-13T07:41:57Z</time>
      </trkpt>
      <trkpt lat="44.46954" lon="1.1272">
        <ele>115.360046</ele>
        <time>2009-08-13T07:42:00Z</time>
      </trkpt>
      <trkpt lat="44.46942" lon="1.12718">
        <ele>114.764999</ele>
        <time>2009-08-13T07:42:03Z</time>
      </trkpt>
      <trkpt lat="44.46929" lon="1.12717">
        <ele>114.291527</ele>
        <time>2009-08-13T07:42:06Z</time>
      </trkpt>
      <trkpt lat="44.46915" lon="1.12719">
        <ele>114.626678</ele>
        <time>2009-08-13T07:42:09Z</time>
      </trkpt>
      <trkpt lat="44.46901" lon="1.12722">
        <ele>115.490501</ele>
        <time>2009-08-13T07:42:13Z</time>
      </trkpt>
      <trkpt lat="44.46886" lon="1.12723">
        <ele>116.239876</ele>
        <time>2009-08-13T07:42:16Z</time>
      </trkpt>
      <trkpt lat="44.46872" lon="1.1272">
        <ele>116.047234</ele>
        <time>2009-08-13T07:42:19Z</time>
      </trkpt>
      <trkpt lat="44.46858" lon="1.12709">
        <ele>117.434631</ele>
        <time>2009-08-13T07:42:22Z</time>
      </trkpt>
      <trkpt lat="44.46847" lon="1.12697">
        <ele>119.541298</ele>
        <time>2009-08-13T07:42:26Z</time>
      </trkpt>
      <trkpt lat="44.46842" lon="1.1269">
        <ele>119.947853</ele>
        <time>2009-08-13T07:42:29Z</time>
      </trkpt>
      <trkpt lat="44.46839" lon="1.12677">
        <ele>120.399994</ele>
        <time>2009-08-13T07:42:32Z</time>
      </trkpt>
      <trkpt lat="44.46839" lon="1.12667">
        <ele>120.839119</ele>
        <time>2009-08-13T07:42:35Z</time>
      </trkpt>
      <trkpt lat="44.46837" lon="1.12659">
        <ele>120.706177</ele>
        <time>2009-08-13T07:42:38Z</time>
      </trkpt>
      <trkpt lat="44.46834" lon="1.12652">
        <ele>120.090439</ele>
        <time>2009-08-13T07:42:42Z</time>
      </trkpt>
      <trkpt lat="44.46828" lon="1.12643">
        <ele>119.511589</ele>
        <time>2009-08-13T07:42:45Z</time>
      </trkpt>
      <trkpt lat="44.46825" lon="1.12637">
        <ele>120.744041</ele>
        <time>2009-08-13T07:42:48Z</time>
      </trkpt>
      <trkpt lat="44.46821" lon="1.1263">
        <ele>122.434334</ele>
        <time>2009-08-13T07:42:52Z</time>
      </trkpt>
      <trkpt lat="44.46818" lon="1.12623">
        <ele>123.488564</ele>
        <time>2009-08-13T07:42:55Z</time>
      </trkpt>
      <trkpt lat="44.46815" lon="1.12616">
        <ele>124.311043</ele>
        <time>2009-08-13T07:42:58Z</time>
      </trkpt>
      <trkpt lat="44.46811" lon="1.12608">
        <ele>124.909775</ele>
        <time>2009-08-13T07:43:02Z</time>
      </trkpt>
      <trkpt lat="44.46808" lon="1.12596">
        <ele>125.248421</ele>
        <time>2009-08-13T07:43:06Z</time>
      </trkpt>
      <trkpt lat="44.468" lon="1.12587">
        <ele>124.659096</ele>
        <time>2009-08-13T07:43:12Z</time>
      </trkpt>
      <trkpt lat="44.46799" lon="1.12582">
        <ele>125.032028</ele>
        <time>2009-08-13T07:43:15Z</time>
      </trkpt>
      <trkpt lat="44.46796" lon="1.12575">
        <ele>125.341133</ele>
        <time>2009-08-13T07:43:18Z</time>
      </trkpt>
      <trkpt lat="44.46794" lon="1.1257">
        <ele>125.303619</ele>
        <time>2009-08-13T07:43:21Z</time>
      </trkpt>
      <trkpt lat="44.46794" lon="1.12563">
        <ele>125.921143</ele>
        <time>2009-08-13T07:43:24Z</time>
      </trkpt>
      <trkpt lat="44.46793" lon="1.12557">
        <ele>126.191574</ele>
        <time>2009-08-13T07:43:27Z</time>
      </trkpt>
      <trkpt lat="44.4679" lon="1.12549">
        <ele>125.876587</ele>
        <time>2009-08-13T07:43:31Z</time>
      </trkpt>
      <trkpt lat="44.46788" lon="1.12544">
        <ele>125.650085</ele>
        <time>2009-08-13T07:43:34Z</time>
      </trkpt>
      <trkpt lat="44.46785" lon="1.12534">
        <ele>125.07222</ele>
        <time>2009-08-13T07:43:37Z</time>
      </trkpt>
      <trkpt lat="44.46782" lon="1.12524">
        <ele>125.060371</ele>
        <time>2009-08-13T07:43:42Z</time>
      </trkpt>
      <trkpt lat="44.46779" lon="1.12517">
        <ele>126.364822</ele>
        <time>2009-08-13T07:43:45Z</time>
      </trkpt>
      <trkpt lat="44.46776" lon="1.12511">
        <ele>128.240295</ele>
        <time>2009-08-13T07:43:48Z</time>
      </trkpt>
      <trkpt lat="44.4677" lon="1.125">
        <ele>131.250854</ele>
        <time>2009-08-13T07:43:52Z</time>
      </trkpt>
      <trkpt lat="44.46768" lon="1.12493">
        <ele>132.449371</ele>
        <time>2009-08-13T07:43:55Z</time>
      </trkpt>
      <trkpt lat="44.46764" lon="1.12487">
        <ele>133.500946</ele>
        <time>2009-08-13T07:43:59Z</time>
      </trkpt>
      <trkpt lat="44.4676" lon="1.12479">
        <ele>134.613708</ele>
        <time>2009-08-13T07:44:02Z</time>
      </trkpt>
      <trkpt lat="44.46757" lon="1.12471">
        <ele>135.268555</ele>
        <time>2009-08-13T07:44:05Z</time>
      </trkpt>
      <trkpt lat="44.46755" lon="1.12461">
        <ele>135.795746</ele>
        <time>2009-08-13T07:44:09Z</time>
      </trkpt>
      <trkpt lat="44.46752" lon="1.12453">
        <ele>136.209869</ele>
        <time>2009-08-13T07:44:13Z</time>
      </trkpt>
      <trkpt lat="44.46749" lon="1.12447">
        <ele>136.402832</ele>
        <time>2009-08-13T07:44:17Z</time>
      </trkpt>
      <trkpt lat="44.4675" lon="1.12441">
        <ele>136.654404</ele>
        <time>2009-08-13T07:44:20Z</time>
      </trkpt>
      <trkpt lat="44.46746" lon="1.12432">
        <ele>136.799423</ele>
        <time>2009-08-13T07:44:25Z</time>
      </trkpt>
      <trkpt lat="44.46747" lon="1.12422">
        <ele>137.214996</ele>
        <time>2009-08-13T07:44:29Z</time>
      </trkpt>
      <trkpt lat="44.46747" lon="1.12411">
        <ele>137.58226</ele>
        <time>2009-08-13T07:44:34Z</time>
      </trkpt>
      <trkpt lat="44.46746" lon="1.12405">
        <ele>137.650818</ele>
        <time>2009-08-13T07:44:37Z</time>
      </trkpt>
      <trkpt lat="44.46748" lon="1.12392">
        <ele>138.202255</ele>
        <time>2009-08-13T07:44:42Z</time>
      </trkpt>
      <trkpt lat="44.46751" lon="1.1238">
        <ele>139.103378</ele>
        <time>2009-08-13T07:44:47Z</time>
      </trkpt>
      <trkpt lat="44.46753" lon="1.12373">
        <ele>139.677933</ele>
        <time>2009-08-13T07:44:52Z</time>
      </trkpt>
      <trkpt lat="44.46755" lon="1.12366">
        <ele>140.219559</ele>
        <time>2009-08-13T07:44:55Z</time>
      </trkpt>
      <trkpt lat="44.46756" lon="1.12361">
        <ele>140.526093</ele>
        <time>2009-08-13T07:44:58Z</time>
      </trkpt>
      <trkpt lat="44.46754" lon="1.12356">
        <ele>140.265594</ele>
        <time>2009-08-13T07:45:01Z</time>
      </trkpt>
      <trkpt lat="44.46753" lon="1.1235">
        <ele>140.298157</ele>
        <time>2009-08-13T07:45:05Z</time>
      </trkpt>
      <trkpt lat="44.46753" lon="1.12344">
        <ele>140.444656</ele>
        <time>2009-08-13T07:45:08Z</time>
      </trkpt>
      <trkpt lat="44.46752" lon="1.12334">
        <ele>140.530258</ele>
        <time>2009-08-13T07:45:13Z</time>
      </trkpt>
      <trkpt lat="44.46749" lon="1.12325">
        <ele>139.970932</ele>
        <time>2009-08-13T07:45:17Z</time>
      </trkpt>
      <trkpt lat="44.46743" lon="1.12321">
        <ele>138.528717</ele>
        <time>2009-08-13T07:45:20Z</time>
      </trkpt>
      <trkpt lat="44.46741" lon="1.12313">
        <ele>138.028564</ele>
        <time>2009-08-13T07:45:23Z</time>
      </trkpt>
      <trkpt lat="44.46737" lon="1.12303">
        <ele>137.115005</ele>
        <time>2009-08-13T07:45:28Z</time>
      </trkpt>
      <trkpt lat="44.46732" lon="1.12296">
        <ele>136.07518</ele>
        <time>2009-08-13T07:45:32Z</time>
      </trkpt>
      <trkpt lat="44.46727" lon="1.12294">
        <ele>136.364212</ele>
        <time>2009-08-13T07:45:36Z</time>
      </trkpt>
      <trkpt lat="44.4672" lon="1.12283">
        <ele>136.42775</ele>
        <time>2009-08-13T07:45:39Z</time>
      </trkpt>
      <trkpt lat="44.46715" lon="1.12276">
        <ele>136.627151</ele>
        <time>2009-08-13T07:45:42Z</time>
      </trkpt>
      <trkpt lat="44.46711" lon="1.12271">
        <ele>137.704758</ele>
        <time>2009-08-13T07:45:46Z</time>
      </trkpt>
      <trkpt lat="44.46707" lon="1.12268">
        <ele>138.377777</ele>
        <time>2009-08-13T07:45:49Z</time>
      </trkpt>
      <trkpt lat="44.46703" lon="1.12266">
        <ele>138.743912</ele>
        <time>2009-08-13T07:45:52Z</time>
      </trkpt>
      <trkpt lat="44.46697" lon="1.12262">
        <ele>139.341492</ele>
        <time>2009-08-13T07:45:57Z</time>
      </trkpt>
      <trkpt lat="44.46694" lon="1.1226">
        <ele>139.685547</ele>
        <time>2009-08-13T07:46:00Z</time>
      </trkpt>
      <trkpt lat="44.46689" lon="1.12256">
        <ele>140.181076</ele>
        <time>2009-08-13T07:46:03Z</time>
      </trkpt>
      <trkpt lat="44.46685" lon="1.12254">
        <ele>140.539597</ele>
        <time>2009-08-13T07:46:06Z</time>
      </trkpt>
      <trkpt lat="44.46681" lon="1.12249">
        <ele>141.237656</ele>
        <time>2009-08-13T07:46:10Z</time>
      </trkpt>
      <trkpt lat="44.46676" lon="1.12245">
        <ele>141.663879</ele>
        <time>2009-08-13T07:46:14Z</time>
      </trkpt>
      <trkpt lat="44.46673" lon="1.1224">
        <ele>141.900497</ele>
        <time>2009-08-13T07:46:18Z</time>
      </trkpt>
      <trkpt lat="44.4667" lon="1.12236">
        <ele>141.96962</ele>
        <time>2009-08-13T07:46:21Z</time>
      </trkpt>
      <trkpt lat="44.46664" lon="1.12229">
        <ele>141.638901</ele>
        <time>2009-08-13T07:46:25Z</time>
      </trkpt>
      <trkpt lat="44.46658" lon="1.12223">
        <ele>140.906235</ele>
        <time>2009-08-13T07:46:29Z</time>
      </trkpt>
      <trkpt lat="44.4665" lon="1.12215">
        <ele>139.522781</ele>
        <time>2009-08-13T07:46:33Z</time>
      </trkpt>
      <trkpt lat="44.46643" lon="1.12206">
        <ele>139.492615</ele>
        <time>2009-08-13T07:46:37Z</time>
      </trkpt>
      <trkpt lat="44.46639" lon="1.12199">
        <ele>140.770813</ele>
        <time>2009-08-13T07:46:40Z</time>
      </trkpt>
      <trkpt lat="44.46637" lon="1.12192">
        <ele>141.78717</ele>
        <time>2009-08-13T07:46:43Z</time>
      </trkpt>
      <trkpt lat="44.46634" lon="1.12183">
        <ele>142.745575</ele>
        <time>2009-08-13T07:46:46Z</time>
      </trkpt>
      <trkpt lat="44.46632" lon="1.12177">
        <ele>143.322403</ele>
        <time>2009-08-13T07:46:49Z</time>
      </trkpt>
      <trkpt lat="44.46627" lon="1.12167">
        <ele>143.760162</ele>
        <time>2009-08-13T07:46:54Z</time>
      </trkpt>
      <trkpt lat="44.46621" lon="1.12159">
        <ele>143.540695</ele>
        <time>2009-08-13T07:46:58Z</time>
      </trkpt>
      <trkpt lat="44.46618" lon="1.12153">
        <ele>143.39032</ele>
        <time>2009-08-13T07:47:02Z</time>
      </trkpt>
      <trkpt lat="44.46615" lon="1.12143">
        <ele>144.522568</ele>
        <time>2009-08-13T07:47:05Z</time>
      </trkpt>
      <trkpt lat="44.46613" lon="1.12137">
        <ele>144.934494</ele>
        <time>2009-08-13T07:47:08Z</time>
      </trkpt>
      <trkpt lat="44.46609" lon="1.12132">
        <ele>144.650345</ele>
        <time>2009-08-13T07:47:11Z</time>
      </trkpt>
      <trkpt lat="44.46604" lon="1.12123">
        <ele>144.215866</ele>
        <time>2009-08-13T07:47:15Z</time>
      </trkpt>
      <trkpt lat="44.466" lon="1.12117">
        <ele>143.46434</ele>
        <time>2009-08-13T07:47:18Z</time>
      </trkpt>
      <trkpt lat="44.46596" lon="1.12109">
        <ele>142.877365</ele>
        <time>2009-08-13T07:47:21Z</time>
      </trkpt>
      <trkpt lat="44.46592" lon="1.12103">
        <ele>143.326889</ele>
        <time>2009-08-13T07:47:25Z</time>
      </trkpt>
      <trkpt lat="44.46587" lon="1.12095">
        <ele>143.503555</ele>
        <time>2009-08-13T07:47:29Z</time>
      </trkpt>
      <trkpt lat="44.46583" lon="1.12089">
        <ele>143.814224</ele>
        <time>2009-08-13T07:47:32Z</time>
      </trkpt>
      <trkpt lat="44.46578" lon="1.12082">
        <ele>144.349152</ele>
        <time>2009-08-13T07:47:35Z</time>
      </trkpt>
      <trkpt lat="44.46575" lon="1.12072">
        <ele>144.871597</ele>
        <time>2009-08-13T07:47:39Z</time>
      </trkpt>
      <trkpt lat="44.46573" lon="1.12064">
        <ele>145.346634</ele>
        <time>2009-08-13T07:47:43Z</time>
      </trkpt>
      <trkpt lat="44.4657" lon="1.12058">
        <ele>145.007034</ele>
        <time>2009-08-13T07:47:46Z</time>
      </trkpt>
      <trkpt lat="44.46567" lon="1.12047">
        <ele>144.818466</ele>
        <time>2009-08-13T07:47:51Z</time>
      </trkpt>
      <trkpt lat="44.46564" lon="1.12039">
        <ele>144.125565</ele>
        <time>2009-08-13T07:47:55Z</time>
      </trkpt>
      <trkpt lat="44.46561" lon="1.12033">
        <ele>143.095886</ele>
        <time>2009-08-13T07:47:58Z</time>
      </trkpt>
      <trkpt lat="44.46558" lon="1.12023">
        <ele>143.000366</ele>
        <time>2009-08-13T07:48:02Z</time>
      </trkpt>
      <trkpt lat="44.46557" lon="1.12016">
        <ele>143.343048</ele>
        <time>2009-08-13T07:48:05Z</time>
      </trkpt>
      <trkpt lat="44.46556" lon="1.12009">
        <ele>144.107803</ele>
        <time>2009-08-13T07:48:09Z</time>
      </trkpt>
      <trkpt lat="44.46548" lon="1.11998">
        <ele>143.369247</ele>
        <time>2009-08-13T07:48:13Z</time>
      </trkpt>
      <trkpt lat="44.46542" lon="1.1199">
        <ele>144.920914</ele>
        <time>2009-08-13T07:48:17Z</time>
      </trkpt>
      <trkpt lat="44.46538" lon="1.11974">
        <ele>146.658447</ele>
        <time>2009-08-13T07:48:20Z</time>
      </trkpt>
      <trkpt lat="44.46539" lon="1.11964">
        <ele>147.51561</ele>
        <time>2009-08-13T07:48:23Z</time>
      </trkpt>
      <trkpt lat="44.46538" lon="1.1195">
        <ele>148.698761</ele>
        <time>2009-08-13T07:48:28Z</time>
      </trkpt>
      <trkpt lat="44.46535" lon="1.11941">
        <ele>149.432892</ele>
        <time>2009-08-13T07:48:32Z</time>
      </trkpt>
      <trkpt lat="44.46531" lon="1.11935">
        <ele>149.877487</ele>
        <time>2009-08-13T07:48:36Z</time>
      </trkpt>
      <trkpt lat="44.46529" lon="1.11928">
        <ele>150.350388</ele>
        <time>2009-08-13T07:48:39Z</time>
      </trkpt>
      <trkpt lat="44.46522" lon="1.11922">
        <ele>150.592422</ele>
        <time>2009-08-13T07:48:42Z</time>
      </trkpt>
      <trkpt lat="44.46517" lon="1.11917">
        <ele>150.816101</ele>
        <time>2009-08-13T07:48:46Z</time>
      </trkpt>
      <trkpt lat="44.46507" lon="1.11911">
        <ele>150.831085</ele>
        <time>2009-08-13T07:48:50Z</time>
      </trkpt>
      <trkpt lat="44.46499" lon="1.11907">
        <ele>151.058807</ele>
        <time>2009-08-13T07:48:53Z</time>
      </trkpt>
      <trkpt lat="44.46495" lon="1.11903">
        <ele>151.625229</ele>
        <time>2009-08-13T07:48:56Z</time>
      </trkpt>
      <trkpt lat="44.46489" lon="1.119">
        <ele>152.391754</ele>
        <time>2009-08-13T07:48:59Z</time>
      </trkpt>
      <trkpt lat="44.46484" lon="1.11897">
        <ele>153.097992</ele>
        <time>2009-08-13T07:49:02Z</time>
      </trkpt>
      <trkpt lat="44.46478" lon="1.11895">
        <ele>153.510925</ele>
        <time>2009-08-13T07:49:05Z</time>
      </trkpt>
      <trkpt lat="44.46472" lon="1.11891">
        <ele>154.197449</ele>
        <time>2009-08-13T07:49:09Z</time>
      </trkpt>
      <trkpt lat="44.46465" lon="1.11886">
        <ele>154.929306</ele>
        <time>2009-08-13T07:49:13Z</time>
      </trkpt>
      <trkpt lat="44.46459" lon="1.11881">
        <ele>155.623962</ele>
        <time>2009-08-13T07:49:16Z</time>
      </trkpt>
      <trkpt lat="44.46452" lon="1.11876">
        <ele>156.56221</ele>
        <time>2009-08-13T07:49:20Z</time>
      </trkpt>
      <trkpt lat="44.46446" lon="1.11872">
        <ele>157.100189</ele>
        <time>2009-08-13T07:49:23Z</time>
      </trkpt>
      <trkpt lat="44.46441" lon="1.11869">
        <ele>157.418945</ele>
        <time>2009-08-13T07:49:26Z</time>
      </trkpt>
      <trkpt lat="44.46437" lon="1.11865">
        <ele>157.632874</ele>
        <time>2009-08-13T07:49:29Z</time>
      </trkpt>
      <trkpt lat="44.46431" lon="1.11861">
        <ele>157.742569</ele>
        <time>2009-08-13T07:49:32Z</time>
      </trkpt>
      <trkpt lat="44.46426" lon="1.11857">
        <ele>157.744995</ele>
        <time>2009-08-13T07:49:35Z</time>
      </trkpt>
      <trkpt lat="44.46421" lon="1.11853">
        <ele>157.562897</ele>
        <time>2009-08-13T07:49:38Z</time>
      </trkpt>
      <trkpt lat="44.46418" lon="1.11849">
        <ele>157.351151</ele>
        <time>2009-08-13T07:49:41Z</time>
      </trkpt>
      <trkpt lat="44.46413" lon="1.11846">
        <ele>157.029007</ele>
        <time>2009-08-13T07:49:44Z</time>
      </trkpt>
      <trkpt lat="44.46407" lon="1.11841">
        <ele>157.439178</ele>
        <time>2009-08-13T07:49:48Z</time>
      </trkpt>
      <trkpt lat="44.46402" lon="1.11839">
        <ele>157.806549</ele>
        <time>2009-08-13T07:49:51Z</time>
      </trkpt>
      <trkpt lat="44.46395" lon="1.11835">
        <ele>158.318222</ele>
        <time>2009-08-13T07:49:56Z</time>
      </trkpt>
      <trkpt lat="44.46391" lon="1.11833">
        <ele>158.488144</ele>
        <time>2009-08-13T07:49:59Z</time>
      </trkpt>
      <trkpt lat="44.46386" lon="1.11832">
        <ele>158.609482</ele>
        <time>2009-08-13T07:50:02Z</time>
      </trkpt>
      <trkpt lat="44.46382" lon="1.1183">
        <ele>158.766998</ele>
        <time>2009-08-13T07:50:05Z</time>
      </trkpt>
      <trkpt lat="44.46378" lon="1.1183">
        <ele>158.824402</ele>
        <time>2009-08-13T07:50:08Z</time>
      </trkpt>
      <trkpt lat="44.4637" lon="1.1183">
        <ele>158.724075</ele>
        <time>2009-08-13T07:50:12Z</time>
      </trkpt>
      <trkpt lat="44.46361" lon="1.1183">
        <ele>159.099152</ele>
        <time>2009-08-13T07:50:15Z</time>
      </trkpt>
      <trkpt lat="44.46355" lon="1.11831">
        <ele>159.215164</ele>
        <time>2009-08-13T07:50:18Z</time>
      </trkpt>
      <trkpt lat="44.46349" lon="1.11834">
        <ele>159.131775</ele>
        <time>2009-08-13T07:50:22Z</time>
      </trkpt>
      <trkpt lat="44.46344" lon="1.11836">
        <ele>159.042496</ele>
        <time>2009-08-13T07:50:25Z</time>
      </trkpt>
      <trkpt lat="44.4634" lon="1.11836">
        <ele>159.09581</ele>
        <time>2009-08-13T07:50:28Z</time>
      </trkpt>
      <trkpt lat="44.46335" lon="1.11838">
        <ele>159.04863</ele>
        <time>2009-08-13T07:50:31Z</time>
      </trkpt>
      <trkpt lat="44.46332" lon="1.11838">
        <ele>159.170441</ele>
        <time>2009-08-13T07:50:34Z</time>
      </trkpt>
      <trkpt lat="44.46326" lon="1.11839">
        <ele>159.135254</ele>
        <time>2009-08-13T07:50:38Z</time>
      </trkpt>
      <trkpt lat="44.4632" lon="1.11843">
        <ele>158.385437</ele>
        <time>2009-08-13T07:50:42Z</time>
      </trkpt>
      <trkpt lat="44.46314" lon="1.11845">
        <ele>157.803375</ele>
        <time>2009-08-13T07:50:46Z</time>
      </trkpt>
      <trkpt lat="44.46308" lon="1.11848">
        <ele>157.541229</ele>
        <time>2009-08-13T07:50:49Z</time>
      </trkpt>
      <trkpt lat="44.46302" lon="1.1185">
        <ele>157.601761</ele>
        <time>2009-08-13T07:50:52Z</time>
      </trkpt>
      <trkpt lat="44.46299" lon="1.11852">
        <ele>157.760941</ele>
        <time>2009-08-13T07:50:55Z</time>
      </trkpt>
      <trkpt lat="44.46295" lon="1.11854">
        <ele>157.787415</ele>
        <time>2009-08-13T07:50:58Z</time>
      </trkpt>
      <trkpt lat="44.46288" lon="1.11856">
        <ele>157.934647</ele>
        <time>2009-08-13T07:51:02Z</time>
      </trkpt>
      <trkpt lat="44.4628" lon="1.11857">
        <ele>157.715042</ele>
        <time>2009-08-13T07:51:07Z</time>
      </trkpt>
      <trkpt lat="44.46274" lon="1.11852">
        <ele>157.406509</ele>
        <time>2009-08-13T07:51:11Z</time>
      </trkpt>
      <trkpt lat="44.46269" lon="1.11852">
        <ele>157.641983</ele>
        <time>2009-08-13T07:51:16Z</time>
      </trkpt>
      <trkpt lat="44.46264" lon="1.11849">
        <ele>157.620697</ele>
        <time>2009-08-13T07:51:20Z</time>
      </trkpt>
      <trkpt lat="44.46256" lon="1.11849">
        <ele>158.334427</ele>
        <time>2009-08-13T07:51:24Z</time>
      </trkpt>
      <trkpt lat="44.46252" lon="1.11845">
        <ele>159.236923</ele>
        <time>2009-08-13T07:51:27Z</time>
      </trkpt>
      <trkpt lat="44.46247" lon="1.11844">
        <ele>159.926559</ele>
        <time>2009-08-13T07:51:30Z</time>
      </trkpt>
      <trkpt lat="44.46242" lon="1.11844">
        <ele>160.421173</ele>
        <time>2009-08-13T07:51:33Z</time>
      </trkpt>
      <trkpt lat="44.46238" lon="1.11841">
        <ele>161.433884</ele>
        <time>2009-08-13T07:51:36Z</time>
      </trkpt>
      <trkpt lat="44.46233" lon="1.11836">
        <ele>162.868607</ele>
        <time>2009-08-13T07:51:40Z</time>
      </trkpt>
      <trkpt lat="44.46228" lon="1.11838">
        <ele>162.646652</ele>
        <time>2009-08-13T07:51:43Z</time>
      </trkpt>
      <trkpt lat="44.46224" lon="1.11836">
        <ele>163.080444</ele>
        <time>2009-08-13T07:51:47Z</time>
      </trkpt>
      <trkpt lat="44.46218" lon="1.11832">
        <ele>164.056152</ele>
        <time>2009-08-13T07:51:50Z</time>
      </trkpt>
      <trkpt lat="44.46208" lon="1.11827">
        <ele>165.281601</ele>
        <time>2009-08-13T07:51:55Z</time>
      </trkpt>
      <trkpt lat="44.46202" lon="1.11825">
        <ele>165.810364</ele>
        <time>2009-08-13T07:51:59Z</time>
      </trkpt>
      <trkpt lat="44.46194" lon="1.11826">
        <ele>165.761597</ele>
        <time>2009-08-13T07:52:03Z</time>
      </trkpt>
      <trkpt lat="44.46188" lon="1.11824">
        <ele>166.162933</ele>
        <time>2009-08-13T07:52:07Z</time>
      </trkpt>
      <trkpt lat="44.46183" lon="1.11824">
        <ele>166.528046</ele>
        <time>2009-08-13T07:52:10Z</time>
      </trkpt>
      <trkpt lat="44.46178" lon="1.11822">
        <ele>167.077545</ele>
        <time>2009-08-13T07:52:13Z</time>
      </trkpt>
      <trkpt lat="44.46173" lon="1.11821">
        <ele>167.481628</ele>
        <time>2009-08-13T07:52:16Z</time>
      </trkpt>
      <trkpt lat="44.46169" lon="1.11821">
        <ele>167.667068</ele>
        <time>2009-08-13T07:52:20Z</time>
      </trkpt>
      <trkpt lat="44.46161" lon="1.1182">
        <ele>168.174927</ele>
        <time>2009-08-13T07:52:24Z</time>
      </trkpt>
      <trkpt lat="44.46157" lon="1.11819">
        <ele>168.534821</ele>
        <time>2009-08-13T07:52:27Z</time>
      </trkpt>
      <trkpt lat="44.46152" lon="1.1182">
        <ele>168.534027</ele>
        <time>2009-08-13T07:52:31Z</time>
      </trkpt>
      <trkpt lat="44.46146" lon="1.11817">
        <ele>169.049194</ele>
        <time>2009-08-13T07:52:34Z</time>
      </trkpt>
      <trkpt lat="44.46141" lon="1.11817">
        <ele>169.305786</ele>
        <time>2009-08-13T07:52:37Z</time>
      </trkpt>
      <trkpt lat="44.46135" lon="1.11813">
        <ele>169.910553</ele>
        <time>2009-08-13T07:52:40Z</time>
      </trkpt>
      <trkpt lat="44.4613" lon="1.11812">
        <ele>170.185257</ele>
        <time>2009-08-13T07:52:43Z</time>
      </trkpt>
      <trkpt lat="44.46123" lon="1.11809">
        <ele>170.576874</ele>
        <time>2009-08-13T07:52:47Z</time>
      </trkpt>
      <trkpt lat="44.46118" lon="1.11807">
        <ele>170.877594</ele>
        <time>2009-08-13T07:52:50Z</time>
      </trkpt>
      <trkpt lat="44.46113" lon="1.11806">
        <ele>171.046448</ele>
        <time>2009-08-13T07:52:53Z</time>
      </trkpt>
      <trkpt lat="44.46108" lon="1.11805">
        <ele>171.250076</ele>
        <time>2009-08-13T07:52:56Z</time>
      </trkpt>
      <trkpt lat="44.46103" lon="1.11804">
        <ele>171.415909</ele>
        <time>2009-08-13T07:52:59Z</time>
      </trkpt>
      <trkpt lat="44.46098" lon="1.11802">
        <ele>171.595703</ele>
        <time>2009-08-13T07:53:02Z</time>
      </trkpt>
      <trkpt lat="44.46093" lon="1.11799">
        <ele>171.782318</ele>
        <time>2009-08-13T07:53:05Z</time>
      </trkpt>
      <trkpt lat="44.46088" lon="1.11796">
        <ele>171.906494</ele>
        <time>2009-08-13T07:53:08Z</time>
      </trkpt>
      <trkpt lat="44.46084" lon="1.1179">
        <ele>171.990723</ele>
        <time>2009-08-13T07:53:11Z</time>
      </trkpt>
      <trkpt lat="44.46077" lon="1.11789">
        <ele>172.003281</ele>
        <time>2009-08-13T07:53:14Z</time>
      </trkpt>
      <trkpt lat="44.46071" lon="1.11787">
        <ele>172.426804</ele>
        <time>2009-08-13T07:53:18Z</time>
      </trkpt>
      <trkpt lat="44.46065" lon="1.11786">
        <ele>172.559128</ele>
        <time>2009-08-13T07:53:21Z</time>
      </trkpt>
      <trkpt lat="44.4606" lon="1.11786">
        <ele>172.705536</ele>
        <time>2009-08-13T07:53:25Z</time>
      </trkpt>
      <trkpt lat="44.46056" lon="1.11785">
        <ele>172.842911</ele>
        <time>2009-08-13T07:53:28Z</time>
      </trkpt>
      <trkpt lat="44.4605" lon="1.11783">
        <ele>173.199203</ele>
        <time>2009-08-13T07:53:32Z</time>
      </trkpt>
      <trkpt lat="44.46044" lon="1.11782">
        <ele>173.640808</ele>
        <time>2009-08-13T07:53:36Z</time>
      </trkpt>
      <trkpt lat="44.46039" lon="1.1178">
        <ele>174.083801</ele>
        <time>2009-08-13T07:53:39Z</time>
      </trkpt>
      <trkpt lat="44.46032" lon="1.11779">
        <ele>174.237213</ele>
        <time>2009-08-13T07:53:43Z</time>
      </trkpt>
      <trkpt lat="44.46027" lon="1.11777">
        <ele>174.672424</ele>
        <time>2009-08-13T07:53:47Z</time>
      </trkpt>
      <trkpt lat="44.46019" lon="1.11777">
        <ele>174.794189</ele>
        <time>2009-08-13T07:53:50Z</time>
      </trkpt>
      <trkpt lat="44.46014" lon="1.11777">
        <ele>174.877548</ele>
        <time>2009-08-13T07:53:53Z</time>
      </trkpt>
      <trkpt lat="44.46008" lon="1.11776">
        <ele>175.072495</ele>
        <time>2009-08-13T07:53:57Z</time>
      </trkpt>
      <trkpt lat="44.46003" lon="1.11774">
        <ele>175.648682</ele>
        <time>2009-08-13T07:54:00Z</time>
      </trkpt>
      <trkpt lat="44.45997" lon="1.11772">
        <ele>176.166763</ele>
        <time>2009-08-13T07:54:04Z</time>
      </trkpt>
      <trkpt lat="44.4599" lon="1.11769">
        <ele>176.754562</ele>
        <time>2009-08-13T07:54:08Z</time>
      </trkpt>
      <trkpt lat="44.45987" lon="1.11766">
        <ele>177.137222</ele>
        <time>2009-08-13T07:54:11Z</time>
      </trkpt>
      <trkpt lat="44.45983" lon="1.11763">
        <ele>177.536621</ele>
        <time>2009-08-13T07:54:15Z</time>
      </trkpt>
      <trkpt lat="44.45981" lon="1.11756">
        <ele>178.057999</ele>
        <time>2009-08-13T07:54:18Z</time>
      </trkpt>
      <trkpt lat="44.4598" lon="1.11751">
        <ele>178.415344</ele>
        <time>2009-08-13T07:54:21Z</time>
      </trkpt>
      <trkpt lat="44.45976" lon="1.11748">
        <ele>178.581268</ele>
        <time>2009-08-13T07:54:24Z</time>
      </trkpt>
      <trkpt lat="44.45972" lon="1.11744">
        <ele>178.744736</ele>
        <time>2009-08-13T07:54:27Z</time>
      </trkpt>
      <trkpt lat="44.45967" lon="1.11738">
        <ele>178.872208</ele>
        <time>2009-08-13T07:54:32Z</time>
      </trkpt>
      <trkpt lat="44.45963" lon="1.11734">
        <ele>178.812897</ele>
        <time>2009-08-13T07:54:35Z</time>
      </trkpt>
      <trkpt lat="44.45959" lon="1.11731">
        <ele>178.950119</ele>
        <time>2009-08-13T07:54:38Z</time>
      </trkpt>
      <trkpt lat="44.45953" lon="1.11724">
        <ele>179.874847</ele>
        <time>2009-08-13T07:54:42Z</time>
      </trkpt>
      <trkpt lat="44.4595" lon="1.11721">
        <ele>180.593796</ele>
        <time>2009-08-13T07:54:45Z</time>
      </trkpt>
      <trkpt lat="44.45946" lon="1.11716">
        <ele>181.341003</ele>
        <time>2009-08-13T07:54:48Z</time>
      </trkpt>
      <trkpt lat="44.45941" lon="1.11712">
        <ele>181.972366</ele>
        <time>2009-08-13T07:54:52Z</time>
      </trkpt>
      <trkpt lat="44.45936" lon="1.11709">
        <ele>182.270599</ele>
        <time>2009-08-13T07:54:55Z</time>
      </trkpt>
      <trkpt lat="44.4593" lon="1.11705">
        <ele>182.769836</ele>
        <time>2009-08-13T07:55:00Z</time>
      </trkpt>
      <trkpt lat="44.45925" lon="1.11701">
        <ele>182.97493</ele>
        <time>2009-08-13T07:55:05Z</time>
      </trkpt>
      <trkpt lat="44.4592" lon="1.117">
        <ele>182.903076</ele>
        <time>2009-08-13T07:55:09Z</time>
      </trkpt>
      <trkpt lat="44.45917" lon="1.11698">
        <ele>182.962891</ele>
        <time>2009-08-13T07:55:12Z</time>
      </trkpt>
      <trkpt lat="44.45911" lon="1.11695">
        <ele>183.254868</ele>
        <time>2009-08-13T07:55:16Z</time>
      </trkpt>
      <trkpt lat="44.45905" lon="1.11692">
        <ele>183.533966</ele>
        <time>2009-08-13T07:55:20Z</time>
      </trkpt>
      <trkpt lat="44.459" lon="1.1169">
        <ele>183.65654</ele>
        <time>2009-08-13T07:55:23Z</time>
      </trkpt>
      <trkpt lat="44.45895" lon="1.11686">
        <ele>183.852768</ele>
        <time>2009-08-13T07:55:27Z</time>
      </trkpt>
      <trkpt lat="44.4589" lon="1.11685">
        <ele>183.793488</ele>
        <time>2009-08-13T07:55:30Z</time>
      </trkpt>
      <trkpt lat="44.45886" lon="1.11683">
        <ele>183.79982</ele>
        <time>2009-08-13T07:55:33Z</time>
      </trkpt>
      <trkpt lat="44.45882" lon="1.11681">
        <ele>183.766602</ele>
        <time>2009-08-13T07:55:36Z</time>
      </trkpt>
      <trkpt lat="44.45878" lon="1.11679">
        <ele>183.706635</ele>
        <time>2009-08-13T07:55:40Z</time>
      </trkpt>
      <trkpt lat="44.45874" lon="1.11677">
        <ele>183.604294</ele>
        <time>2009-08-13T07:55:43Z</time>
      </trkpt>
      <trkpt lat="44.45871" lon="1.11674">
        <ele>183.6064</ele>
        <time>2009-08-13T07:55:46Z</time>
      </trkpt>
      <trkpt lat="44.45866" lon="1.11672">
        <ele>183.475067</ele>
        <time>2009-08-13T07:55:50Z</time>
      </trkpt>
      <trkpt lat="44.45863" lon="1.1167">
        <ele>183.361115</ele>
        <time>2009-08-13T07:55:53Z</time>
      </trkpt>
      <trkpt lat="44.4586" lon="1.11668">
        <ele>183.197067</ele>
        <time>2009-08-13T07:55:56Z</time>
      </trkpt>
      <trkpt lat="44.45854" lon="1.11666">
        <ele>183.356873</ele>
        <time>2009-08-13T07:56:00Z</time>
      </trkpt>
      <trkpt lat="44.45848" lon="1.11663">
        <ele>183.691559</ele>
        <time>2009-08-13T07:56:03Z</time>
      </trkpt>
      <trkpt lat="44.4584" lon="1.11659">
        <ele>184.294647</ele>
        <time>2009-08-13T07:56:06Z</time>
      </trkpt>
      <trkpt lat="44.45836" lon="1.11655">
        <ele>184.929199</ele>
        <time>2009-08-13T07:56:09Z</time>
      </trkpt>
      <trkpt lat="44.45834" lon="1.11653">
        <ele>185.331573</ele>
        <time>2009-08-13T07:56:12Z</time>
      </trkpt>
      <trkpt lat="44.4583" lon="1.1165">
        <ele>185.696167</ele>
        <time>2009-08-13T07:56:15Z</time>
      </trkpt>
      <trkpt lat="44.45827" lon="1.11646">
        <ele>186.438004</ele>
        <time>2009-08-13T07:56:18Z</time>
      </trkpt>
      <trkpt lat="44.45825" lon="1.11641">
        <ele>187.56488</ele>
        <time>2009-08-13T07:56:21Z</time>
      </trkpt>
      <trkpt lat="44.45822" lon="1.11637">
        <ele>188.446594</ele>
        <time>2009-08-13T07:56:24Z</time>
      </trkpt>
      <trkpt lat="44.45818" lon="1.11633">
        <ele>189.170197</ele>
        <time>2009-08-13T07:56:27Z</time>
      </trkpt>
      <trkpt lat="44.45815" lon="1.11632">
        <ele>189.45932</ele>
        <time>2009-08-13T07:56:30Z</time>
      </trkpt>
      <trkpt lat="44.45813" lon="1.11629">
        <ele>189.913834</ele>
        <time>2009-08-13T07:56:33Z</time>
      </trkpt>
      <trkpt lat="44.45807" lon="1.11625">
        <ele>190.292953</ele>
        <time>2009-08-13T07:56:38Z</time>
      </trkpt>
      <trkpt lat="44.45805" lon="1.11619">
        <ele>191.33313</ele>
        <time>2009-08-13T07:56:42Z</time>
      </trkpt>
      <trkpt lat="44.45801" lon="1.11614">
        <ele>191.845352</ele>
        <time>2009-08-13T07:56:46Z</time>
      </trkpt>
      <trkpt lat="44.45801" lon="1.11609">
        <ele>192.703796</ele>
        <time>2009-08-13T07:56:50Z</time>
      </trkpt>
      <trkpt lat="44.458" lon="1.11603">
        <ele>193.556259</ele>
        <time>2009-08-13T07:56:53Z</time>
      </trkpt>
      <trkpt lat="44.45799" lon="1.11598">
        <ele>194.243744</ele>
        <time>2009-08-13T07:56:56Z</time>
      </trkpt>
      <trkpt lat="44.45799" lon="1.1159">
        <ele>195.556244</ele>
        <time>2009-08-13T07:57:00Z</time>
      </trkpt>
      <trkpt lat="44.45796" lon="1.11584">
        <ele>196.243744</ele>
        <time>2009-08-13T07:57:03Z</time>
      </trkpt>
      <trkpt lat="44.45794" lon="1.11578">
        <ele>196.887497</ele>
        <time>2009-08-13T07:57:06Z</time>
      </trkpt>
      <trkpt lat="44.45789" lon="1.11575">
        <ele>196.90625</ele>
        <time>2009-08-13T07:57:09Z</time>
      </trkpt>
      <trkpt lat="44.45785" lon="1.11575">
        <ele>196.350006</ele>
        <time>2009-08-13T07:57:13Z</time>
      </trkpt>
      <trkpt lat="44.45781" lon="1.1158">
        <ele>195.231247</ele>
        <time>2009-08-13T07:57:17Z</time>
      </trkpt>
      <trkpt lat="44.45776" lon="1.11587">
        <ele>194.580292</ele>
        <time>2009-08-13T07:57:22Z</time>
      </trkpt>
      <trkpt lat="44.45771" lon="1.11591">
        <ele>194.415558</ele>
        <time>2009-08-13T07:57:25Z</time>
      </trkpt>
      <trkpt lat="44.45766" lon="1.11594">
        <ele>194.303864</ele>
        <time>2009-08-13T07:57:28Z</time>
      </trkpt>
      <trkpt lat="44.45761" lon="1.11598">
        <ele>194.140137</ele>
        <time>2009-08-13T07:57:31Z</time>
      </trkpt>
      <trkpt lat="44.45756" lon="1.11601">
        <ele>194.237152</ele>
        <time>2009-08-13T07:57:34Z</time>
      </trkpt>
      <trkpt lat="44.45749" lon="1.11603">
        <ele>194.448135</ele>
        <time>2009-08-13T07:57:37Z</time>
      </trkpt>
      <trkpt lat="44.45743" lon="1.11605">
        <ele>194.761963</ele>
        <time>2009-08-13T07:57:40Z</time>
      </trkpt>
      <trkpt lat="44.45738" lon="1.11607">
        <ele>194.965408</ele>
        <time>2009-08-13T07:57:43Z</time>
      </trkpt>
      <trkpt lat="44.45732" lon="1.1161">
        <ele>195.451981</ele>
        <time>2009-08-13T07:57:46Z</time>
      </trkpt>
      <trkpt lat="44.45726" lon="1.11612">
        <ele>195.972946</ele>
        <time>2009-08-13T07:57:49Z</time>
      </trkpt>
      <trkpt lat="44.4572" lon="1.11614">
        <ele>196.508545</ele>
        <time>2009-08-13T07:57:52Z</time>
      </trkpt>
      <trkpt lat="44.45714" lon="1.11615">
        <ele>197.048187</ele>
        <time>2009-08-13T07:57:55Z</time>
      </trkpt>
      <trkpt lat="44.45708" lon="1.11616">
        <ele>197.635666</ele>
        <time>2009-08-13T07:57:58Z</time>
      </trkpt>
      <trkpt lat="44.45702" lon="1.11618">
        <ele>198.183334</ele>
        <time>2009-08-13T07:58:01Z</time>
      </trkpt>
      <trkpt lat="44.45695" lon="1.11619">
        <ele>198.872818</ele>
        <time>2009-08-13T07:58:04Z</time>
      </trkpt>
      <trkpt lat="44.4569" lon="1.11621">
        <ele>199.295471</ele>
        <time>2009-08-13T07:58:07Z</time>
      </trkpt>
      <trkpt lat="44.45684" lon="1.11623">
        <ele>199.677734</ele>
        <time>2009-08-13T07:58:10Z</time>
      </trkpt>
      <trkpt lat="44.45678" lon="1.11624">
        <ele>200.115234</ele>
        <time>2009-08-13T07:58:13Z</time>
      </trkpt>
      <trkpt lat="44.45673" lon="1.11627">
        <ele>200.274277</ele>
        <time>2009-08-13T07:58:16Z</time>
      </trkpt>
      <trkpt lat="44.45667" lon="1.11631">
        <ele>200.48288</ele>
        <time>2009-08-13T07:58:20Z</time>
      </trkpt>
      <trkpt lat="44.45662" lon="1.11634">
        <ele>200.619659</ele>
        <time>2009-08-13T07:58:23Z</time>
      </trkpt>
      <trkpt lat="44.45656" lon="1.11637">
        <ele>200.766754</ele>
        <time>2009-08-13T07:58:27Z</time>
      </trkpt>
      <trkpt lat="44.4565" lon="1.1164">
        <ele>200.95787</ele>
        <time>2009-08-13T07:58:30Z</time>
      </trkpt>
      <trkpt lat="44.45645" lon="1.11642">
        <ele>201.197159</ele>
        <time>2009-08-13T07:58:33Z</time>
      </trkpt>
      <trkpt lat="44.4564" lon="1.11644">
        <ele>201.394547</ele>
        <time>2009-08-13T07:58:36Z</time>
      </trkpt>
      <trkpt lat="44.45635" lon="1.11646">
        <ele>201.603622</ele>
        <time>2009-08-13T07:58:39Z</time>
      </trkpt>
      <trkpt lat="44.45631" lon="1.11649">
        <ele>201.652344</ele>
        <time>2009-08-13T07:58:42Z</time>
      </trkpt>
      <trkpt lat="44.45627" lon="1.11654">
        <ele>201.430481</ele>
        <time>2009-08-13T07:58:46Z</time>
      </trkpt>
      <trkpt lat="44.4562" lon="1.11657">
        <ele>201.694839</ele>
        <time>2009-08-13T07:58:50Z</time>
      </trkpt>
      <trkpt lat="44.45615" lon="1.11659">
        <ele>201.896179</ele>
        <time>2009-08-13T07:58:53Z</time>
      </trkpt>
      <trkpt lat="44.45609" lon="1.11661">
        <ele>202.180496</ele>
        <time>2009-08-13T07:58:57Z</time>
      </trkpt>
      <trkpt lat="44.45604" lon="1.11662">
        <ele>202.419189</ele>
        <time>2009-08-13T07:59:00Z</time>
      </trkpt>
      <trkpt lat="44.45599" lon="1.11664">
        <ele>202.578751</ele>
        <time>2009-08-13T07:59:03Z</time>
      </trkpt>
      <trkpt lat="44.45592" lon="1.11666">
        <ele>202.734375</ele>
        <time>2009-08-13T07:59:07Z</time>
      </trkpt>
      <trkpt lat="44.45587" lon="1.11668">
        <ele>202.897507</ele>
        <time>2009-08-13T07:59:10Z</time>
      </trkpt>
      <trkpt lat="44.45582" lon="1.11669">
        <ele>203.077499</ele>
        <time>2009-08-13T07:59:13Z</time>
      </trkpt>
      <trkpt lat="44.45575" lon="1.11671">
        <ele>203.302505</ele>
        <time>2009-08-13T07:59:17Z</time>
      </trkpt>
      <trkpt lat="44.4557" lon="1.11673">
        <ele>203.407501</ele>
        <time>2009-08-13T07:59:20Z</time>
      </trkpt>
      <trkpt lat="44.45564" lon="1.11673">
        <ele>203.8125</ele>
        <time>2009-08-13T07:59:23Z</time>
      </trkpt>
      <trkpt lat="44.45559" lon="1.11673">
        <ele>204.039368</ele>
        <time>2009-08-13T07:59:26Z</time>
      </trkpt>
      <trkpt lat="44.4555" lon="1.11674">
        <ele>204.683136</ele>
        <time>2009-08-13T07:59:29Z</time>
      </trkpt>
      <trkpt lat="44.4554" lon="1.1168">
        <ele>205.309998</ele>
        <time>2009-08-13T07:59:32Z</time>
      </trkpt>
      <trkpt lat="44.45532" lon="1.11687">
        <ele>205.5625</ele>
        <time>2009-08-13T07:59:35Z</time>
      </trkpt>
      <trkpt lat="44.45528" lon="1.11692">
        <ele>205.524994</ele>
        <time>2009-08-13T07:59:38Z</time>
      </trkpt>
      <trkpt lat="44.45526" lon="1.11695">
        <ele>205.592499</ele>
        <time>2009-08-13T07:59:41Z</time>
      </trkpt>
      <trkpt lat="44.4552" lon="1.11701">
        <ele>205.737503</ele>
        <time>2009-08-13T07:59:45Z</time>
      </trkpt>
      <trkpt lat="44.45514" lon="1.11706">
        <ele>205.985001</ele>
        <time>2009-08-13T07:59:50Z</time>
      </trkpt>
      <trkpt lat="44.45509" lon="1.11709">
        <ele>206.350372</ele>
        <time>2009-08-13T07:59:53Z</time>
      </trkpt>
      <trkpt lat="44.45503" lon="1.11714">
        <ele>206.791107</ele>
        <time>2009-08-13T07:59:56Z</time>
      </trkpt>
      <trkpt lat="44.45497" lon="1.1172">
        <ele>207.128448</ele>
        <time>2009-08-13T07:59:59Z</time>
      </trkpt>
      <trkpt lat="44.45491" lon="1.11724">
        <ele>207.690002</ele>
        <time>2009-08-13T08:00:02Z</time>
      </trkpt>
      <trkpt lat="44.45485" lon="1.11729">
        <ele>208.269516</ele>
        <time>2009-08-13T08:00:05Z</time>
      </trkpt>
      <trkpt lat="44.45478" lon="1.11733">
        <ele>208.997452</ele>
        <time>2009-08-13T08:00:08Z</time>
      </trkpt>
      <trkpt lat="44.4547" lon="1.11738">
        <ele>209.782257</ele>
        <time>2009-08-13T08:00:11Z</time>
      </trkpt>
      <trkpt lat="44.45465" lon="1.11741">
        <ele>210.435516</ele>
        <time>2009-08-13T08:00:14Z</time>
      </trkpt>
      <trkpt lat="44.4546" lon="1.11744">
        <ele>210.979202</ele>
        <time>2009-08-13T08:00:17Z</time>
      </trkpt>
      <trkpt lat="44.45455" lon="1.11747">
        <ele>211.516678</ele>
        <time>2009-08-13T08:00:20Z</time>
      </trkpt>
      <trkpt lat="44.45451" lon="1.11748">
        <ele>211.87973</ele>
        <time>2009-08-13T08:00:23Z</time>
      </trkpt>
      <trkpt lat="44.45448" lon="1.1175">
        <ele>212.201447</ele>
        <time>2009-08-13T08:00:27Z</time>
      </trkpt>
      <trkpt lat="44.45443" lon="1.11753">
        <ele>212.657806</ele>
        <time>2009-08-13T08:00:31Z</time>
      </trkpt>
      <trkpt lat="44.4544" lon="1.11753">
        <ele>212.894104</ele>
        <time>2009-08-13T08:00:36Z</time>
      </trkpt>
      <trkpt lat="44.45436" lon="1.11753">
        <ele>213.177917</ele>
        <time>2009-08-13T08:00:39Z</time>
      </trkpt>
      <trkpt lat="44.45432" lon="1.11753">
        <ele>213.554947</ele>
        <time>2009-08-13T08:00:42Z</time>
      </trkpt>
      <trkpt lat="44.45427" lon="1.11752">
        <ele>213.919678</ele>
        <time>2009-08-13T08:00:46Z</time>
      </trkpt>
      <trkpt lat="44.45424" lon="1.11751">
        <ele>214.160538</ele>
        <time>2009-08-13T08:00:49Z</time>
      </trkpt>
      <trkpt lat="44.45419" lon="1.11751">
        <ele>214.487503</ele>
        <time>2009-08-13T08:00:52Z</time>
      </trkpt>
      <trkpt lat="44.45414" lon="1.1175">
        <ele>214.788132</ele>
        <time>2009-08-13T08:00:55Z</time>
      </trkpt>
      <trkpt lat="44.45408" lon="1.11749">
        <ele>215.179367</ele>
        <time>2009-08-13T08:00:59Z</time>
      </trkpt>
      <trkpt lat="44.45403" lon="1.11747">
        <ele>215.493744</ele>
        <time>2009-08-13T08:01:03Z</time>
      </trkpt>
      <trkpt lat="44.45399" lon="1.11746">
        <ele>215.733124</ele>
        <time>2009-08-13T08:01:06Z</time>
      </trkpt>
      <trkpt lat="44.45392" lon="1.11745">
        <ele>216.157501</ele>
        <time>2009-08-13T08:01:10Z</time>
      </trkpt>
      <trkpt lat="44.45386" lon="1.11745">
        <ele>216.563126</ele>
        <time>2009-08-13T08:01:14Z</time>
      </trkpt>
      <trkpt lat="44.45383" lon="1.11746">
        <ele>216.772491</ele>
        <time>2009-08-13T08:01:17Z</time>
      </trkpt>
      <trkpt lat="44.45378" lon="1.11744">
        <ele>217.074493</ele>
        <time>2009-08-13T08:01:20Z</time>
      </trkpt>
      <trkpt lat="44.45372" lon="1.11744">
        <ele>217.802597</ele>
        <time>2009-08-13T08:01:24Z</time>
      </trkpt>
      <trkpt lat="44.45367" lon="1.11743">
        <ele>218.251068</ele>
        <time>2009-08-13T08:01:27Z</time>
      </trkpt>
      <trkpt lat="44.45363" lon="1.11742">
        <ele>218.716629</ele>
        <time>2009-08-13T08:01:30Z</time>
      </trkpt>
      <trkpt lat="44.45357" lon="1.11743">
        <ele>219.400757</ele>
        <time>2009-08-13T08:01:34Z</time>
      </trkpt>
      <trkpt lat="44.45352" lon="1.11743">
        <ele>219.910233</ele>
        <time>2009-08-13T08:01:37Z</time>
      </trkpt>
      <trkpt lat="44.4535" lon="1.11745">
        <ele>220.174271</ele>
        <time>2009-08-13T08:01:41Z</time>
      </trkpt>
      <trkpt lat="44.45348" lon="1.11748">
        <ele>220.412003</ele>
        <time>2009-08-13T08:01:45Z</time>
      </trkpt>
      <trkpt lat="44.45346" lon="1.11756">
        <ele>220.566315</ele>
        <time>2009-08-13T08:01:49Z</time>
      </trkpt>
      <trkpt lat="44.45346" lon="1.11763">
        <ele>220.529266</ele>
        <time>2009-08-13T08:01:53Z</time>
      </trkpt>
      <trkpt lat="44.45345" lon="1.1177">
        <ele>220.50235</ele>
        <time>2009-08-13T08:01:57Z</time>
      </trkpt>
      <trkpt lat="44.45344" lon="1.11777">
        <ele>220.534897</ele>
        <time>2009-08-13T08:02:01Z</time>
      </trkpt>
      <trkpt lat="44.45343" lon="1.11783">
        <ele>220.640411</ele>
        <time>2009-08-13T08:02:04Z</time>
      </trkpt>
      <trkpt lat="44.45339" lon="1.11791">
        <ele>220.837692</ele>
        <time>2009-08-13T08:02:08Z</time>
      </trkpt>
      <trkpt lat="44.45335" lon="1.11799">
        <ele>221.031204</ele>
        <time>2009-08-13T08:02:12Z</time>
      </trkpt>
      <trkpt lat="44.4533" lon="1.11806">
        <ele>221.370529</ele>
        <time>2009-08-13T08:02:16Z</time>
      </trkpt>
      <trkpt lat="44.45326" lon="1.11812">
        <ele>221.853149</ele>
        <time>2009-08-13T08:02:19Z</time>
      </trkpt>
      <trkpt lat="44.45322" lon="1.11817">
        <ele>222.273621</ele>
        <time>2009-08-13T08:02:22Z</time>
      </trkpt>
      <trkpt lat="44.45318" lon="1.11822">
        <ele>222.636826</ele>
        <time>2009-08-13T08:02:25Z</time>
      </trkpt>
      <trkpt lat="44.45314" lon="1.11826">
        <ele>222.984589</ele>
        <time>2009-08-13T08:02:28Z</time>
      </trkpt>
      <trkpt lat="44.45309" lon="1.11831">
        <ele>223.426636</ele>
        <time>2009-08-13T08:02:31Z</time>
      </trkpt>
      <trkpt lat="44.45305" lon="1.11835">
        <ele>223.82814</ele>
        <time>2009-08-13T08:02:34Z</time>
      </trkpt>
      <trkpt lat="44.453" lon="1.11839">
        <ele>224.193954</ele>
        <time>2009-08-13T08:02:37Z</time>
      </trkpt>
      <trkpt lat="44.45296" lon="1.11843">
        <ele>224.531204</ele>
        <time>2009-08-13T08:02:40Z</time>
      </trkpt>
      <trkpt lat="44.45292" lon="1.11847">
        <ele>224.866104</ele>
        <time>2009-08-13T08:02:43Z</time>
      </trkpt>
      <trkpt lat="44.45287" lon="1.11851">
        <ele>225.125854</ele>
        <time>2009-08-13T08:02:46Z</time>
      </trkpt>
      <trkpt lat="44.45283" lon="1.11855">
        <ele>225.345062</ele>
        <time>2009-08-13T08:02:49Z</time>
      </trkpt>
      <trkpt lat="44.45279" lon="1.11858">
        <ele>225.521255</ele>
        <time>2009-08-13T08:02:52Z</time>
      </trkpt>
      <trkpt lat="44.45276" lon="1.1186">
        <ele>225.667572</ele>
        <time>2009-08-13T08:03:00Z</time>
      </trkpt>
      <trkpt lat="44.45275" lon="1.1186">
        <ele>225.728027</ele>
        <time>2009-08-13T08:03:04Z</time>
      </trkpt>
      <trkpt lat="44.45275" lon="1.11858">
        <ele>225.738861</ele>
        <time>2009-08-13T08:03:11Z</time>
      </trkpt>
      <trkpt lat="44.45274" lon="1.11856">
        <ele>225.781219</ele>
        <time>2009-08-13T08:03:15Z</time>
      </trkpt>
      <trkpt lat="44.45275" lon="1.11856">
        <ele>225.722137</ele>
        <time>2009-08-13T08:03:19Z</time>
      </trkpt>
      <trkpt lat="44.45276" lon="1.11856">
        <ele>225.66777</ele>
        <time>2009-08-13T08:03:23Z</time>
      </trkpt>
      <trkpt lat="44.45278" lon="1.11855">
        <ele>225.607162</ele>
        <time>2009-08-13T08:03:35Z</time>
      </trkpt>
      <trkpt lat="44.45279" lon="1.11855">
        <ele>225.543747</ele>
        <time>2009-08-13T08:03:40Z</time>
      </trkpt>
      <trkpt lat="44.45278" lon="1.11853">
        <ele>225.595917</ele>
        <time>2009-08-13T08:03:56Z</time>
      </trkpt>
      <trkpt lat="44.45277" lon="1.11855">
        <ele>225.615189</ele>
        <time>2009-08-13T08:04:02Z</time>
      </trkpt>
      <trkpt lat="44.45278" lon="1.11862">
        <ele>225.542038</ele>
        <time>2009-08-13T08:04:07Z</time>
      </trkpt>
      <trkpt lat="44.45285" lon="1.11869">
        <ele>225.229355</ele>
        <time>2009-08-13T08:04:11Z</time>
      </trkpt>
      <trkpt lat="44.45291" lon="1.11879">
        <ele>225.092178</ele>
        <time>2009-08-13T08:04:14Z</time>
      </trkpt>
      <trkpt lat="44.453" lon="1.11891">
        <ele>224.784042</ele>
        <time>2009-08-13T08:04:17Z</time>
      </trkpt>
      <trkpt lat="44.45311" lon="1.11903">
        <ele>224.450714</ele>
        <time>2009-08-13T08:04:20Z</time>
      </trkpt>
      <trkpt lat="44.45324" lon="1.11918">
        <ele>224.159912</ele>
        <time>2009-08-13T08:04:23Z</time>
      </trkpt>
      <trkpt lat="44.45339" lon="1.11934">
        <ele>224.128754</ele>
        <time>2009-08-13T08:04:26Z</time>
      </trkpt>
      <trkpt lat="44.45354" lon="1.11953">
        <ele>224.728745</ele>
        <time>2009-08-13T08:04:29Z</time>
      </trkpt>
      <trkpt lat="44.45371" lon="1.11967">
        <ele>225.182495</ele>
        <time>2009-08-13T08:04:32Z</time>
      </trkpt>
      <trkpt lat="44.45387" lon="1.11969">
        <ele>225.259995</ele>
        <time>2009-08-13T08:04:35Z</time>
      </trkpt>
      <trkpt lat="44.454" lon="1.11971">
        <ele>225.323746</ele>
        <time>2009-08-13T08:04:39Z</time>
      </trkpt>
      <trkpt lat="44.45409" lon="1.11973">
        <ele>225.416245</ele>
        <time>2009-08-13T08:04:42Z</time>
      </trkpt>
      <trkpt lat="44.45417" lon="1.11975">
        <ele>225.478745</ele>
        <time>2009-08-13T08:04:45Z</time>
      </trkpt>
      <trkpt lat="44.45426" lon="1.11975">
        <ele>225.485001</ele>
        <time>2009-08-13T08:04:48Z</time>
      </trkpt>
      <trkpt lat="44.45435" lon="1.11974">
        <ele>225.518295</ele>
        <time>2009-08-13T08:04:51Z</time>
      </trkpt>
      <trkpt lat="44.45444" lon="1.11972">
        <ele>225.529739</ele>
        <time>2009-08-13T08:04:54Z</time>
      </trkpt>
      <trkpt lat="44.45452" lon="1.11971">
        <ele>225.558701</ele>
        <time>2009-08-13T08:04:57Z</time>
      </trkpt>
      <trkpt lat="44.4546" lon="1.1197">
        <ele>225.595413</ele>
        <time>2009-08-13T08:05:00Z</time>
      </trkpt>
      <trkpt lat="44.45468" lon="1.11971">
        <ele>225.67868</ele>
        <time>2009-08-13T08:05:03Z</time>
      </trkpt>
      <trkpt lat="44.45475" lon="1.11975">
        <ele>225.852509</ele>
        <time>2009-08-13T08:05:06Z</time>
      </trkpt>
      <trkpt lat="44.45482" lon="1.1198">
        <ele>226.070618</ele>
        <time>2009-08-13T08:05:09Z</time>
      </trkpt>
      <trkpt lat="44.45488" lon="1.11988">
        <ele>226.355621</ele>
        <time>2009-08-13T08:05:13Z</time>
      </trkpt>
      <trkpt lat="44.45493" lon="1.11996">
        <ele>226.431366</ele>
        <time>2009-08-13T08:05:16Z</time>
      </trkpt>
      <trkpt lat="44.45497" lon="1.12003">
        <ele>226.443451</ele>
        <time>2009-08-13T08:05:19Z</time>
      </trkpt>
      <trkpt lat="44.45501" lon="1.12009">
        <ele>226.456772</ele>
        <time>2009-08-13T08:05:22Z</time>
      </trkpt>
      <trkpt lat="44.45506" lon="1.12017">
        <ele>226.432709</ele>
        <time>2009-08-13T08:05:25Z</time>
      </trkpt>
      <trkpt lat="44.45513" lon="1.12022">
        <ele>226.451584</ele>
        <time>2009-08-13T08:05:28Z</time>
      </trkpt>
      <trkpt lat="44.45519" lon="1.12027">
        <ele>226.404999</ele>
        <time>2009-08-13T08:05:31Z</time>
      </trkpt>
      <trkpt lat="44.45523" lon="1.1203">
        <ele>226.348129</ele>
        <time>2009-08-13T08:05:34Z</time>
      </trkpt>
      <trkpt lat="44.45528" lon="1.12034">
        <ele>226.279373</ele>
        <time>2009-08-13T08:05:37Z</time>
      </trkpt>
      <trkpt lat="44.45535" lon="1.12038">
        <ele>226.216248</ele>
        <time>2009-08-13T08:05:40Z</time>
      </trkpt>
      <trkpt lat="44.4554" lon="1.12042">
        <ele>226.154373</ele>
        <time>2009-08-13T08:05:43Z</time>
      </trkpt>
      <trkpt lat="44.45545" lon="1.12046">
        <ele>226.085632</ele>
        <time>2009-08-13T08:05:47Z</time>
      </trkpt>
      <trkpt lat="44.45545" lon="1.12048">
        <ele>226.058746</ele>
        <time>2009-08-13T08:06:01Z</time>
      </trkpt>
      <trkpt lat="44.45546" lon="1.12048">
        <ele>226.053131</ele>
        <time>2009-08-13T08:06:09Z</time>
      </trkpt>
      <trkpt lat="44.45547" lon="1.1205">
        <ele>226.029373</ele>
        <time>2009-08-13T08:06:21Z</time>
      </trkpt>
      <trkpt lat="44.45548" lon="1.12049">
        <ele>226.033752</ele>
        <time>2009-08-13T08:06:24Z</time>
      </trkpt>
      <trkpt lat="44.4555" lon="1.1205">
        <ele>226.024994</ele>
        <time>2009-08-13T08:06:37Z</time>
      </trkpt>
      <trkpt lat="44.45554" lon="1.12051">
        <ele>226.003128</ele>
        <time>2009-08-13T08:06:41Z</time>
      </trkpt>
      <trkpt lat="44.45557" lon="1.12053">
        <ele>225.958649</ele>
        <time>2009-08-13T08:06:47Z</time>
      </trkpt>
      <trkpt lat="44.45558" lon="1.12052">
        <ele>225.962845</ele>
        <time>2009-08-13T08:07:00Z</time>
      </trkpt>
      <trkpt lat="44.45556" lon="1.12052">
        <ele>225.989471</ele>
        <time>2009-08-13T08:07:04Z</time>
      </trkpt>
      <trkpt lat="44.45554" lon="1.12051">
        <ele>225.996567</ele>
        <time>2009-08-13T08:07:15Z</time>
      </trkpt>
      <trkpt lat="44.45553" lon="1.12051">
        <ele>226.008118</ele>
        <time>2009-08-13T08:07:18Z</time>
      </trkpt>
      <trkpt lat="44.45552" lon="1.12052">
        <ele>225.992172</ele>
        <time>2009-08-13T08:07:24Z</time>
      </trkpt>
      <trkpt lat="44.45551" lon="1.12052">
        <ele>225.973602</ele>
        <time>2009-08-13T08:07:36Z</time>
      </trkpt>
      <trkpt lat="44.4555" lon="1.12051">
        <ele>226.007507</ele>
        <time>2009-08-13T08:07:40Z</time>
      </trkpt>
      <trkpt lat="44.45551" lon="1.12051">
        <ele>226.008743</ele>
        <time>2009-08-13T08:07:46Z</time>
      </trkpt>
      <trkpt lat="44.4555" lon="1.12052">
        <ele>225.97934</ele>
        <time>2009-08-13T08:07:55Z</time>
      </trkpt>
      <trkpt lat="44.45549" lon="1.12053">
        <ele>225.959335</ele>
        <time>2009-08-13T08:08:04Z</time>
      </trkpt>
      <trkpt lat="44.45549" lon="1.12059">
        <ele>225.80278</ele>
        <time>2009-08-13T08:08:08Z</time>
      </trkpt>
      <trkpt lat="44.45553" lon="1.12064">
        <ele>225.634781</ele>
        <time>2009-08-13T08:08:11Z</time>
      </trkpt>
      <trkpt lat="44.45555" lon="1.12079">
        <ele>225.170975</ele>
        <time>2009-08-13T08:08:15Z</time>
      </trkpt>
      <trkpt lat="44.45558" lon="1.12098">
        <ele>224.576874</ele>
        <time>2009-08-13T08:08:18Z</time>
      </trkpt>
      <trkpt lat="44.4556" lon="1.12125">
        <ele>223.896088</ele>
        <time>2009-08-13T08:08:21Z</time>
      </trkpt>
      <trkpt lat="44.45559" lon="1.12156">
        <ele>223.487747</ele>
        <time>2009-08-13T08:08:24Z</time>
      </trkpt>
      <trkpt lat="44.45559" lon="1.12187">
        <ele>223.037247</ele>
        <time>2009-08-13T08:08:27Z</time>
      </trkpt>
      <trkpt lat="44.45556" lon="1.12216">
        <ele>222.807327</ele>
        <time>2009-08-13T08:08:30Z</time>
      </trkpt>
      <trkpt lat="44.45556" lon="1.12239">
        <ele>222.505096</ele>
        <time>2009-08-13T08:08:33Z</time>
      </trkpt>
      <trkpt lat="44.45551" lon="1.12257">
        <ele>222.321243</ele>
        <time>2009-08-13T08:08:37Z</time>
      </trkpt>
      <trkpt lat="44.45548" lon="1.12269">
        <ele>222.168747</ele>
        <time>2009-08-13T08:08:40Z</time>
      </trkpt>
      <trkpt lat="44.45541" lon="1.12278">
        <ele>222.366257</ele>
        <time>2009-08-13T08:08:43Z</time>
      </trkpt>
      <trkpt lat="44.45541" lon="1.12291">
        <ele>221.936249</ele>
        <time>2009-08-13T08:08:47Z</time>
      </trkpt>
      <trkpt lat="44.45547" lon="1.12305">
        <ele>220.874725</ele>
        <time>2009-08-13T08:08:51Z</time>
      </trkpt>
      <trkpt lat="44.45546" lon="1.12325">
        <ele>219.090164</ele>
        <time>2009-08-13T08:08:54Z</time>
      </trkpt>
      <trkpt lat="44.45546" lon="1.12357">
        <ele>215.927475</ele>
        <time>2009-08-13T08:08:58Z</time>
      </trkpt>
      <trkpt lat="44.45538" lon="1.12383">
        <ele>213.816895</ele>
        <time>2009-08-13T08:09:02Z</time>
      </trkpt>
      <trkpt lat="44.45536" lon="1.1239">
        <ele>213.09642</ele>
        <time>2009-08-13T08:09:07Z</time>
      </trkpt>
      <trkpt lat="44.45544" lon="1.12388">
        <ele>212.553528</ele>
        <time>2009-08-13T08:09:11Z</time>
      </trkpt>
      <trkpt lat="44.45554" lon="1.12394">
        <ele>210.772675</ele>
        <time>2009-08-13T08:09:15Z</time>
      </trkpt>
      <trkpt lat="44.45553" lon="1.1241">
        <ele>209.100845</ele>
        <time>2009-08-13T08:09:18Z</time>
      </trkpt>
      <trkpt lat="44.45536" lon="1.12437">
        <ele>205.606339</ele>
        <time>2009-08-13T08:09:22Z</time>
      </trkpt>
      <trkpt lat="44.45525" lon="1.12447">
        <ele>203.540802</ele>
        <time>2009-08-13T08:09:26Z</time>
      </trkpt>
      <trkpt lat="44.45538" lon="1.12451">
        <ele>201.384644</ele>
        <time>2009-08-13T08:09:30Z</time>
      </trkpt>
      <trkpt lat="44.45556" lon="1.12456">
        <ele>199.035431</ele>
        <time>2009-08-13T08:09:33Z</time>
      </trkpt>
      <trkpt lat="44.45581" lon="1.12455">
        <ele>195.586761</ele>
        <time>2009-08-13T08:09:36Z</time>
      </trkpt>
      <trkpt lat="44.45603" lon="1.12458">
        <ele>190.473465</ele>
        <time>2009-08-13T08:09:39Z</time>
      </trkpt>
      <trkpt lat="44.45628" lon="1.12466">
        <ele>183.787186</ele>
        <time>2009-08-13T08:09:42Z</time>
      </trkpt>
      <trkpt lat="44.45651" lon="1.1246">
        <ele>179.2052</ele>
        <time>2009-08-13T08:09:46Z</time>
      </trkpt>
      <trkpt lat="44.45656" lon="1.12438">
        <ele>181.259232</ele>
        <time>2009-08-13T08:09:49Z</time>
      </trkpt>
      <trkpt lat="44.45661" lon="1.12409">
        <ele>186.057602</ele>
        <time>2009-08-13T08:09:53Z</time>
      </trkpt>
      <trkpt lat="44.45662" lon="1.12421">
        <ele>183.935287</ele>
        <time>2009-08-13T08:09:56Z</time>
      </trkpt>
      <trkpt lat="44.45677" lon="1.12457">
        <ele>177.341003</ele>
        <time>2009-08-13T08:10:00Z</time>
      </trkpt>
      <trkpt lat="44.45687" lon="1.12483">
        <ele>171.053955</ele>
        <time>2009-08-13T08:10:03Z</time>
      </trkpt>
      <trkpt lat="44.45694" lon="1.12505">
        <ele>165.799911</ele>
        <time>2009-08-13T08:10:06Z</time>
      </trkpt>
      <trkpt lat="44.45686" lon="1.12524">
        <ele>163.031494</ele>
        <time>2009-08-13T08:10:09Z</time>
      </trkpt>
      <trkpt lat="44.45671" lon="1.12537">
        <ele>162.355179</ele>
        <time>2009-08-13T08:10:12Z</time>
      </trkpt>
      <trkpt lat="44.4566" lon="1.12547">
        <ele>161.462708</ele>
        <time>2009-08-13T08:10:16Z</time>
      </trkpt>
      <trkpt lat="44.45668" lon="1.12547">
        <ele>160.717117</ele>
        <time>2009-08-13T08:10:20Z</time>
      </trkpt>
      <trkpt lat="44.45693" lon="1.12542">
        <ele>158.624481</ele>
        <time>2009-08-13T08:10:24Z</time>
      </trkpt>
      <trkpt lat="44.45703" lon="1.12549">
        <ele>156.130646</ele>
        <time>2009-08-13T08:10:27Z</time>
      </trkpt>
      <trkpt lat="44.45705" lon="1.12553">
        <ele>155.881577</ele>
        <time>2009-08-13T08:10:30Z</time>
      </trkpt>
      <trkpt lat="44.45708" lon="1.12556">
        <ele>155.913589</ele>
        <time>2009-08-13T08:10:35Z</time>
      </trkpt>
      <trkpt lat="44.45705" lon="1.12556">
        <ele>156.285156</ele>
        <time>2009-08-13T08:10:40Z</time>
      </trkpt>
      <trkpt lat="44.45701" lon="1.12555">
        <ele>156.513</ele>
        <time>2009-08-13T08:10:46Z</time>
      </trkpt>
      <trkpt lat="44.457" lon="1.12553">
        <ele>156.523132</ele>
        <time>2009-08-13T08:10:49Z</time>
      </trkpt>
      <trkpt lat="44.45698" lon="1.12552">
        <ele>156.583511</ele>
        <time>2009-08-13T08:10:53Z</time>
      </trkpt>
      <trkpt lat="44.45697" lon="1.12551">
        <ele>156.639435</ele>
        <time>2009-08-13T08:10:58Z</time>
      </trkpt>
      <trkpt lat="44.45697" lon="1.12553">
        <ele>156.778214</ele>
        <time>2009-08-13T08:11:08Z</time>
      </trkpt>
      <trkpt lat="44.45697" lon="1.12556">
        <ele>157.065475</ele>
        <time>2009-08-13T08:11:12Z</time>
      </trkpt>
      <trkpt lat="44.45697" lon="1.1256">
        <ele>157.420624</ele>
        <time>2009-08-13T08:11:16Z</time>
      </trkpt>
      <trkpt lat="44.45699" lon="1.12564">
        <ele>157.665436</ele>
        <time>2009-08-13T08:11:24Z</time>
      </trkpt>
      <trkpt lat="44.457" lon="1.12568">
        <ele>157.823959</ele>
        <time>2009-08-13T08:11:27Z</time>
      </trkpt>
      <trkpt lat="44.45709" lon="1.12569">
        <ele>157.245285</ele>
        <time>2009-08-13T08:11:32Z</time>
      </trkpt>
      <trkpt lat="44.45715" lon="1.12569">
        <ele>156.756302</ele>
        <time>2009-08-13T08:11:36Z</time>
      </trkpt>
      <trkpt lat="44.45713" lon="1.1257">
        <ele>157.032791</ele>
        <time>2009-08-13T08:11:39Z</time>
      </trkpt>
      <trkpt lat="44.45706" lon="1.12573">
        <ele>157.919708</ele>
        <time>2009-08-13T08:11:42Z</time>
      </trkpt>
      <trkpt lat="44.45701" lon="1.12579">
        <ele>158.838181</ele>
        <time>2009-08-13T08:11:46Z</time>
      </trkpt>
      <trkpt lat="44.45697" lon="1.12584">
        <ele>159.481339</ele>
        <time>2009-08-13T08:11:49Z</time>
      </trkpt>
      <trkpt lat="44.45693" lon="1.12591">
        <ele>160.272415</ele>
        <time>2009-08-13T08:11:53Z</time>
      </trkpt>
      <trkpt lat="44.45688" lon="1.12595">
        <ele>160.738602</ele>
        <time>2009-08-13T08:11:56Z</time>
      </trkpt>
      <trkpt lat="44.45685" lon="1.12597">
        <ele>160.946625</ele>
        <time>2009-08-13T08:11:59Z</time>
      </trkpt>
      <trkpt lat="44.45679" lon="1.12599">
        <ele>161.228622</ele>
        <time>2009-08-13T08:12:03Z</time>
      </trkpt>
      <trkpt lat="44.45674" lon="1.12601">
        <ele>161.417252</ele>
        <time>2009-08-13T08:12:07Z</time>
      </trkpt>
      <trkpt lat="44.45667" lon="1.12601">
        <ele>161.588791</ele>
        <time>2009-08-13T08:12:11Z</time>
      </trkpt>
      <trkpt lat="44.45658" lon="1.12603">
        <ele>161.824783</ele>
        <time>2009-08-13T08:12:15Z</time>
      </trkpt>
      <trkpt lat="44.45652" lon="1.12605">
        <ele>161.838654</ele>
        <time>2009-08-13T08:12:18Z</time>
      </trkpt>
      <trkpt lat="44.45648" lon="1.12609">
        <ele>161.80159</ele>
        <time>2009-08-13T08:12:22Z</time>
      </trkpt>
      <trkpt lat="44.45642" lon="1.1261">
        <ele>161.732574</ele>
        <time>2009-08-13T08:12:25Z</time>
      </trkpt>
      <trkpt lat="44.45637" lon="1.12613">
        <ele>161.566406</ele>
        <time>2009-08-13T08:12:29Z</time>
      </trkpt>
      <trkpt lat="44.45631" lon="1.12613">
        <ele>161.484116</ele>
        <time>2009-08-13T08:12:32Z</time>
      </trkpt>
      <trkpt lat="44.45627" lon="1.12612">
        <ele>161.445313</ele>
        <time>2009-08-13T08:12:35Z</time>
      </trkpt>
      <trkpt lat="44.4562" lon="1.12611">
        <ele>161.382278</ele>
        <time>2009-08-13T08:12:39Z</time>
      </trkpt>
      <trkpt lat="44.45613" lon="1.12613">
        <ele>161.175842</ele>
        <time>2009-08-13T08:12:43Z</time>
      </trkpt>
      <trkpt lat="44.45607" lon="1.12612">
        <ele>160.854553</ele>
        <time>2009-08-13T08:12:46Z</time>
      </trkpt>
      <trkpt lat="44.45602" lon="1.12613">
        <ele>160.520996</ele>
        <time>2009-08-13T08:12:49Z</time>
      </trkpt>
      <trkpt lat="44.45597" lon="1.12613">
        <ele>160.177811</ele>
        <time>2009-08-13T08:12:52Z</time>
      </trkpt>
      <trkpt lat="44.45591" lon="1.12613">
        <ele>159.814377</ele>
        <time>2009-08-13T08:12:55Z</time>
      </trkpt>
      <trkpt lat="44.45585" lon="1.12613">
        <ele>159.457809</ele>
        <time>2009-08-13T08:12:58Z</time>
      </trkpt>
      <trkpt lat="44.45578" lon="1.12614">
        <ele>158.949249</ele>
        <time>2009-08-13T08:13:02Z</time>
      </trkpt>
      <trkpt lat="44.45573" lon="1.12614">
        <ele>158.581924</ele>
        <time>2009-08-13T08:13:05Z</time>
      </trkpt>
      <trkpt lat="44.45568" lon="1.12617">
        <ele>158.191757</ele>
        <time>2009-08-13T08:13:09Z</time>
      </trkpt>
      <trkpt lat="44.45564" lon="1.12619">
        <ele>158.455322</ele>
        <time>2009-08-13T08:13:12Z</time>
      </trkpt>
      <trkpt lat="44.45561" lon="1.12619">
        <ele>158.603363</ele>
        <time>2009-08-13T08:13:15Z</time>
      </trkpt>
      <trkpt lat="44.45557" lon="1.12623">
        <ele>159.119446</ele>
        <time>2009-08-13T08:13:19Z</time>
      </trkpt>
      <trkpt lat="44.45555" lon="1.12627">
        <ele>159.68306</ele>
        <time>2009-08-13T08:13:22Z</time>
      </trkpt>
      <trkpt lat="44.45555" lon="1.12632">
        <ele>160.324371</ele>
        <time>2009-08-13T08:13:25Z</time>
      </trkpt>
      <trkpt lat="44.45551" lon="1.1264">
        <ele>161.127914</ele>
        <time>2009-08-13T08:13:29Z</time>
      </trkpt>
      <trkpt lat="44.45547" lon="1.12647">
        <ele>161.737747</ele>
        <time>2009-08-13T08:13:34Z</time>
      </trkpt>
      <trkpt lat="44.45546" lon="1.12652">
        <ele>162.124603</ele>
        <time>2009-08-13T08:13:37Z</time>
      </trkpt>
      <trkpt lat="44.45545" lon="1.12658">
        <ele>162.679733</ele>
        <time>2009-08-13T08:13:41Z</time>
      </trkpt>
      <trkpt lat="44.45543" lon="1.12665">
        <ele>163.197372</ele>
        <time>2009-08-13T08:13:45Z</time>
      </trkpt>
      <trkpt lat="44.45539" lon="1.12671">
        <ele>163.32106</ele>
        <time>2009-08-13T08:13:48Z</time>
      </trkpt>
      <trkpt lat="44.45536" lon="1.12677">
        <ele>163.402664</ele>
        <time>2009-08-13T08:13:52Z</time>
      </trkpt>
      <trkpt lat="44.45531" lon="1.12683">
        <ele>163.585098</ele>
        <time>2009-08-13T08:13:56Z</time>
      </trkpt>
      <trkpt lat="44.45526" lon="1.12688">
        <ele>163.6586</ele>
        <time>2009-08-13T08:13:59Z</time>
      </trkpt>
      <trkpt lat="44.4552" lon="1.1269">
        <ele>163.936401</ele>
        <time>2009-08-13T08:14:04Z</time>
      </trkpt>
      <trkpt lat="44.45518" lon="1.12697">
        <ele>165.148849</ele>
        <time>2009-08-13T08:14:08Z</time>
      </trkpt>
      <trkpt lat="44.45515" lon="1.12702">
        <ele>165.970612</ele>
        <time>2009-08-13T08:14:11Z</time>
      </trkpt>
      <trkpt lat="44.4551" lon="1.1271">
        <ele>166.905075</ele>
        <time>2009-08-13T08:14:15Z</time>
      </trkpt>
      <trkpt lat="44.45508" lon="1.12714">
        <ele>167.183762</ele>
        <time>2009-08-13T08:14:18Z</time>
      </trkpt>
      <trkpt lat="44.45506" lon="1.1272">
        <ele>167.608902</ele>
        <time>2009-08-13T08:14:22Z</time>
      </trkpt>
      <trkpt lat="44.45504" lon="1.12726">
        <ele>167.860031</ele>
        <time>2009-08-13T08:14:26Z</time>
      </trkpt>
      <trkpt lat="44.45502" lon="1.12732">
        <ele>167.967499</ele>
        <time>2009-08-13T08:14:30Z</time>
      </trkpt>
      <trkpt lat="44.45498" lon="1.12739">
        <ele>167.795654</ele>
        <time>2009-08-13T08:14:36Z</time>
      </trkpt>
      <trkpt lat="44.45496" lon="1.12742">
        <ele>167.485535</ele>
        <time>2009-08-13T08:14:39Z</time>
      </trkpt>
      <trkpt lat="44.45491" lon="1.12749">
        <ele>167.524948</ele>
        <time>2009-08-13T08:14:44Z</time>
      </trkpt>
      <trkpt lat="44.45487" lon="1.12756">
        <ele>167.713058</ele>
        <time>2009-08-13T08:14:48Z</time>
      </trkpt>
      <trkpt lat="44.45483" lon="1.12762">
        <ele>167.761917</ele>
        <time>2009-08-13T08:14:51Z</time>
      </trkpt>
      <trkpt lat="44.45481" lon="1.12766">
        <ele>167.795212</ele>
        <time>2009-08-13T08:14:54Z</time>
      </trkpt>
      <trkpt lat="44.4548" lon="1.12768">
        <ele>167.744583</ele>
        <time>2009-08-13T08:14:57Z</time>
      </trkpt>
      <trkpt lat="44.45476" lon="1.12776">
        <ele>169.316711</ele>
        <time>2009-08-13T08:15:02Z</time>
      </trkpt>
      <trkpt lat="44.45473" lon="1.12782">
        <ele>170.337021</ele>
        <time>2009-08-13T08:15:06Z</time>
      </trkpt>
      <trkpt lat="44.45471" lon="1.12788">
        <ele>170.985184</ele>
        <time>2009-08-13T08:15:09Z</time>
      </trkpt>
      <trkpt lat="44.45471" lon="1.12793">
        <ele>171.398727</ele>
        <time>2009-08-13T08:15:12Z</time>
      </trkpt>
      <trkpt lat="44.45468" lon="1.128">
        <ele>172.124039</ele>
        <time>2009-08-13T08:15:16Z</time>
      </trkpt>
      <trkpt lat="44.45468" lon="1.12805">
        <ele>172.425781</ele>
        <time>2009-08-13T08:15:19Z</time>
      </trkpt>
      <trkpt lat="44.45468" lon="1.12809">
        <ele>172.797882</ele>
        <time>2009-08-13T08:15:22Z</time>
      </trkpt>
      <trkpt lat="44.45466" lon="1.12816">
        <ele>173.346329</ele>
        <time>2009-08-13T08:15:26Z</time>
      </trkpt>
      <trkpt lat="44.45462" lon="1.12819">
        <ele>173.592499</ele>
        <time>2009-08-13T08:15:30Z</time>
      </trkpt>
      <trkpt lat="44.4546" lon="1.12825">
        <ele>173.933945</ele>
        <time>2009-08-13T08:15:35Z</time>
      </trkpt>
      <trkpt lat="44.45459" lon="1.12831">
        <ele>174.210495</ele>
        <time>2009-08-13T08:15:39Z</time>
      </trkpt>
      <trkpt lat="44.45459" lon="1.12836">
        <ele>174.465179</ele>
        <time>2009-08-13T08:15:43Z</time>
      </trkpt>
      <trkpt lat="44.45457" lon="1.12845">
        <ele>174.664963</ele>
        <time>2009-08-13T08:15:48Z</time>
      </trkpt>
      <trkpt lat="44.45456" lon="1.12851">
        <ele>174.824005</ele>
        <time>2009-08-13T08:15:51Z</time>
      </trkpt>
      <trkpt lat="44.45454" lon="1.1286">
        <ele>174.954498</ele>
        <time>2009-08-13T08:15:55Z</time>
      </trkpt>
      <trkpt lat="44.45452" lon="1.12867">
        <ele>174.833984</ele>
        <time>2009-08-13T08:15:58Z</time>
      </trkpt>
      <trkpt lat="44.45451" lon="1.12873">
        <ele>174.874359</ele>
        <time>2009-08-13T08:16:01Z</time>
      </trkpt>
      <trkpt lat="44.4545" lon="1.12881">
        <ele>175.155869</ele>
        <time>2009-08-13T08:16:06Z</time>
      </trkpt>
      <trkpt lat="44.45447" lon="1.12891">
        <ele>175.244537</ele>
        <time>2009-08-13T08:16:12Z</time>
      </trkpt>
      <trkpt lat="44.45444" lon="1.12897">
        <ele>174.839767</ele>
        <time>2009-08-13T08:16:16Z</time>
      </trkpt>
      <trkpt lat="44.45443" lon="1.12903">
        <ele>174.877182</ele>
        <time>2009-08-13T08:16:19Z</time>
      </trkpt>
      <trkpt lat="44.45442" lon="1.1291">
        <ele>174.935425</ele>
        <time>2009-08-13T08:16:24Z</time>
      </trkpt>
      <trkpt lat="44.45439" lon="1.12916">
        <ele>174.167511</ele>
        <time>2009-08-13T08:16:28Z</time>
      </trkpt>
      <trkpt lat="44.45438" lon="1.12923">
        <ele>174.057587</ele>
        <time>2009-08-13T08:16:31Z</time>
      </trkpt>
      <trkpt lat="44.45437" lon="1.12929">
        <ele>173.929062</ele>
        <time>2009-08-13T08:16:35Z</time>
      </trkpt>
      <trkpt lat="44.45437" lon="1.12935">
        <ele>174.251602</ele>
        <time>2009-08-13T08:16:38Z</time>
      </trkpt>
      <trkpt lat="44.45436" lon="1.1294">
        <ele>174.786133</ele>
        <time>2009-08-13T08:16:41Z</time>
      </trkpt>
      <trkpt lat="44.45436" lon="1.12946">
        <ele>175.285828</ele>
        <time>2009-08-13T08:16:44Z</time>
      </trkpt>
      <trkpt lat="44.45435" lon="1.12953">
        <ele>175.988907</ele>
        <time>2009-08-13T08:16:48Z</time>
      </trkpt>
      <trkpt lat="44.45434" lon="1.12958">
        <ele>176.518188</ele>
        <time>2009-08-13T08:16:51Z</time>
      </trkpt>
      <trkpt lat="44.45433" lon="1.12966">
        <ele>177.195099</ele>
        <time>2009-08-13T08:16:55Z</time>
      </trkpt>
      <trkpt lat="44.45433" lon="1.1297">
        <ele>177.543625</ele>
        <time>2009-08-13T08:16:58Z</time>
      </trkpt>
      <trkpt lat="44.45431" lon="1.12979">
        <ele>178.172043</ele>
        <time>2009-08-13T08:17:02Z</time>
      </trkpt>
      <trkpt lat="44.45427" lon="1.12985">
        <ele>178.386185</ele>
        <time>2009-08-13T08:17:05Z</time>
      </trkpt>
      <trkpt lat="44.4542" lon="1.12995">
        <ele>178.468857</ele>
        <time>2009-08-13T08:17:09Z</time>
      </trkpt>
      <trkpt lat="44.45417" lon="1.13003">
        <ele>178.730698</ele>
        <time>2009-08-13T08:17:12Z</time>
      </trkpt>
      <trkpt lat="44.45414" lon="1.13009">
        <ele>178.916</ele>
        <time>2009-08-13T08:17:15Z</time>
      </trkpt>
      <trkpt lat="44.45414" lon="1.13015">
        <ele>179.42749</ele>
        <time>2009-08-13T08:17:19Z</time>
      </trkpt>
      <trkpt lat="44.45413" lon="1.13025">
        <ele>179.852722</ele>
        <time>2009-08-13T08:17:23Z</time>
      </trkpt>
      <trkpt lat="44.45411" lon="1.13032">
        <ele>179.964203</ele>
        <time>2009-08-13T08:17:26Z</time>
      </trkpt>
      <trkpt lat="44.45409" lon="1.13037">
        <ele>179.96553</ele>
        <time>2009-08-13T08:17:29Z</time>
      </trkpt>
      <trkpt lat="44.45409" lon="1.13044">
        <ele>180.415482</ele>
        <time>2009-08-13T08:17:33Z</time>
      </trkpt>
      <trkpt lat="44.45408" lon="1.13053">
        <ele>180.71962</ele>
        <time>2009-08-13T08:17:37Z</time>
      </trkpt>
      <trkpt lat="44.45409" lon="1.13058">
        <ele>181.177475</ele>
        <time>2009-08-13T08:17:40Z</time>
      </trkpt>
      <trkpt lat="44.45404" lon="1.13066">
        <ele>180.475876</ele>
        <time>2009-08-13T08:17:46Z</time>
      </trkpt>
      <trkpt lat="44.454" lon="1.13071">
        <ele>179.930435</ele>
        <time>2009-08-13T08:17:51Z</time>
      </trkpt>
      <trkpt lat="44.45397" lon="1.13075">
        <ele>179.426147</ele>
        <time>2009-08-13T08:17:55Z</time>
      </trkpt>
      <trkpt lat="44.45397" lon="1.13079">
        <ele>179.704575</ele>
        <time>2009-08-13T08:17:58Z</time>
      </trkpt>
      <trkpt lat="44.45398" lon="1.13083">
        <ele>180.296677</ele>
        <time>2009-08-13T08:18:03Z</time>
      </trkpt>
      <trkpt lat="44.45398" lon="1.13085">
        <ele>180.433655</ele>
        <time>2009-08-13T08:18:07Z</time>
      </trkpt>
      <trkpt lat="44.45398" lon="1.13087">
        <ele>180.620865</ele>
        <time>2009-08-13T08:18:16Z</time>
      </trkpt>
      <trkpt lat="44.45397" lon="1.1309">
        <ele>180.832626</ele>
        <time>2009-08-13T08:18:20Z</time>
      </trkpt>
      <trkpt lat="44.45399" lon="1.13095">
        <ele>181.555344</ele>
        <time>2009-08-13T08:18:24Z</time>
      </trkpt>
      <trkpt lat="44.454" lon="1.13099">
        <ele>182.242538</ele>
        <time>2009-08-13T08:18:29Z</time>
      </trkpt>
      <trkpt lat="44.45403" lon="1.13104">
        <ele>183.267944</ele>
        <time>2009-08-13T08:18:33Z</time>
      </trkpt>
      <trkpt lat="44.45406" lon="1.13109">
        <ele>184.126801</ele>
        <time>2009-08-13T08:18:37Z</time>
      </trkpt>
      <trkpt lat="44.45409" lon="1.13116">
        <ele>185.183701</ele>
        <time>2009-08-13T08:18:42Z</time>
      </trkpt>
      <trkpt lat="44.45409" lon="1.13123">
        <ele>185.913559</ele>
        <time>2009-08-13T08:18:46Z</time>
      </trkpt>
      <trkpt lat="44.45412" lon="1.13129">
        <ele>187.059097</ele>
        <time>2009-08-13T08:18:51Z</time>
      </trkpt>
      <trkpt lat="44.45414" lon="1.13134">
        <ele>187.94014</ele>
        <time>2009-08-13T08:18:54Z</time>
      </trkpt>
      <trkpt lat="44.45414" lon="1.13139">
        <ele>188.567001</ele>
        <time>2009-08-13T08:18:57Z</time>
      </trkpt>
      <trkpt lat="44.45414" lon="1.13146">
        <ele>189.410507</ele>
        <time>2009-08-13T08:19:01Z</time>
      </trkpt>
      <trkpt lat="44.45414" lon="1.13151">
        <ele>189.938599</ele>
        <time>2009-08-13T08:19:04Z</time>
      </trkpt>
      <trkpt lat="44.45413" lon="1.13156">
        <ele>190.476303</ele>
        <time>2009-08-13T08:19:08Z</time>
      </trkpt>
      <trkpt lat="44.45413" lon="1.13163">
        <ele>191.242981</ele>
        <time>2009-08-13T08:19:12Z</time>
      </trkpt>
      <trkpt lat="44.45413" lon="1.13167">
        <ele>191.792618</ele>
        <time>2009-08-13T08:19:15Z</time>
      </trkpt>
      <trkpt lat="44.45414" lon="1.13175">
        <ele>192.715317</ele>
        <time>2009-08-13T08:19:20Z</time>
      </trkpt>
      <trkpt lat="44.45413" lon="1.13183">
        <ele>193.616684</ele>
        <time>2009-08-13T08:19:24Z</time>
      </trkpt>
      <trkpt lat="44.45412" lon="1.13189">
        <ele>194.181549</ele>
        <time>2009-08-13T08:19:28Z</time>
      </trkpt>
      <trkpt lat="44.45411" lon="1.13195">
        <ele>194.627777</ele>
        <time>2009-08-13T08:19:32Z</time>
      </trkpt>
      <trkpt lat="44.4541" lon="1.13202">
        <ele>195.110046</ele>
        <time>2009-08-13T08:19:35Z</time>
      </trkpt>
      <trkpt lat="44.45409" lon="1.1321">
        <ele>195.660538</ele>
        <time>2009-08-13T08:19:39Z</time>
      </trkpt>
      <trkpt lat="44.45407" lon="1.1322">
        <ele>196.230408</ele>
        <time>2009-08-13T08:19:44Z</time>
      </trkpt>
      <trkpt lat="44.45406" lon="1.13225">
        <ele>196.51355</ele>
        <time>2009-08-13T08:19:48Z</time>
      </trkpt>
      <trkpt lat="44.45405" lon="1.13229">
        <ele>196.80748</ele>
        <time>2009-08-13T08:19:51Z</time>
      </trkpt>
      <trkpt lat="44.45404" lon="1.13236">
        <ele>197.171219</ele>
        <time>2009-08-13T08:19:55Z</time>
      </trkpt>
      <trkpt lat="44.45402" lon="1.13243">
        <ele>197.463531</ele>
        <time>2009-08-13T08:20:00Z</time>
      </trkpt>
      <trkpt lat="44.45399" lon="1.13252">
        <ele>197.506699</ele>
        <time>2009-08-13T08:20:04Z</time>
      </trkpt>
      <trkpt lat="44.45399" lon="1.13257">
        <ele>197.570999</ele>
        <time>2009-08-13T08:20:07Z</time>
      </trkpt>
      <trkpt lat="44.45398" lon="1.13263">
        <ele>197.450317</ele>
        <time>2009-08-13T08:20:11Z</time>
      </trkpt>
      <trkpt lat="44.45397" lon="1.1327">
        <ele>197.306046</ele>
        <time>2009-08-13T08:20:15Z</time>
      </trkpt>
      <trkpt lat="44.45396" lon="1.13278">
        <ele>197.116852</ele>
        <time>2009-08-13T08:20:20Z</time>
      </trkpt>
      <trkpt lat="44.45395" lon="1.13284">
        <ele>197.093246</ele>
        <time>2009-08-13T08:20:24Z</time>
      </trkpt>
      <trkpt lat="44.45394" lon="1.13289">
        <ele>197.338181</ele>
        <time>2009-08-13T08:20:27Z</time>
      </trkpt>
      <trkpt lat="44.45394" lon="1.13295">
        <ele>197.42659</ele>
        <time>2009-08-13T08:20:30Z</time>
      </trkpt>
      <trkpt lat="44.45394" lon="1.13303">
        <ele>197.395065</ele>
        <time>2009-08-13T08:20:34Z</time>
      </trkpt>
      <trkpt lat="44.45395" lon="1.13309">
        <ele>197.244919</ele>
        <time>2009-08-13T08:20:38Z</time>
      </trkpt>
      <trkpt lat="44.45395" lon="1.13316">
        <ele>197.690109</ele>
        <time>2009-08-13T08:20:43Z</time>
      </trkpt>
      <trkpt lat="44.45394" lon="1.13325">
        <ele>198.552231</ele>
        <time>2009-08-13T08:20:47Z</time>
      </trkpt>
      <trkpt lat="44.45395" lon="1.13329">
        <ele>198.817032</ele>
        <time>2009-08-13T08:20:50Z</time>
      </trkpt>
      <trkpt lat="44.45394" lon="1.13335">
        <ele>199.41806</ele>
        <time>2009-08-13T08:20:54Z</time>
      </trkpt>
      <trkpt lat="44.45395" lon="1.13344">
        <ele>200.113342</ele>
        <time>2009-08-13T08:20:59Z</time>
      </trkpt>
      <trkpt lat="44.45394" lon="1.13349">
        <ele>200.648788</ele>
        <time>2009-08-13T08:21:02Z</time>
      </trkpt>
      <trkpt lat="44.45396" lon="1.13354">
        <ele>200.5</ele>
        <time>2009-08-13T08:21:06Z</time>
      </trkpt>
      <trkpt lat="44.45397" lon="1.13358">
        <ele>201.016251</ele>
        <time>2009-08-13T08:21:09Z</time>
      </trkpt>
      <trkpt lat="44.45398" lon="1.13365">
        <ele>201.586288</ele>
        <time>2009-08-13T08:21:13Z</time>
      </trkpt>
      <trkpt lat="44.45399" lon="1.13369">
        <ele>202.079422</ele>
        <time>2009-08-13T08:21:16Z</time>
      </trkpt>
      <trkpt lat="44.45399" lon="1.13376">
        <ele>202.871552</ele>
        <time>2009-08-13T08:21:20Z</time>
      </trkpt>
      <trkpt lat="44.45399" lon="1.13383">
        <ele>203.726273</ele>
        <time>2009-08-13T08:21:24Z</time>
      </trkpt>
      <trkpt lat="44.454" lon="1.13389">
        <ele>204.459747</ele>
        <time>2009-08-13T08:21:29Z</time>
      </trkpt>
      <trkpt lat="44.45403" lon="1.13393">
        <ele>205.419327</ele>
        <time>2009-08-13T08:21:33Z</time>
      </trkpt>
      <trkpt lat="44.45407" lon="1.13394">
        <ele>206.090302</ele>
        <time>2009-08-13T08:21:36Z</time>
      </trkpt>
      <trkpt lat="44.45412" lon="1.13397">
        <ele>207.076401</ele>
        <time>2009-08-13T08:21:40Z</time>
      </trkpt>
      <trkpt lat="44.45417" lon="1.13402">
        <ele>208.012405</ele>
        <time>2009-08-13T08:21:43Z</time>
      </trkpt>
      <trkpt lat="44.4542" lon="1.13405">
        <ele>208.593338</ele>
        <time>2009-08-13T08:21:46Z</time>
      </trkpt>
      <trkpt lat="44.45421" lon="1.13411">
        <ele>209.191055</ele>
        <time>2009-08-13T08:21:51Z</time>
      </trkpt>
      <trkpt lat="44.45423" lon="1.13417">
        <ele>209.827652</ele>
        <time>2009-08-13T08:21:54Z</time>
      </trkpt>
      <trkpt lat="44.45426" lon="1.13421">
        <ele>210.338806</ele>
        <time>2009-08-13T08:21:58Z</time>
      </trkpt>
      <trkpt lat="44.45428" lon="1.13426">
        <ele>210.78653</ele>
        <time>2009-08-13T08:22:02Z</time>
      </trkpt>
      <trkpt lat="44.4543" lon="1.13429">
        <ele>211.105988</ele>
        <time>2009-08-13T08:22:06Z</time>
      </trkpt>
      <trkpt lat="44.45432" lon="1.13434">
        <ele>211.498734</ele>
        <time>2009-08-13T08:22:10Z</time>
      </trkpt>
      <trkpt lat="44.45435" lon="1.13439">
        <ele>211.901413</ele>
        <time>2009-08-13T08:22:13Z</time>
      </trkpt>
      <trkpt lat="44.45437" lon="1.13443">
        <ele>212.311447</ele>
        <time>2009-08-13T08:22:16Z</time>
      </trkpt>
      <trkpt lat="44.45439" lon="1.13449">
        <ele>212.785034</ele>
        <time>2009-08-13T08:22:19Z</time>
      </trkpt>
      <trkpt lat="44.45442" lon="1.13453">
        <ele>213.117493</ele>
        <time>2009-08-13T08:22:22Z</time>
      </trkpt>
      <trkpt lat="44.45442" lon="1.1346">
        <ele>213.5457</ele>
        <time>2009-08-13T08:22:27Z</time>
      </trkpt>
      <trkpt lat="44.45435" lon="1.13458">
        <ele>213.268066</ele>
        <time>2009-08-13T08:22:31Z</time>
      </trkpt>
      <trkpt lat="44.45424" lon="1.13456">
        <ele>212.770264</ele>
        <time>2009-08-13T08:22:35Z</time>
      </trkpt>
      <trkpt lat="44.45413" lon="1.13452">
        <ele>212.10524</ele>
        <time>2009-08-13T08:22:38Z</time>
      </trkpt>
      <trkpt lat="44.45406" lon="1.1345">
        <ele>211.640991</ele>
        <time>2009-08-13T08:22:41Z</time>
      </trkpt>
      <trkpt lat="44.454" lon="1.13448">
        <ele>211.27832</ele>
        <time>2009-08-13T08:22:45Z</time>
      </trkpt>
      <trkpt lat="44.45396" lon="1.13447">
        <ele>211.278946</ele>
        <time>2009-08-13T08:22:48Z</time>
      </trkpt>
      <trkpt lat="44.45392" lon="1.13447">
        <ele>211.994324</ele>
        <time>2009-08-13T08:22:51Z</time>
      </trkpt>
      <trkpt lat="44.45386" lon="1.13448">
        <ele>213.072495</ele>
        <time>2009-08-13T08:22:55Z</time>
      </trkpt>
      <trkpt lat="44.45383" lon="1.13451">
        <ele>213.851807</ele>
        <time>2009-08-13T08:23:01Z</time>
      </trkpt>
      <trkpt lat="44.45381" lon="1.13455">
        <ele>214.508881</ele>
        <time>2009-08-13T08:23:04Z</time>
      </trkpt>
      <trkpt lat="44.45379" lon="1.13459">
        <ele>215.233719</ele>
        <time>2009-08-13T08:23:08Z</time>
      </trkpt>
      <trkpt lat="44.45376" lon="1.13463">
        <ele>215.954666</ele>
        <time>2009-08-13T08:23:13Z</time>
      </trkpt>
      <trkpt lat="44.45374" lon="1.13467">
        <ele>216.615234</ele>
        <time>2009-08-13T08:23:16Z</time>
      </trkpt>
      <trkpt lat="44.45371" lon="1.13471">
        <ele>217.39949</ele>
        <time>2009-08-13T08:23:20Z</time>
      </trkpt>
      <trkpt lat="44.45369" lon="1.13474">
        <ele>217.994827</ele>
        <time>2009-08-13T08:23:25Z</time>
      </trkpt>
      <trkpt lat="44.45366" lon="1.13479">
        <ele>218.710144</ele>
        <time>2009-08-13T08:23:28Z</time>
      </trkpt>
      <trkpt lat="44.45362" lon="1.13481">
        <ele>219.480164</ele>
        <time>2009-08-13T08:23:33Z</time>
      </trkpt>
      <trkpt lat="44.4536" lon="1.13486">
        <ele>220.156937</ele>
        <time>2009-08-13T08:23:36Z</time>
      </trkpt>
      <trkpt lat="44.45355" lon="1.13494">
        <ele>221.359344</ele>
        <time>2009-08-13T08:23:41Z</time>
      </trkpt>
      <trkpt lat="44.45352" lon="1.135">
        <ele>222.157547</ele>
        <time>2009-08-13T08:23:45Z</time>
      </trkpt>
      <trkpt lat="44.45349" lon="1.13506">
        <ele>223.1577</ele>
        <time>2009-08-13T08:23:50Z</time>
      </trkpt>
      <trkpt lat="44.45345" lon="1.13511">
        <ele>223.9991</ele>
        <time>2009-08-13T08:23:54Z</time>
      </trkpt>
      <trkpt lat="44.45341" lon="1.13515">
        <ele>224.91539</ele>
        <time>2009-08-13T08:23:58Z</time>
      </trkpt>
      <trkpt lat="44.45338" lon="1.13521">
        <ele>225.673965</ele>
        <time>2009-08-13T08:24:02Z</time>
      </trkpt>
      <trkpt lat="44.45335" lon="1.13526">
        <ele>226.431274</ele>
        <time>2009-08-13T08:24:05Z</time>
      </trkpt>
      <trkpt lat="44.45332" lon="1.1353">
        <ele>227.023132</ele>
        <time>2009-08-13T08:24:09Z</time>
      </trkpt>
      <trkpt lat="44.45328" lon="1.13535">
        <ele>227.807938</ele>
        <time>2009-08-13T08:24:12Z</time>
      </trkpt>
      <trkpt lat="44.45325" lon="1.13541">
        <ele>228.427353</ele>
        <time>2009-08-13T08:24:16Z</time>
      </trkpt>
      <trkpt lat="44.45322" lon="1.13544">
        <ele>228.949478</ele>
        <time>2009-08-13T08:24:19Z</time>
      </trkpt>
      <trkpt lat="44.45319" lon="1.13548">
        <ele>229.425385</ele>
        <time>2009-08-13T08:24:23Z</time>
      </trkpt>
      <trkpt lat="44.45314" lon="1.13554">
        <ele>230.161179</ele>
        <time>2009-08-13T08:24:28Z</time>
      </trkpt>
      <trkpt lat="44.45312" lon="1.13558">
        <ele>230.546387</ele>
        <time>2009-08-13T08:24:31Z</time>
      </trkpt>
      <trkpt lat="44.45309" lon="1.13563">
        <ele>231.011871</ele>
        <time>2009-08-13T08:24:35Z</time>
      </trkpt>
      <trkpt lat="44.45305" lon="1.13568">
        <ele>231.471298</ele>
        <time>2009-08-13T08:24:38Z</time>
      </trkpt>
      <trkpt lat="44.45303" lon="1.13572">
        <ele>231.808792</ele>
        <time>2009-08-13T08:24:41Z</time>
      </trkpt>
      <trkpt lat="44.45301" lon="1.13577">
        <ele>232.082642</ele>
        <time>2009-08-13T08:24:44Z</time>
      </trkpt>
      <trkpt lat="44.45297" lon="1.13582">
        <ele>232.561707</ele>
        <time>2009-08-13T08:24:49Z</time>
      </trkpt>
      <trkpt lat="44.45293" lon="1.13586">
        <ele>232.956711</ele>
        <time>2009-08-13T08:24:52Z</time>
      </trkpt>
      <trkpt lat="44.45291" lon="1.13591">
        <ele>233.248077</ele>
        <time>2009-08-13T08:24:56Z</time>
      </trkpt>
      <trkpt lat="44.45292" lon="1.13597">
        <ele>233.240936</ele>
        <time>2009-08-13T08:25:00Z</time>
      </trkpt>
      <trkpt lat="44.45295" lon="1.136">
        <ele>233.000366</ele>
        <time>2009-08-13T08:25:05Z</time>
      </trkpt>
      <trkpt lat="44.45296" lon="1.13601">
        <ele>232.892273</ele>
        <time>2009-08-13T08:25:11Z</time>
      </trkpt>
      <trkpt lat="44.45296" lon="1.13599">
        <ele>232.864441</ele>
        <time>2009-08-13T08:25:30Z</time>
      </trkpt>
      <trkpt lat="44.45297" lon="1.13598">
        <ele>232.72879</ele>
        <time>2009-08-13T08:25:46Z</time>
      </trkpt>
      <trkpt lat="44.45299" lon="1.136">
        <ele>232.580719</ele>
        <time>2009-08-13T08:26:20Z</time>
      </trkpt>
      <trkpt lat="44.45302" lon="1.13605">
        <ele>232.393188</ele>
        <time>2009-08-13T08:26:24Z</time>
      </trkpt>
      <trkpt lat="44.45305" lon="1.13611">
        <ele>232.134995</ele>
        <time>2009-08-13T08:26:27Z</time>
      </trkpt>
      <trkpt lat="44.45307" lon="1.13617">
        <ele>232.044739</ele>
        <time>2009-08-13T08:26:30Z</time>
      </trkpt>
      <trkpt lat="44.45309" lon="1.13622">
        <ele>231.917953</ele>
        <time>2009-08-13T08:26:33Z</time>
      </trkpt>
      <trkpt lat="44.45312" lon="1.13627">
        <ele>231.736969</ele>
        <time>2009-08-13T08:26:36Z</time>
      </trkpt>
      <trkpt lat="44.45315" lon="1.13633">
        <ele>231.277802</ele>
        <time>2009-08-13T08:26:39Z</time>
      </trkpt>
      <trkpt lat="44.4532" lon="1.1364">
        <ele>230.694519</ele>
        <time>2009-08-13T08:26:42Z</time>
      </trkpt>
      <trkpt lat="44.45324" lon="1.13647">
        <ele>230.117172</ele>
        <time>2009-08-13T08:26:45Z</time>
      </trkpt>
      <trkpt lat="44.45329" lon="1.13653">
        <ele>229.554581</ele>
        <time>2009-08-13T08:26:48Z</time>
      </trkpt>
      <trkpt lat="44.45334" lon="1.1366">
        <ele>229.02066</ele>
        <time>2009-08-13T08:26:51Z</time>
      </trkpt>
      <trkpt lat="44.45339" lon="1.13667">
        <ele>228.509735</ele>
        <time>2009-08-13T08:26:54Z</time>
      </trkpt>
      <trkpt lat="44.45344" lon="1.13674">
        <ele>228.010452</ele>
        <time>2009-08-13T08:26:57Z</time>
      </trkpt>
      <trkpt lat="44.45348" lon="1.13681">
        <ele>227.58931</ele>
        <time>2009-08-13T08:27:00Z</time>
      </trkpt>
      <trkpt lat="44.45353" lon="1.13687">
        <ele>227.161163</ele>
        <time>2009-08-13T08:27:03Z</time>
      </trkpt>
      <trkpt lat="44.45357" lon="1.13695">
        <ele>226.629745</ele>
        <time>2009-08-13T08:27:06Z</time>
      </trkpt>
      <trkpt lat="44.4536" lon="1.13703">
        <ele>226.307983</ele>
        <time>2009-08-13T08:27:10Z</time>
      </trkpt>
      <trkpt lat="44.45364" lon="1.1371">
        <ele>226.121872</ele>
        <time>2009-08-13T08:27:13Z</time>
      </trkpt>
      <trkpt lat="44.4537" lon="1.13717">
        <ele>226.209747</ele>
        <time>2009-08-13T08:27:16Z</time>
      </trkpt>
      <trkpt lat="44.45374" lon="1.13727">
        <ele>226.181503</ele>
        <time>2009-08-13T08:27:19Z</time>
      </trkpt>
      <trkpt lat="44.45378" lon="1.13739">
        <ele>226.315567</ele>
        <time>2009-08-13T08:27:22Z</time>
      </trkpt>
      <trkpt lat="44.45382" lon="1.13751">
        <ele>226.503876</ele>
        <time>2009-08-13T08:27:25Z</time>
      </trkpt>
      <trkpt lat="44.45384" lon="1.13762">
        <ele>226.983078</ele>
        <time>2009-08-13T08:27:28Z</time>
      </trkpt>
      <trkpt lat="44.45388" lon="1.13774">
        <ele>227.735123</ele>
        <time>2009-08-13T08:27:31Z</time>
      </trkpt>
      <trkpt lat="44.45391" lon="1.13788">
        <ele>228.441971</ele>
        <time>2009-08-13T08:27:34Z</time>
      </trkpt>
      <trkpt lat="44.45393" lon="1.13802">
        <ele>229.159439</ele>
        <time>2009-08-13T08:27:37Z</time>
      </trkpt>
      <trkpt lat="44.45397" lon="1.13821">
        <ele>230.466919</ele>
        <time>2009-08-13T08:27:40Z</time>
      </trkpt>
      <trkpt lat="44.454" lon="1.13834">
        <ele>231.333603</ele>
        <time>2009-08-13T08:27:43Z</time>
      </trkpt>
      <trkpt lat="44.45401" lon="1.13845">
        <ele>231.96022</ele>
        <time>2009-08-13T08:27:47Z</time>
      </trkpt>
      <trkpt lat="44.45403" lon="1.13856">
        <ele>232.578796</ele>
        <time>2009-08-13T08:27:50Z</time>
      </trkpt>
      <trkpt lat="44.45405" lon="1.13866">
        <ele>233.164749</ele>
        <time>2009-08-13T08:27:53Z</time>
      </trkpt>
      <trkpt lat="44.45407" lon="1.13873">
        <ele>233.695724</ele>
        <time>2009-08-13T08:27:56Z</time>
      </trkpt>
      <trkpt lat="44.45408" lon="1.13884">
        <ele>234.0784</ele>
        <time>2009-08-13T08:28:00Z</time>
      </trkpt>
      <trkpt lat="44.45412" lon="1.13894">
        <ele>234.690247</ele>
        <time>2009-08-13T08:28:04Z</time>
      </trkpt>
      <trkpt lat="44.45415" lon="1.13905">
        <ele>235.35405</ele>
        <time>2009-08-13T08:28:07Z</time>
      </trkpt>
      <trkpt lat="44.45418" lon="1.13913">
        <ele>235.796936</ele>
        <time>2009-08-13T08:28:10Z</time>
      </trkpt>
      <trkpt lat="44.45421" lon="1.13921">
        <ele>236.254425</ele>
        <time>2009-08-13T08:28:13Z</time>
      </trkpt>
      <trkpt lat="44.45423" lon="1.13928">
        <ele>236.689331</ele>
        <time>2009-08-13T08:28:16Z</time>
      </trkpt>
      <trkpt lat="44.45427" lon="1.13934">
        <ele>237.22641</ele>
        <time>2009-08-13T08:28:20Z</time>
      </trkpt>
      <trkpt lat="44.45431" lon="1.13943">
        <ele>237.74968</ele>
        <time>2009-08-13T08:28:23Z</time>
      </trkpt>
      <trkpt lat="44.45435" lon="1.13951">
        <ele>238.148041</ele>
        <time>2009-08-13T08:28:26Z</time>
      </trkpt>
      <trkpt lat="44.45439" lon="1.13959">
        <ele>238.482086</ele>
        <time>2009-08-13T08:28:29Z</time>
      </trkpt>
      <trkpt lat="44.45443" lon="1.13968">
        <ele>238.895111</ele>
        <time>2009-08-13T08:28:32Z</time>
      </trkpt>
      <trkpt lat="44.45448" lon="1.13975">
        <ele>239.367401</ele>
        <time>2009-08-13T08:28:35Z</time>
      </trkpt>
      <trkpt lat="44.45453" lon="1.13982">
        <ele>239.642181</ele>
        <time>2009-08-13T08:28:38Z</time>
      </trkpt>
      <trkpt lat="44.45458" lon="1.13989">
        <ele>239.855347</ele>
        <time>2009-08-13T08:28:41Z</time>
      </trkpt>
      <trkpt lat="44.45462" lon="1.13995">
        <ele>240.019241</ele>
        <time>2009-08-13T08:28:44Z</time>
      </trkpt>
      <trkpt lat="44.45467" lon="1.14002">
        <ele>240.114914</ele>
        <time>2009-08-13T08:28:47Z</time>
      </trkpt>
      <trkpt lat="44.4547" lon="1.14009">
        <ele>239.931046</ele>
        <time>2009-08-13T08:28:50Z</time>
      </trkpt>
      <trkpt lat="44.45473" lon="1.14015">
        <ele>239.758057</ele>
        <time>2009-08-13T08:28:53Z</time>
      </trkpt>
      <trkpt lat="44.45476" lon="1.1402">
        <ele>239.638596</ele>
        <time>2009-08-13T08:28:56Z</time>
      </trkpt>
      <trkpt lat="44.45479" lon="1.14026">
        <ele>239.439682</ele>
        <time>2009-08-13T08:29:01Z</time>
      </trkpt>
      <trkpt lat="44.45483" lon="1.14032">
        <ele>239.299545</ele>
        <time>2009-08-13T08:29:04Z</time>
      </trkpt>
      <trkpt lat="44.45482" lon="1.14034">
        <ele>239.161545</ele>
        <time>2009-08-13T08:29:12Z</time>
      </trkpt>
      <trkpt lat="44.45481" lon="1.14034">
        <ele>239.060822</ele>
        <time>2009-08-13T08:29:18Z</time>
      </trkpt>
      <trkpt lat="44.4548" lon="1.14035">
        <ele>238.966064</ele>
        <time>2009-08-13T08:29:26Z</time>
      </trkpt>
      <trkpt lat="44.45478" lon="1.14035">
        <ele>238.889221</ele>
        <time>2009-08-13T08:29:34Z</time>
      </trkpt>
      <trkpt lat="44.45477" lon="1.14036">
        <ele>238.801239</ele>
        <time>2009-08-13T08:29:41Z</time>
      </trkpt>
      <trkpt lat="44.45476" lon="1.14036">
        <ele>238.694077</ele>
        <time>2009-08-13T08:29:52Z</time>
      </trkpt>
      <trkpt lat="44.45477" lon="1.14038">
        <ele>238.671753</ele>
        <time>2009-08-13T08:30:29Z</time>
      </trkpt>
      <trkpt lat="44.4548" lon="1.14042">
        <ele>238.558563</ele>
        <time>2009-08-13T08:30:33Z</time>
      </trkpt>
      <trkpt lat="44.45488" lon="1.14049">
        <ele>238.51532</ele>
        <time>2009-08-13T08:30:37Z</time>
      </trkpt>
      <trkpt lat="44.455" lon="1.14059">
        <ele>237.880417</ele>
        <time>2009-08-13T08:30:40Z</time>
      </trkpt>
      <trkpt lat="44.45512" lon="1.14065">
        <ele>236.842178</ele>
        <time>2009-08-13T08:30:43Z</time>
      </trkpt>
      <trkpt lat="44.45524" lon="1.14074">
        <ele>235.598495</ele>
        <time>2009-08-13T08:30:47Z</time>
      </trkpt>
      <trkpt lat="44.45539" lon="1.14085">
        <ele>234.063171</ele>
        <time>2009-08-13T08:30:50Z</time>
      </trkpt>
      <trkpt lat="44.45559" lon="1.141">
        <ele>231.378479</ele>
        <time>2009-08-13T08:30:53Z</time>
      </trkpt>
      <trkpt lat="44.45586" lon="1.14118">
        <ele>228.119583</ele>
        <time>2009-08-13T08:30:56Z</time>
      </trkpt>
      <trkpt lat="44.45612" lon="1.14139">
        <ele>223.66095</ele>
        <time>2009-08-13T08:30:59Z</time>
      </trkpt>
      <trkpt lat="44.45633" lon="1.14155">
        <ele>220.250854</ele>
        <time>2009-08-13T08:31:02Z</time>
      </trkpt>
      <trkpt lat="44.45657" lon="1.14166">
        <ele>215.825226</ele>
        <time>2009-08-13T08:31:05Z</time>
      </trkpt>
      <trkpt lat="44.45683" lon="1.14185">
        <ele>211.551285</ele>
        <time>2009-08-13T08:31:08Z</time>
      </trkpt>
      <trkpt lat="44.45709" lon="1.14208">
        <ele>206.912369</ele>
        <time>2009-08-13T08:31:11Z</time>
      </trkpt>
      <trkpt lat="44.45736" lon="1.14231">
        <ele>204.85054</ele>
        <time>2009-08-13T08:31:14Z</time>
      </trkpt>
      <trkpt lat="44.45765" lon="1.14248">
        <ele>203.88092</ele>
        <time>2009-08-13T08:31:17Z</time>
      </trkpt>
      <trkpt lat="44.45791" lon="1.14268">
        <ele>202.28125</ele>
        <time>2009-08-13T08:31:20Z</time>
      </trkpt>
      <trkpt lat="44.45815" lon="1.1429">
        <ele>200.699371</ele>
        <time>2009-08-13T08:31:23Z</time>
      </trkpt>
      <trkpt lat="44.45835" lon="1.14306">
        <ele>199.369415</ele>
        <time>2009-08-13T08:31:26Z</time>
      </trkpt>
      <trkpt lat="44.45853" lon="1.14314">
        <ele>197.910538</ele>
        <time>2009-08-13T08:31:29Z</time>
      </trkpt>
      <trkpt lat="44.45854" lon="1.14318">
        <ele>197.46312</ele>
        <time>2009-08-13T08:31:34Z</time>
      </trkpt>
      <trkpt lat="44.45851" lon="1.14316">
        <ele>197.750671</ele>
        <time>2009-08-13T08:31:47Z</time>
      </trkpt>
      <trkpt lat="44.45853" lon="1.14315">
        <ele>197.769089</ele>
        <time>2009-08-13T08:31:52Z</time>
      </trkpt>
      <trkpt lat="44.45852" lon="1.14314">
        <ele>197.989151</ele>
        <time>2009-08-13T08:32:02Z</time>
      </trkpt>
      <trkpt lat="44.45847" lon="1.1431">
        <ele>198.629684</ele>
        <time>2009-08-13T08:32:07Z</time>
      </trkpt>
      <trkpt lat="44.45842" lon="1.14311">
        <ele>198.546799</ele>
        <time>2009-08-13T08:32:12Z</time>
      </trkpt>
      <trkpt lat="44.45846" lon="1.14318">
        <ele>197.525055</ele>
        <time>2009-08-13T08:32:16Z</time>
      </trkpt>
      <trkpt lat="44.45854" lon="1.1433">
        <ele>195.830002</ele>
        <time>2009-08-13T08:32:20Z</time>
      </trkpt>
      <trkpt lat="44.45865" lon="1.14344">
        <ele>193.985001</ele>
        <time>2009-08-13T08:32:23Z</time>
      </trkpt>
      <trkpt lat="44.45878" lon="1.14366">
        <ele>191.199997</ele>
        <time>2009-08-13T08:32:26Z</time>
      </trkpt>
      <trkpt lat="44.45896" lon="1.14401">
        <ele>185.46962</ele>
        <time>2009-08-13T08:32:29Z</time>
      </trkpt>
      <trkpt lat="44.45908" lon="1.14426">
        <ele>181.532166</ele>
        <time>2009-08-13T08:32:32Z</time>
      </trkpt>
      <trkpt lat="44.45916" lon="1.14454">
        <ele>176.467499</ele>
        <time>2009-08-13T08:32:36Z</time>
      </trkpt>
      <trkpt lat="44.45917" lon="1.14489">
        <ele>170.285629</ele>
        <time>2009-08-13T08:32:40Z</time>
      </trkpt>
      <trkpt lat="44.45922" lon="1.14509">
        <ele>167.027496</ele>
        <time>2009-08-13T08:32:43Z</time>
      </trkpt>
      <trkpt lat="44.45918" lon="1.14514">
        <ele>166.299286</ele>
        <time>2009-08-13T08:32:46Z</time>
      </trkpt>
      <trkpt lat="44.45915" lon="1.14518">
        <ele>165.898285</ele>
        <time>2009-08-13T08:32:54Z</time>
      </trkpt>
      <trkpt lat="44.45916" lon="1.14526">
        <ele>164.541885</ele>
        <time>2009-08-13T08:32:57Z</time>
      </trkpt>
      <trkpt lat="44.45915" lon="1.14533">
        <ele>163.616562</ele>
        <time>2009-08-13T08:33:00Z</time>
      </trkpt>
      <trkpt lat="44.45919" lon="1.14537">
        <ele>162.732971</ele>
        <time>2009-08-13T08:33:04Z</time>
      </trkpt>
      <trkpt lat="44.45932" lon="1.14548">
        <ele>160.254166</ele>
        <time>2009-08-13T08:33:08Z</time>
      </trkpt>
      <trkpt lat="44.45966" lon="1.14559">
        <ele>155.128326</ele>
        <time>2009-08-13T08:33:11Z</time>
      </trkpt>
      <trkpt lat="44.45998" lon="1.14562">
        <ele>152.065216</ele>
        <time>2009-08-13T08:33:14Z</time>
      </trkpt>
      <trkpt lat="44.46027" lon="1.14574">
        <ele>148.810532</ele>
        <time>2009-08-13T08:33:17Z</time>
      </trkpt>
      <trkpt lat="44.46052" lon="1.14597">
        <ele>141.950165</ele>
        <time>2009-08-13T08:33:20Z</time>
      </trkpt>
      <trkpt lat="44.46079" lon="1.1461">
        <ele>136.668549</ele>
        <time>2009-08-13T08:33:23Z</time>
      </trkpt>
      <trkpt lat="44.46109" lon="1.14619">
        <ele>129.726517</ele>
        <time>2009-08-13T08:33:26Z</time>
      </trkpt>
      <trkpt lat="44.46144" lon="1.14628">
        <ele>122.824898</ele>
        <time>2009-08-13T08:33:29Z</time>
      </trkpt>
      <trkpt lat="44.46183" lon="1.14637">
        <ele>116.768303</ele>
        <time>2009-08-13T08:33:32Z</time>
      </trkpt>
      <trkpt lat="44.46215" lon="1.14644">
        <ele>111.262291</ele>
        <time>2009-08-13T08:33:35Z</time>
      </trkpt>
      <trkpt lat="44.46244" lon="1.14655">
        <ele>106.717598</ele>
        <time>2009-08-13T08:33:38Z</time>
      </trkpt>
      <trkpt lat="44.4627" lon="1.14664">
        <ele>104.969376</ele>
        <time>2009-08-13T08:33:41Z</time>
      </trkpt>
      <trkpt lat="44.46278" lon="1.1467">
        <ele>105.625</ele>
        <time>2009-08-13T08:33:44Z</time>
      </trkpt>
      <trkpt lat="44.46279" lon="1.14672">
        <ele>105.555</ele>
        <time>2009-08-13T08:33:53Z</time>
      </trkpt>
      <trkpt lat="44.46282" lon="1.14674">
        <ele>105.710403</ele>
        <time>2009-08-13T08:33:57Z</time>
      </trkpt>
      <trkpt lat="44.4628" lon="1.14675">
        <ele>105.411301</ele>
        <time>2009-08-13T08:34:05Z</time>
      </trkpt>
      <trkpt lat="44.46279" lon="1.14674">
        <ele>105.435432</ele>
        <time>2009-08-13T08:34:10Z</time>
      </trkpt>
      <trkpt lat="44.46279" lon="1.14677">
        <ele>105.134315</ele>
        <time>2009-08-13T08:34:19Z</time>
      </trkpt>
      <trkpt lat="44.46283" lon="1.14676">
        <ele>105.657906</ele>
        <time>2009-08-13T08:34:23Z</time>
      </trkpt>
      <trkpt lat="44.46282" lon="1.14673">
        <ele>105.899757</ele>
        <time>2009-08-13T08:34:41Z</time>
      </trkpt>
      <trkpt lat="44.46281" lon="1.14672">
        <ele>105.837502</ele>
        <time>2009-08-13T08:34:51Z</time>
      </trkpt>
      <trkpt lat="44.4628" lon="1.14672">
        <ele>105.709373</ele>
        <time>2009-08-13T08:35:03Z</time>
      </trkpt>
      <trkpt lat="44.4628" lon="1.14673">
        <ele>105.691254</ele>
        <time>2009-08-13T08:35:10Z</time>
      </trkpt>
      <trkpt lat="44.4628" lon="1.14673">
        <ele>105.627502</ele>
        <time>2009-08-13T08:35:18Z</time>
      </trkpt>
      <trkpt lat="44.46278" lon="1.14673">
        <ele>105.443558</ele>
        <time>2009-08-13T08:35:22Z</time>
      </trkpt>
      <trkpt lat="44.46278" lon="1.14672">
        <ele>105.488747</ele>
        <time>2009-08-13T08:35:34Z</time>
      </trkpt>
      <trkpt lat="44.4628" lon="1.14671">
        <ele>105.762497</ele>
        <time>2009-08-13T08:35:41Z</time>
      </trkpt>
      <trkpt lat="44.46281" lon="1.14672">
        <ele>105.859375</ele>
        <time>2009-08-13T08:35:46Z</time>
      </trkpt>
      <trkpt lat="44.46283" lon="1.14673">
        <ele>105.955269</ele>
        <time>2009-08-13T08:35:52Z</time>
      </trkpt>
      <trkpt lat="44.46284" lon="1.14674">
        <ele>105.991943</ele>
        <time>2009-08-13T08:35:55Z</time>
      </trkpt>
      <trkpt lat="44.46283" lon="1.14675">
        <ele>105.702888</ele>
        <time>2009-08-13T08:36:12Z</time>
      </trkpt>
      <trkpt lat="44.46281" lon="1.14686">
        <ele>104.630211</ele>
        <time>2009-08-13T08:36:16Z</time>
      </trkpt>
      <trkpt lat="44.46278" lon="1.14697">
        <ele>103.276596</ele>
        <time>2009-08-13T08:36:19Z</time>
      </trkpt>
      <trkpt lat="44.46275" lon="1.14712">
        <ele>101.709175</ele>
        <time>2009-08-13T08:36:24Z</time>
      </trkpt>
      <trkpt lat="44.46274" lon="1.14736">
        <ele>99.547737</ele>
        <time>2009-08-13T08:36:28Z</time>
      </trkpt>
      <trkpt lat="44.46269" lon="1.14751">
        <ele>98.444366</ele>
        <time>2009-08-13T08:36:32Z</time>
      </trkpt>
      <trkpt lat="44.46259" lon="1.14767">
        <ele>97.353752</ele>
        <time>2009-08-13T08:36:35Z</time>
      </trkpt>
      <trkpt lat="44.46254" lon="1.14779">
        <ele>96.660004</ele>
        <time>2009-08-13T08:36:38Z</time>
      </trkpt>
      <trkpt lat="44.4625" lon="1.14793">
        <ele>95.903748</ele>
        <time>2009-08-13T08:36:41Z</time>
      </trkpt>
      <trkpt lat="44.46245" lon="1.14809">
        <ele>95.666908</ele>
        <time>2009-08-13T08:36:44Z</time>
      </trkpt>
      <trkpt lat="44.46242" lon="1.14824">
        <ele>95.883972</ele>
        <time>2009-08-13T08:36:47Z</time>
      </trkpt>
      <trkpt lat="44.46238" lon="1.14841">
        <ele>96.207207</ele>
        <time>2009-08-13T08:36:50Z</time>
      </trkpt>
      <trkpt lat="44.46235" lon="1.14858">
        <ele>96.61615</ele>
        <time>2009-08-13T08:36:53Z</time>
      </trkpt>
      <trkpt lat="44.46233" lon="1.14872">
        <ele>97.475647</ele>
        <time>2009-08-13T08:36:56Z</time>
      </trkpt>
      <trkpt lat="44.4623" lon="1.14886">
        <ele>98.593552</ele>
        <time>2009-08-13T08:36:59Z</time>
      </trkpt>
      <trkpt lat="44.46223" lon="1.149">
        <ele>99.942879</ele>
        <time>2009-08-13T08:37:02Z</time>
      </trkpt>
      <trkpt lat="44.46218" lon="1.14911">
        <ele>100.936874</ele>
        <time>2009-08-13T08:37:06Z</time>
      </trkpt>
      <trkpt lat="44.46223" lon="1.14923">
        <ele>101.783249</ele>
        <time>2009-08-13T08:37:11Z</time>
      </trkpt>
      <trkpt lat="44.46228" lon="1.14926">
        <ele>101.831703</ele>
        <time>2009-08-13T08:37:14Z</time>
      </trkpt>
      <trkpt lat="44.46235" lon="1.14931">
        <ele>102.227264</ele>
        <time>2009-08-13T08:37:19Z</time>
      </trkpt>
      <trkpt lat="44.4624" lon="1.14937">
        <ele>102.841431</ele>
        <time>2009-08-13T08:37:22Z</time>
      </trkpt>
      <trkpt lat="44.46245" lon="1.1494">
        <ele>102.923653</ele>
        <time>2009-08-13T08:37:26Z</time>
      </trkpt>
      <trkpt lat="44.46253" lon="1.14947">
        <ele>103.413261</ele>
        <time>2009-08-13T08:37:30Z</time>
      </trkpt>
      <trkpt lat="44.46262" lon="1.14951">
        <ele>103.3582</ele>
        <time>2009-08-13T08:37:33Z</time>
      </trkpt>
      <trkpt lat="44.46269" lon="1.14961">
        <ele>104.194016</ele>
        <time>2009-08-13T08:37:36Z</time>
      </trkpt>
      <trkpt lat="44.46279" lon="1.14969">
        <ele>103.459175</ele>
        <time>2009-08-13T08:37:39Z</time>
      </trkpt>
      <trkpt lat="44.46295" lon="1.1498">
        <ele>102.052353</ele>
        <time>2009-08-13T08:37:42Z</time>
      </trkpt>
      <trkpt lat="44.46307" lon="1.14988">
        <ele>100.73568</ele>
        <time>2009-08-13T08:37:45Z</time>
      </trkpt>
      <trkpt lat="44.4632" lon="1.14999">
        <ele>101.148796</ele>
        <time>2009-08-13T08:37:49Z</time>
      </trkpt>
      <trkpt lat="44.46332" lon="1.15013">
        <ele>102.248024</ele>
        <time>2009-08-13T08:37:52Z</time>
      </trkpt>
      <trkpt lat="44.46345" lon="1.15028">
        <ele>102.846603</ele>
        <time>2009-08-13T08:37:55Z</time>
      </trkpt>
      <trkpt lat="44.46358" lon="1.15041">
        <ele>102.474251</ele>
        <time>2009-08-13T08:37:58Z</time>
      </trkpt>
      <trkpt lat="44.46373" lon="1.15053">
        <ele>102.190628</ele>
        <time>2009-08-13T08:38:01Z</time>
      </trkpt>
      <trkpt lat="44.46388" lon="1.15064">
        <ele>102.241249</ele>
        <time>2009-08-13T08:38:04Z</time>
      </trkpt>
      <trkpt lat="44.46404" lon="1.15074">
        <ele>101.921875</ele>
        <time>2009-08-13T08:38:07Z</time>
      </trkpt>
      <trkpt lat="44.46421" lon="1.15084">
        <ele>101.111008</ele>
        <time>2009-08-13T08:38:10Z</time>
      </trkpt>
      <trkpt lat="44.46437" lon="1.15095">
        <ele>100.228096</ele>
        <time>2009-08-13T08:38:13Z</time>
      </trkpt>
      <trkpt lat="44.46453" lon="1.15107">
        <ele>99.565651</ele>
        <time>2009-08-13T08:38:16Z</time>
      </trkpt>
      <trkpt lat="44.46474" lon="1.15123">
        <ele>100.879173</ele>
        <time>2009-08-13T08:38:19Z</time>
      </trkpt>
      <trkpt lat="44.46489" lon="1.15133">
        <ele>100.803192</ele>
        <time>2009-08-13T08:38:22Z</time>
      </trkpt>
      <trkpt lat="44.46505" lon="1.15141">
        <ele>100.11235</ele>
        <time>2009-08-13T08:38:26Z</time>
      </trkpt>
      <trkpt lat="44.46523" lon="1.15151">
        <ele>99.640152</ele>
        <time>2009-08-13T08:38:29Z</time>
      </trkpt>
      <trkpt lat="44.46541" lon="1.15161">
        <ele>98.809998</ele>
        <time>2009-08-13T08:38:32Z</time>
      </trkpt>
      <trkpt lat="44.46559" lon="1.15171">
        <ele>98.573265</ele>
        <time>2009-08-13T08:38:35Z</time>
      </trkpt>
      <trkpt lat="44.46575" lon="1.1518">
        <ele>98.421722</ele>
        <time>2009-08-13T08:38:38Z</time>
      </trkpt>
      <trkpt lat="44.46591" lon="1.15189">
        <ele>97.468124</ele>
        <time>2009-08-13T08:38:41Z</time>
      </trkpt>
      <trkpt lat="44.46608" lon="1.15198">
        <ele>96.350624</ele>
        <time>2009-08-13T08:38:44Z</time>
      </trkpt>
      <trkpt lat="44.46623" lon="1.15204">
        <ele>95.015625</ele>
        <time>2009-08-13T08:38:47Z</time>
      </trkpt>
      <trkpt lat="44.46637" lon="1.15212">
        <ele>94.580582</ele>
        <time>2009-08-13T08:38:50Z</time>
      </trkpt>
      <trkpt lat="44.46649" lon="1.15217">
        <ele>94.597015</ele>
        <time>2009-08-13T08:38:53Z</time>
      </trkpt>
      <trkpt lat="44.46664" lon="1.15221">
        <ele>94.448135</ele>
        <time>2009-08-13T08:38:56Z</time>
      </trkpt>
      <trkpt lat="44.4668" lon="1.15221">
        <ele>93.801956</ele>
        <time>2009-08-13T08:38:59Z</time>
      </trkpt>
      <trkpt lat="44.46699" lon="1.15221">
        <ele>93.486732</ele>
        <time>2009-08-13T08:39:03Z</time>
      </trkpt>
      <trkpt lat="44.4672" lon="1.15224">
        <ele>93.457962</ele>
        <time>2009-08-13T08:39:06Z</time>
      </trkpt>
      <trkpt lat="44.46741" lon="1.1523">
        <ele>94.255905</ele>
        <time>2009-08-13T08:39:09Z</time>
      </trkpt>
      <trkpt lat="44.46759" lon="1.15238">
        <ele>95.455986</ele>
        <time>2009-08-13T08:39:12Z</time>
      </trkpt>
      <trkpt lat="44.46777" lon="1.15249">
        <ele>96.032524</ele>
        <time>2009-08-13T08:39:15Z</time>
      </trkpt>
      <trkpt lat="44.46793" lon="1.15256">
        <ele>95.884895</ele>
        <time>2009-08-13T08:39:18Z</time>
      </trkpt>
      <trkpt lat="44.46809" lon="1.15268">
        <ele>96.051003</ele>
        <time>2009-08-13T08:39:21Z</time>
      </trkpt>
      <trkpt lat="44.46825" lon="1.15279">
        <ele>95.612602</ele>
        <time>2009-08-13T08:39:24Z</time>
      </trkpt>
      <trkpt lat="44.46842" lon="1.15289">
        <ele>94.556717</ele>
        <time>2009-08-13T08:39:27Z</time>
      </trkpt>
      <trkpt lat="44.46864" lon="1.15301">
        <ele>94.791496</ele>
        <time>2009-08-13T08:39:30Z</time>
      </trkpt>
      <trkpt lat="44.46881" lon="1.1531">
        <ele>94.770638</ele>
        <time>2009-08-13T08:39:33Z</time>
      </trkpt>
      <trkpt lat="44.46899" lon="1.15316">
        <ele>93.942978</ele>
        <time>2009-08-13T08:39:37Z</time>
      </trkpt>
      <trkpt lat="44.46917" lon="1.15321">
        <ele>93.027672</ele>
        <time>2009-08-13T08:39:40Z</time>
      </trkpt>
      <trkpt lat="44.46935" lon="1.15324">
        <ele>92.058647</ele>
        <time>2009-08-13T08:39:43Z</time>
      </trkpt>
      <trkpt lat="44.46951" lon="1.15328">
        <ele>91.516823</ele>
        <time>2009-08-13T08:39:46Z</time>
      </trkpt>
      <trkpt lat="44.46969" lon="1.15332">
        <ele>91.69487</ele>
        <time>2009-08-13T08:39:49Z</time>
      </trkpt>
      <trkpt lat="44.46986" lon="1.15335">
        <ele>91.779518</ele>
        <time>2009-08-13T08:39:52Z</time>
      </trkpt>
      <trkpt lat="44.47003" lon="1.15336">
        <ele>91.598404</ele>
        <time>2009-08-13T08:39:55Z</time>
      </trkpt>
      <trkpt lat="44.47022" lon="1.15338">
        <ele>91.453476</ele>
        <time>2009-08-13T08:39:58Z</time>
      </trkpt>
      <trkpt lat="44.4705" lon="1.15341">
        <ele>90.891876</ele>
        <time>2009-08-13T08:40:01Z</time>
      </trkpt>
      <trkpt lat="44.47071" lon="1.15343">
        <ele>90.180626</ele>
        <time>2009-08-13T08:40:04Z</time>
      </trkpt>
      <trkpt lat="44.47092" lon="1.15343">
        <ele>89.534409</ele>
        <time>2009-08-13T08:40:08Z</time>
      </trkpt>
      <trkpt lat="44.47109" lon="1.15341">
        <ele>88.998108</ele>
        <time>2009-08-13T08:40:11Z</time>
      </trkpt>
      <trkpt lat="44.47127" lon="1.15337">
        <ele>88.450417</ele>
        <time>2009-08-13T08:40:14Z</time>
      </trkpt>
      <trkpt lat="44.47145" lon="1.15332">
        <ele>88.366425</ele>
        <time>2009-08-13T08:40:17Z</time>
      </trkpt>
      <trkpt lat="44.47162" lon="1.15328">
        <ele>88.29734</ele>
        <time>2009-08-13T08:40:20Z</time>
      </trkpt>
      <trkpt lat="44.47178" lon="1.15326">
        <ele>88.177185</ele>
        <time>2009-08-13T08:40:23Z</time>
      </trkpt>
      <trkpt lat="44.47194" lon="1.15324">
        <ele>87.920799</ele>
        <time>2009-08-13T08:40:26Z</time>
      </trkpt>
      <trkpt lat="44.47213" lon="1.15321">
        <ele>87.508797</ele>
        <time>2009-08-13T08:40:29Z</time>
      </trkpt>
      <trkpt lat="44.47226" lon="1.15318">
        <ele>87.871452</ele>
        <time>2009-08-13T08:40:32Z</time>
      </trkpt>
      <trkpt lat="44.47238" lon="1.15316">
        <ele>88.379967</ele>
        <time>2009-08-13T08:40:36Z</time>
      </trkpt>
      <trkpt lat="44.47249" lon="1.15314">
        <ele>88.946716</ele>
        <time>2009-08-13T08:40:39Z</time>
      </trkpt>
      <trkpt lat="44.47261" lon="1.15312">
        <ele>89.507378</ele>
        <time>2009-08-13T08:40:42Z</time>
      </trkpt>
      <trkpt lat="44.47271" lon="1.15309">
        <ele>90.166939</ele>
        <time>2009-08-13T08:40:45Z</time>
      </trkpt>
      <trkpt lat="44.47281" lon="1.15307">
        <ele>90.833138</ele>
        <time>2009-08-13T08:40:48Z</time>
      </trkpt>
      <trkpt lat="44.47291" lon="1.15306">
        <ele>91.760559</ele>
        <time>2009-08-13T08:40:51Z</time>
      </trkpt>
      <trkpt lat="44.47301" lon="1.15304">
        <ele>92.4384</ele>
        <time>2009-08-13T08:40:54Z</time>
      </trkpt>
      <trkpt lat="44.47315" lon="1.15301">
        <ele>92.494781</ele>
        <time>2009-08-13T08:40:57Z</time>
      </trkpt>
      <trkpt lat="44.47328" lon="1.15297">
        <ele>92.144753</ele>
        <time>2009-08-13T08:41:00Z</time>
      </trkpt>
      <trkpt lat="44.4734" lon="1.15294">
        <ele>91.829948</ele>
        <time>2009-08-13T08:41:04Z</time>
      </trkpt>
      <trkpt lat="44.47351" lon="1.15289">
        <ele>91.346687</ele>
        <time>2009-08-13T08:41:07Z</time>
      </trkpt>
      <trkpt lat="44.47361" lon="1.15286">
        <ele>90.769997</ele>
        <time>2009-08-13T08:41:10Z</time>
      </trkpt>
      <trkpt lat="44.47371" lon="1.15283">
        <ele>90.350403</ele>
        <time>2009-08-13T08:41:13Z</time>
      </trkpt>
      <trkpt lat="44.47379" lon="1.15283">
        <ele>90.234375</ele>
        <time>2009-08-13T08:41:16Z</time>
      </trkpt>
      <trkpt lat="44.47392" lon="1.15288">
        <ele>90.115501</ele>
        <time>2009-08-13T08:41:20Z</time>
      </trkpt>
      <trkpt lat="44.47402" lon="1.15275">
        <ele>89.640999</ele>
        <time>2009-08-13T08:41:23Z</time>
      </trkpt>
      <trkpt lat="44.474" lon="1.15255">
        <ele>88.519104</ele>
        <time>2009-08-13T08:41:27Z</time>
      </trkpt>
      <trkpt lat="44.47399" lon="1.15239">
        <ele>87.543365</ele>
        <time>2009-08-13T08:41:31Z</time>
      </trkpt>
      <trkpt lat="44.47402" lon="1.15226">
        <ele>86.822281</ele>
        <time>2009-08-13T08:41:34Z</time>
      </trkpt>
      <trkpt lat="44.47403" lon="1.15212">
        <ele>86.102501</ele>
        <time>2009-08-13T08:41:37Z</time>
      </trkpt>
      <trkpt lat="44.47405" lon="1.15198">
        <ele>85.716248</ele>
        <time>2009-08-13T08:41:41Z</time>
      </trkpt>
      <trkpt lat="44.47411" lon="1.15189">
        <ele>85.553749</ele>
        <time>2009-08-13T08:41:44Z</time>
      </trkpt>
      <trkpt lat="44.47416" lon="1.15183">
        <ele>85.491249</ele>
        <time>2009-08-13T08:41:47Z</time>
      </trkpt>
      <trkpt lat="44.4742" lon="1.15176">
        <ele>85.334999</ele>
        <time>2009-08-13T08:41:50Z</time>
      </trkpt>
      <trkpt lat="44.47419" lon="1.15169">
        <ele>85.103752</ele>
        <time>2009-08-13T08:42:01Z</time>
      </trkpt>
      <trkpt lat="44.4742" lon="1.15168">
        <ele>85.114998</ele>
        <time>2009-08-13T08:42:06Z</time>
      </trkpt>
      <trkpt lat="44.47421" lon="1.15167">
        <ele>85.071251</ele>
        <time>2009-08-13T08:42:11Z</time>
      </trkpt>
      <trkpt lat="44.47422" lon="1.15165">
        <ele>85.03125</ele>
        <time>2009-08-13T08:42:19Z</time>
      </trkpt>
      <trkpt lat="44.47423" lon="1.15163">
        <ele>85.014999</ele>
        <time>2009-08-13T08:42:35Z</time>
      </trkpt>
      <trkpt lat="44.47424" lon="1.15166">
        <ele>85.107498</ele>
        <time>2009-08-13T08:42:42Z</time>
      </trkpt>
      <trkpt lat="44.47425" lon="1.15167">
        <ele>85.18</ele>
        <time>2009-08-13T08:42:57Z</time>
      </trkpt>
      <trkpt lat="44.47426" lon="1.15172">
        <ele>85.34375</ele>
        <time>2009-08-13T08:43:02Z</time>
      </trkpt>
      <trkpt lat="44.47426" lon="1.15175">
        <ele>85.458748</ele>
        <time>2009-08-13T08:43:07Z</time>
      </trkpt>
      <trkpt lat="44.47427" lon="1.15176">
        <ele>85.516251</ele>
        <time>2009-08-13T08:43:11Z</time>
      </trkpt>
      <trkpt lat="44.47427" lon="1.15178">
        <ele>85.589996</ele>
        <time>2009-08-13T08:43:19Z</time>
      </trkpt>
      <trkpt lat="44.47427" lon="1.15177">
        <ele>85.53125</ele>
        <time>2009-08-13T08:43:27Z</time>
      </trkpt>
      <trkpt lat="44.47426" lon="1.15175">
        <ele>85.46125</ele>
        <time>2009-08-13T08:43:39Z</time>
      </trkpt>
      <trkpt lat="44.47426" lon="1.15173">
        <ele>85.381248</ele>
        <time>2009-08-13T08:43:47Z</time>
      </trkpt>
      <trkpt lat="44.47425" lon="1.15168">
        <ele>85.217499</ele>
        <time>2009-08-13T08:43:54Z</time>
      </trkpt>
      <trkpt lat="44.47425" lon="1.15168">
        <ele>85.223747</ele>
        <time>2009-08-13T08:44:01Z</time>
      </trkpt>
      <trkpt lat="44.47425" lon="1.15165">
        <ele>85.120003</ele>
        <time>2009-08-13T08:44:11Z</time>
      </trkpt>
      <trkpt lat="44.47423" lon="1.15163">
        <ele>85.004997</ele>
        <time>2009-08-13T08:44:15Z</time>
      </trkpt>
      <trkpt lat="44.47424" lon="1.15159">
        <ele>84.907501</ele>
        <time>2009-08-13T08:44:25Z</time>
      </trkpt>
      <trkpt lat="44.47425" lon="1.15158">
        <ele>84.901253</ele>
        <time>2009-08-13T08:44:28Z</time>
      </trkpt>
      <trkpt lat="44.47427" lon="1.15158">
        <ele>84.942497</ele>
        <time>2009-08-13T08:44:34Z</time>
      </trkpt>
      <trkpt lat="44.47428" lon="1.15156">
        <ele>84.917503</ele>
        <time>2009-08-13T08:44:41Z</time>
      </trkpt>
      <trkpt lat="44.47428" lon="1.15155">
        <ele>84.872498</ele>
        <time>2009-08-13T08:44:48Z</time>
      </trkpt>
      <trkpt lat="44.47428" lon="1.15156">
        <ele>84.907501</ele>
        <time>2009-08-13T08:45:02Z</time>
      </trkpt>
      <trkpt lat="44.47428" lon="1.1516">
        <ele>85.028748</ele>
        <time>2009-08-13T08:45:07Z</time>
      </trkpt>
      <trkpt lat="44.47429" lon="1.15161">
        <ele>85.092499</ele>
        <time>2009-08-13T08:45:10Z</time>
      </trkpt>
      <trkpt lat="44.47429" lon="1.15164">
        <ele>85.18</ele>
        <time>2009-08-13T08:45:15Z</time>
      </trkpt>
      <trkpt lat="44.4743" lon="1.15166">
        <ele>85.247498</ele>
        <time>2009-08-13T08:45:19Z</time>
      </trkpt>
      <trkpt lat="44.4743" lon="1.15167">
        <ele>85.311249</ele>
        <time>2009-08-13T08:45:23Z</time>
      </trkpt>
      <trkpt lat="44.47431" lon="1.15169">
        <ele>85.372498</ele>
        <time>2009-08-13T08:45:31Z</time>
      </trkpt>
      <trkpt lat="44.47432" lon="1.1517">
        <ele>85.438751</ele>
        <time>2009-08-13T08:45:41Z</time>
      </trkpt>
      <trkpt lat="44.47432" lon="1.15168">
        <ele>85.385002</ele>
        <time>2009-08-13T08:45:55Z</time>
      </trkpt>
      <trkpt lat="44.47431" lon="1.15167">
        <ele>85.3125</ele>
        <time>2009-08-13T08:46:02Z</time>
      </trkpt>
      <trkpt lat="44.47431" lon="1.15165">
        <ele>85.258751</ele>
        <time>2009-08-13T08:46:08Z</time>
      </trkpt>
      <trkpt lat="44.47431" lon="1.15163">
        <ele>85.197502</ele>
        <time>2009-08-13T08:46:13Z</time>
      </trkpt>
      <trkpt lat="44.47431" lon="1.1516">
        <ele>85.095001</ele>
        <time>2009-08-13T08:46:19Z</time>
      </trkpt>
      <trkpt lat="44.47431" lon="1.15158">
        <ele>85.037498</ele>
        <time>2009-08-13T08:46:24Z</time>
      </trkpt>
      <trkpt lat="44.47429" lon="1.15159">
        <ele>85.011253</ele>
        <time>2009-08-13T08:46:37Z</time>
      </trkpt>
      <trkpt lat="44.47428" lon="1.1516">
        <ele>85.02375</ele>
        <time>2009-08-13T08:46:40Z</time>
      </trkpt>
      <trkpt lat="44.47429" lon="1.15162">
        <ele>85.107498</ele>
        <time>2009-08-13T08:46:45Z</time>
      </trkpt>
      <trkpt lat="44.47428" lon="1.15171">
        <ele>85.392502</ele>
        <time>2009-08-13T08:46:49Z</time>
      </trkpt>
      <trkpt lat="44.47425" lon="1.15177">
        <ele>85.511253</ele>
        <time>2009-08-13T08:46:53Z</time>
      </trkpt>
      <trkpt lat="44.47421" lon="1.15186">
        <ele>85.686249</ele>
        <time>2009-08-13T08:46:57Z</time>
      </trkpt>
      <trkpt lat="44.47414" lon="1.15195">
        <ele>85.803749</ele>
        <time>2009-08-13T08:47:01Z</time>
      </trkpt>
      <trkpt lat="44.47408" lon="1.15209">
        <ele>86.121246</ele>
        <time>2009-08-13T08:47:04Z</time>
      </trkpt>
      <trkpt lat="44.47406" lon="1.15227">
        <ele>86.876488</ele>
        <time>2009-08-13T08:47:09Z</time>
      </trkpt>
      <trkpt lat="44.47403" lon="1.15237">
        <ele>87.416023</ele>
        <time>2009-08-13T08:47:12Z</time>
      </trkpt>
      <trkpt lat="44.47396" lon="1.15244">
        <ele>87.8825</ele>
        <time>2009-08-13T08:47:15Z</time>
      </trkpt>
      <trkpt lat="44.47395" lon="1.15255">
        <ele>88.590607</ele>
        <time>2009-08-13T08:47:19Z</time>
      </trkpt>
      <trkpt lat="44.47396" lon="1.15264">
        <ele>89.144997</ele>
        <time>2009-08-13T08:47:23Z</time>
      </trkpt>
      <trkpt lat="44.47396" lon="1.15276">
        <ele>89.912788</ele>
        <time>2009-08-13T08:47:26Z</time>
      </trkpt>
      <trkpt lat="44.47396" lon="1.15283">
        <ele>90.005775</ele>
        <time>2009-08-13T08:47:29Z</time>
      </trkpt>
      <trkpt lat="44.47395" lon="1.1529">
        <ele>90.05265</ele>
        <time>2009-08-13T08:47:32Z</time>
      </trkpt>
      <trkpt lat="44.47391" lon="1.15292">
        <ele>90.222076</ele>
        <time>2009-08-13T08:47:36Z</time>
      </trkpt>
      <trkpt lat="44.47385" lon="1.15291">
        <ele>90.417038</ele>
        <time>2009-08-13T08:47:40Z</time>
      </trkpt>
      <trkpt lat="44.4738" lon="1.15291">
        <ele>90.629997</ele>
        <time>2009-08-13T08:47:43Z</time>
      </trkpt>
      <trkpt lat="44.47374" lon="1.15294">
        <ele>90.989128</ele>
        <time>2009-08-13T08:47:46Z</time>
      </trkpt>
      <trkpt lat="44.47369" lon="1.153">
        <ele>91.673004</ele>
        <time>2009-08-13T08:47:49Z</time>
      </trkpt>
      <trkpt lat="44.47367" lon="1.15305">
        <ele>92.257652</ele>
        <time>2009-08-13T08:47:52Z</time>
      </trkpt>
      <trkpt lat="44.47364" lon="1.15313">
        <ele>93.2472</ele>
        <time>2009-08-13T08:47:57Z</time>
      </trkpt>
      <trkpt lat="44.47362" lon="1.1532">
        <ele>94.016602</ele>
        <time>2009-08-13T08:48:00Z</time>
      </trkpt>
      <trkpt lat="44.47359" lon="1.15327">
        <ele>95.158447</ele>
        <time>2009-08-13T08:48:04Z</time>
      </trkpt>
      <trkpt lat="44.47354" lon="1.15331">
        <ele>96.324173</ele>
        <time>2009-08-13T08:48:07Z</time>
      </trkpt>
      <trkpt lat="44.47349" lon="1.15335">
        <ele>97.273415</ele>
        <time>2009-08-13T08:48:11Z</time>
      </trkpt>
      <trkpt lat="44.47344" lon="1.15338">
        <ele>97.724701</ele>
        <time>2009-08-13T08:48:17Z</time>
      </trkpt>
      <trkpt lat="44.47339" lon="1.1534">
        <ele>98.037514</ele>
        <time>2009-08-13T08:48:20Z</time>
      </trkpt>
      <trkpt lat="44.47336" lon="1.15342">
        <ele>98.334923</ele>
        <time>2009-08-13T08:48:23Z</time>
      </trkpt>
      <trkpt lat="44.47333" lon="1.15344">
        <ele>98.398003</ele>
        <time>2009-08-13T08:48:26Z</time>
      </trkpt>
      <trkpt lat="44.4733" lon="1.15348">
        <ele>98.486427</ele>
        <time>2009-08-13T08:48:29Z</time>
      </trkpt>
      <trkpt lat="44.47326" lon="1.15352">
        <ele>98.678123</ele>
        <time>2009-08-13T08:48:33Z</time>
      </trkpt>
      <trkpt lat="44.47322" lon="1.15357">
        <ele>98.99939</ele>
        <time>2009-08-13T08:48:38Z</time>
      </trkpt>
      <trkpt lat="44.47317" lon="1.15361">
        <ele>99.416901</ele>
        <time>2009-08-13T08:48:41Z</time>
      </trkpt>
      <trkpt lat="44.47314" lon="1.15364">
        <ele>99.796448</ele>
        <time>2009-08-13T08:48:44Z</time>
      </trkpt>
      <trkpt lat="44.47311" lon="1.15368">
        <ele>100.266518</ele>
        <time>2009-08-13T08:48:47Z</time>
      </trkpt>
      <trkpt lat="44.47306" lon="1.15372">
        <ele>100.926926</ele>
        <time>2009-08-13T08:48:51Z</time>
      </trkpt>
      <trkpt lat="44.47302" lon="1.15377">
        <ele>101.191658</ele>
        <time>2009-08-13T08:48:54Z</time>
      </trkpt>
      <trkpt lat="44.47298" lon="1.1538">
        <ele>101.47081</ele>
        <time>2009-08-13T08:48:57Z</time>
      </trkpt>
      <trkpt lat="44.47294" lon="1.15384">
        <ele>101.89328</ele>
        <time>2009-08-13T08:49:00Z</time>
      </trkpt>
      <trkpt lat="44.47291" lon="1.15387">
        <ele>102.354965</ele>
        <time>2009-08-13T08:49:03Z</time>
      </trkpt>
      <trkpt lat="44.47287" lon="1.15392">
        <ele>103.049034</ele>
        <time>2009-08-13T08:49:06Z</time>
      </trkpt>
      <trkpt lat="44.47284" lon="1.15397">
        <ele>103.916672</ele>
        <time>2009-08-13T08:49:09Z</time>
      </trkpt>
      <trkpt lat="44.47278" lon="1.15401">
        <ele>104.991562</ele>
        <time>2009-08-13T08:49:14Z</time>
      </trkpt>
      <trkpt lat="44.47272" lon="1.15404">
        <ele>105.766327</ele>
        <time>2009-08-13T08:49:17Z</time>
      </trkpt>
      <trkpt lat="44.47266" lon="1.15408">
        <ele>106.726555</ele>
        <time>2009-08-13T08:49:20Z</time>
      </trkpt>
      <trkpt lat="44.47262" lon="1.15411">
        <ele>107.172112</ele>
        <time>2009-08-13T08:49:23Z</time>
      </trkpt>
      <trkpt lat="44.47256" lon="1.15415">
        <ele>107.351265</ele>
        <time>2009-08-13T08:49:28Z</time>
      </trkpt>
      <trkpt lat="44.4725" lon="1.1542">
        <ele>107.726532</ele>
        <time>2009-08-13T08:49:32Z</time>
      </trkpt>
      <trkpt lat="44.47245" lon="1.15424">
        <ele>108.155449</ele>
        <time>2009-08-13T08:49:35Z</time>
      </trkpt>
      <trkpt lat="44.47241" lon="1.15427">
        <ele>108.591827</ele>
        <time>2009-08-13T08:49:39Z</time>
      </trkpt>
      <trkpt lat="44.47235" lon="1.15431">
        <ele>109.331123</ele>
        <time>2009-08-13T08:49:45Z</time>
      </trkpt>
      <trkpt lat="44.4723" lon="1.15435">
        <ele>110.172951</ele>
        <time>2009-08-13T08:49:48Z</time>
      </trkpt>
      <trkpt lat="44.47226" lon="1.15439">
        <ele>110.933708</ele>
        <time>2009-08-13T08:49:51Z</time>
      </trkpt>
      <trkpt lat="44.47223" lon="1.15442">
        <ele>111.730469</ele>
        <time>2009-08-13T08:49:54Z</time>
      </trkpt>
      <trkpt lat="44.4722" lon="1.15445">
        <ele>112.545723</ele>
        <time>2009-08-13T08:49:57Z</time>
      </trkpt>
      <trkpt lat="44.47216" lon="1.15449">
        <ele>113.499855</ele>
        <time>2009-08-13T08:50:01Z</time>
      </trkpt>
      <trkpt lat="44.47212" lon="1.15451">
        <ele>114.071022</ele>
        <time>2009-08-13T08:50:05Z</time>
      </trkpt>
      <trkpt lat="44.47208" lon="1.15456">
        <ele>115.172798</ele>
        <time>2009-08-13T08:50:09Z</time>
      </trkpt>
      <trkpt lat="44.47203" lon="1.15459">
        <ele>116.122635</ele>
        <time>2009-08-13T08:50:12Z</time>
      </trkpt>
      <trkpt lat="44.47199" lon="1.15461">
        <ele>116.7435</ele>
        <time>2009-08-13T08:50:15Z</time>
      </trkpt>
      <trkpt lat="44.47195" lon="1.15463">
        <ele>117.526474</ele>
        <time>2009-08-13T08:50:18Z</time>
      </trkpt>
      <trkpt lat="44.4719" lon="1.15466">
        <ele>118.538345</ele>
        <time>2009-08-13T08:50:23Z</time>
      </trkpt>
      <trkpt lat="44.47186" lon="1.15468">
        <ele>119.38134</ele>
        <time>2009-08-13T08:50:26Z</time>
      </trkpt>
      <trkpt lat="44.47182" lon="1.15472">
        <ele>120.27739</ele>
        <time>2009-08-13T08:50:30Z</time>
      </trkpt>
      <trkpt lat="44.47176" lon="1.15475">
        <ele>120.904778</ele>
        <time>2009-08-13T08:50:34Z</time>
      </trkpt>
      <trkpt lat="44.47173" lon="1.15477">
        <ele>121.322639</ele>
        <time>2009-08-13T08:50:38Z</time>
      </trkpt>
      <trkpt lat="44.47168" lon="1.1548">
        <ele>121.666908</ele>
        <time>2009-08-13T08:50:41Z</time>
      </trkpt>
      <trkpt lat="44.47164" lon="1.15484">
        <ele>122.045311</ele>
        <time>2009-08-13T08:50:45Z</time>
      </trkpt>
      <trkpt lat="44.47159" lon="1.15486">
        <ele>122.398705</ele>
        <time>2009-08-13T08:50:50Z</time>
      </trkpt>
      <trkpt lat="44.47156" lon="1.15487">
        <ele>122.710266</ele>
        <time>2009-08-13T08:50:53Z</time>
      </trkpt>
      <trkpt lat="44.47151" lon="1.15491">
        <ele>123.229889</ele>
        <time>2009-08-13T08:50:56Z</time>
      </trkpt>
      <trkpt lat="44.47148" lon="1.15493">
        <ele>123.632126</ele>
        <time>2009-08-13T08:50:59Z</time>
      </trkpt>
      <trkpt lat="44.47144" lon="1.15496">
        <ele>124.184288</ele>
        <time>2009-08-13T08:51:03Z</time>
      </trkpt>
      <trkpt lat="44.4714" lon="1.15498">
        <ele>124.579689</ele>
        <time>2009-08-13T08:51:07Z</time>
      </trkpt>
      <trkpt lat="44.47136" lon="1.15501">
        <ele>125.208374</ele>
        <time>2009-08-13T08:51:10Z</time>
      </trkpt>
      <trkpt lat="44.47133" lon="1.15501">
        <ele>125.474495</ele>
        <time>2009-08-13T08:51:14Z</time>
      </trkpt>
      <trkpt lat="44.47128" lon="1.15503">
        <ele>126.06881</ele>
        <time>2009-08-13T08:51:17Z</time>
      </trkpt>
      <trkpt lat="44.47123" lon="1.15508">
        <ele>126.924721</ele>
        <time>2009-08-13T08:51:24Z</time>
      </trkpt>
      <trkpt lat="44.47117" lon="1.15513">
        <ele>127.785423</ele>
        <time>2009-08-13T08:51:27Z</time>
      </trkpt>
      <trkpt lat="44.47114" lon="1.15516">
        <ele>128.287384</ele>
        <time>2009-08-13T08:51:30Z</time>
      </trkpt>
      <trkpt lat="44.4711" lon="1.15518">
        <ele>128.783234</ele>
        <time>2009-08-13T08:51:34Z</time>
      </trkpt>
      <trkpt lat="44.47105" lon="1.15522">
        <ele>129.570328</ele>
        <time>2009-08-13T08:51:37Z</time>
      </trkpt>
      <trkpt lat="44.47102" lon="1.15525">
        <ele>130.213455</ele>
        <time>2009-08-13T08:51:40Z</time>
      </trkpt>
      <trkpt lat="44.47097" lon="1.15527">
        <ele>130.851089</ele>
        <time>2009-08-13T08:51:44Z</time>
      </trkpt>
      <trkpt lat="44.47092" lon="1.1553">
        <ele>131.681625</ele>
        <time>2009-08-13T08:51:49Z</time>
      </trkpt>
      <trkpt lat="44.47087" lon="1.15533">
        <ele>132.445541</ele>
        <time>2009-08-13T08:51:52Z</time>
      </trkpt>
      <trkpt lat="44.47083" lon="1.15535">
        <ele>133.057556</ele>
        <time>2009-08-13T08:51:55Z</time>
      </trkpt>
      <trkpt lat="44.4708" lon="1.15537">
        <ele>133.451614</ele>
        <time>2009-08-13T08:51:58Z</time>
      </trkpt>
      <trkpt lat="44.47076" lon="1.15538">
        <ele>133.843903</ele>
        <time>2009-08-13T08:52:01Z</time>
      </trkpt>
      <trkpt lat="44.47073" lon="1.1554">
        <ele>134.257538</ele>
        <time>2009-08-13T08:52:04Z</time>
      </trkpt>
      <trkpt lat="44.47069" lon="1.15542">
        <ele>134.720306</ele>
        <time>2009-08-13T08:52:08Z</time>
      </trkpt>
      <trkpt lat="44.47064" lon="1.15546">
        <ele>135.411026</ele>
        <time>2009-08-13T08:52:11Z</time>
      </trkpt>
      <trkpt lat="44.47061" lon="1.15549">
        <ele>135.939453</ele>
        <time>2009-08-13T08:52:14Z</time>
      </trkpt>
      <trkpt lat="44.47057" lon="1.15551">
        <ele>136.431625</ele>
        <time>2009-08-13T08:52:18Z</time>
      </trkpt>
      <trkpt lat="44.47053" lon="1.15554">
        <ele>137.047607</ele>
        <time>2009-08-13T08:52:21Z</time>
      </trkpt>
      <trkpt lat="44.47048" lon="1.15558">
        <ele>137.80658</ele>
        <time>2009-08-13T08:52:25Z</time>
      </trkpt>
      <trkpt lat="44.47044" lon="1.15561">
        <ele>138.424179</ele>
        <time>2009-08-13T08:52:28Z</time>
      </trkpt>
      <trkpt lat="44.47042" lon="1.15563">
        <ele>138.879547</ele>
        <time>2009-08-13T08:52:31Z</time>
      </trkpt>
      <trkpt lat="44.47039" lon="1.15567">
        <ele>139.521561</ele>
        <time>2009-08-13T08:52:35Z</time>
      </trkpt>
      <trkpt lat="44.47034" lon="1.1557">
        <ele>140.287476</ele>
        <time>2009-08-13T08:52:39Z</time>
      </trkpt>
      <trkpt lat="44.47031" lon="1.15572">
        <ele>140.859039</ele>
        <time>2009-08-13T08:52:42Z</time>
      </trkpt>
      <trkpt lat="44.47025" lon="1.15576">
        <ele>141.837662</ele>
        <time>2009-08-13T08:52:47Z</time>
      </trkpt>
      <trkpt lat="44.47021" lon="1.15579">
        <ele>142.571915</ele>
        <time>2009-08-13T08:52:51Z</time>
      </trkpt>
      <trkpt lat="44.47017" lon="1.15582">
        <ele>143.302979</ele>
        <time>2009-08-13T08:52:55Z</time>
      </trkpt>
      <trkpt lat="44.47014" lon="1.15586">
        <ele>144.100845</ele>
        <time>2009-08-13T08:53:00Z</time>
      </trkpt>
      <trkpt lat="44.47009" lon="1.15588">
        <ele>144.969193</ele>
        <time>2009-08-13T08:53:03Z</time>
      </trkpt>
      <trkpt lat="44.47005" lon="1.15592">
        <ele>145.825058</ele>
        <time>2009-08-13T08:53:07Z</time>
      </trkpt>
      <trkpt lat="44.47002" lon="1.15594">
        <ele>146.426086</ele>
        <time>2009-08-13T08:53:10Z</time>
      </trkpt>
      <trkpt lat="44.46998" lon="1.15596">
        <ele>147.0858</ele>
        <time>2009-08-13T08:53:13Z</time>
      </trkpt>
      <trkpt lat="44.46994" lon="1.15598">
        <ele>147.863815</ele>
        <time>2009-08-13T08:53:16Z</time>
      </trkpt>
      <trkpt lat="44.46989" lon="1.15601">
        <ele>148.628754</ele>
        <time>2009-08-13T08:53:20Z</time>
      </trkpt>
      <trkpt lat="44.46986" lon="1.15603">
        <ele>149.077499</ele>
        <time>2009-08-13T08:53:23Z</time>
      </trkpt>
      <trkpt lat="44.46981" lon="1.15605">
        <ele>149.653748</ele>
        <time>2009-08-13T08:53:27Z</time>
      </trkpt>
      <trkpt lat="44.46977" lon="1.15608">
        <ele>150.225006</ele>
        <time>2009-08-13T08:53:32Z</time>
      </trkpt>
      <trkpt lat="44.46973" lon="1.15612">
        <ele>150.789993</ele>
        <time>2009-08-13T08:53:35Z</time>
      </trkpt>
      <trkpt lat="44.46969" lon="1.15614">
        <ele>151.276245</ele>
        <time>2009-08-13T08:53:38Z</time>
      </trkpt>
      <trkpt lat="44.46966" lon="1.15616">
        <ele>151.759995</ele>
        <time>2009-08-13T08:53:41Z</time>
      </trkpt>
      <trkpt lat="44.46962" lon="1.15618">
        <ele>152.192505</ele>
        <time>2009-08-13T08:53:44Z</time>
      </trkpt>
      <trkpt lat="44.46959" lon="1.15619">
        <ele>152.601257</ele>
        <time>2009-08-13T08:53:47Z</time>
      </trkpt>
      <trkpt lat="44.46954" lon="1.15622">
        <ele>153.196243</ele>
        <time>2009-08-13T08:53:51Z</time>
      </trkpt>
      <trkpt lat="44.4695" lon="1.15624">
        <ele>153.782806</ele>
        <time>2009-08-13T08:53:55Z</time>
      </trkpt>
      <trkpt lat="44.46946" lon="1.15626">
        <ele>154.148102</ele>
        <time>2009-08-13T08:53:59Z</time>
      </trkpt>
      <trkpt lat="44.46942" lon="1.15628">
        <ele>154.652924</ele>
        <time>2009-08-13T08:54:02Z</time>
      </trkpt>
      <trkpt lat="44.46937" lon="1.15629">
        <ele>155.158554</ele>
        <time>2009-08-13T08:54:06Z</time>
      </trkpt>
      <trkpt lat="44.46933" lon="1.15632">
        <ele>155.643631</ele>
        <time>2009-08-13T08:54:09Z</time>
      </trkpt>
      <trkpt lat="44.4693" lon="1.15633">
        <ele>156.054092</ele>
        <time>2009-08-13T08:54:12Z</time>
      </trkpt>
      <trkpt lat="44.46926" lon="1.15634">
        <ele>156.430359</ele>
        <time>2009-08-13T08:54:15Z</time>
      </trkpt>
      <trkpt lat="44.46924" lon="1.15635">
        <ele>156.722992</ele>
        <time>2009-08-13T08:54:19Z</time>
      </trkpt>
      <trkpt lat="44.46919" lon="1.15638">
        <ele>157.36499</ele>
        <time>2009-08-13T08:54:24Z</time>
      </trkpt>
      <trkpt lat="44.46915" lon="1.15641">
        <ele>157.860977</ele>
        <time>2009-08-13T08:54:27Z</time>
      </trkpt>
      <trkpt lat="44.46912" lon="1.15643">
        <ele>158.277435</ele>
        <time>2009-08-13T08:54:30Z</time>
      </trkpt>
      <trkpt lat="44.46909" lon="1.15645">
        <ele>158.736526</ele>
        <time>2009-08-13T08:54:34Z</time>
      </trkpt>
      <trkpt lat="44.46904" lon="1.15648">
        <ele>159.291641</ele>
        <time>2009-08-13T08:54:38Z</time>
      </trkpt>
      <trkpt lat="44.46902" lon="1.1565">
        <ele>159.718933</ele>
        <time>2009-08-13T08:54:41Z</time>
      </trkpt>
      <trkpt lat="44.46898" lon="1.15653">
        <ele>160.187378</ele>
        <time>2009-08-13T08:54:45Z</time>
      </trkpt>
      <trkpt lat="44.46895" lon="1.15654">
        <ele>160.608994</ele>
        <time>2009-08-13T08:54:49Z</time>
      </trkpt>
      <trkpt lat="44.4689" lon="1.15657">
        <ele>161.290848</ele>
        <time>2009-08-13T08:54:54Z</time>
      </trkpt>
      <trkpt lat="44.46885" lon="1.1566">
        <ele>161.958908</ele>
        <time>2009-08-13T08:54:59Z</time>
      </trkpt>
      <trkpt lat="44.46882" lon="1.15662">
        <ele>162.400635</ele>
        <time>2009-08-13T08:55:03Z</time>
      </trkpt>
      <trkpt lat="44.46881" lon="1.15662">
        <ele>162.600418</ele>
        <time>2009-08-13T08:55:06Z</time>
      </trkpt>
      <trkpt lat="44.46876" lon="1.15663">
        <ele>163.111099</ele>
        <time>2009-08-13T08:55:11Z</time>
      </trkpt>
      <trkpt lat="44.46873" lon="1.15664">
        <ele>163.534195</ele>
        <time>2009-08-13T08:55:15Z</time>
      </trkpt>
      <trkpt lat="44.46869" lon="1.15665">
        <ele>163.973877</ele>
        <time>2009-08-13T08:55:18Z</time>
      </trkpt>
      <trkpt lat="44.46866" lon="1.15666">
        <ele>164.406174</ele>
        <time>2009-08-13T08:55:21Z</time>
      </trkpt>
      <trkpt lat="44.46862" lon="1.15667">
        <ele>164.867889</ele>
        <time>2009-08-13T08:55:24Z</time>
      </trkpt>
      <trkpt lat="44.46858" lon="1.15668">
        <ele>165.456421</ele>
        <time>2009-08-13T08:55:28Z</time>
      </trkpt>
      <trkpt lat="44.46853" lon="1.15669">
        <ele>166.268829</ele>
        <time>2009-08-13T08:55:32Z</time>
      </trkpt>
      <trkpt lat="44.46849" lon="1.15669">
        <ele>166.776245</ele>
        <time>2009-08-13T08:55:35Z</time>
      </trkpt>
      <trkpt lat="44.46846" lon="1.15669">
        <ele>167.314651</ele>
        <time>2009-08-13T08:55:38Z</time>
      </trkpt>
      <trkpt lat="44.46842" lon="1.15671">
        <ele>167.973465</ele>
        <time>2009-08-13T08:55:42Z</time>
      </trkpt>
      <trkpt lat="44.46838" lon="1.15673">
        <ele>168.503647</ele>
        <time>2009-08-13T08:55:45Z</time>
      </trkpt>
      <trkpt lat="44.46834" lon="1.15674">
        <ele>169.167923</ele>
        <time>2009-08-13T08:55:48Z</time>
      </trkpt>
      <trkpt lat="44.46831" lon="1.15674">
        <ele>169.66272</ele>
        <time>2009-08-13T08:55:51Z</time>
      </trkpt>
      <trkpt lat="44.46826" lon="1.15674">
        <ele>170.366898</ele>
        <time>2009-08-13T08:55:54Z</time>
      </trkpt>
      <trkpt lat="44.46822" lon="1.15674">
        <ele>170.969315</ele>
        <time>2009-08-13T08:55:57Z</time>
      </trkpt>
      <trkpt lat="44.46819" lon="1.15673">
        <ele>171.500381</ele>
        <time>2009-08-13T08:56:00Z</time>
      </trkpt>
      <trkpt lat="44.46814" lon="1.15673">
        <ele>172.195007</ele>
        <time>2009-08-13T08:56:04Z</time>
      </trkpt>
      <trkpt lat="44.46809" lon="1.15673">
        <ele>172.929993</ele>
        <time>2009-08-13T08:56:07Z</time>
      </trkpt>
      <trkpt lat="44.46804" lon="1.15673">
        <ele>173.559998</ele>
        <time>2009-08-13T08:56:11Z</time>
      </trkpt>
      <trkpt lat="44.46799" lon="1.15672">
        <ele>174.264999</ele>
        <time>2009-08-13T08:56:14Z</time>
      </trkpt>
      <trkpt lat="44.46793" lon="1.1567">
        <ele>175.029999</ele>
        <time>2009-08-13T08:56:18Z</time>
      </trkpt>
      <trkpt lat="44.46788" lon="1.15671">
        <ele>175.705002</ele>
        <time>2009-08-13T08:56:22Z</time>
      </trkpt>
      <trkpt lat="44.46783" lon="1.15672">
        <ele>176.289993</ele>
        <time>2009-08-13T08:56:26Z</time>
      </trkpt>
      <trkpt lat="44.4678" lon="1.15671">
        <ele>176.755005</ele>
        <time>2009-08-13T08:56:29Z</time>
      </trkpt>
      <trkpt lat="44.46776" lon="1.15672">
        <ele>177.264999</ele>
        <time>2009-08-13T08:56:32Z</time>
      </trkpt>
      <trkpt lat="44.46772" lon="1.15673">
        <ele>177.759995</ele>
        <time>2009-08-13T08:56:35Z</time>
      </trkpt>
      <trkpt lat="44.4677" lon="1.15673">
        <ele>178.040085</ele>
        <time>2009-08-13T08:56:38Z</time>
      </trkpt>
      <trkpt lat="44.46766" lon="1.15674">
        <ele>178.232056</ele>
        <time>2009-08-13T08:56:42Z</time>
      </trkpt>
      <trkpt lat="44.46763" lon="1.15675">
        <ele>178.397812</ele>
        <time>2009-08-13T08:56:45Z</time>
      </trkpt>
      <trkpt lat="44.46758" lon="1.15675">
        <ele>178.669342</ele>
        <time>2009-08-13T08:56:49Z</time>
      </trkpt>
      <trkpt lat="44.46754" lon="1.15676">
        <ele>178.866379</ele>
        <time>2009-08-13T08:56:52Z</time>
      </trkpt>
      <trkpt lat="44.4675" lon="1.15675">
        <ele>179.086456</ele>
        <time>2009-08-13T08:56:55Z</time>
      </trkpt>
      <trkpt lat="44.46746" lon="1.15676">
        <ele>179.335556</ele>
        <time>2009-08-13T08:56:58Z</time>
      </trkpt>
      <trkpt lat="44.46742" lon="1.15676">
        <ele>179.5224</ele>
        <time>2009-08-13T08:57:02Z</time>
      </trkpt>
      <trkpt lat="44.46736" lon="1.15677">
        <ele>179.862778</ele>
        <time>2009-08-13T08:57:06Z</time>
      </trkpt>
      <trkpt lat="44.46732" lon="1.15679">
        <ele>180.172775</ele>
        <time>2009-08-13T08:57:09Z</time>
      </trkpt>
      <trkpt lat="44.46725" lon="1.15681">
        <ele>180.630005</ele>
        <time>2009-08-13T08:57:12Z</time>
      </trkpt>
      <trkpt lat="44.46721" lon="1.15682">
        <ele>180.863129</ele>
        <time>2009-08-13T08:57:15Z</time>
      </trkpt>
      <trkpt lat="44.46717" lon="1.15683">
        <ele>181.096252</ele>
        <time>2009-08-13T08:57:18Z</time>
      </trkpt>
      <trkpt lat="44.46711" lon="1.15686">
        <ele>181.475632</ele>
        <time>2009-08-13T08:57:23Z</time>
      </trkpt>
      <trkpt lat="44.46706" lon="1.15687">
        <ele>181.743118</ele>
        <time>2009-08-13T08:57:26Z</time>
      </trkpt>
      <trkpt lat="44.46701" lon="1.15688">
        <ele>182.033752</ele>
        <time>2009-08-13T08:57:29Z</time>
      </trkpt>
      <trkpt lat="44.46695" lon="1.15689">
        <ele>182.293121</ele>
        <time>2009-08-13T08:57:32Z</time>
      </trkpt>
      <trkpt lat="44.46688" lon="1.1569">
        <ele>182.701248</ele>
        <time>2009-08-13T08:57:35Z</time>
      </trkpt>
      <trkpt lat="44.46683" lon="1.15691">
        <ele>182.940628</ele>
        <time>2009-08-13T08:57:38Z</time>
      </trkpt>
      <trkpt lat="44.46676" lon="1.15692">
        <ele>183.352417</ele>
        <time>2009-08-13T08:57:41Z</time>
      </trkpt>
      <trkpt lat="44.46671" lon="1.15693">
        <ele>183.716003</ele>
        <time>2009-08-13T08:57:44Z</time>
      </trkpt>
      <trkpt lat="44.46666" lon="1.15694">
        <ele>184.062668</ele>
        <time>2009-08-13T08:57:47Z</time>
      </trkpt>
      <trkpt lat="44.46661" lon="1.15695">
        <ele>184.392212</ele>
        <time>2009-08-13T08:57:50Z</time>
      </trkpt>
      <trkpt lat="44.46656" lon="1.15697">
        <ele>184.701675</ele>
        <time>2009-08-13T08:57:53Z</time>
      </trkpt>
      <trkpt lat="44.46651" lon="1.15699">
        <ele>185.086121</ele>
        <time>2009-08-13T08:57:56Z</time>
      </trkpt>
      <trkpt lat="44.46647" lon="1.157">
        <ele>185.37059</ele>
        <time>2009-08-13T08:58:00Z</time>
      </trkpt>
      <trkpt lat="44.46641" lon="1.15704">
        <ele>185.834854</ele>
        <time>2009-08-13T08:58:04Z</time>
      </trkpt>
      <trkpt lat="44.46632" lon="1.15709">
        <ele>186.259048</ele>
        <time>2009-08-13T08:58:09Z</time>
      </trkpt>
      <trkpt lat="44.46626" lon="1.15714">
        <ele>186.461136</ele>
        <time>2009-08-13T08:58:12Z</time>
      </trkpt>
      <trkpt lat="44.4662" lon="1.15718">
        <ele>186.682953</ele>
        <time>2009-08-13T08:58:16Z</time>
      </trkpt>
      <trkpt lat="44.46615" lon="1.1572">
        <ele>186.850372</ele>
        <time>2009-08-13T08:58:19Z</time>
      </trkpt>
      <trkpt lat="44.46609" lon="1.15723">
        <ele>187.054352</ele>
        <time>2009-08-13T08:58:22Z</time>
      </trkpt>
      <trkpt lat="44.46605" lon="1.15727">
        <ele>187.318039</ele>
        <time>2009-08-13T08:58:25Z</time>
      </trkpt>
      <trkpt lat="44.46601" lon="1.1573">
        <ele>187.608765</ele>
        <time>2009-08-13T08:58:28Z</time>
      </trkpt>
      <trkpt lat="44.46596" lon="1.15734">
        <ele>187.906006</ele>
        <time>2009-08-13T08:58:31Z</time>
      </trkpt>
      <trkpt lat="44.4659" lon="1.15737">
        <ele>188.093399</ele>
        <time>2009-08-13T08:58:34Z</time>
      </trkpt>
      <trkpt lat="44.46585" lon="1.1574">
        <ele>188.25383</ele>
        <time>2009-08-13T08:58:37Z</time>
      </trkpt>
      <trkpt lat="44.4658" lon="1.15743">
        <ele>188.498108</ele>
        <time>2009-08-13T08:58:40Z</time>
      </trkpt>
      <trkpt lat="44.46574" lon="1.1575">
        <ele>189.052277</ele>
        <time>2009-08-13T08:58:45Z</time>
      </trkpt>
      <trkpt lat="44.46572" lon="1.15758">
        <ele>189.737396</ele>
        <time>2009-08-13T08:58:49Z</time>
      </trkpt>
      <trkpt lat="44.4657" lon="1.15767">
        <ele>190.510147</ele>
        <time>2009-08-13T08:58:52Z</time>
      </trkpt>
      <trkpt lat="44.46569" lon="1.15773">
        <ele>191.140366</ele>
        <time>2009-08-13T08:58:55Z</time>
      </trkpt>
      <trkpt lat="44.46568" lon="1.15779">
        <ele>191.717133</ele>
        <time>2009-08-13T08:58:58Z</time>
      </trkpt>
      <trkpt lat="44.46567" lon="1.15785">
        <ele>192.343674</ele>
        <time>2009-08-13T08:59:01Z</time>
      </trkpt>
      <trkpt lat="44.46565" lon="1.1579">
        <ele>192.940979</ele>
        <time>2009-08-13T08:59:04Z</time>
      </trkpt>
      <trkpt lat="44.46564" lon="1.15796">
        <ele>193.620621</ele>
        <time>2009-08-13T08:59:07Z</time>
      </trkpt>
      <trkpt lat="44.46563" lon="1.15799">
        <ele>193.851364</ele>
        <time>2009-08-13T08:59:10Z</time>
      </trkpt>
      <trkpt lat="44.46559" lon="1.15803">
        <ele>194.317307</ele>
        <time>2009-08-13T08:59:15Z</time>
      </trkpt>
      <trkpt lat="44.46557" lon="1.15806">
        <ele>194.57016</ele>
        <time>2009-08-13T08:59:35Z</time>
      </trkpt>
      <trkpt lat="44.46555" lon="1.15808">
        <ele>194.956375</ele>
        <time>2009-08-13T08:59:39Z</time>
      </trkpt>
      <trkpt lat="44.46551" lon="1.15808">
        <ele>195.42952</ele>
        <time>2009-08-13T08:59:43Z</time>
      </trkpt>
      <trkpt lat="44.46548" lon="1.15809">
        <ele>195.872772</ele>
        <time>2009-08-13T08:59:47Z</time>
      </trkpt>
      <trkpt lat="44.46545" lon="1.15812">
        <ele>196.266693</ele>
        <time>2009-08-13T08:59:51Z</time>
      </trkpt>
      <trkpt lat="44.46542" lon="1.15813">
        <ele>196.5625</ele>
        <time>2009-08-13T08:59:55Z</time>
      </trkpt>
      <trkpt lat="44.46539" lon="1.15816">
        <ele>196.879486</ele>
        <time>2009-08-13T08:59:59Z</time>
      </trkpt>
      <trkpt lat="44.46535" lon="1.15818">
        <ele>197.226944</ele>
        <time>2009-08-13T09:00:03Z</time>
      </trkpt>
      <trkpt lat="44.46533" lon="1.15818">
        <ele>197.441879</ele>
        <time>2009-08-13T09:00:06Z</time>
      </trkpt>
      <trkpt lat="44.4653" lon="1.1582">
        <ele>197.83934</ele>
        <time>2009-08-13T09:00:10Z</time>
      </trkpt>
      <trkpt lat="44.46527" lon="1.15822">
        <ele>198.202072</ele>
        <time>2009-08-13T09:00:13Z</time>
      </trkpt>
      <trkpt lat="44.46523" lon="1.15823">
        <ele>198.590652</ele>
        <time>2009-08-13T09:00:17Z</time>
      </trkpt>
      <trkpt lat="44.4652" lon="1.15824">
        <ele>198.98407</ele>
        <time>2009-08-13T09:00:23Z</time>
      </trkpt>
      <trkpt lat="44.46516" lon="1.15826">
        <ele>199.389786</ele>
        <time>2009-08-13T09:00:27Z</time>
      </trkpt>
      <trkpt lat="44.46513" lon="1.15828">
        <ele>199.786652</ele>
        <time>2009-08-13T09:00:30Z</time>
      </trkpt>
      <trkpt lat="44.46508" lon="1.15829">
        <ele>200.336945</ele>
        <time>2009-08-13T09:00:33Z</time>
      </trkpt>
      <trkpt lat="44.46503" lon="1.1583">
        <ele>200.928467</ele>
        <time>2009-08-13T09:00:37Z</time>
      </trkpt>
      <trkpt lat="44.465" lon="1.15833">
        <ele>201.29512</ele>
        <time>2009-08-13T09:00:41Z</time>
      </trkpt>
      <trkpt lat="44.46497" lon="1.15834">
        <ele>201.602356</ele>
        <time>2009-08-13T09:00:44Z</time>
      </trkpt>
      <trkpt lat="44.46493" lon="1.15836">
        <ele>201.955276</ele>
        <time>2009-08-13T09:00:48Z</time>
      </trkpt>
      <trkpt lat="44.4649" lon="1.15837">
        <ele>202.229843</ele>
        <time>2009-08-13T09:00:51Z</time>
      </trkpt>
      <trkpt lat="44.46486" lon="1.15838">
        <ele>202.562378</ele>
        <time>2009-08-13T09:00:55Z</time>
      </trkpt>
      <trkpt lat="44.46482" lon="1.15839">
        <ele>202.928711</ele>
        <time>2009-08-13T09:01:00Z</time>
      </trkpt>
      <trkpt lat="44.46478" lon="1.15841">
        <ele>203.339371</ele>
        <time>2009-08-13T09:01:03Z</time>
      </trkpt>
      <trkpt lat="44.46474" lon="1.15845">
        <ele>203.82196</ele>
        <time>2009-08-13T09:01:08Z</time>
      </trkpt>
      <trkpt lat="44.4647" lon="1.15847">
        <ele>204.249298</ele>
        <time>2009-08-13T09:01:12Z</time>
      </trkpt>
      <trkpt lat="44.46466" lon="1.15849">
        <ele>204.688889</ele>
        <time>2009-08-13T09:01:15Z</time>
      </trkpt>
      <trkpt lat="44.46462" lon="1.1585">
        <ele>205.062149</ele>
        <time>2009-08-13T09:01:18Z</time>
      </trkpt>
      <trkpt lat="44.46457" lon="1.15853">
        <ele>205.556625</ele>
        <time>2009-08-13T09:01:21Z</time>
      </trkpt>
      <trkpt lat="44.46453" lon="1.15857">
        <ele>205.861206</ele>
        <time>2009-08-13T09:01:25Z</time>
      </trkpt>
      <trkpt lat="44.4645" lon="1.15859">
        <ele>206.020615</ele>
        <time>2009-08-13T09:01:29Z</time>
      </trkpt>
      <trkpt lat="44.46445" lon="1.15863">
        <ele>206.287506</ele>
        <time>2009-08-13T09:01:32Z</time>
      </trkpt>
      <trkpt lat="44.4644" lon="1.15868">
        <ele>206.402496</ele>
        <time>2009-08-13T09:01:36Z</time>
      </trkpt>
      <trkpt lat="44.46436" lon="1.15873">
        <ele>206.497498</ele>
        <time>2009-08-13T09:01:39Z</time>
      </trkpt>
      <trkpt lat="44.46431" lon="1.15878">
        <ele>206.592499</ele>
        <time>2009-08-13T09:01:42Z</time>
      </trkpt>
      <trkpt lat="44.46427" lon="1.15883">
        <ele>206.695007</ele>
        <time>2009-08-13T09:01:45Z</time>
      </trkpt>
      <trkpt lat="44.46423" lon="1.15888">
        <ele>206.789993</ele>
        <time>2009-08-13T09:01:48Z</time>
      </trkpt>
      <trkpt lat="44.46418" lon="1.15893">
        <ele>206.892502</ele>
        <time>2009-08-13T09:01:51Z</time>
      </trkpt>
      <trkpt lat="44.46413" lon="1.15898">
        <ele>206.993225</ele>
        <time>2009-08-13T09:01:54Z</time>
      </trkpt>
      <trkpt lat="44.46409" lon="1.15902">
        <ele>206.922745</ele>
        <time>2009-08-13T09:01:58Z</time>
      </trkpt>
      <trkpt lat="44.46403" lon="1.15908">
        <ele>206.871185</ele>
        <time>2009-08-13T09:02:02Z</time>
      </trkpt>
      <trkpt lat="44.46398" lon="1.15915">
        <ele>206.873642</ele>
        <time>2009-08-13T09:02:05Z</time>
      </trkpt>
      <trkpt lat="44.46394" lon="1.1592">
        <ele>206.915527</ele>
        <time>2009-08-13T09:02:08Z</time>
      </trkpt>
      <trkpt lat="44.46391" lon="1.15925">
        <ele>206.973221</ele>
        <time>2009-08-13T09:02:12Z</time>
      </trkpt>
      <trkpt lat="44.46383" lon="1.15934">
        <ele>206.839523</ele>
        <time>2009-08-13T09:02:16Z</time>
      </trkpt>
      <trkpt lat="44.46377" lon="1.15942">
        <ele>206.712128</ele>
        <time>2009-08-13T09:02:19Z</time>
      </trkpt>
      <trkpt lat="44.4637" lon="1.15952">
        <ele>206.590286</ele>
        <time>2009-08-13T09:02:22Z</time>
      </trkpt>
      <trkpt lat="44.46364" lon="1.15963">
        <ele>206.338211</ele>
        <time>2009-08-13T09:02:25Z</time>
      </trkpt>
      <trkpt lat="44.46359" lon="1.15977">
        <ele>206.117584</ele>
        <time>2009-08-13T09:02:29Z</time>
      </trkpt>
      <trkpt lat="44.46351" lon="1.15994">
        <ele>205.889343</ele>
        <time>2009-08-13T09:02:32Z</time>
      </trkpt>
      <trkpt lat="44.46344" lon="1.16006">
        <ele>205.647812</ele>
        <time>2009-08-13T09:02:35Z</time>
      </trkpt>
      <trkpt lat="44.46337" lon="1.16016">
        <ele>205.47818</ele>
        <time>2009-08-13T09:02:38Z</time>
      </trkpt>
      <trkpt lat="44.4633" lon="1.16026">
        <ele>205.370697</ele>
        <time>2009-08-13T09:02:41Z</time>
      </trkpt>
      <trkpt lat="44.46324" lon="1.16036">
        <ele>205.242645</ele>
        <time>2009-08-13T09:02:45Z</time>
      </trkpt>
      <trkpt lat="44.46317" lon="1.16047">
        <ele>204.911438</ele>
        <time>2009-08-13T09:02:48Z</time>
      </trkpt>
      <trkpt lat="44.4631" lon="1.1606">
        <ele>204.604919</ele>
        <time>2009-08-13T09:02:51Z</time>
      </trkpt>
      <trkpt lat="44.463" lon="1.16077">
        <ele>204.279678</ele>
        <time>2009-08-13T09:02:54Z</time>
      </trkpt>
      <trkpt lat="44.46295" lon="1.16089">
        <ele>204.143478</ele>
        <time>2009-08-13T09:02:58Z</time>
      </trkpt>
      <trkpt lat="44.46287" lon="1.16107">
        <ele>204.025162</ele>
        <time>2009-08-13T09:03:01Z</time>
      </trkpt>
      <trkpt lat="44.46281" lon="1.16121">
        <ele>203.999557</ele>
        <time>2009-08-13T09:03:04Z</time>
      </trkpt>
      <trkpt lat="44.46276" lon="1.16135">
        <ele>203.764999</ele>
        <time>2009-08-13T09:03:07Z</time>
      </trkpt>
      <trkpt lat="44.46269" lon="1.16149">
        <ele>203.445007</ele>
        <time>2009-08-13T09:03:10Z</time>
      </trkpt>
      <trkpt lat="44.46262" lon="1.16162">
        <ele>203.160004</ele>
        <time>2009-08-13T09:03:14Z</time>
      </trkpt>
      <trkpt lat="44.46257" lon="1.16177">
        <ele>202.899994</ele>
        <time>2009-08-13T09:03:17Z</time>
      </trkpt>
      <trkpt lat="44.46249" lon="1.16194">
        <ele>202.486237</ele>
        <time>2009-08-13T09:03:20Z</time>
      </trkpt>
      <trkpt lat="44.46242" lon="1.16216">
        <ele>202.15799</ele>
        <time>2009-08-13T09:03:23Z</time>
      </trkpt>
      <trkpt lat="44.46235" lon="1.16233">
        <ele>201.980591</ele>
        <time>2009-08-13T09:03:26Z</time>
      </trkpt>
      <trkpt lat="44.4623" lon="1.16249">
        <ele>202</ele>
        <time>2009-08-13T09:03:29Z</time>
      </trkpt>
      <trkpt lat="44.46222" lon="1.16263">
        <ele>202</ele>
        <time>2009-08-13T09:03:33Z</time>
      </trkpt>
      <trkpt lat="44.46212" lon="1.16275">
        <ele>202</ele>
        <time>2009-08-13T09:03:36Z</time>
      </trkpt>
      <trkpt lat="44.46203" lon="1.16281">
        <ele>202</ele>
        <time>2009-08-13T09:03:39Z</time>
      </trkpt>
      <trkpt lat="44.46192" lon="1.16283">
        <ele>202.024277</ele>
        <time>2009-08-13T09:03:42Z</time>
      </trkpt>
      <trkpt lat="44.46183" lon="1.16286">
        <ele>202.340683</ele>
        <time>2009-08-13T09:03:45Z</time>
      </trkpt>
      <trkpt lat="44.46174" lon="1.1629">
        <ele>202.697586</ele>
        <time>2009-08-13T09:03:48Z</time>
      </trkpt>
      <trkpt lat="44.46165" lon="1.16292">
        <ele>203.060638</ele>
        <time>2009-08-13T09:03:52Z</time>
      </trkpt>
      <trkpt lat="44.46156" lon="1.16295">
        <ele>203.463699</ele>
        <time>2009-08-13T09:03:55Z</time>
      </trkpt>
      <trkpt lat="44.46142" lon="1.16299">
        <ele>203.890381</ele>
        <time>2009-08-13T09:03:58Z</time>
      </trkpt>
      <trkpt lat="44.46129" lon="1.16303">
        <ele>203.986603</ele>
        <time>2009-08-13T09:04:02Z</time>
      </trkpt>
      <trkpt lat="44.46118" lon="1.16306">
        <ele>204.015305</ele>
        <time>2009-08-13T09:04:06Z</time>
      </trkpt>
      <trkpt lat="44.46108" lon="1.16308">
        <ele>204.015579</ele>
        <time>2009-08-13T09:04:09Z</time>
      </trkpt>
      <trkpt lat="44.46099" lon="1.16309">
        <ele>203.994232</ele>
        <time>2009-08-13T09:04:12Z</time>
      </trkpt>
      <trkpt lat="44.46092" lon="1.1631">
        <ele>203.949265</ele>
        <time>2009-08-13T09:04:16Z</time>
      </trkpt>
      <trkpt lat="44.46084" lon="1.16312">
        <ele>203.890671</ele>
        <time>2009-08-13T09:04:19Z</time>
      </trkpt>
      <trkpt lat="44.46073" lon="1.16313">
        <ele>203.836914</ele>
        <time>2009-08-13T09:04:22Z</time>
      </trkpt>
      <trkpt lat="44.46065" lon="1.16314">
        <ele>203.779343</ele>
        <time>2009-08-13T09:04:25Z</time>
      </trkpt>
      <trkpt lat="44.46058" lon="1.16314">
        <ele>203.735504</ele>
        <time>2009-08-13T09:04:28Z</time>
      </trkpt>
      <trkpt lat="44.46051" lon="1.16317">
        <ele>203.628189</ele>
        <time>2009-08-13T09:04:31Z</time>
      </trkpt>
      <trkpt lat="44.46044" lon="1.1632">
        <ele>203.476669</ele>
        <time>2009-08-13T09:04:35Z</time>
      </trkpt>
      <trkpt lat="44.46038" lon="1.16325">
        <ele>203.285446</ele>
        <time>2009-08-13T09:04:38Z</time>
      </trkpt>
      <trkpt lat="44.46029" lon="1.16334">
        <ele>203.023331</ele>
        <time>2009-08-13T09:04:41Z</time>
      </trkpt>
      <trkpt lat="44.46021" lon="1.1634">
        <ele>202.921524</ele>
        <time>2009-08-13T09:04:44Z</time>
      </trkpt>
      <trkpt lat="44.46013" lon="1.16345">
        <ele>202.931625</ele>
        <time>2009-08-13T09:04:47Z</time>
      </trkpt>
      <trkpt lat="44.46007" lon="1.16349">
        <ele>202.969574</ele>
        <time>2009-08-13T09:04:50Z</time>
      </trkpt>
      <trkpt lat="44.46" lon="1.16354">
        <ele>203.053253</ele>
        <time>2009-08-13T09:04:54Z</time>
      </trkpt>
      <trkpt lat="44.45991" lon="1.16359">
        <ele>203.234314</ele>
        <time>2009-08-13T09:04:57Z</time>
      </trkpt>
      <trkpt lat="44.45981" lon="1.16366">
        <ele>203.522186</ele>
        <time>2009-08-13T09:05:00Z</time>
      </trkpt>
      <trkpt lat="44.45971" lon="1.16372">
        <ele>203.90419</ele>
        <time>2009-08-13T09:05:03Z</time>
      </trkpt>
      <trkpt lat="44.45963" lon="1.16379">
        <ele>203.925552</ele>
        <time>2009-08-13T09:05:06Z</time>
      </trkpt>
      <trkpt lat="44.45955" lon="1.16385">
        <ele>203.874756</ele>
        <time>2009-08-13T09:05:09Z</time>
      </trkpt>
      <trkpt lat="44.45949" lon="1.16392">
        <ele>203.842514</ele>
        <time>2009-08-13T09:05:13Z</time>
      </trkpt>
      <trkpt lat="44.4594" lon="1.16401">
        <ele>204.037308</ele>
        <time>2009-08-13T09:05:16Z</time>
      </trkpt>
      <trkpt lat="44.45931" lon="1.1641">
        <ele>204.534195</ele>
        <time>2009-08-13T09:05:19Z</time>
      </trkpt>
      <trkpt lat="44.45923" lon="1.16416">
        <ele>205.003769</ele>
        <time>2009-08-13T09:05:22Z</time>
      </trkpt>
      <trkpt lat="44.45917" lon="1.16423">
        <ele>205.11763</ele>
        <time>2009-08-13T09:05:25Z</time>
      </trkpt>
      <trkpt lat="44.45912" lon="1.16429">
        <ele>205.352249</ele>
        <time>2009-08-13T09:05:28Z</time>
      </trkpt>
      <trkpt lat="44.45906" lon="1.16435">
        <ele>205.697357</ele>
        <time>2009-08-13T09:05:32Z</time>
      </trkpt>
      <trkpt lat="44.45901" lon="1.16441">
        <ele>206.040451</ele>
        <time>2009-08-13T09:05:35Z</time>
      </trkpt>
      <trkpt lat="44.45895" lon="1.16448">
        <ele>206.469299</ele>
        <time>2009-08-13T09:05:38Z</time>
      </trkpt>
      <trkpt lat="44.4589" lon="1.16453">
        <ele>206.840607</ele>
        <time>2009-08-13T09:05:41Z</time>
      </trkpt>
      <trkpt lat="44.45884" lon="1.16459">
        <ele>207.32814</ele>
        <time>2009-08-13T09:05:44Z</time>
      </trkpt>
      <trkpt lat="44.45878" lon="1.16465">
        <ele>207.873276</ele>
        <time>2009-08-13T09:05:47Z</time>
      </trkpt>
      <trkpt lat="44.45871" lon="1.1647">
        <ele>208.457382</ele>
        <time>2009-08-13T09:05:51Z</time>
      </trkpt>
      <trkpt lat="44.45864" lon="1.16474">
        <ele>208.991516</ele>
        <time>2009-08-13T09:05:54Z</time>
      </trkpt>
      <trkpt lat="44.45855" lon="1.1648">
        <ele>209.742203</ele>
        <time>2009-08-13T09:05:57Z</time>
      </trkpt>
      <trkpt lat="44.45848" lon="1.16485">
        <ele>210.362732</ele>
        <time>2009-08-13T09:06:00Z</time>
      </trkpt>
      <trkpt lat="44.45839" lon="1.16489">
        <ele>211.089478</ele>
        <time>2009-08-13T09:06:04Z</time>
      </trkpt>
      <trkpt lat="44.45833" lon="1.16494">
        <ele>211.61084</ele>
        <time>2009-08-13T09:06:08Z</time>
      </trkpt>
      <trkpt lat="44.45827" lon="1.165">
        <ele>211.996033</ele>
        <time>2009-08-13T09:06:11Z</time>
      </trkpt>
      <trkpt lat="44.45817" lon="1.16504">
        <ele>212.387848</ele>
        <time>2009-08-13T09:06:14Z</time>
      </trkpt>
      <trkpt lat="44.45809" lon="1.16508">
        <ele>212.438568</ele>
        <time>2009-08-13T09:06:17Z</time>
      </trkpt>
      <trkpt lat="44.45803" lon="1.16512">
        <ele>212.533188</ele>
        <time>2009-08-13T09:06:20Z</time>
      </trkpt>
      <trkpt lat="44.45796" lon="1.16514">
        <ele>212.68335</ele>
        <time>2009-08-13T09:06:24Z</time>
      </trkpt>
      <trkpt lat="44.45788" lon="1.16517">
        <ele>212.810715</ele>
        <time>2009-08-13T09:06:27Z</time>
      </trkpt>
      <trkpt lat="44.45779" lon="1.16523">
        <ele>212.852814</ele>
        <time>2009-08-13T09:06:30Z</time>
      </trkpt>
      <trkpt lat="44.45772" lon="1.16527">
        <ele>212.932709</ele>
        <time>2009-08-13T09:06:34Z</time>
      </trkpt>
      <trkpt lat="44.45765" lon="1.16532">
        <ele>213.06134</ele>
        <time>2009-08-13T09:06:37Z</time>
      </trkpt>
      <trkpt lat="44.45754" lon="1.16539">
        <ele>213.34375</ele>
        <time>2009-08-13T09:06:40Z</time>
      </trkpt>
      <trkpt lat="44.45747" lon="1.16545">
        <ele>213.608398</ele>
        <time>2009-08-13T09:06:43Z</time>
      </trkpt>
      <trkpt lat="44.45737" lon="1.16551">
        <ele>213.822266</ele>
        <time>2009-08-13T09:06:46Z</time>
      </trkpt>
      <trkpt lat="44.45728" lon="1.16557">
        <ele>214.069107</ele>
        <time>2009-08-13T09:06:49Z</time>
      </trkpt>
      <trkpt lat="44.4572" lon="1.16563">
        <ele>214.383469</ele>
        <time>2009-08-13T09:06:52Z</time>
      </trkpt>
      <trkpt lat="44.45712" lon="1.16568">
        <ele>214.7341</ele>
        <time>2009-08-13T09:06:56Z</time>
      </trkpt>
      <trkpt lat="44.45705" lon="1.16573">
        <ele>214.760696</ele>
        <time>2009-08-13T09:06:59Z</time>
      </trkpt>
      <trkpt lat="44.45696" lon="1.16581">
        <ele>214.686768</ele>
        <time>2009-08-13T09:07:02Z</time>
      </trkpt>
      <trkpt lat="44.45689" lon="1.16588">
        <ele>214.636246</ele>
        <time>2009-08-13T09:07:05Z</time>
      </trkpt>
      <trkpt lat="44.45683" lon="1.16594">
        <ele>214.693451</ele>
        <time>2009-08-13T09:07:08Z</time>
      </trkpt>
      <trkpt lat="44.45675" lon="1.166">
        <ele>214.867416</ele>
        <time>2009-08-13T09:07:11Z</time>
      </trkpt>
      <trkpt lat="44.45668" lon="1.16607">
        <ele>215.12146</ele>
        <time>2009-08-13T09:07:15Z</time>
      </trkpt>
      <trkpt lat="44.45661" lon="1.16613">
        <ele>215.461456</ele>
        <time>2009-08-13T09:07:18Z</time>
      </trkpt>
      <trkpt lat="44.45653" lon="1.16619">
        <ele>215.794052</ele>
        <time>2009-08-13T09:07:21Z</time>
      </trkpt>
      <trkpt lat="44.45648" lon="1.16623">
        <ele>215.921005</ele>
        <time>2009-08-13T09:07:24Z</time>
      </trkpt>
      <trkpt lat="44.45643" lon="1.16629">
        <ele>216.166245</ele>
        <time>2009-08-13T09:07:27Z</time>
      </trkpt>
      <trkpt lat="44.45637" lon="1.16635">
        <ele>216.414993</ele>
        <time>2009-08-13T09:07:30Z</time>
      </trkpt>
      <trkpt lat="44.45632" lon="1.16641">
        <ele>216.52504</ele>
        <time>2009-08-13T09:07:34Z</time>
      </trkpt>
      <trkpt lat="44.45625" lon="1.16648">
        <ele>216.814194</ele>
        <time>2009-08-13T09:07:37Z</time>
      </trkpt>
      <trkpt lat="44.4562" lon="1.16655">
        <ele>217.179733</ele>
        <time>2009-08-13T09:07:40Z</time>
      </trkpt>
      <trkpt lat="44.45616" lon="1.16661">
        <ele>217.584</ele>
        <time>2009-08-13T09:07:43Z</time>
      </trkpt>
      <trkpt lat="44.45611" lon="1.16667">
        <ele>218.071884</ele>
        <time>2009-08-13T09:07:46Z</time>
      </trkpt>
      <trkpt lat="44.45603" lon="1.16677">
        <ele>218.523468</ele>
        <time>2009-08-13T09:07:49Z</time>
      </trkpt>
      <trkpt lat="44.45595" lon="1.16683">
        <ele>219.033066</ele>
        <time>2009-08-13T09:07:52Z</time>
      </trkpt>
      <trkpt lat="44.45587" lon="1.16689">
        <ele>219.597168</ele>
        <time>2009-08-13T09:07:55Z</time>
      </trkpt>
      <trkpt lat="44.45581" lon="1.16694">
        <ele>220.217194</ele>
        <time>2009-08-13T09:07:58Z</time>
      </trkpt>
      <trkpt lat="44.45575" lon="1.16699">
        <ele>220.680542</ele>
        <time>2009-08-13T09:08:02Z</time>
      </trkpt>
      <trkpt lat="44.45568" lon="1.16703">
        <ele>221.051453</ele>
        <time>2009-08-13T09:08:05Z</time>
      </trkpt>
      <trkpt lat="44.4556" lon="1.1671">
        <ele>221.278885</ele>
        <time>2009-08-13T09:08:08Z</time>
      </trkpt>
      <trkpt lat="44.45554" lon="1.16715">
        <ele>221.454147</ele>
        <time>2009-08-13T09:08:11Z</time>
      </trkpt>
      <trkpt lat="44.45546" lon="1.16721">
        <ele>221.714783</ele>
        <time>2009-08-13T09:08:15Z</time>
      </trkpt>
      <trkpt lat="44.45538" lon="1.16725">
        <ele>221.988266</ele>
        <time>2009-08-13T09:08:19Z</time>
      </trkpt>
      <trkpt lat="44.45533" lon="1.16727">
        <ele>222.193848</ele>
        <time>2009-08-13T09:08:23Z</time>
      </trkpt>
      <trkpt lat="44.45526" lon="1.16729">
        <ele>222.390488</ele>
        <time>2009-08-13T09:08:27Z</time>
      </trkpt>
      <trkpt lat="44.45522" lon="1.16731">
        <ele>222.539322</ele>
        <time>2009-08-13T09:08:30Z</time>
      </trkpt>
      <trkpt lat="44.45512" lon="1.16736">
        <ele>222.609665</ele>
        <time>2009-08-13T09:08:33Z</time>
      </trkpt>
      <trkpt lat="44.45506" lon="1.16738">
        <ele>222.60733</ele>
        <time>2009-08-13T09:08:36Z</time>
      </trkpt>
      <trkpt lat="44.45501" lon="1.16739">
        <ele>222.586395</ele>
        <time>2009-08-13T09:08:40Z</time>
      </trkpt>
      <trkpt lat="44.45496" lon="1.16742">
        <ele>222.691193</ele>
        <time>2009-08-13T09:08:43Z</time>
      </trkpt>
      <trkpt lat="44.45491" lon="1.16743">
        <ele>222.726379</ele>
        <time>2009-08-13T09:08:47Z</time>
      </trkpt>
      <trkpt lat="44.45485" lon="1.16746">
        <ele>222.822891</ele>
        <time>2009-08-13T09:08:50Z</time>
      </trkpt>
      <trkpt lat="44.45478" lon="1.16748">
        <ele>222.895065</ele>
        <time>2009-08-13T09:08:53Z</time>
      </trkpt>
      <trkpt lat="44.45474" lon="1.16748">
        <ele>222.726471</ele>
        <time>2009-08-13T09:08:57Z</time>
      </trkpt>
      <trkpt lat="44.45467" lon="1.16753">
        <ele>222.766754</ele>
        <time>2009-08-13T09:09:01Z</time>
      </trkpt>
      <trkpt lat="44.45461" lon="1.16759">
        <ele>222.974213</ele>
        <time>2009-08-13T09:09:05Z</time>
      </trkpt>
      <trkpt lat="44.45456" lon="1.16762">
        <ele>223.019928</ele>
        <time>2009-08-13T09:09:08Z</time>
      </trkpt>
      <trkpt lat="44.45449" lon="1.16767">
        <ele>222.735306</ele>
        <time>2009-08-13T09:09:11Z</time>
      </trkpt>
      <trkpt lat="44.45444" lon="1.16772">
        <ele>222.538971</ele>
        <time>2009-08-13T09:09:14Z</time>
      </trkpt>
      <trkpt lat="44.45436" lon="1.1678">
        <ele>222.368698</ele>
        <time>2009-08-13T09:09:18Z</time>
      </trkpt>
      <trkpt lat="44.45431" lon="1.16787">
        <ele>222.279877</ele>
        <time>2009-08-13T09:09:21Z</time>
      </trkpt>
      <trkpt lat="44.45427" lon="1.16792">
        <ele>222.18396</ele>
        <time>2009-08-13T09:09:24Z</time>
      </trkpt>
      <trkpt lat="44.4542" lon="1.16799">
        <ele>222.031235</ele>
        <time>2009-08-13T09:09:28Z</time>
      </trkpt>
      <trkpt lat="44.45408" lon="1.16806">
        <ele>221.726105</ele>
        <time>2009-08-13T09:09:31Z</time>
      </trkpt>
      <trkpt lat="44.45397" lon="1.16808">
        <ele>221.431534</ele>
        <time>2009-08-13T09:09:35Z</time>
      </trkpt>
      <trkpt lat="44.4539" lon="1.16815">
        <ele>221.511261</ele>
        <time>2009-08-13T09:09:38Z</time>
      </trkpt>
      <trkpt lat="44.45382" lon="1.16822">
        <ele>221.625443</ele>
        <time>2009-08-13T09:09:42Z</time>
      </trkpt>
      <trkpt lat="44.45375" lon="1.1683">
        <ele>221.700745</ele>
        <time>2009-08-13T09:09:45Z</time>
      </trkpt>
      <trkpt lat="44.4536" lon="1.16844">
        <ele>221.53981</ele>
        <time>2009-08-13T09:09:48Z</time>
      </trkpt>
      <trkpt lat="44.45342" lon="1.16865">
        <ele>221.475357</ele>
        <time>2009-08-13T09:09:51Z</time>
      </trkpt>
      <trkpt lat="44.45324" lon="1.16886">
        <ele>221.38121</ele>
        <time>2009-08-13T09:09:54Z</time>
      </trkpt>
      <trkpt lat="44.45307" lon="1.16908">
        <ele>220.810059</ele>
        <time>2009-08-13T09:09:57Z</time>
      </trkpt>
      <trkpt lat="44.45291" lon="1.16927">
        <ele>220.372253</ele>
        <time>2009-08-13T09:10:00Z</time>
      </trkpt>
      <trkpt lat="44.45275" lon="1.16943">
        <ele>220.441315</ele>
        <time>2009-08-13T09:10:03Z</time>
      </trkpt>
      <trkpt lat="44.45254" lon="1.16957">
        <ele>220.795807</ele>
        <time>2009-08-13T09:10:06Z</time>
      </trkpt>
      <trkpt lat="44.45234" lon="1.1697">
        <ele>220.043365</ele>
        <time>2009-08-13T09:10:09Z</time>
      </trkpt>
      <trkpt lat="44.45213" lon="1.16981">
        <ele>219.757904</ele>
        <time>2009-08-13T09:10:12Z</time>
      </trkpt>
      <trkpt lat="44.45199" lon="1.1699">
        <ele>219.411484</ele>
        <time>2009-08-13T09:10:15Z</time>
      </trkpt>
      <trkpt lat="44.45183" lon="1.16997">
        <ele>219.413193</ele>
        <time>2009-08-13T09:10:18Z</time>
      </trkpt>
      <trkpt lat="44.45172" lon="1.17001">
        <ele>219.588989</ele>
        <time>2009-08-13T09:10:21Z</time>
      </trkpt>
      <trkpt lat="44.45161" lon="1.17006">
        <ele>219.810776</ele>
        <time>2009-08-13T09:10:24Z</time>
      </trkpt>
      <trkpt lat="44.45147" lon="1.17007">
        <ele>219.894058</ele>
        <time>2009-08-13T09:10:27Z</time>
      </trkpt>
      <trkpt lat="44.45131" lon="1.17009">
        <ele>220.040695</ele>
        <time>2009-08-13T09:10:32Z</time>
      </trkpt>
      <trkpt lat="44.45121" lon="1.17012">
        <ele>220.365311</ele>
        <time>2009-08-13T09:10:35Z</time>
      </trkpt>
      <trkpt lat="44.45113" lon="1.17014">
        <ele>220.495193</ele>
        <time>2009-08-13T09:10:38Z</time>
      </trkpt>
      <trkpt lat="44.45102" lon="1.17015">
        <ele>220.505646</ele>
        <time>2009-08-13T09:10:41Z</time>
      </trkpt>
      <trkpt lat="44.45097" lon="1.17011">
        <ele>220.165909</ele>
        <time>2009-08-13T09:10:44Z</time>
      </trkpt>
      <trkpt lat="44.4509" lon="1.17011">
        <ele>220.109375</ele>
        <time>2009-08-13T09:10:48Z</time>
      </trkpt>
      <trkpt lat="44.45082" lon="1.17012">
        <ele>220.115463</ele>
        <time>2009-08-13T09:10:52Z</time>
      </trkpt>
      <trkpt lat="44.45077" lon="1.17012">
        <ele>220.087296</ele>
        <time>2009-08-13T09:10:55Z</time>
      </trkpt>
      <trkpt lat="44.45071" lon="1.17012">
        <ele>220.156281</ele>
        <time>2009-08-13T09:10:58Z</time>
      </trkpt>
      <trkpt lat="44.45064" lon="1.17018">
        <ele>220.713745</ele>
        <time>2009-08-13T09:11:02Z</time>
      </trkpt>
      <trkpt lat="44.45061" lon="1.17023">
        <ele>220.940201</ele>
        <time>2009-08-13T09:11:05Z</time>
      </trkpt>
      <trkpt lat="44.45055" lon="1.17033">
        <ele>220.527863</ele>
        <time>2009-08-13T09:11:10Z</time>
      </trkpt>
      <trkpt lat="44.45051" lon="1.17039">
        <ele>220.342056</ele>
        <time>2009-08-13T09:11:14Z</time>
      </trkpt>
      <trkpt lat="44.45044" lon="1.17043">
        <ele>220.229919</ele>
        <time>2009-08-13T09:11:17Z</time>
      </trkpt>
      <trkpt lat="44.45034" lon="1.17046">
        <ele>220.213638</ele>
        <time>2009-08-13T09:11:20Z</time>
      </trkpt>
      <trkpt lat="44.45026" lon="1.17048">
        <ele>220.4375</ele>
        <time>2009-08-13T09:11:23Z</time>
      </trkpt>
      <trkpt lat="44.45021" lon="1.17049">
        <ele>220.632507</ele>
        <time>2009-08-13T09:11:26Z</time>
      </trkpt>
      <trkpt lat="44.45014" lon="1.17049">
        <ele>220.940002</ele>
        <time>2009-08-13T09:11:30Z</time>
      </trkpt>
      <trkpt lat="44.45004" lon="1.17048">
        <ele>221.399994</ele>
        <time>2009-08-13T09:11:34Z</time>
      </trkpt>
      <trkpt lat="44.44997" lon="1.17048">
        <ele>221.761246</ele>
        <time>2009-08-13T09:11:37Z</time>
      </trkpt>
      <trkpt lat="44.44989" lon="1.17049">
        <ele>222.057495</ele>
        <time>2009-08-13T09:11:40Z</time>
      </trkpt>
      <trkpt lat="44.44982" lon="1.1705">
        <ele>222.244995</ele>
        <time>2009-08-13T09:11:43Z</time>
      </trkpt>
      <trkpt lat="44.44975" lon="1.17051">
        <ele>222.383743</ele>
        <time>2009-08-13T09:11:46Z</time>
      </trkpt>
      <trkpt lat="44.44969" lon="1.17052">
        <ele>222.487503</ele>
        <time>2009-08-13T09:11:49Z</time>
      </trkpt>
      <trkpt lat="44.44962" lon="1.17053">
        <ele>222.602509</ele>
        <time>2009-08-13T09:11:52Z</time>
      </trkpt>
      <trkpt lat="44.44956" lon="1.17055">
        <ele>222.705002</ele>
        <time>2009-08-13T09:11:55Z</time>
      </trkpt>
      <trkpt lat="44.44944" lon="1.17056">
        <ele>222.907501</ele>
        <time>2009-08-13T09:11:58Z</time>
      </trkpt>
      <trkpt lat="44.44935" lon="1.17058">
        <ele>222.994263</ele>
        <time>2009-08-13T09:12:01Z</time>
      </trkpt>
      <trkpt lat="44.44927" lon="1.17059">
        <ele>223.074188</ele>
        <time>2009-08-13T09:12:04Z</time>
      </trkpt>
      <trkpt lat="44.44919" lon="1.1706">
        <ele>223.151093</ele>
        <time>2009-08-13T09:12:07Z</time>
      </trkpt>
      <trkpt lat="44.44911" lon="1.17062">
        <ele>223.216415</ele>
        <time>2009-08-13T09:12:10Z</time>
      </trkpt>
      <trkpt lat="44.44902" lon="1.17066">
        <ele>223.273407</ele>
        <time>2009-08-13T09:12:13Z</time>
      </trkpt>
      <trkpt lat="44.44893" lon="1.17068">
        <ele>223.339783</ele>
        <time>2009-08-13T09:12:16Z</time>
      </trkpt>
      <trkpt lat="44.44885" lon="1.17072">
        <ele>223.378418</ele>
        <time>2009-08-13T09:12:19Z</time>
      </trkpt>
      <trkpt lat="44.44879" lon="1.17076">
        <ele>223.440521</ele>
        <time>2009-08-13T09:12:22Z</time>
      </trkpt>
      <trkpt lat="44.4487" lon="1.17081">
        <ele>223.570419</ele>
        <time>2009-08-13T09:12:25Z</time>
      </trkpt>
      <trkpt lat="44.44864" lon="1.17086">
        <ele>223.715637</ele>
        <time>2009-08-13T09:12:28Z</time>
      </trkpt>
      <trkpt lat="44.44857" lon="1.1709">
        <ele>223.823166</ele>
        <time>2009-08-13T09:12:32Z</time>
      </trkpt>
      <trkpt lat="44.44848" lon="1.17091">
        <ele>223.842163</ele>
        <time>2009-08-13T09:12:35Z</time>
      </trkpt>
      <trkpt lat="44.44838" lon="1.17094">
        <ele>223.764542</ele>
        <time>2009-08-13T09:12:39Z</time>
      </trkpt>
      <trkpt lat="44.44828" lon="1.17096">
        <ele>223.787262</ele>
        <time>2009-08-13T09:12:42Z</time>
      </trkpt>
      <trkpt lat="44.4482" lon="1.17097">
        <ele>223.865601</ele>
        <time>2009-08-13T09:12:46Z</time>
      </trkpt>
      <trkpt lat="44.44812" lon="1.17098">
        <ele>223.937851</ele>
        <time>2009-08-13T09:12:49Z</time>
      </trkpt>
      <trkpt lat="44.44806" lon="1.171">
        <ele>224.076218</ele>
        <time>2009-08-13T09:12:52Z</time>
      </trkpt>
      <trkpt lat="44.44799" lon="1.17101">
        <ele>224.42067</ele>
        <time>2009-08-13T09:12:55Z</time>
      </trkpt>
      <trkpt lat="44.44792" lon="1.17103">
        <ele>224.839218</ele>
        <time>2009-08-13T09:12:58Z</time>
      </trkpt>
      <trkpt lat="44.44786" lon="1.17104">
        <ele>225.142151</ele>
        <time>2009-08-13T09:13:01Z</time>
      </trkpt>
      <trkpt lat="44.4478" lon="1.17106">
        <ele>225.527283</ele>
        <time>2009-08-13T09:13:04Z</time>
      </trkpt>
      <trkpt lat="44.44774" lon="1.17109">
        <ele>225.911926</ele>
        <time>2009-08-13T09:13:07Z</time>
      </trkpt>
      <trkpt lat="44.44768" lon="1.17113">
        <ele>226.369354</ele>
        <time>2009-08-13T09:13:10Z</time>
      </trkpt>
      <trkpt lat="44.4476" lon="1.17117">
        <ele>226.997696</ele>
        <time>2009-08-13T09:13:13Z</time>
      </trkpt>
      <trkpt lat="44.44753" lon="1.17122">
        <ele>227.545807</ele>
        <time>2009-08-13T09:13:17Z</time>
      </trkpt>
      <trkpt lat="44.44748" lon="1.17127">
        <ele>227.983963</ele>
        <time>2009-08-13T09:13:20Z</time>
      </trkpt>
      <trkpt lat="44.44743" lon="1.17132">
        <ele>228.476196</ele>
        <time>2009-08-13T09:13:23Z</time>
      </trkpt>
      <trkpt lat="44.44737" lon="1.17136">
        <ele>228.985947</ele>
        <time>2009-08-13T09:13:26Z</time>
      </trkpt>
      <trkpt lat="44.44731" lon="1.1714">
        <ele>229.537003</ele>
        <time>2009-08-13T09:13:29Z</time>
      </trkpt>
      <trkpt lat="44.44725" lon="1.17145">
        <ele>230.086792</ele>
        <time>2009-08-13T09:13:32Z</time>
      </trkpt>
      <trkpt lat="44.4472" lon="1.1715">
        <ele>230.674774</ele>
        <time>2009-08-13T09:13:35Z</time>
      </trkpt>
      <trkpt lat="44.44715" lon="1.17154">
        <ele>231.163055</ele>
        <time>2009-08-13T09:13:38Z</time>
      </trkpt>
      <trkpt lat="44.44706" lon="1.17156">
        <ele>231.815735</ele>
        <time>2009-08-13T09:13:42Z</time>
      </trkpt>
      <trkpt lat="44.44702" lon="1.17161">
        <ele>232.317841</ele>
        <time>2009-08-13T09:13:46Z</time>
      </trkpt>
      <trkpt lat="44.44697" lon="1.17165">
        <ele>232.776443</ele>
        <time>2009-08-13T09:13:49Z</time>
      </trkpt>
      <trkpt lat="44.44691" lon="1.17171">
        <ele>233.469498</ele>
        <time>2009-08-13T09:13:52Z</time>
      </trkpt>
      <trkpt lat="44.44687" lon="1.17176">
        <ele>234.011414</ele>
        <time>2009-08-13T09:13:55Z</time>
      </trkpt>
      <trkpt lat="44.44683" lon="1.17183">
        <ele>234.583878</ele>
        <time>2009-08-13T09:13:58Z</time>
      </trkpt>
      <trkpt lat="44.44678" lon="1.17189">
        <ele>235.262375</ele>
        <time>2009-08-13T09:14:01Z</time>
      </trkpt>
      <trkpt lat="44.44674" lon="1.17195">
        <ele>235.891083</ele>
        <time>2009-08-13T09:14:04Z</time>
      </trkpt>
      <trkpt lat="44.44669" lon="1.17202">
        <ele>236.52478</ele>
        <time>2009-08-13T09:14:07Z</time>
      </trkpt>
      <trkpt lat="44.44663" lon="1.1721">
        <ele>237.237289</ele>
        <time>2009-08-13T09:14:10Z</time>
      </trkpt>
      <trkpt lat="44.4466" lon="1.17218">
        <ele>237.898331</ele>
        <time>2009-08-13T09:14:13Z</time>
      </trkpt>
      <trkpt lat="44.44656" lon="1.17227">
        <ele>238.325226</ele>
        <time>2009-08-13T09:14:16Z</time>
      </trkpt>
      <trkpt lat="44.44652" lon="1.17235">
        <ele>238.684982</ele>
        <time>2009-08-13T09:14:19Z</time>
      </trkpt>
      <trkpt lat="44.44649" lon="1.17244">
        <ele>239.072357</ele>
        <time>2009-08-13T09:14:23Z</time>
      </trkpt>
      <trkpt lat="44.44646" lon="1.17251">
        <ele>239.521133</ele>
        <time>2009-08-13T09:14:27Z</time>
      </trkpt>
      <trkpt lat="44.44639" lon="1.17262">
        <ele>240.36586</ele>
        <time>2009-08-13T09:14:30Z</time>
      </trkpt>
      <trkpt lat="44.44636" lon="1.17269">
        <ele>240.9151</ele>
        <time>2009-08-13T09:14:33Z</time>
      </trkpt>
      <trkpt lat="44.44634" lon="1.17274">
        <ele>241.301544</ele>
        <time>2009-08-13T09:14:36Z</time>
      </trkpt>
      <trkpt lat="44.4463" lon="1.1728">
        <ele>241.877014</ele>
        <time>2009-08-13T09:14:39Z</time>
      </trkpt>
      <trkpt lat="44.44625" lon="1.17284">
        <ele>242.079712</ele>
        <time>2009-08-13T09:14:42Z</time>
      </trkpt>
      <trkpt lat="44.44619" lon="1.17287">
        <ele>242.153473</ele>
        <time>2009-08-13T09:14:45Z</time>
      </trkpt>
      <trkpt lat="44.44613" lon="1.17291">
        <ele>242.25351</ele>
        <time>2009-08-13T09:14:48Z</time>
      </trkpt>
      <trkpt lat="44.44607" lon="1.17294">
        <ele>242.433151</ele>
        <time>2009-08-13T09:14:51Z</time>
      </trkpt>
      <trkpt lat="44.44599" lon="1.17298">
        <ele>242.710861</ele>
        <time>2009-08-13T09:14:54Z</time>
      </trkpt>
      <trkpt lat="44.44589" lon="1.17304">
        <ele>243.055954</ele>
        <time>2009-08-13T09:14:58Z</time>
      </trkpt>
      <trkpt lat="44.44579" lon="1.17311">
        <ele>243.239731</ele>
        <time>2009-08-13T09:15:03Z</time>
      </trkpt>
      <trkpt lat="44.44569" lon="1.17316">
        <ele>243.487946</ele>
        <time>2009-08-13T09:15:08Z</time>
      </trkpt>
      <trkpt lat="44.44562" lon="1.17319">
        <ele>243.73349</ele>
        <time>2009-08-13T09:15:12Z</time>
      </trkpt>
      <trkpt lat="44.44555" lon="1.17321">
        <ele>243.974045</ele>
        <time>2009-08-13T09:15:15Z</time>
      </trkpt>
      <trkpt lat="44.4455" lon="1.17322">
        <ele>244.199875</ele>
        <time>2009-08-13T09:15:18Z</time>
      </trkpt>
      <trkpt lat="44.44538" lon="1.17324">
        <ele>244.669998</ele>
        <time>2009-08-13T09:15:22Z</time>
      </trkpt>
      <trkpt lat="44.4453" lon="1.17325">
        <ele>244.878754</ele>
        <time>2009-08-13T09:15:25Z</time>
      </trkpt>
      <trkpt lat="44.44521" lon="1.17327">
        <ele>245.098129</ele>
        <time>2009-08-13T09:15:28Z</time>
      </trkpt>
      <trkpt lat="44.44511" lon="1.17329">
        <ele>245.358749</ele>
        <time>2009-08-13T09:15:32Z</time>
      </trkpt>
      <trkpt lat="44.44504" lon="1.17331">
        <ele>245.542496</ele>
        <time>2009-08-13T09:15:35Z</time>
      </trkpt>
      <trkpt lat="44.44498" lon="1.17332">
        <ele>245.698746</ele>
        <time>2009-08-13T09:15:38Z</time>
      </trkpt>
      <trkpt lat="44.4449" lon="1.17333">
        <ele>246.106644</ele>
        <time>2009-08-13T09:15:41Z</time>
      </trkpt>
      <trkpt lat="44.4448" lon="1.17336">
        <ele>246.750595</ele>
        <time>2009-08-13T09:15:44Z</time>
      </trkpt>
      <trkpt lat="44.44469" lon="1.17338">
        <ele>247.476456</ele>
        <time>2009-08-13T09:15:47Z</time>
      </trkpt>
      <trkpt lat="44.44463" lon="1.1734">
        <ele>247.9077</ele>
        <time>2009-08-13T09:15:50Z</time>
      </trkpt>
      <trkpt lat="44.44458" lon="1.1734">
        <ele>248.220398</ele>
        <time>2009-08-13T09:15:53Z</time>
      </trkpt>
      <trkpt lat="44.4445" lon="1.17342">
        <ele>248.789459</ele>
        <time>2009-08-13T09:15:56Z</time>
      </trkpt>
      <trkpt lat="44.44446" lon="1.17343">
        <ele>249.097504</ele>
        <time>2009-08-13T09:15:59Z</time>
      </trkpt>
      <trkpt lat="44.44439" lon="1.17347">
        <ele>249.721252</ele>
        <time>2009-08-13T09:16:03Z</time>
      </trkpt>
      <trkpt lat="44.44432" lon="1.17349">
        <ele>250.208359</ele>
        <time>2009-08-13T09:16:06Z</time>
      </trkpt>
      <trkpt lat="44.44426" lon="1.1735">
        <ele>250.533539</ele>
        <time>2009-08-13T09:16:09Z</time>
      </trkpt>
      <trkpt lat="44.44422" lon="1.17351">
        <ele>250.759888</ele>
        <time>2009-08-13T09:16:12Z</time>
      </trkpt>
      <trkpt lat="44.44416" lon="1.17351">
        <ele>251.142349</ele>
        <time>2009-08-13T09:16:16Z</time>
      </trkpt>
      <trkpt lat="44.44412" lon="1.17352">
        <ele>251.392258</ele>
        <time>2009-08-13T09:16:19Z</time>
      </trkpt>
      <trkpt lat="44.44408" lon="1.17352">
        <ele>251.680359</ele>
        <time>2009-08-13T09:16:22Z</time>
      </trkpt>
      <trkpt lat="44.444" lon="1.17354">
        <ele>252.361313</ele>
        <time>2009-08-13T09:16:26Z</time>
      </trkpt>
      <trkpt lat="44.44396" lon="1.17355">
        <ele>252.838791</ele>
        <time>2009-08-13T09:16:29Z</time>
      </trkpt>
      <trkpt lat="44.44391" lon="1.17355">
        <ele>253.355438</ele>
        <time>2009-08-13T09:16:32Z</time>
      </trkpt>
      <trkpt lat="44.44385" lon="1.17356">
        <ele>254.041183</ele>
        <time>2009-08-13T09:16:35Z</time>
      </trkpt>
      <trkpt lat="44.4438" lon="1.17357">
        <ele>254.588913</ele>
        <time>2009-08-13T09:16:38Z</time>
      </trkpt>
      <trkpt lat="44.44374" lon="1.17357">
        <ele>255.269699</ele>
        <time>2009-08-13T09:16:41Z</time>
      </trkpt>
      <trkpt lat="44.4437" lon="1.17357">
        <ele>255.751617</ele>
        <time>2009-08-13T09:16:44Z</time>
      </trkpt>
      <trkpt lat="44.44365" lon="1.17358">
        <ele>256.301514</ele>
        <time>2009-08-13T09:16:48Z</time>
      </trkpt>
      <trkpt lat="44.44359" lon="1.1736">
        <ele>256.910187</ele>
        <time>2009-08-13T09:16:51Z</time>
      </trkpt>
      <trkpt lat="44.44354" lon="1.17362">
        <ele>257.279266</ele>
        <time>2009-08-13T09:16:54Z</time>
      </trkpt>
      <trkpt lat="44.44348" lon="1.17364">
        <ele>257.796082</ele>
        <time>2009-08-13T09:16:59Z</time>
      </trkpt>
      <trkpt lat="44.44343" lon="1.17367">
        <ele>258.205658</ele>
        <time>2009-08-13T09:17:03Z</time>
      </trkpt>
      <trkpt lat="44.44333" lon="1.17371">
        <ele>259.106537</ele>
        <time>2009-08-13T09:17:07Z</time>
      </trkpt>
      <trkpt lat="44.44328" lon="1.1737">
        <ele>259.560394</ele>
        <time>2009-08-13T09:17:10Z</time>
      </trkpt>
      <trkpt lat="44.44324" lon="1.17367">
        <ele>259.776978</ele>
        <time>2009-08-13T09:17:13Z</time>
      </trkpt>
      <trkpt lat="44.44318" lon="1.17365">
        <ele>260.244293</ele>
        <time>2009-08-13T09:17:17Z</time>
      </trkpt>
      <trkpt lat="44.44311" lon="1.17358">
        <ele>260.549988</ele>
        <time>2009-08-13T09:17:20Z</time>
      </trkpt>
      <trkpt lat="44.44305" lon="1.17353">
        <ele>260.778748</ele>
        <time>2009-08-13T09:17:23Z</time>
      </trkpt>
      <trkpt lat="44.443" lon="1.17345">
        <ele>260.760101</ele>
        <time>2009-08-13T09:17:26Z</time>
      </trkpt>
      <trkpt lat="44.44293" lon="1.17337">
        <ele>260.883057</ele>
        <time>2009-08-13T09:17:30Z</time>
      </trkpt>
      <trkpt lat="44.44283" lon="1.17328">
        <ele>261.299286</ele>
        <time>2009-08-13T09:17:33Z</time>
      </trkpt>
      <trkpt lat="44.44274" lon="1.17322">
        <ele>261.713806</ele>
        <time>2009-08-13T09:17:36Z</time>
      </trkpt>
      <trkpt lat="44.44268" lon="1.17314">
        <ele>261.858154</ele>
        <time>2009-08-13T09:17:40Z</time>
      </trkpt>
      <trkpt lat="44.4426" lon="1.17307">
        <ele>261.91803</ele>
        <time>2009-08-13T09:17:43Z</time>
      </trkpt>
      <trkpt lat="44.44251" lon="1.17299">
        <ele>262.088196</ele>
        <time>2009-08-13T09:17:47Z</time>
      </trkpt>
      <trkpt lat="44.44243" lon="1.1729">
        <ele>262.201752</ele>
        <time>2009-08-13T09:17:50Z</time>
      </trkpt>
      <trkpt lat="44.44233" lon="1.1728">
        <ele>262.316254</ele>
        <time>2009-08-13T09:17:53Z</time>
      </trkpt>
      <trkpt lat="44.44222" lon="1.17265">
        <ele>262.261475</ele>
        <time>2009-08-13T09:17:58Z</time>
      </trkpt>
      <trkpt lat="44.44211" lon="1.17253">
        <ele>262.270691</ele>
        <time>2009-08-13T09:18:01Z</time>
      </trkpt>
      <trkpt lat="44.44205" lon="1.17241">
        <ele>262.182159</ele>
        <time>2009-08-13T09:18:04Z</time>
      </trkpt>
      <trkpt lat="44.44199" lon="1.17228">
        <ele>262.097717</ele>
        <time>2009-08-13T09:18:07Z</time>
      </trkpt>
      <trkpt lat="44.44195" lon="1.17212">
        <ele>262.197632</ele>
        <time>2009-08-13T09:18:10Z</time>
      </trkpt>
      <trkpt lat="44.4419" lon="1.172">
        <ele>262.387512</ele>
        <time>2009-08-13T09:18:13Z</time>
      </trkpt>
      <trkpt lat="44.44183" lon="1.17187">
        <ele>262.74765</ele>
        <time>2009-08-13T09:18:16Z</time>
      </trkpt>
      <trkpt lat="44.44184" lon="1.17162">
        <ele>262.711761</ele>
        <time>2009-08-13T09:18:21Z</time>
      </trkpt>
      <trkpt lat="44.44188" lon="1.17141">
        <ele>262.82309</ele>
        <time>2009-08-13T09:18:25Z</time>
      </trkpt>
      <trkpt lat="44.44189" lon="1.17126">
        <ele>263.036407</ele>
        <time>2009-08-13T09:18:28Z</time>
      </trkpt>
      <trkpt lat="44.44191" lon="1.17112">
        <ele>263.197998</ele>
        <time>2009-08-13T09:18:31Z</time>
      </trkpt>
      <trkpt lat="44.44194" lon="1.17098">
        <ele>263.336243</ele>
        <time>2009-08-13T09:18:34Z</time>
      </trkpt>
      <trkpt lat="44.44197" lon="1.17085">
        <ele>263.391876</ele>
        <time>2009-08-13T09:18:37Z</time>
      </trkpt>
      <trkpt lat="44.442" lon="1.1707">
        <ele>263.494995</ele>
        <time>2009-08-13T09:18:40Z</time>
      </trkpt>
      <trkpt lat="44.44201" lon="1.17055">
        <ele>263.690613</ele>
        <time>2009-08-13T09:18:43Z</time>
      </trkpt>
      <trkpt lat="44.442" lon="1.17044">
        <ele>263.922485</ele>
        <time>2009-08-13T09:18:46Z</time>
      </trkpt>
      <trkpt lat="44.44197" lon="1.17031">
        <ele>264.293701</ele>
        <time>2009-08-13T09:18:49Z</time>
      </trkpt>
      <trkpt lat="44.44195" lon="1.17016">
        <ele>264.725006</ele>
        <time>2009-08-13T09:18:52Z</time>
      </trkpt>
      <trkpt lat="44.44194" lon="1.16999">
        <ele>265.102814</ele>
        <time>2009-08-13T09:18:55Z</time>
      </trkpt>
      <trkpt lat="44.44204" lon="1.16976">
        <ele>265.382507</ele>
        <time>2009-08-13T09:18:59Z</time>
      </trkpt>
      <trkpt lat="44.44216" lon="1.16951">
        <ele>265.109985</ele>
        <time>2009-08-13T09:19:03Z</time>
      </trkpt>
      <trkpt lat="44.44228" lon="1.16935">
        <ele>264.354095</ele>
        <time>2009-08-13T09:19:06Z</time>
      </trkpt>
      <trkpt lat="44.44247" lon="1.16919">
        <ele>263.086487</ele>
        <time>2009-08-13T09:19:10Z</time>
      </trkpt>
      <trkpt lat="44.44261" lon="1.16905">
        <ele>262.134979</ele>
        <time>2009-08-13T09:19:13Z</time>
      </trkpt>
      <trkpt lat="44.44271" lon="1.16887">
        <ele>260.790405</ele>
        <time>2009-08-13T09:19:17Z</time>
      </trkpt>
      <trkpt lat="44.44278" lon="1.16857">
        <ele>260.091614</ele>
        <time>2009-08-13T09:19:20Z</time>
      </trkpt>
      <trkpt lat="44.44285" lon="1.16828">
        <ele>260.098877</ele>
        <time>2009-08-13T09:19:24Z</time>
      </trkpt>
      <trkpt lat="44.44295" lon="1.1681">
        <ele>260.231171</ele>
        <time>2009-08-13T09:19:27Z</time>
      </trkpt>
      <trkpt lat="44.44308" lon="1.16795">
        <ele>260.592133</ele>
        <time>2009-08-13T09:19:30Z</time>
      </trkpt>
      <trkpt lat="44.44319" lon="1.16776">
        <ele>259.482635</ele>
        <time>2009-08-13T09:19:33Z</time>
      </trkpt>
      <trkpt lat="44.44316" lon="1.16762">
        <ele>260.287018</ele>
        <time>2009-08-13T09:19:36Z</time>
      </trkpt>
      <trkpt lat="44.44312" lon="1.16752">
        <ele>261.10257</ele>
        <time>2009-08-13T09:19:39Z</time>
      </trkpt>
      <trkpt lat="44.4431" lon="1.16741">
        <ele>261.574005</ele>
        <time>2009-08-13T09:19:43Z</time>
      </trkpt>
      <trkpt lat="44.44308" lon="1.16724">
        <ele>261.97821</ele>
        <time>2009-08-13T09:19:46Z</time>
      </trkpt>
      <trkpt lat="44.44306" lon="1.16705">
        <ele>262.543762</ele>
        <time>2009-08-13T09:19:49Z</time>
      </trkpt>
      <trkpt lat="44.44304" lon="1.16687">
        <ele>263.053741</ele>
        <time>2009-08-13T09:19:52Z</time>
      </trkpt>
      <trkpt lat="44.44302" lon="1.16665">
        <ele>263.726257</ele>
        <time>2009-08-13T09:19:55Z</time>
      </trkpt>
      <trkpt lat="44.443" lon="1.16648">
        <ele>263.790863</ele>
        <time>2009-08-13T09:19:58Z</time>
      </trkpt>
      <trkpt lat="44.44298" lon="1.16634">
        <ele>263.692139</ele>
        <time>2009-08-13T09:20:01Z</time>
      </trkpt>
      <trkpt lat="44.44297" lon="1.16619">
        <ele>263.59964</ele>
        <time>2009-08-13T09:20:04Z</time>
      </trkpt>
      <trkpt lat="44.44296" lon="1.16606">
        <ele>263.528931</ele>
        <time>2009-08-13T09:20:07Z</time>
      </trkpt>
      <trkpt lat="44.44295" lon="1.16595">
        <ele>263.376678</ele>
        <time>2009-08-13T09:20:10Z</time>
      </trkpt>
      <trkpt lat="44.44294" lon="1.16586">
        <ele>263.086792</ele>
        <time>2009-08-13T09:20:13Z</time>
      </trkpt>
      <trkpt lat="44.44294" lon="1.16575">
        <ele>262.792114</ele>
        <time>2009-08-13T09:20:16Z</time>
      </trkpt>
      <trkpt lat="44.44292" lon="1.16567">
        <ele>262.515198</ele>
        <time>2009-08-13T09:20:19Z</time>
      </trkpt>
      <trkpt lat="44.44291" lon="1.16558">
        <ele>262.240173</ele>
        <time>2009-08-13T09:20:22Z</time>
      </trkpt>
      <trkpt lat="44.4429" lon="1.16546">
        <ele>261.927124</ele>
        <time>2009-08-13T09:20:26Z</time>
      </trkpt>
      <trkpt lat="44.44289" lon="1.16538">
        <ele>261.677826</ele>
        <time>2009-08-13T09:20:29Z</time>
      </trkpt>
      <trkpt lat="44.44288" lon="1.16528">
        <ele>261.195068</ele>
        <time>2009-08-13T09:20:32Z</time>
      </trkpt>
      <trkpt lat="44.44287" lon="1.1652">
        <ele>260.681122</ele>
        <time>2009-08-13T09:20:35Z</time>
      </trkpt>
      <trkpt lat="44.44285" lon="1.1651">
        <ele>260.081238</ele>
        <time>2009-08-13T09:20:38Z</time>
      </trkpt>
      <trkpt lat="44.44283" lon="1.16499">
        <ele>259.459167</ele>
        <time>2009-08-13T09:20:41Z</time>
      </trkpt>
      <trkpt lat="44.44283" lon="1.16492">
        <ele>259.059998</ele>
        <time>2009-08-13T09:20:44Z</time>
      </trkpt>
      <trkpt lat="44.44283" lon="1.16488">
        <ele>258.870636</ele>
        <time>2009-08-13T09:20:50Z</time>
      </trkpt>
      <trkpt lat="44.44282" lon="1.16479">
        <ele>258.335419</ele>
        <time>2009-08-13T09:20:54Z</time>
      </trkpt>
      <trkpt lat="44.44279" lon="1.16464">
        <ele>257.115997</ele>
        <time>2009-08-13T09:20:58Z</time>
      </trkpt>
      <trkpt lat="44.44276" lon="1.16448">
        <ele>255.519531</ele>
        <time>2009-08-13T09:21:01Z</time>
      </trkpt>
      <trkpt lat="44.44274" lon="1.16431">
        <ele>253.757065</ele>
        <time>2009-08-13T09:21:04Z</time>
      </trkpt>
      <trkpt lat="44.44272" lon="1.16414">
        <ele>252.08194</ele>
        <time>2009-08-13T09:21:07Z</time>
      </trkpt>
      <trkpt lat="44.4427" lon="1.164">
        <ele>251.421661</ele>
        <time>2009-08-13T09:21:10Z</time>
      </trkpt>
      <trkpt lat="44.4427" lon="1.16389">
        <ele>251.013184</ele>
        <time>2009-08-13T09:21:13Z</time>
      </trkpt>
      <trkpt lat="44.4427" lon="1.16376">
        <ele>250.567322</ele>
        <time>2009-08-13T09:21:16Z</time>
      </trkpt>
      <trkpt lat="44.44269" lon="1.16362">
        <ele>250.083069</ele>
        <time>2009-08-13T09:21:19Z</time>
      </trkpt>
      <trkpt lat="44.44268" lon="1.16347">
        <ele>249.593842</ele>
        <time>2009-08-13T09:21:22Z</time>
      </trkpt>
      <trkpt lat="44.44267" lon="1.1633">
        <ele>248.891174</ele>
        <time>2009-08-13T09:21:25Z</time>
      </trkpt>
      <trkpt lat="44.44267" lon="1.16312">
        <ele>248.147125</ele>
        <time>2009-08-13T09:21:28Z</time>
      </trkpt>
      <trkpt lat="44.44267" lon="1.16293">
        <ele>247.332901</ele>
        <time>2009-08-13T09:21:32Z</time>
      </trkpt>
      <trkpt lat="44.44267" lon="1.16276">
        <ele>246.374924</ele>
        <time>2009-08-13T09:21:35Z</time>
      </trkpt>
      <trkpt lat="44.44268" lon="1.16254">
        <ele>244.8806</ele>
        <time>2009-08-13T09:21:38Z</time>
      </trkpt>
      <trkpt lat="44.44267" lon="1.16225">
        <ele>242.841995</ele>
        <time>2009-08-13T09:21:41Z</time>
      </trkpt>
      <trkpt lat="44.44269" lon="1.16202">
        <ele>243.353668</ele>
        <time>2009-08-13T09:21:44Z</time>
      </trkpt>
      <trkpt lat="44.4427" lon="1.16182">
        <ele>244.017197</ele>
        <time>2009-08-13T09:21:47Z</time>
      </trkpt>
      <trkpt lat="44.44267" lon="1.16163">
        <ele>244.680374</ele>
        <time>2009-08-13T09:21:50Z</time>
      </trkpt>
      <trkpt lat="44.44264" lon="1.16144">
        <ele>245.249649</ele>
        <time>2009-08-13T09:21:54Z</time>
      </trkpt>
      <trkpt lat="44.4426" lon="1.16128">
        <ele>245.836349</ele>
        <time>2009-08-13T09:21:57Z</time>
      </trkpt>
      <trkpt lat="44.44255" lon="1.16116">
        <ele>245.89743</ele>
        <time>2009-08-13T09:22:00Z</time>
      </trkpt>
      <trkpt lat="44.44252" lon="1.16098">
        <ele>245.748688</ele>
        <time>2009-08-13T09:22:03Z</time>
      </trkpt>
      <trkpt lat="44.44253" lon="1.16085">
        <ele>246.616486</ele>
        <time>2009-08-13T09:22:06Z</time>
      </trkpt>
      <trkpt lat="44.44254" lon="1.16072">
        <ele>247.654831</ele>
        <time>2009-08-13T09:22:09Z</time>
      </trkpt>
      <trkpt lat="44.44256" lon="1.1606">
        <ele>248.748398</ele>
        <time>2009-08-13T09:22:12Z</time>
      </trkpt>
      <trkpt lat="44.44258" lon="1.16048">
        <ele>249.147507</ele>
        <time>2009-08-13T09:22:15Z</time>
      </trkpt>
      <trkpt lat="44.44261" lon="1.16035">
        <ele>249.53125</ele>
        <time>2009-08-13T09:22:18Z</time>
      </trkpt>
      <trkpt lat="44.44265" lon="1.16022">
        <ele>249.215515</ele>
        <time>2009-08-13T09:22:21Z</time>
      </trkpt>
      <trkpt lat="44.4427" lon="1.1601">
        <ele>248.937012</ele>
        <time>2009-08-13T09:22:24Z</time>
      </trkpt>
      <trkpt lat="44.44275" lon="1.15998">
        <ele>248.927551</ele>
        <time>2009-08-13T09:22:27Z</time>
      </trkpt>
      <trkpt lat="44.44278" lon="1.15986">
        <ele>249.121841</ele>
        <time>2009-08-13T09:22:30Z</time>
      </trkpt>
      <trkpt lat="44.4428" lon="1.15974">
        <ele>249.454742</ele>
        <time>2009-08-13T09:22:33Z</time>
      </trkpt>
      <trkpt lat="44.44281" lon="1.15959">
        <ele>248.798172</ele>
        <time>2009-08-13T09:22:37Z</time>
      </trkpt>
      <trkpt lat="44.44276" lon="1.15944">
        <ele>247.513947</ele>
        <time>2009-08-13T09:22:40Z</time>
      </trkpt>
      <trkpt lat="44.44276" lon="1.15928">
        <ele>246.28952</ele>
        <time>2009-08-13T09:22:44Z</time>
      </trkpt>
      <trkpt lat="44.44277" lon="1.15908">
        <ele>244.974152</ele>
        <time>2009-08-13T09:22:47Z</time>
      </trkpt>
      <trkpt lat="44.44284" lon="1.15888">
        <ele>243.485397</ele>
        <time>2009-08-13T09:22:50Z</time>
      </trkpt>
      <trkpt lat="44.44292" lon="1.15861">
        <ele>242.502396</ele>
        <time>2009-08-13T09:22:54Z</time>
      </trkpt>
      <trkpt lat="44.44296" lon="1.15843">
        <ele>242.21637</ele>
        <time>2009-08-13T09:22:57Z</time>
      </trkpt>
      <trkpt lat="44.44299" lon="1.1583">
        <ele>242.707458</ele>
        <time>2009-08-13T09:23:00Z</time>
      </trkpt>
      <trkpt lat="44.44301" lon="1.15822">
        <ele>242.7556</ele>
        <time>2009-08-13T09:23:03Z</time>
      </trkpt>
      <trkpt lat="44.44302" lon="1.15814">
        <ele>242.722366</ele>
        <time>2009-08-13T09:23:06Z</time>
      </trkpt>
      <trkpt lat="44.44304" lon="1.15807">
        <ele>242.695694</ele>
        <time>2009-08-13T09:23:09Z</time>
      </trkpt>
      <trkpt lat="44.44305" lon="1.158">
        <ele>242.628693</ele>
        <time>2009-08-13T09:23:12Z</time>
      </trkpt>
      <trkpt lat="44.44305" lon="1.15791">
        <ele>242.487686</ele>
        <time>2009-08-13T09:23:15Z</time>
      </trkpt>
      <trkpt lat="44.44306" lon="1.15781">
        <ele>242.268402</ele>
        <time>2009-08-13T09:23:18Z</time>
      </trkpt>
      <trkpt lat="44.44305" lon="1.1577">
        <ele>241.369781</ele>
        <time>2009-08-13T09:23:21Z</time>
      </trkpt>
      <trkpt lat="44.44306" lon="1.15764">
        <ele>240.856918</ele>
        <time>2009-08-13T09:23:25Z</time>
      </trkpt>
      <trkpt lat="44.44305" lon="1.15766">
        <ele>241.006287</ele>
        <time>2009-08-13T09:23:50Z</time>
      </trkpt>
      <trkpt lat="44.44304" lon="1.15766">
        <ele>241.007538</ele>
        <time>2009-08-13T09:23:57Z</time>
      </trkpt>
      <trkpt lat="44.44302" lon="1.15759">
        <ele>240.34166</ele>
        <time>2009-08-13T09:24:01Z</time>
      </trkpt>
      <trkpt lat="44.44299" lon="1.15749">
        <ele>239.431274</ele>
        <time>2009-08-13T09:24:04Z</time>
      </trkpt>
      <trkpt lat="44.44296" lon="1.1573">
        <ele>237.117905</ele>
        <time>2009-08-13T09:24:07Z</time>
      </trkpt>
      <trkpt lat="44.44294" lon="1.15704">
        <ele>233.076385</ele>
        <time>2009-08-13T09:24:10Z</time>
      </trkpt>
      <trkpt lat="44.44293" lon="1.1567">
        <ele>227.765366</ele>
        <time>2009-08-13T09:24:13Z</time>
      </trkpt>
      <trkpt lat="44.44285" lon="1.15637">
        <ele>220.824173</ele>
        <time>2009-08-13T09:24:16Z</time>
      </trkpt>
      <trkpt lat="44.44278" lon="1.15606">
        <ele>214.668823</ele>
        <time>2009-08-13T09:24:20Z</time>
      </trkpt>
      <trkpt lat="44.44284" lon="1.1558">
        <ele>213.600906</ele>
        <time>2009-08-13T09:24:24Z</time>
      </trkpt>
      <trkpt lat="44.44285" lon="1.15564">
        <ele>211.730621</ele>
        <time>2009-08-13T09:24:28Z</time>
      </trkpt>
      <trkpt lat="44.44283" lon="1.15549">
        <ele>209.164642</ele>
        <time>2009-08-13T09:24:31Z</time>
      </trkpt>
      <trkpt lat="44.44277" lon="1.15523">
        <ele>205.232635</ele>
        <time>2009-08-13T09:24:35Z</time>
      </trkpt>
      <trkpt lat="44.44271" lon="1.15495">
        <ele>203.409286</ele>
        <time>2009-08-13T09:24:38Z</time>
      </trkpt>
      <trkpt lat="44.44269" lon="1.15458">
        <ele>202.613358</ele>
        <time>2009-08-13T09:24:42Z</time>
      </trkpt>
      <trkpt lat="44.44268" lon="1.1544">
        <ele>202.952606</ele>
        <time>2009-08-13T09:24:45Z</time>
      </trkpt>
      <trkpt lat="44.44265" lon="1.15433">
        <ele>203.084656</ele>
        <time>2009-08-13T09:24:48Z</time>
      </trkpt>
      <trkpt lat="44.44261" lon="1.15431">
        <ele>203.161499</ele>
        <time>2009-08-13T09:24:52Z</time>
      </trkpt>
      <trkpt lat="44.4426" lon="1.15421">
        <ele>203.394943</ele>
        <time>2009-08-13T09:24:57Z</time>
      </trkpt>
      <trkpt lat="44.44259" lon="1.15413">
        <ele>203.602524</ele>
        <time>2009-08-13T09:25:01Z</time>
      </trkpt>
      <trkpt lat="44.44258" lon="1.15408">
        <ele>203.746323</ele>
        <time>2009-08-13T09:25:04Z</time>
      </trkpt>
      <trkpt lat="44.44257" lon="1.15401">
        <ele>204.387329</ele>
        <time>2009-08-13T09:25:08Z</time>
      </trkpt>
      <trkpt lat="44.44258" lon="1.15394">
        <ele>205.087128</ele>
        <time>2009-08-13T09:25:11Z</time>
      </trkpt>
      <trkpt lat="44.44257" lon="1.15387">
        <ele>205.865952</ele>
        <time>2009-08-13T09:25:15Z</time>
      </trkpt>
      <trkpt lat="44.44257" lon="1.15381">
        <ele>206.5009</ele>
        <time>2009-08-13T09:25:18Z</time>
      </trkpt>
      <trkpt lat="44.44257" lon="1.15375">
        <ele>207.07695</ele>
        <time>2009-08-13T09:25:21Z</time>
      </trkpt>
      <trkpt lat="44.44256" lon="1.15371">
        <ele>207.588333</ele>
        <time>2009-08-13T09:25:25Z</time>
      </trkpt>
      <trkpt lat="44.44255" lon="1.15364">
        <ele>208.428787</ele>
        <time>2009-08-13T09:25:28Z</time>
      </trkpt>
      <trkpt lat="44.44254" lon="1.15358">
        <ele>209.108398</ele>
        <time>2009-08-13T09:25:31Z</time>
      </trkpt>
      <trkpt lat="44.44255" lon="1.15346">
        <ele>210.3741</ele>
        <time>2009-08-13T09:25:36Z</time>
      </trkpt>
      <trkpt lat="44.44255" lon="1.15337">
        <ele>211.601685</ele>
        <time>2009-08-13T09:25:40Z</time>
      </trkpt>
      <trkpt lat="44.44253" lon="1.15327">
        <ele>213.426849</ele>
        <time>2009-08-13T09:25:45Z</time>
      </trkpt>
      <trkpt lat="44.44251" lon="1.15322">
        <ele>214.486328</ele>
        <time>2009-08-13T09:25:48Z</time>
      </trkpt>
      <trkpt lat="44.4425" lon="1.15315">
        <ele>215.772598</ele>
        <time>2009-08-13T09:25:52Z</time>
      </trkpt>
      <trkpt lat="44.44249" lon="1.1531">
        <ele>216.772568</ele>
        <time>2009-08-13T09:25:55Z</time>
      </trkpt>
      <trkpt lat="44.44249" lon="1.15305">
        <ele>217.665512</ele>
        <time>2009-08-13T09:25:58Z</time>
      </trkpt>
      <trkpt lat="44.44249" lon="1.15298">
        <ele>218.830673</ele>
        <time>2009-08-13T09:26:02Z</time>
      </trkpt>
      <trkpt lat="44.4425" lon="1.15292">
        <ele>219.745972</ele>
        <time>2009-08-13T09:26:06Z</time>
      </trkpt>
      <trkpt lat="44.4425" lon="1.15288">
        <ele>220.336884</ele>
        <time>2009-08-13T09:26:09Z</time>
      </trkpt>
      <trkpt lat="44.44252" lon="1.15282">
        <ele>221.003189</ele>
        <time>2009-08-13T09:26:13Z</time>
      </trkpt>
      <trkpt lat="44.44253" lon="1.15277">
        <ele>221.53743</ele>
        <time>2009-08-13T09:26:16Z</time>
      </trkpt>
      <trkpt lat="44.44254" lon="1.15272">
        <ele>222.212891</ele>
        <time>2009-08-13T09:26:19Z</time>
      </trkpt>
      <trkpt lat="44.44252" lon="1.15259">
        <ele>224.345612</ele>
        <time>2009-08-13T09:26:24Z</time>
      </trkpt>
      <trkpt lat="44.44251" lon="1.15251">
        <ele>225.611481</ele>
        <time>2009-08-13T09:26:27Z</time>
      </trkpt>
      <trkpt lat="44.44252" lon="1.15248">
        <ele>225.907639</ele>
        <time>2009-08-13T09:26:30Z</time>
      </trkpt>
      <trkpt lat="44.44251" lon="1.15247">
        <ele>226.252975</ele>
        <time>2009-08-13T09:26:40Z</time>
      </trkpt>
      <trkpt lat="44.4425" lon="1.15242">
        <ele>227.05162</ele>
        <time>2009-08-13T09:26:46Z</time>
      </trkpt>
      <trkpt lat="44.44252" lon="1.15241">
        <ele>226.953873</ele>
        <time>2009-08-13T09:26:58Z</time>
      </trkpt>
      <trkpt lat="44.44252" lon="1.15239">
        <ele>227.100601</ele>
        <time>2009-08-13T09:27:03Z</time>
      </trkpt>
      <trkpt lat="44.44253" lon="1.15238">
        <ele>227.068756</ele>
        <time>2009-08-13T09:27:22Z</time>
      </trkpt>
      <trkpt lat="44.44254" lon="1.15235">
        <ele>227.446533</ele>
        <time>2009-08-13T09:27:25Z</time>
      </trkpt>
      <trkpt lat="44.44252" lon="1.15233">
        <ele>227.93132</ele>
        <time>2009-08-13T09:27:29Z</time>
      </trkpt>
      <trkpt lat="44.4425" lon="1.15229">
        <ele>228.811996</ele>
        <time>2009-08-13T09:27:33Z</time>
      </trkpt>
      <trkpt lat="44.44248" lon="1.15225">
        <ele>229.831467</ele>
        <time>2009-08-13T09:27:38Z</time>
      </trkpt>
      <trkpt lat="44.44246" lon="1.15222">
        <ele>230.068497</ele>
        <time>2009-08-13T09:27:42Z</time>
      </trkpt>
      <trkpt lat="44.44245" lon="1.15218">
        <ele>230.223663</ele>
        <time>2009-08-13T09:27:46Z</time>
      </trkpt>
      <trkpt lat="44.44243" lon="1.15215">
        <ele>229.991531</ele>
        <time>2009-08-13T09:27:50Z</time>
      </trkpt>
      <trkpt lat="44.44241" lon="1.15211">
        <ele>230.222961</ele>
        <time>2009-08-13T09:27:54Z</time>
      </trkpt>
      <trkpt lat="44.4424" lon="1.15207">
        <ele>230.560913</ele>
        <time>2009-08-13T09:27:58Z</time>
      </trkpt>
      <trkpt lat="44.4424" lon="1.15201">
        <ele>231.259827</ele>
        <time>2009-08-13T09:28:02Z</time>
      </trkpt>
      <trkpt lat="44.44239" lon="1.15196">
        <ele>231.834747</ele>
        <time>2009-08-13T09:28:06Z</time>
      </trkpt>
      <trkpt lat="44.44238" lon="1.15194">
        <ele>231.856049</ele>
        <time>2009-08-13T09:28:09Z</time>
      </trkpt>
      <trkpt lat="44.44236" lon="1.15192">
        <ele>231.668747</ele>
        <time>2009-08-13T09:28:13Z</time>
      </trkpt>
      <trkpt lat="44.44234" lon="1.15187">
        <ele>232.001831</ele>
        <time>2009-08-13T09:28:17Z</time>
      </trkpt>
      <trkpt lat="44.44232" lon="1.15182">
        <ele>232.447464</ele>
        <time>2009-08-13T09:28:21Z</time>
      </trkpt>
      <trkpt lat="44.4423" lon="1.15176">
        <ele>232.96376</ele>
        <time>2009-08-13T09:28:26Z</time>
      </trkpt>
      <trkpt lat="44.44226" lon="1.15169">
        <ele>233.507477</ele>
        <time>2009-08-13T09:28:31Z</time>
      </trkpt>
      <trkpt lat="44.44224" lon="1.15165">
        <ele>233.781158</ele>
        <time>2009-08-13T09:28:34Z</time>
      </trkpt>
      <trkpt lat="44.44222" lon="1.15158">
        <ele>234.731201</ele>
        <time>2009-08-13T09:28:44Z</time>
      </trkpt>
      <trkpt lat="44.44218" lon="1.15151">
        <ele>234.474243</ele>
        <time>2009-08-13T09:28:48Z</time>
      </trkpt>
      <trkpt lat="44.44214" lon="1.15144">
        <ele>234.011414</ele>
        <time>2009-08-13T09:28:51Z</time>
      </trkpt>
      <trkpt lat="44.44211" lon="1.15136">
        <ele>233.741562</ele>
        <time>2009-08-13T09:28:55Z</time>
      </trkpt>
      <trkpt lat="44.4421" lon="1.15129">
        <ele>233.792023</ele>
        <time>2009-08-13T09:28:58Z</time>
      </trkpt>
      <trkpt lat="44.44214" lon="1.1512">
        <ele>234.077469</ele>
        <time>2009-08-13T09:29:02Z</time>
      </trkpt>
      <trkpt lat="44.44216" lon="1.15111">
        <ele>234.096954</ele>
        <time>2009-08-13T09:29:06Z</time>
      </trkpt>
      <trkpt lat="44.44214" lon="1.15104">
        <ele>234.122635</ele>
        <time>2009-08-13T09:29:09Z</time>
      </trkpt>
      <trkpt lat="44.44208" lon="1.15096">
        <ele>234.482437</ele>
        <time>2009-08-13T09:29:12Z</time>
      </trkpt>
      <trkpt lat="44.44203" lon="1.15092">
        <ele>234.519272</ele>
        <time>2009-08-13T09:29:15Z</time>
      </trkpt>
      <trkpt lat="44.44198" lon="1.15088">
        <ele>232.071655</ele>
        <time>2009-08-13T09:29:18Z</time>
      </trkpt>
      <trkpt lat="44.44196" lon="1.15085">
        <ele>230.889099</ele>
        <time>2009-08-13T09:29:26Z</time>
      </trkpt>
      <trkpt lat="44.44188" lon="1.15078">
        <ele>226.545425</ele>
        <time>2009-08-13T09:29:29Z</time>
      </trkpt>
      <trkpt lat="44.44182" lon="1.15072">
        <ele>223.637833</ele>
        <time>2009-08-13T09:29:33Z</time>
      </trkpt>
      <trkpt lat="44.44167" lon="1.15057">
        <ele>218.54686</ele>
        <time>2009-08-13T09:29:36Z</time>
      </trkpt>
      <trkpt lat="44.44147" lon="1.15043">
        <ele>213.98291</ele>
        <time>2009-08-13T09:29:40Z</time>
      </trkpt>
      <trkpt lat="44.44135" lon="1.15039">
        <ele>211.022156</ele>
        <time>2009-08-13T09:29:43Z</time>
      </trkpt>
      <trkpt lat="44.44127" lon="1.15029">
        <ele>209.514069</ele>
        <time>2009-08-13T09:29:46Z</time>
      </trkpt>
      <trkpt lat="44.44118" lon="1.15019">
        <ele>205.970123</ele>
        <time>2009-08-13T09:29:51Z</time>
      </trkpt>
      <trkpt lat="44.44108" lon="1.15017">
        <ele>203.657227</ele>
        <time>2009-08-13T09:29:54Z</time>
      </trkpt>
      <trkpt lat="44.44093" lon="1.15008">
        <ele>200.282974</ele>
        <time>2009-08-13T09:29:58Z</time>
      </trkpt>
      <trkpt lat="44.44084" lon="1.15005">
        <ele>198.717712</ele>
        <time>2009-08-13T09:30:01Z</time>
      </trkpt>
      <trkpt lat="44.44066" lon="1.14999">
        <ele>196.478516</ele>
        <time>2009-08-13T09:30:05Z</time>
      </trkpt>
      <trkpt lat="44.44054" lon="1.14991">
        <ele>194.47937</ele>
        <time>2009-08-13T09:30:10Z</time>
      </trkpt>
      <trkpt lat="44.44044" lon="1.14986">
        <ele>192.992462</ele>
        <time>2009-08-13T09:30:13Z</time>
      </trkpt>
      <trkpt lat="44.44041" lon="1.14984">
        <ele>192.412018</ele>
        <time>2009-08-13T09:30:16Z</time>
      </trkpt>
      <trkpt lat="44.44041" lon="1.14986">
        <ele>192.242157</ele>
        <time>2009-08-13T09:30:37Z</time>
      </trkpt>
      <trkpt lat="44.44039" lon="1.14985">
        <ele>191.94313</ele>
        <time>2009-08-13T09:30:43Z</time>
      </trkpt>
      <trkpt lat="44.44023" lon="1.14972">
        <ele>190.563171</ele>
        <time>2009-08-13T09:30:47Z</time>
      </trkpt>
      <trkpt lat="44.44009" lon="1.14972">
        <ele>188.307999</ele>
        <time>2009-08-13T09:30:50Z</time>
      </trkpt>
      <trkpt lat="44.43994" lon="1.14971">
        <ele>185.772141</ele>
        <time>2009-08-13T09:30:54Z</time>
      </trkpt>
      <trkpt lat="44.43981" lon="1.14979">
        <ele>182.780029</ele>
        <time>2009-08-13T09:30:58Z</time>
      </trkpt>
      <trkpt lat="44.43979" lon="1.14984">
        <ele>181.391663</ele>
        <time>2009-08-13T09:31:02Z</time>
      </trkpt>
      <trkpt lat="44.43978" lon="1.14993">
        <ele>179.473022</ele>
        <time>2009-08-13T09:31:06Z</time>
      </trkpt>
      <trkpt lat="44.43981" lon="1.14998">
        <ele>179.055145</ele>
        <time>2009-08-13T09:31:09Z</time>
      </trkpt>
      <trkpt lat="44.43988" lon="1.15006">
        <ele>178.991669</ele>
        <time>2009-08-13T09:31:13Z</time>
      </trkpt>
      <trkpt lat="44.43996" lon="1.15012">
        <ele>179.156998</ele>
        <time>2009-08-13T09:31:16Z</time>
      </trkpt>
      <trkpt lat="44.44004" lon="1.15022">
        <ele>178.840881</ele>
        <time>2009-08-13T09:31:19Z</time>
      </trkpt>
      <trkpt lat="44.44014" lon="1.15037">
        <ele>178.180298</ele>
        <time>2009-08-13T09:31:22Z</time>
      </trkpt>
      <trkpt lat="44.44023" lon="1.1505">
        <ele>176.529526</ele>
        <time>2009-08-13T09:31:25Z</time>
      </trkpt>
      <trkpt lat="44.44034" lon="1.15067">
        <ele>175.020508</ele>
        <time>2009-08-13T09:31:29Z</time>
      </trkpt>
      <trkpt lat="44.44047" lon="1.1508">
        <ele>174.086075</ele>
        <time>2009-08-13T09:31:32Z</time>
      </trkpt>
      <trkpt lat="44.4406" lon="1.15094">
        <ele>172.41745</ele>
        <time>2009-08-13T09:31:35Z</time>
      </trkpt>
      <trkpt lat="44.44072" lon="1.15107">
        <ele>173.124832</ele>
        <time>2009-08-13T09:31:38Z</time>
      </trkpt>
      <trkpt lat="44.44083" lon="1.15124">
        <ele>173.758392</ele>
        <time>2009-08-13T09:31:41Z</time>
      </trkpt>
      <trkpt lat="44.44091" lon="1.15135">
        <ele>174.295044</ele>
        <time>2009-08-13T09:31:44Z</time>
      </trkpt>
      <trkpt lat="44.44098" lon="1.15147">
        <ele>173.90448</ele>
        <time>2009-08-13T09:31:48Z</time>
      </trkpt>
      <trkpt lat="44.44106" lon="1.15156">
        <ele>174.010376</ele>
        <time>2009-08-13T09:31:51Z</time>
      </trkpt>
      <trkpt lat="44.44108" lon="1.1516">
        <ele>173.726776</ele>
        <time>2009-08-13T09:31:55Z</time>
      </trkpt>
      <trkpt lat="44.44107" lon="1.15162">
        <ele>173.382874</ele>
        <time>2009-08-13T09:32:02Z</time>
      </trkpt>
      <trkpt lat="44.44106" lon="1.15164">
        <ele>172.799042</ele>
        <time>2009-08-13T09:32:07Z</time>
      </trkpt>
      <trkpt lat="44.44105" lon="1.15165">
        <ele>172.47934</ele>
        <time>2009-08-13T09:32:11Z</time>
      </trkpt>
      <trkpt lat="44.44103" lon="1.15168">
        <ele>171.710709</ele>
        <time>2009-08-13T09:32:15Z</time>
      </trkpt>
      <trkpt lat="44.44103" lon="1.15172">
        <ele>171.18544</ele>
        <time>2009-08-13T09:32:23Z</time>
      </trkpt>
      <trkpt lat="44.44105" lon="1.1518">
        <ele>170.849594</ele>
        <time>2009-08-13T09:32:27Z</time>
      </trkpt>
      <trkpt lat="44.44104" lon="1.15187">
        <ele>169.873871</ele>
        <time>2009-08-13T09:32:30Z</time>
      </trkpt>
      <trkpt lat="44.44098" lon="1.15206">
        <ele>167.239975</ele>
        <time>2009-08-13T09:32:33Z</time>
      </trkpt>
      <trkpt lat="44.44086" lon="1.15207">
        <ele>165.891144</ele>
        <time>2009-08-13T09:32:37Z</time>
      </trkpt>
      <trkpt lat="44.44075" lon="1.15192">
        <ele>164.836823</ele>
        <time>2009-08-13T09:32:40Z</time>
      </trkpt>
      <trkpt lat="44.44059" lon="1.15174">
        <ele>162.684998</ele>
        <time>2009-08-13T09:32:43Z</time>
      </trkpt>
      <trkpt lat="44.44039" lon="1.15158">
        <ele>161.324554</ele>
        <time>2009-08-13T09:32:46Z</time>
      </trkpt>
      <trkpt lat="44.44017" lon="1.15142">
        <ele>160.996674</ele>
        <time>2009-08-13T09:32:49Z</time>
      </trkpt>
      <trkpt lat="44.43995" lon="1.15128">
        <ele>160.538132</ele>
        <time>2009-08-13T09:32:52Z</time>
      </trkpt>
      <trkpt lat="44.43978" lon="1.1512">
        <ele>159.473495</ele>
        <time>2009-08-13T09:32:55Z</time>
      </trkpt>
      <trkpt lat="44.43957" lon="1.1512">
        <ele>158.786133</ele>
        <time>2009-08-13T09:33:00Z</time>
      </trkpt>
      <trkpt lat="44.4395" lon="1.15128">
        <ele>158.834976</ele>
        <time>2009-08-13T09:33:03Z</time>
      </trkpt>
      <trkpt lat="44.43942" lon="1.15134">
        <ele>158.887558</ele>
        <time>2009-08-13T09:33:06Z</time>
      </trkpt>
      <trkpt lat="44.43935" lon="1.1514">
        <ele>158.999039</ele>
        <time>2009-08-13T09:33:09Z</time>
      </trkpt>
      <trkpt lat="44.43932" lon="1.15154">
        <ele>159.610321</ele>
        <time>2009-08-13T09:33:13Z</time>
      </trkpt>
      <trkpt lat="44.4393" lon="1.15165">
        <ele>159.888123</ele>
        <time>2009-08-13T09:33:16Z</time>
      </trkpt>
      <trkpt lat="44.4393" lon="1.1518">
        <ele>160.126877</ele>
        <time>2009-08-13T09:33:19Z</time>
      </trkpt>
      <trkpt lat="44.43931" lon="1.15196">
        <ele>160.442505</ele>
        <time>2009-08-13T09:33:22Z</time>
      </trkpt>
      <trkpt lat="44.43933" lon="1.15213">
        <ele>160.835587</ele>
        <time>2009-08-13T09:33:25Z</time>
      </trkpt>
      <trkpt lat="44.43935" lon="1.15229">
        <ele>161.088028</ele>
        <time>2009-08-13T09:33:28Z</time>
      </trkpt>
      <trkpt lat="44.43933" lon="1.15241">
        <ele>161.027634</ele>
        <time>2009-08-13T09:33:31Z</time>
      </trkpt>
      <trkpt lat="44.43929" lon="1.15252">
        <ele>160.699051</ele>
        <time>2009-08-13T09:33:34Z</time>
      </trkpt>
      <trkpt lat="44.43916" lon="1.15262">
        <ele>159.619293</ele>
        <time>2009-08-13T09:33:38Z</time>
      </trkpt>
      <trkpt lat="44.43904" lon="1.1526">
        <ele>158.683624</ele>
        <time>2009-08-13T09:33:41Z</time>
      </trkpt>
      <trkpt lat="44.4389" lon="1.15253">
        <ele>157.73735</ele>
        <time>2009-08-13T09:33:45Z</time>
      </trkpt>
      <trkpt lat="44.4388" lon="1.15246">
        <ele>157.429413</ele>
        <time>2009-08-13T09:33:48Z</time>
      </trkpt>
      <trkpt lat="44.43871" lon="1.15242">
        <ele>157.169769</ele>
        <time>2009-08-13T09:33:51Z</time>
      </trkpt>
      <trkpt lat="44.4386" lon="1.15239">
        <ele>156.791351</ele>
        <time>2009-08-13T09:33:55Z</time>
      </trkpt>
      <trkpt lat="44.43851" lon="1.1524">
        <ele>156.502701</ele>
        <time>2009-08-13T09:33:58Z</time>
      </trkpt>
      <trkpt lat="44.43843" lon="1.15241">
        <ele>156.246475</ele>
        <time>2009-08-13T09:34:01Z</time>
      </trkpt>
      <trkpt lat="44.43835" lon="1.15244">
        <ele>157.335175</ele>
        <time>2009-08-13T09:34:04Z</time>
      </trkpt>
      <trkpt lat="44.43827" lon="1.15244">
        <ele>158.524246</ele>
        <time>2009-08-13T09:34:07Z</time>
      </trkpt>
      <trkpt lat="44.43817" lon="1.15239">
        <ele>159.728119</ele>
        <time>2009-08-13T09:34:11Z</time>
      </trkpt>
      <trkpt lat="44.43813" lon="1.1523">
        <ele>160.068054</ele>
        <time>2009-08-13T09:34:15Z</time>
      </trkpt>
      <trkpt lat="44.43811" lon="1.15223">
        <ele>160.128754</ele>
        <time>2009-08-13T09:34:18Z</time>
      </trkpt>
      <trkpt lat="44.43809" lon="1.15213">
        <ele>160.053757</ele>
        <time>2009-08-13T09:34:21Z</time>
      </trkpt>
      <trkpt lat="44.43807" lon="1.15199">
        <ele>159.774994</ele>
        <time>2009-08-13T09:34:24Z</time>
      </trkpt>
      <trkpt lat="44.43804" lon="1.1518">
        <ele>159.617508</ele>
        <time>2009-08-13T09:34:27Z</time>
      </trkpt>
      <trkpt lat="44.43796" lon="1.15157">
        <ele>159.404999</ele>
        <time>2009-08-13T09:34:30Z</time>
      </trkpt>
      <trkpt lat="44.43779" lon="1.15138">
        <ele>158.600006</ele>
        <time>2009-08-13T09:34:33Z</time>
      </trkpt>
      <trkpt lat="44.43759" lon="1.15118">
        <ele>157.893127</ele>
        <time>2009-08-13T09:34:36Z</time>
      </trkpt>
      <trkpt lat="44.43742" lon="1.15073">
        <ele>156.506454</ele>
        <time>2009-08-13T09:34:40Z</time>
      </trkpt>
      <trkpt lat="44.43733" lon="1.15039">
        <ele>156.264404</ele>
        <time>2009-08-13T09:34:43Z</time>
      </trkpt>
      <trkpt lat="44.43722" lon="1.15009">
        <ele>155.640305</ele>
        <time>2009-08-13T09:34:46Z</time>
      </trkpt>
      <trkpt lat="44.43703" lon="1.14972">
        <ele>154.782776</ele>
        <time>2009-08-13T09:34:50Z</time>
      </trkpt>
      <trkpt lat="44.4369" lon="1.14943">
        <ele>154.216812</ele>
        <time>2009-08-13T09:34:53Z</time>
      </trkpt>
      <trkpt lat="44.43681" lon="1.14913">
        <ele>153.522507</ele>
        <time>2009-08-13T09:34:56Z</time>
      </trkpt>
      <trkpt lat="44.43676" lon="1.14882">
        <ele>153.09375</ele>
        <time>2009-08-13T09:34:59Z</time>
      </trkpt>
      <trkpt lat="44.43671" lon="1.14853">
        <ele>152.617493</ele>
        <time>2009-08-13T09:35:02Z</time>
      </trkpt>
      <trkpt lat="44.43666" lon="1.14824">
        <ele>151.763748</ele>
        <time>2009-08-13T09:35:05Z</time>
      </trkpt>
      <trkpt lat="44.43661" lon="1.14796">
        <ele>150.919373</ele>
        <time>2009-08-13T09:35:08Z</time>
      </trkpt>
      <trkpt lat="44.43656" lon="1.14767">
        <ele>150.176529</ele>
        <time>2009-08-13T09:35:12Z</time>
      </trkpt>
      <trkpt lat="44.43653" lon="1.14728">
        <ele>148.641632</ele>
        <time>2009-08-13T09:35:15Z</time>
      </trkpt>
      <trkpt lat="44.43654" lon="1.14699">
        <ele>148.125122</ele>
        <time>2009-08-13T09:35:18Z</time>
      </trkpt>
      <trkpt lat="44.43655" lon="1.14672">
        <ele>147.607666</ele>
        <time>2009-08-13T09:35:21Z</time>
      </trkpt>
      <trkpt lat="44.43654" lon="1.14642">
        <ele>146.441254</ele>
        <time>2009-08-13T09:35:24Z</time>
      </trkpt>
      <trkpt lat="44.43655" lon="1.14613">
        <ele>144.732605</ele>
        <time>2009-08-13T09:35:27Z</time>
      </trkpt>
      <trkpt lat="44.43656" lon="1.14583">
        <ele>144.319687</ele>
        <time>2009-08-13T09:35:30Z</time>
      </trkpt>
      <trkpt lat="44.43657" lon="1.14543">
        <ele>144.876831</ele>
        <time>2009-08-13T09:35:34Z</time>
      </trkpt>
      <trkpt lat="44.43658" lon="1.14513">
        <ele>145.208694</ele>
        <time>2009-08-13T09:35:37Z</time>
      </trkpt>
      <trkpt lat="44.43656" lon="1.14483">
        <ele>145.756012</ele>
        <time>2009-08-13T09:35:40Z</time>
      </trkpt>
      <trkpt lat="44.43652" lon="1.14455">
        <ele>144.363495</ele>
        <time>2009-08-13T09:35:43Z</time>
      </trkpt>
      <trkpt lat="44.43643" lon="1.14428">
        <ele>142.997253</ele>
        <time>2009-08-13T09:35:46Z</time>
      </trkpt>
      <trkpt lat="44.43616" lon="1.14393">
        <ele>141.746445</ele>
        <time>2009-08-13T09:35:51Z</time>
      </trkpt>
      <trkpt lat="44.43598" lon="1.14372">
        <ele>139.906418</ele>
        <time>2009-08-13T09:35:54Z</time>
      </trkpt>
      <trkpt lat="44.43586" lon="1.14352">
        <ele>137.534195</ele>
        <time>2009-08-13T09:35:57Z</time>
      </trkpt>
      <trkpt lat="44.43601" lon="1.14324">
        <ele>136.862686</ele>
        <time>2009-08-13T09:36:00Z</time>
      </trkpt>
      <trkpt lat="44.4362" lon="1.14301">
        <ele>136.28688</ele>
        <time>2009-08-13T09:36:03Z</time>
      </trkpt>
      <trkpt lat="44.43633" lon="1.14266">
        <ele>136.546066</ele>
        <time>2009-08-13T09:36:07Z</time>
      </trkpt>
      <trkpt lat="44.43634" lon="1.14232">
        <ele>137.444153</ele>
        <time>2009-08-13T09:36:11Z</time>
      </trkpt>
      <trkpt lat="44.43634" lon="1.14205">
        <ele>137.339066</ele>
        <time>2009-08-13T09:36:14Z</time>
      </trkpt>
      <trkpt lat="44.43634" lon="1.14179">
        <ele>137.088333</ele>
        <time>2009-08-13T09:36:17Z</time>
      </trkpt>
      <trkpt lat="44.43633" lon="1.14154">
        <ele>136.834976</ele>
        <time>2009-08-13T09:36:20Z</time>
      </trkpt>
      <trkpt lat="44.43632" lon="1.14127">
        <ele>136.305084</ele>
        <time>2009-08-13T09:36:23Z</time>
      </trkpt>
      <trkpt lat="44.4363" lon="1.14091">
        <ele>135.96875</ele>
        <time>2009-08-13T09:36:27Z</time>
      </trkpt>
      <trkpt lat="44.43627" lon="1.14068">
        <ele>136.616867</ele>
        <time>2009-08-13T09:36:30Z</time>
      </trkpt>
      <trkpt lat="44.43626" lon="1.14045">
        <ele>137.071869</ele>
        <time>2009-08-13T09:36:33Z</time>
      </trkpt>
      <trkpt lat="44.43626" lon="1.14022">
        <ele>138.984604</ele>
        <time>2009-08-13T09:36:36Z</time>
      </trkpt>
      <trkpt lat="44.43632" lon="1.14001">
        <ele>140.405975</ele>
        <time>2009-08-13T09:36:39Z</time>
      </trkpt>
      <trkpt lat="44.43641" lon="1.13981">
        <ele>140.325485</ele>
        <time>2009-08-13T09:36:42Z</time>
      </trkpt>
      <trkpt lat="44.43653" lon="1.13964">
        <ele>140.508377</ele>
        <time>2009-08-13T09:36:45Z</time>
      </trkpt>
      <trkpt lat="44.43667" lon="1.13943">
        <ele>141.814423</ele>
        <time>2009-08-13T09:36:49Z</time>
      </trkpt>
      <trkpt lat="44.4368" lon="1.13926">
        <ele>141.508987</ele>
        <time>2009-08-13T09:36:52Z</time>
      </trkpt>
      <trkpt lat="44.43695" lon="1.13909">
        <ele>140.192902</ele>
        <time>2009-08-13T09:36:55Z</time>
      </trkpt>
      <trkpt lat="44.43715" lon="1.13893">
        <ele>140.394257</ele>
        <time>2009-08-13T09:36:58Z</time>
      </trkpt>
      <trkpt lat="44.43733" lon="1.13879">
        <ele>140.133743</ele>
        <time>2009-08-13T09:37:01Z</time>
      </trkpt>
      <trkpt lat="44.43757" lon="1.13864">
        <ele>139.566559</ele>
        <time>2009-08-13T09:37:05Z</time>
      </trkpt>
      <trkpt lat="44.43775" lon="1.13856">
        <ele>138.337097</ele>
        <time>2009-08-13T09:37:08Z</time>
      </trkpt>
      <trkpt lat="44.43795" lon="1.1385">
        <ele>137.354996</ele>
        <time>2009-08-13T09:37:11Z</time>
      </trkpt>
      <trkpt lat="44.43813" lon="1.13844">
        <ele>136.766937</ele>
        <time>2009-08-13T09:37:14Z</time>
      </trkpt>
      <trkpt lat="44.43828" lon="1.13835">
        <ele>136.173462</ele>
        <time>2009-08-13T09:37:17Z</time>
      </trkpt>
      <trkpt lat="44.43845" lon="1.13825">
        <ele>134.939346</ele>
        <time>2009-08-13T09:37:20Z</time>
      </trkpt>
      <trkpt lat="44.43867" lon="1.13812">
        <ele>132.965927</ele>
        <time>2009-08-13T09:37:24Z</time>
      </trkpt>
      <trkpt lat="44.43884" lon="1.13803">
        <ele>131.57312</ele>
        <time>2009-08-13T09:37:27Z</time>
      </trkpt>
      <trkpt lat="44.43901" lon="1.13794">
        <ele>130.258118</ele>
        <time>2009-08-13T09:37:30Z</time>
      </trkpt>
      <trkpt lat="44.43914" lon="1.13783">
        <ele>129.259369</ele>
        <time>2009-08-13T09:37:34Z</time>
      </trkpt>
      <trkpt lat="44.43914" lon="1.13772">
        <ele>129.156403</ele>
        <time>2009-08-13T09:37:37Z</time>
      </trkpt>
      <trkpt lat="44.43911" lon="1.13763">
        <ele>129.358658</ele>
        <time>2009-08-13T09:37:40Z</time>
      </trkpt>
      <trkpt lat="44.43905" lon="1.13754">
        <ele>129.652481</ele>
        <time>2009-08-13T09:37:43Z</time>
      </trkpt>
      <trkpt lat="44.43896" lon="1.13736">
        <ele>130.054962</ele>
        <time>2009-08-13T09:37:47Z</time>
      </trkpt>
      <trkpt lat="44.43885" lon="1.1372">
        <ele>130.399124</ele>
        <time>2009-08-13T09:37:50Z</time>
      </trkpt>
      <trkpt lat="44.43876" lon="1.13705">
        <ele>130.598557</ele>
        <time>2009-08-13T09:37:53Z</time>
      </trkpt>
      <trkpt lat="44.43866" lon="1.13691">
        <ele>130.851151</ele>
        <time>2009-08-13T09:37:56Z</time>
      </trkpt>
      <trkpt lat="44.43856" lon="1.13677">
        <ele>131.073135</ele>
        <time>2009-08-13T09:37:59Z</time>
      </trkpt>
      <trkpt lat="44.43842" lon="1.13657">
        <ele>131.284821</ele>
        <time>2009-08-13T09:38:03Z</time>
      </trkpt>
      <trkpt lat="44.43831" lon="1.13643">
        <ele>131.597717</ele>
        <time>2009-08-13T09:38:06Z</time>
      </trkpt>
      <trkpt lat="44.43819" lon="1.13629">
        <ele>131.981766</ele>
        <time>2009-08-13T09:38:09Z</time>
      </trkpt>
      <trkpt lat="44.43808" lon="1.13615">
        <ele>132.339462</ele>
        <time>2009-08-13T09:38:12Z</time>
      </trkpt>
      <trkpt lat="44.43796" lon="1.13602">
        <ele>132.553726</ele>
        <time>2009-08-13T09:38:15Z</time>
      </trkpt>
      <trkpt lat="44.43784" lon="1.13589">
        <ele>132.729095</ele>
        <time>2009-08-13T09:38:18Z</time>
      </trkpt>
      <trkpt lat="44.43771" lon="1.13572">
        <ele>133.336441</ele>
        <time>2009-08-13T09:38:22Z</time>
      </trkpt>
      <trkpt lat="44.43761" lon="1.13559">
        <ele>133.848557</ele>
        <time>2009-08-13T09:38:25Z</time>
      </trkpt>
      <trkpt lat="44.43749" lon="1.13548">
        <ele>134.442551</ele>
        <time>2009-08-13T09:38:28Z</time>
      </trkpt>
      <trkpt lat="44.43738" lon="1.13539">
        <ele>134.927521</ele>
        <time>2009-08-13T09:38:31Z</time>
      </trkpt>
      <trkpt lat="44.43724" lon="1.13528">
        <ele>135.305023</ele>
        <time>2009-08-13T09:38:34Z</time>
      </trkpt>
      <trkpt lat="44.43709" lon="1.13521">
        <ele>135.649628</ele>
        <time>2009-08-13T09:38:37Z</time>
      </trkpt>
      <trkpt lat="44.4369" lon="1.13518">
        <ele>136.156769</ele>
        <time>2009-08-13T09:38:41Z</time>
      </trkpt>
      <trkpt lat="44.43675" lon="1.13518">
        <ele>136.184372</ele>
        <time>2009-08-13T09:38:44Z</time>
      </trkpt>
      <trkpt lat="44.43659" lon="1.13518">
        <ele>136.169373</ele>
        <time>2009-08-13T09:38:47Z</time>
      </trkpt>
      <trkpt lat="44.43646" lon="1.1352">
        <ele>136.221878</ele>
        <time>2009-08-13T09:38:50Z</time>
      </trkpt>
      <trkpt lat="44.43631" lon="1.13523">
        <ele>136.36438</ele>
        <time>2009-08-13T09:38:53Z</time>
      </trkpt>
      <trkpt lat="44.43616" lon="1.13529">
        <ele>136.621246</ele>
        <time>2009-08-13T09:38:56Z</time>
      </trkpt>
      <trkpt lat="44.43597" lon="1.13539">
        <ele>137.249603</ele>
        <time>2009-08-13T09:39:00Z</time>
      </trkpt>
      <trkpt lat="44.43583" lon="1.13548">
        <ele>138.333847</ele>
        <time>2009-08-13T09:39:03Z</time>
      </trkpt>
      <trkpt lat="44.43568" lon="1.13555">
        <ele>139.12381</ele>
        <time>2009-08-13T09:39:06Z</time>
      </trkpt>
      <trkpt lat="44.43554" lon="1.13559">
        <ele>139.336014</ele>
        <time>2009-08-13T09:39:09Z</time>
      </trkpt>
      <trkpt lat="44.43544" lon="1.13563">
        <ele>139.441559</ele>
        <time>2009-08-13T09:39:12Z</time>
      </trkpt>
      <trkpt lat="44.43535" lon="1.13566">
        <ele>139.422806</ele>
        <time>2009-08-13T09:39:15Z</time>
      </trkpt>
      <trkpt lat="44.43524" lon="1.13569">
        <ele>139.34668</ele>
        <time>2009-08-13T09:39:19Z</time>
      </trkpt>
      <trkpt lat="44.43516" lon="1.13572">
        <ele>139.367386</ele>
        <time>2009-08-13T09:39:22Z</time>
      </trkpt>
      <trkpt lat="44.43509" lon="1.13573">
        <ele>139.248444</ele>
        <time>2009-08-13T09:39:25Z</time>
      </trkpt>
      <trkpt lat="44.435" lon="1.13566">
        <ele>138.28241</ele>
        <time>2009-08-13T09:39:29Z</time>
      </trkpt>
      <trkpt lat="44.43498" lon="1.13551">
        <ele>136.981033</ele>
        <time>2009-08-13T09:39:32Z</time>
      </trkpt>
      <trkpt lat="44.43495" lon="1.13526">
        <ele>135.721756</ele>
        <time>2009-08-13T09:39:36Z</time>
      </trkpt>
      <trkpt lat="44.43491" lon="1.13508">
        <ele>135.406006</ele>
        <time>2009-08-13T09:39:39Z</time>
      </trkpt>
      <trkpt lat="44.43489" lon="1.13489">
        <ele>135.114502</ele>
        <time>2009-08-13T09:39:42Z</time>
      </trkpt>
      <trkpt lat="44.43489" lon="1.13468">
        <ele>134.967865</ele>
        <time>2009-08-13T09:39:45Z</time>
      </trkpt>
      <trkpt lat="44.43493" lon="1.13448">
        <ele>134.990479</ele>
        <time>2009-08-13T09:39:48Z</time>
      </trkpt>
      <trkpt lat="44.435" lon="1.13422">
        <ele>135.075485</ele>
        <time>2009-08-13T09:39:52Z</time>
      </trkpt>
      <trkpt lat="44.43504" lon="1.13408">
        <ele>135.255737</ele>
        <time>2009-08-13T09:39:55Z</time>
      </trkpt>
      <trkpt lat="44.43507" lon="1.13395">
        <ele>135.606781</ele>
        <time>2009-08-13T09:39:58Z</time>
      </trkpt>
      <trkpt lat="44.43513" lon="1.13379">
        <ele>136.098755</ele>
        <time>2009-08-13T09:40:01Z</time>
      </trkpt>
      <trkpt lat="44.43518" lon="1.13363">
        <ele>136.615005</ele>
        <time>2009-08-13T09:40:04Z</time>
      </trkpt>
      <trkpt lat="44.43524" lon="1.13346">
        <ele>137.142502</ele>
        <time>2009-08-13T09:40:07Z</time>
      </trkpt>
      <trkpt lat="44.43528" lon="1.1333">
        <ele>137.649994</ele>
        <time>2009-08-13T09:40:10Z</time>
      </trkpt>
      <trkpt lat="44.43526" lon="1.13315">
        <ele>138.117493</ele>
        <time>2009-08-13T09:40:13Z</time>
      </trkpt>
      <trkpt lat="44.43519" lon="1.13307">
        <ele>138.392502</ele>
        <time>2009-08-13T09:40:16Z</time>
      </trkpt>
      <trkpt lat="44.43508" lon="1.13301">
        <ele>138.574997</ele>
        <time>2009-08-13T09:40:20Z</time>
      </trkpt>
      <trkpt lat="44.43499" lon="1.13297">
        <ele>138.705002</ele>
        <time>2009-08-13T09:40:23Z</time>
      </trkpt>
      <trkpt lat="44.43492" lon="1.13294">
        <ele>138.806244</ele>
        <time>2009-08-13T09:40:26Z</time>
      </trkpt>
      <trkpt lat="44.43484" lon="1.13291">
        <ele>138.916245</ele>
        <time>2009-08-13T09:40:29Z</time>
      </trkpt>
      <trkpt lat="44.43476" lon="1.13288">
        <ele>139.050629</ele>
        <time>2009-08-13T09:40:32Z</time>
      </trkpt>
      <trkpt lat="44.43469" lon="1.13283">
        <ele>139.271881</ele>
        <time>2009-08-13T09:40:35Z</time>
      </trkpt>
      <trkpt lat="44.43462" lon="1.13278">
        <ele>139.528748</ele>
        <time>2009-08-13T09:40:38Z</time>
      </trkpt>
      <trkpt lat="44.43456" lon="1.13274">
        <ele>139.58609</ele>
        <time>2009-08-13T09:40:41Z</time>
      </trkpt>
      <trkpt lat="44.43452" lon="1.13269">
        <ele>139.671677</ele>
        <time>2009-08-13T09:40:44Z</time>
      </trkpt>
      <trkpt lat="44.43446" lon="1.13263">
        <ele>139.758698</ele>
        <time>2009-08-13T09:40:47Z</time>
      </trkpt>
      <trkpt lat="44.4344" lon="1.13256">
        <ele>139.853119</ele>
        <time>2009-08-13T09:40:50Z</time>
      </trkpt>
      <trkpt lat="44.43435" lon="1.13249">
        <ele>139.982834</ele>
        <time>2009-08-13T09:40:53Z</time>
      </trkpt>
      <trkpt lat="44.43429" lon="1.13242">
        <ele>139.992737</ele>
        <time>2009-08-13T09:40:56Z</time>
      </trkpt>
      <trkpt lat="44.43423" lon="1.13236">
        <ele>140.01503</ele>
        <time>2009-08-13T09:40:59Z</time>
      </trkpt>
      <trkpt lat="44.43419" lon="1.13228">
        <ele>140.08432</ele>
        <time>2009-08-13T09:41:02Z</time>
      </trkpt>
      <trkpt lat="44.43414" lon="1.1322">
        <ele>140.451813</ele>
        <time>2009-08-13T09:41:05Z</time>
      </trkpt>
      <trkpt lat="44.43409" lon="1.13212">
        <ele>140.775848</ele>
        <time>2009-08-13T09:41:08Z</time>
      </trkpt>
      <trkpt lat="44.43404" lon="1.13204">
        <ele>141.097778</ele>
        <time>2009-08-13T09:41:11Z</time>
      </trkpt>
      <trkpt lat="44.43399" lon="1.13197">
        <ele>141.368179</ele>
        <time>2009-08-13T09:41:14Z</time>
      </trkpt>
      <trkpt lat="44.43396" lon="1.13187">
        <ele>141.783981</ele>
        <time>2009-08-13T09:41:17Z</time>
      </trkpt>
      <trkpt lat="44.43392" lon="1.13178">
        <ele>142.076019</ele>
        <time>2009-08-13T09:41:20Z</time>
      </trkpt>
      <trkpt lat="44.43389" lon="1.13169">
        <ele>142.324341</ele>
        <time>2009-08-13T09:41:23Z</time>
      </trkpt>
      <trkpt lat="44.43384" lon="1.13161">
        <ele>142.72937</ele>
        <time>2009-08-13T09:41:26Z</time>
      </trkpt>
      <trkpt lat="44.43381" lon="1.13151">
        <ele>143.643448</ele>
        <time>2009-08-13T09:41:29Z</time>
      </trkpt>
      <trkpt lat="44.43377" lon="1.13143">
        <ele>144.390335</ele>
        <time>2009-08-13T09:41:32Z</time>
      </trkpt>
      <trkpt lat="44.43372" lon="1.13135">
        <ele>144.91687</ele>
        <time>2009-08-13T09:41:35Z</time>
      </trkpt>
      <trkpt lat="44.43365" lon="1.1313">
        <ele>145.263992</ele>
        <time>2009-08-13T09:41:38Z</time>
      </trkpt>
      <trkpt lat="44.43359" lon="1.13125">
        <ele>145.554306</ele>
        <time>2009-08-13T09:41:41Z</time>
      </trkpt>
      <trkpt lat="44.43353" lon="1.13122">
        <ele>145.59227</ele>
        <time>2009-08-13T09:41:44Z</time>
      </trkpt>
      <trkpt lat="44.43347" lon="1.13121">
        <ele>145.388962</ele>
        <time>2009-08-13T09:41:47Z</time>
      </trkpt>
      <trkpt lat="44.43342" lon="1.13119">
        <ele>145.248871</ele>
        <time>2009-08-13T09:41:51Z</time>
      </trkpt>
      <trkpt lat="44.43339" lon="1.13115">
        <ele>145.546005</ele>
        <time>2009-08-13T09:41:54Z</time>
      </trkpt>
      <trkpt lat="44.43341" lon="1.13109">
        <ele>146.333374</ele>
        <time>2009-08-13T09:41:57Z</time>
      </trkpt>
      <trkpt lat="44.43344" lon="1.13106">
        <ele>147.00209</ele>
        <time>2009-08-13T09:42:00Z</time>
      </trkpt>
      <trkpt lat="44.43348" lon="1.13103">
        <ele>147.529999</ele>
        <time>2009-08-13T09:42:03Z</time>
      </trkpt>
      <trkpt lat="44.43351" lon="1.13097">
        <ele>148.203278</ele>
        <time>2009-08-13T09:42:07Z</time>
      </trkpt>
      <trkpt lat="44.43353" lon="1.13092">
        <ele>148.671127</ele>
        <time>2009-08-13T09:42:10Z</time>
      </trkpt>
      <trkpt lat="44.43357" lon="1.13087">
        <ele>149.409195</ele>
        <time>2009-08-13T09:42:14Z</time>
      </trkpt>
      <trkpt lat="44.43362" lon="1.13083">
        <ele>150.197113</ele>
        <time>2009-08-13T09:42:18Z</time>
      </trkpt>
      <trkpt lat="44.43367" lon="1.13078">
        <ele>151.129547</ele>
        <time>2009-08-13T09:42:22Z</time>
      </trkpt>
      <trkpt lat="44.43372" lon="1.13074">
        <ele>151.911392</ele>
        <time>2009-08-13T09:42:25Z</time>
      </trkpt>
      <trkpt lat="44.43375" lon="1.1307">
        <ele>152.575226</ele>
        <time>2009-08-13T09:42:28Z</time>
      </trkpt>
      <trkpt lat="44.43378" lon="1.13066">
        <ele>153.265625</ele>
        <time>2009-08-13T09:42:31Z</time>
      </trkpt>
      <trkpt lat="44.43382" lon="1.13063">
        <ele>153.874619</ele>
        <time>2009-08-13T09:42:34Z</time>
      </trkpt>
      <trkpt lat="44.43386" lon="1.13061">
        <ele>154.521805</ele>
        <time>2009-08-13T09:42:37Z</time>
      </trkpt>
      <trkpt lat="44.43389" lon="1.13055">
        <ele>155.485275</ele>
        <time>2009-08-13T09:42:41Z</time>
      </trkpt>
      <trkpt lat="44.43395" lon="1.13049">
        <ele>156.719299</ele>
        <time>2009-08-13T09:42:46Z</time>
      </trkpt>
      <trkpt lat="44.43398" lon="1.13046">
        <ele>157.384384</ele>
        <time>2009-08-13T09:42:49Z</time>
      </trkpt>
      <trkpt lat="44.434" lon="1.13046">
        <ele>157.593979</ele>
        <time>2009-08-13T09:42:59Z</time>
      </trkpt>
      <trkpt lat="44.43401" lon="1.13044">
        <ele>157.959213</ele>
        <time>2009-08-13T09:43:05Z</time>
      </trkpt>
      <trkpt lat="44.43405" lon="1.13039">
        <ele>158.891876</ele>
        <time>2009-08-13T09:43:09Z</time>
      </trkpt>
      <trkpt lat="44.43407" lon="1.13034">
        <ele>159.53212</ele>
        <time>2009-08-13T09:43:13Z</time>
      </trkpt>
      <trkpt lat="44.43409" lon="1.1303">
        <ele>160.026917</ele>
        <time>2009-08-13T09:43:17Z</time>
      </trkpt>
      <trkpt lat="44.4341" lon="1.13026">
        <ele>160.283752</ele>
        <time>2009-08-13T09:43:20Z</time>
      </trkpt>
      <trkpt lat="44.4341" lon="1.13022">
        <ele>160.632538</ele>
        <time>2009-08-13T09:43:26Z</time>
      </trkpt>
      <trkpt lat="44.43411" lon="1.13018">
        <ele>160.938812</ele>
        <time>2009-08-13T09:43:30Z</time>
      </trkpt>
      <trkpt lat="44.4341" lon="1.13014">
        <ele>161.085159</ele>
        <time>2009-08-13T09:43:34Z</time>
      </trkpt>
      <trkpt lat="44.43409" lon="1.13009">
        <ele>161.191467</ele>
        <time>2009-08-13T09:43:38Z</time>
      </trkpt>
      <trkpt lat="44.43406" lon="1.13">
        <ele>161.336655</ele>
        <time>2009-08-13T09:43:43Z</time>
      </trkpt>
      <trkpt lat="44.43404" lon="1.12994">
        <ele>161.47261</ele>
        <time>2009-08-13T09:43:46Z</time>
      </trkpt>
      <trkpt lat="44.43402" lon="1.12986">
        <ele>161.594757</ele>
        <time>2009-08-13T09:43:50Z</time>
      </trkpt>
      <trkpt lat="44.434" lon="1.1298">
        <ele>161.743332</ele>
        <time>2009-08-13T09:43:53Z</time>
      </trkpt>
      <trkpt lat="44.434" lon="1.12974">
        <ele>162.014954</ele>
        <time>2009-08-13T09:43:56Z</time>
      </trkpt>
      <trkpt lat="44.43403" lon="1.12966">
        <ele>162.629761</ele>
        <time>2009-08-13T09:43:59Z</time>
      </trkpt>
      <trkpt lat="44.43404" lon="1.12962">
        <ele>163.044601</ele>
        <time>2009-08-13T09:44:02Z</time>
      </trkpt>
      <trkpt lat="44.43407" lon="1.12954">
        <ele>163.808258</ele>
        <time>2009-08-13T09:44:06Z</time>
      </trkpt>
      <trkpt lat="44.43409" lon="1.12948">
        <ele>164.465393</ele>
        <time>2009-08-13T09:44:09Z</time>
      </trkpt>
      <trkpt lat="44.4341" lon="1.12942">
        <ele>165.017105</ele>
        <time>2009-08-13T09:44:12Z</time>
      </trkpt>
      <trkpt lat="44.43411" lon="1.12936">
        <ele>165.535736</ele>
        <time>2009-08-13T09:44:15Z</time>
      </trkpt>
      <trkpt lat="44.43412" lon="1.1293">
        <ele>165.991501</ele>
        <time>2009-08-13T09:44:18Z</time>
      </trkpt>
      <trkpt lat="44.43412" lon="1.12924">
        <ele>166.337769</ele>
        <time>2009-08-13T09:44:21Z</time>
      </trkpt>
      <trkpt lat="44.43413" lon="1.12918">
        <ele>166.776871</ele>
        <time>2009-08-13T09:44:25Z</time>
      </trkpt>
      <trkpt lat="44.43413" lon="1.12912">
        <ele>167.100662</ele>
        <time>2009-08-13T09:44:28Z</time>
      </trkpt>
      <trkpt lat="44.43414" lon="1.12903">
        <ele>167.102066</ele>
        <time>2009-08-13T09:44:31Z</time>
      </trkpt>
      <trkpt lat="44.43414" lon="1.12892">
        <ele>166.972961</ele>
        <time>2009-08-13T09:44:34Z</time>
      </trkpt>
      <trkpt lat="44.43415" lon="1.1288">
        <ele>167.042664</ele>
        <time>2009-08-13T09:44:37Z</time>
      </trkpt>
      <trkpt lat="44.43414" lon="1.12868">
        <ele>166.819107</ele>
        <time>2009-08-13T09:44:40Z</time>
      </trkpt>
      <trkpt lat="44.43415" lon="1.12853">
        <ele>166.866119</ele>
        <time>2009-08-13T09:44:43Z</time>
      </trkpt>
      <trkpt lat="44.43414" lon="1.12839">
        <ele>166.198746</ele>
        <time>2009-08-13T09:44:46Z</time>
      </trkpt>
      <trkpt lat="44.43412" lon="1.1283">
        <ele>165.403748</ele>
        <time>2009-08-13T09:44:49Z</time>
      </trkpt>
      <trkpt lat="44.43408" lon="1.12819">
        <ele>164.201935</ele>
        <time>2009-08-13T09:44:52Z</time>
      </trkpt>
      <trkpt lat="44.43399" lon="1.12804">
        <ele>161.796967</ele>
        <time>2009-08-13T09:44:56Z</time>
      </trkpt>
      <trkpt lat="44.43396" lon="1.12794">
        <ele>161.090027</ele>
        <time>2009-08-13T09:45:00Z</time>
      </trkpt>
      <trkpt lat="44.43395" lon="1.12793">
        <ele>160.807861</ele>
        <time>2009-08-13T09:45:07Z</time>
      </trkpt>
      <trkpt lat="44.43394" lon="1.12789">
        <ele>160.569077</ele>
        <time>2009-08-13T09:45:10Z</time>
      </trkpt>
      <trkpt lat="44.43394" lon="1.12784">
        <ele>160.490875</ele>
        <time>2009-08-13T09:45:13Z</time>
      </trkpt>
      <trkpt lat="44.43392" lon="1.12777">
        <ele>159.903915</ele>
        <time>2009-08-13T09:45:17Z</time>
      </trkpt>
      <trkpt lat="44.43392" lon="1.12776">
        <ele>159.962891</ele>
        <time>2009-08-13T09:45:23Z</time>
      </trkpt>
      <trkpt lat="44.43392" lon="1.12774">
        <ele>159.849289</ele>
        <time>2009-08-13T09:45:28Z</time>
      </trkpt>
      <trkpt lat="44.43391" lon="1.12774">
        <ele>159.660431</ele>
        <time>2009-08-13T09:45:39Z</time>
      </trkpt>
      <trkpt lat="44.4339" lon="1.12774">
        <ele>159.418152</ele>
        <time>2009-08-13T09:46:29Z</time>
      </trkpt>
      <trkpt lat="44.43388" lon="1.12776">
        <ele>159.212769</ele>
        <time>2009-08-13T09:46:34Z</time>
      </trkpt>
      <trkpt lat="44.43389" lon="1.12777">
        <ele>159.431198</ele>
        <time>2009-08-13T09:46:47Z</time>
      </trkpt>
      <trkpt lat="44.43388" lon="1.12776">
        <ele>159.1483</ele>
        <time>2009-08-13T09:47:03Z</time>
      </trkpt>
      <trkpt lat="44.43388" lon="1.12774">
        <ele>159.189499</ele>
        <time>2009-08-13T09:47:07Z</time>
      </trkpt>
      <trkpt lat="44.43389" lon="1.12773">
        <ele>159.251251</ele>
        <time>2009-08-13T09:47:10Z</time>
      </trkpt>
      <trkpt lat="44.43389" lon="1.12765">
        <ele>159.257126</ele>
        <time>2009-08-13T09:47:14Z</time>
      </trkpt>
      <trkpt lat="44.43391" lon="1.12758">
        <ele>159.402588</ele>
        <time>2009-08-13T09:47:18Z</time>
      </trkpt>
      <trkpt lat="44.43391" lon="1.12751">
        <ele>159.355469</ele>
        <time>2009-08-13T09:47:21Z</time>
      </trkpt>
      <trkpt lat="44.43391" lon="1.12745">
        <ele>159.244659</ele>
        <time>2009-08-13T09:47:26Z</time>
      </trkpt>
      <trkpt lat="44.43392" lon="1.12737">
        <ele>159.254013</ele>
        <time>2009-08-13T09:47:30Z</time>
      </trkpt>
      <trkpt lat="44.43393" lon="1.12726">
        <ele>159.215744</ele>
        <time>2009-08-13T09:47:34Z</time>
      </trkpt>
      <trkpt lat="44.43394" lon="1.12716">
        <ele>159.291245</ele>
        <time>2009-08-13T09:47:37Z</time>
      </trkpt>
      <trkpt lat="44.43396" lon="1.12702">
        <ele>159.378754</ele>
        <time>2009-08-13T09:47:40Z</time>
      </trkpt>
      <trkpt lat="44.43397" lon="1.12691">
        <ele>159.331253</ele>
        <time>2009-08-13T09:47:43Z</time>
      </trkpt>
      <trkpt lat="44.43398" lon="1.1268">
        <ele>159.302505</ele>
        <time>2009-08-13T09:47:46Z</time>
      </trkpt>
      <trkpt lat="44.43399" lon="1.12669">
        <ele>159.379379</ele>
        <time>2009-08-13T09:47:49Z</time>
      </trkpt>
      <trkpt lat="44.434" lon="1.12657">
        <ele>159.259048</ele>
        <time>2009-08-13T09:47:52Z</time>
      </trkpt>
      <trkpt lat="44.43401" lon="1.12646">
        <ele>159.110626</ele>
        <time>2009-08-13T09:47:55Z</time>
      </trkpt>
      <trkpt lat="44.43403" lon="1.12636">
        <ele>159.120499</ele>
        <time>2009-08-13T09:47:58Z</time>
      </trkpt>
      <trkpt lat="44.43404" lon="1.12629">
        <ele>159.069885</ele>
        <time>2009-08-13T09:48:01Z</time>
      </trkpt>
      <trkpt lat="44.43404" lon="1.1262">
        <ele>158.799103</ele>
        <time>2009-08-13T09:48:05Z</time>
      </trkpt>
      <trkpt lat="44.43403" lon="1.12607">
        <ele>158.353973</ele>
        <time>2009-08-13T09:48:08Z</time>
      </trkpt>
      <trkpt lat="44.43403" lon="1.12593">
        <ele>158.171753</ele>
        <time>2009-08-13T09:48:11Z</time>
      </trkpt>
      <trkpt lat="44.43402" lon="1.12582">
        <ele>158.221588</ele>
        <time>2009-08-13T09:48:14Z</time>
      </trkpt>
      <trkpt lat="44.43402" lon="1.12572">
        <ele>158.377487</ele>
        <time>2009-08-13T09:48:17Z</time>
      </trkpt>
      <trkpt lat="44.43401" lon="1.12562">
        <ele>158.307205</ele>
        <time>2009-08-13T09:48:20Z</time>
      </trkpt>
      <trkpt lat="44.43402" lon="1.12549">
        <ele>158.595474</ele>
        <time>2009-08-13T09:48:23Z</time>
      </trkpt>
      <trkpt lat="44.43401" lon="1.12538">
        <ele>158.671631</ele>
        <time>2009-08-13T09:48:26Z</time>
      </trkpt>
      <trkpt lat="44.43403" lon="1.12525">
        <ele>158.831924</ele>
        <time>2009-08-13T09:48:29Z</time>
      </trkpt>
      <trkpt lat="44.43403" lon="1.12514">
        <ele>158.722961</ele>
        <time>2009-08-13T09:48:32Z</time>
      </trkpt>
      <trkpt lat="44.43402" lon="1.12503">
        <ele>158.503967</ele>
        <time>2009-08-13T09:48:35Z</time>
      </trkpt>
      <trkpt lat="44.43402" lon="1.12493">
        <ele>158.375107</ele>
        <time>2009-08-13T09:48:38Z</time>
      </trkpt>
      <trkpt lat="44.43402" lon="1.12484">
        <ele>158.319382</ele>
        <time>2009-08-13T09:48:41Z</time>
      </trkpt>
      <trkpt lat="44.43404" lon="1.12469">
        <ele>158.5345</ele>
        <time>2009-08-13T09:48:44Z</time>
      </trkpt>
      <trkpt lat="44.43408" lon="1.12446">
        <ele>159.112274</ele>
        <time>2009-08-13T09:48:47Z</time>
      </trkpt>
      <trkpt lat="44.4341" lon="1.12433">
        <ele>159.517502</ele>
        <time>2009-08-13T09:48:50Z</time>
      </trkpt>
      <trkpt lat="44.43412" lon="1.12419">
        <ele>159.998032</ele>
        <time>2009-08-13T09:48:54Z</time>
      </trkpt>
      <trkpt lat="44.43413" lon="1.12409">
        <ele>160.219452</ele>
        <time>2009-08-13T09:48:57Z</time>
      </trkpt>
      <trkpt lat="44.43416" lon="1.12394">
        <ele>160.594849</ele>
        <time>2009-08-13T09:49:01Z</time>
      </trkpt>
      <trkpt lat="44.43417" lon="1.12382">
        <ele>160.6492</ele>
        <time>2009-08-13T09:49:04Z</time>
      </trkpt>
      <trkpt lat="44.43416" lon="1.12375">
        <ele>160.39502</ele>
        <time>2009-08-13T09:49:08Z</time>
      </trkpt>
      <trkpt lat="44.43415" lon="1.12363">
        <ele>160.240417</ele>
        <time>2009-08-13T09:49:11Z</time>
      </trkpt>
      <trkpt lat="44.43415" lon="1.12352">
        <ele>160.126144</ele>
        <time>2009-08-13T09:49:14Z</time>
      </trkpt>
      <trkpt lat="44.43415" lon="1.12341">
        <ele>159.99437</ele>
        <time>2009-08-13T09:49:17Z</time>
      </trkpt>
      <trkpt lat="44.43415" lon="1.12331">
        <ele>159.914368</ele>
        <time>2009-08-13T09:49:20Z</time>
      </trkpt>
      <trkpt lat="44.43414" lon="1.1232">
        <ele>159.631256</ele>
        <time>2009-08-13T09:49:23Z</time>
      </trkpt>
      <trkpt lat="44.43414" lon="1.12305">
        <ele>159.422501</ele>
        <time>2009-08-13T09:49:26Z</time>
      </trkpt>
      <trkpt lat="44.43415" lon="1.12296">
        <ele>159.329376</ele>
        <time>2009-08-13T09:49:30Z</time>
      </trkpt>
      <trkpt lat="44.43413" lon="1.12286">
        <ele>159.004471</ele>
        <time>2009-08-13T09:49:33Z</time>
      </trkpt>
      <trkpt lat="44.43413" lon="1.12274">
        <ele>158.989075</ele>
        <time>2009-08-13T09:49:36Z</time>
      </trkpt>
      <trkpt lat="44.43415" lon="1.12265">
        <ele>159.147293</ele>
        <time>2009-08-13T09:49:39Z</time>
      </trkpt>
      <trkpt lat="44.43417" lon="1.12254">
        <ele>159.443588</ele>
        <time>2009-08-13T09:49:43Z</time>
      </trkpt>
      <trkpt lat="44.43421" lon="1.12242">
        <ele>159.868698</ele>
        <time>2009-08-13T09:49:46Z</time>
      </trkpt>
      <trkpt lat="44.43425" lon="1.12232">
        <ele>160.290909</ele>
        <time>2009-08-13T09:49:49Z</time>
      </trkpt>
      <trkpt lat="44.43429" lon="1.12224">
        <ele>160.607147</ele>
        <time>2009-08-13T09:49:52Z</time>
      </trkpt>
      <trkpt lat="44.43433" lon="1.12213">
        <ele>161.173187</ele>
        <time>2009-08-13T09:49:56Z</time>
      </trkpt>
      <trkpt lat="44.43441" lon="1.122">
        <ele>161.732773</ele>
        <time>2009-08-13T09:49:59Z</time>
      </trkpt>
      <trkpt lat="44.43446" lon="1.12192">
        <ele>161.85173</ele>
        <time>2009-08-13T09:50:02Z</time>
      </trkpt>
      <trkpt lat="44.43452" lon="1.12184">
        <ele>161.959305</ele>
        <time>2009-08-13T09:50:05Z</time>
      </trkpt>
      <trkpt lat="44.43459" lon="1.12177">
        <ele>162.117661</ele>
        <time>2009-08-13T09:50:08Z</time>
      </trkpt>
      <trkpt lat="44.43463" lon="1.1217">
        <ele>162.116486</ele>
        <time>2009-08-13T09:50:11Z</time>
      </trkpt>
      <trkpt lat="44.43469" lon="1.12164">
        <ele>162.10675</ele>
        <time>2009-08-13T09:50:14Z</time>
      </trkpt>
      <trkpt lat="44.43475" lon="1.12156">
        <ele>162.15593</ele>
        <time>2009-08-13T09:50:17Z</time>
      </trkpt>
      <trkpt lat="44.43481" lon="1.12149">
        <ele>162.368378</ele>
        <time>2009-08-13T09:50:20Z</time>
      </trkpt>
      <trkpt lat="44.43486" lon="1.1214">
        <ele>162.35997</ele>
        <time>2009-08-13T09:50:23Z</time>
      </trkpt>
      <trkpt lat="44.43491" lon="1.12131">
        <ele>162.163162</ele>
        <time>2009-08-13T09:50:26Z</time>
      </trkpt>
      <trkpt lat="44.43497" lon="1.12123">
        <ele>162.114792</ele>
        <time>2009-08-13T09:50:29Z</time>
      </trkpt>
      <trkpt lat="44.43502" lon="1.12118">
        <ele>162.336334</ele>
        <time>2009-08-13T09:50:32Z</time>
      </trkpt>
      <trkpt lat="44.43509" lon="1.1211">
        <ele>162.522308</ele>
        <time>2009-08-13T09:50:35Z</time>
      </trkpt>
      <trkpt lat="44.43514" lon="1.12101">
        <ele>162.593552</ele>
        <time>2009-08-13T09:50:38Z</time>
      </trkpt>
      <trkpt lat="44.43518" lon="1.12093">
        <ele>162.723434</ele>
        <time>2009-08-13T09:50:41Z</time>
      </trkpt>
      <trkpt lat="44.43523" lon="1.12085">
        <ele>163.294662</ele>
        <time>2009-08-13T09:50:44Z</time>
      </trkpt>
      <trkpt lat="44.43527" lon="1.12078">
        <ele>163.731247</ele>
        <time>2009-08-13T09:50:47Z</time>
      </trkpt>
      <trkpt lat="44.43531" lon="1.12072">
        <ele>164.076004</ele>
        <time>2009-08-13T09:50:50Z</time>
      </trkpt>
      <trkpt lat="44.4354" lon="1.12062">
        <ele>164.659927</ele>
        <time>2009-08-13T09:50:53Z</time>
      </trkpt>
      <trkpt lat="44.43546" lon="1.12053">
        <ele>165.564453</ele>
        <time>2009-08-13T09:50:57Z</time>
      </trkpt>
      <trkpt lat="44.43547" lon="1.12038">
        <ele>166.09819</ele>
        <time>2009-08-13T09:51:01Z</time>
      </trkpt>
      <trkpt lat="44.43548" lon="1.12028">
        <ele>166.647598</ele>
        <time>2009-08-13T09:51:04Z</time>
      </trkpt>
      <trkpt lat="44.43548" lon="1.12015">
        <ele>167.50737</ele>
        <time>2009-08-13T09:51:07Z</time>
      </trkpt>
      <trkpt lat="44.43549" lon="1.11999">
        <ele>168.825943</ele>
        <time>2009-08-13T09:51:10Z</time>
      </trkpt>
      <trkpt lat="44.43549" lon="1.11989">
        <ele>169.618027</ele>
        <time>2009-08-13T09:51:13Z</time>
      </trkpt>
      <trkpt lat="44.4355" lon="1.11975">
        <ele>170.864853</ele>
        <time>2009-08-13T09:51:17Z</time>
      </trkpt>
      <trkpt lat="44.43551" lon="1.11965">
        <ele>171.494919</ele>
        <time>2009-08-13T09:51:20Z</time>
      </trkpt>
      <trkpt lat="44.4355" lon="1.11951">
        <ele>171.822372</ele>
        <time>2009-08-13T09:51:23Z</time>
      </trkpt>
      <trkpt lat="44.43551" lon="1.11941">
        <ele>172.180695</ele>
        <time>2009-08-13T09:51:26Z</time>
      </trkpt>
      <trkpt lat="44.43552" lon="1.11931">
        <ele>172.661545</ele>
        <time>2009-08-13T09:51:30Z</time>
      </trkpt>
      <trkpt lat="44.43551" lon="1.11919">
        <ele>172.874313</ele>
        <time>2009-08-13T09:51:33Z</time>
      </trkpt>
      <trkpt lat="44.4355" lon="1.11909">
        <ele>172.977066</ele>
        <time>2009-08-13T09:51:37Z</time>
      </trkpt>
      <trkpt lat="44.43548" lon="1.11894">
        <ele>173.046875</ele>
        <time>2009-08-13T09:51:40Z</time>
      </trkpt>
      <trkpt lat="44.43547" lon="1.11885">
        <ele>172.980621</ele>
        <time>2009-08-13T09:51:43Z</time>
      </trkpt>
      <trkpt lat="44.43547" lon="1.11878">
        <ele>173.077499</ele>
        <time>2009-08-13T09:51:47Z</time>
      </trkpt>
      <trkpt lat="44.43544" lon="1.11865">
        <ele>172.908752</ele>
        <time>2009-08-13T09:51:51Z</time>
      </trkpt>
      <trkpt lat="44.43543" lon="1.11854">
        <ele>172.909378</ele>
        <time>2009-08-13T09:51:54Z</time>
      </trkpt>
      <trkpt lat="44.4354" lon="1.1184">
        <ele>172.76738</ele>
        <time>2009-08-13T09:51:58Z</time>
      </trkpt>
      <trkpt lat="44.43538" lon="1.11825">
        <ele>172.740646</ele>
        <time>2009-08-13T09:52:01Z</time>
      </trkpt>
      <trkpt lat="44.43538" lon="1.11814">
        <ele>172.929459</ele>
        <time>2009-08-13T09:52:05Z</time>
      </trkpt>
      <trkpt lat="44.43538" lon="1.11798">
        <ele>173.149872</ele>
        <time>2009-08-13T09:52:08Z</time>
      </trkpt>
      <trkpt lat="44.43538" lon="1.11787">
        <ele>173.456345</ele>
        <time>2009-08-13T09:52:11Z</time>
      </trkpt>
      <trkpt lat="44.43539" lon="1.11776">
        <ele>173.720993</ele>
        <time>2009-08-13T09:52:14Z</time>
      </trkpt>
      <trkpt lat="44.4354" lon="1.11767">
        <ele>174.084488</ele>
        <time>2009-08-13T09:52:17Z</time>
      </trkpt>
      <trkpt lat="44.43541" lon="1.11759">
        <ele>174.543442</ele>
        <time>2009-08-13T09:52:20Z</time>
      </trkpt>
      <trkpt lat="44.43543" lon="1.11749">
        <ele>175.119461</ele>
        <time>2009-08-13T09:52:23Z</time>
      </trkpt>
      <trkpt lat="44.43546" lon="1.11741">
        <ele>175.715149</ele>
        <time>2009-08-13T09:52:26Z</time>
      </trkpt>
      <trkpt lat="44.43546" lon="1.11732">
        <ele>176.036926</ele>
        <time>2009-08-13T09:52:29Z</time>
      </trkpt>
      <trkpt lat="44.43547" lon="1.11723">
        <ele>176.369019</ele>
        <time>2009-08-13T09:52:33Z</time>
      </trkpt>
      <trkpt lat="44.43551" lon="1.11711">
        <ele>177.399384</ele>
        <time>2009-08-13T09:52:37Z</time>
      </trkpt>
      <trkpt lat="44.43552" lon="1.11703">
        <ele>177.841248</ele>
        <time>2009-08-13T09:52:40Z</time>
      </trkpt>
      <trkpt lat="44.43555" lon="1.11689">
        <ele>178.646866</ele>
        <time>2009-08-13T09:52:44Z</time>
      </trkpt>
      <trkpt lat="44.43558" lon="1.11676">
        <ele>179.398132</ele>
        <time>2009-08-13T09:52:48Z</time>
      </trkpt>
      <trkpt lat="44.43559" lon="1.11668">
        <ele>179.862503</ele>
        <time>2009-08-13T09:52:51Z</time>
      </trkpt>
      <trkpt lat="44.4356" lon="1.11658">
        <ele>180.166245</ele>
        <time>2009-08-13T09:52:54Z</time>
      </trkpt>
      <trkpt lat="44.4356" lon="1.11647">
        <ele>180.230789</ele>
        <time>2009-08-13T09:52:58Z</time>
      </trkpt>
      <trkpt lat="44.43558" lon="1.11636">
        <ele>180.046051</ele>
        <time>2009-08-13T09:53:01Z</time>
      </trkpt>
      <trkpt lat="44.43557" lon="1.1163">
        <ele>179.853516</ele>
        <time>2009-08-13T09:53:04Z</time>
      </trkpt>
      <trkpt lat="44.43555" lon="1.11624">
        <ele>179.645035</ele>
        <time>2009-08-13T09:53:07Z</time>
      </trkpt>
      <trkpt lat="44.43554" lon="1.11616">
        <ele>179.516037</ele>
        <time>2009-08-13T09:53:10Z</time>
      </trkpt>
      <trkpt lat="44.43552" lon="1.1161">
        <ele>179.134766</ele>
        <time>2009-08-13T09:53:13Z</time>
      </trkpt>
      <trkpt lat="44.43549" lon="1.116">
        <ele>178.785309</ele>
        <time>2009-08-13T09:53:17Z</time>
      </trkpt>
      <trkpt lat="44.43548" lon="1.11593">
        <ele>178.579147</ele>
        <time>2009-08-13T09:53:20Z</time>
      </trkpt>
      <trkpt lat="44.43547" lon="1.11584">
        <ele>178.471359</ele>
        <time>2009-08-13T09:53:23Z</time>
      </trkpt>
      <trkpt lat="44.43546" lon="1.11576">
        <ele>178.392868</ele>
        <time>2009-08-13T09:53:26Z</time>
      </trkpt>
      <trkpt lat="44.43547" lon="1.11567">
        <ele>178.652115</ele>
        <time>2009-08-13T09:53:29Z</time>
      </trkpt>
      <trkpt lat="44.4355" lon="1.11559">
        <ele>179.25502</ele>
        <time>2009-08-13T09:53:32Z</time>
      </trkpt>
      <trkpt lat="44.43554" lon="1.11552">
        <ele>179.764938</ele>
        <time>2009-08-13T09:53:36Z</time>
      </trkpt>
      <trkpt lat="44.43558" lon="1.11541">
        <ele>180.428787</ele>
        <time>2009-08-13T09:53:40Z</time>
      </trkpt>
      <trkpt lat="44.43562" lon="1.11534">
        <ele>180.906754</ele>
        <time>2009-08-13T09:53:45Z</time>
      </trkpt>
      <trkpt lat="44.43565" lon="1.11529">
        <ele>181.3311</ele>
        <time>2009-08-13T09:53:49Z</time>
      </trkpt>
      <trkpt lat="44.43568" lon="1.11523">
        <ele>181.700806</ele>
        <time>2009-08-13T09:53:54Z</time>
      </trkpt>
      <trkpt lat="44.43571" lon="1.11519">
        <ele>181.901901</ele>
        <time>2009-08-13T09:53:57Z</time>
      </trkpt>
      <trkpt lat="44.43575" lon="1.11512">
        <ele>182.241745</ele>
        <time>2009-08-13T09:54:01Z</time>
      </trkpt>
      <trkpt lat="44.43577" lon="1.11507">
        <ele>182.353043</ele>
        <time>2009-08-13T09:54:04Z</time>
      </trkpt>
      <trkpt lat="44.43579" lon="1.11502">
        <ele>182.522003</ele>
        <time>2009-08-13T09:54:09Z</time>
      </trkpt>
      <trkpt lat="44.43579" lon="1.11496">
        <ele>182.293854</ele>
        <time>2009-08-13T09:54:12Z</time>
      </trkpt>
      <trkpt lat="44.43576" lon="1.11486">
        <ele>181.594131</ele>
        <time>2009-08-13T09:54:15Z</time>
      </trkpt>
      <trkpt lat="44.43564" lon="1.11479">
        <ele>180.625778</ele>
        <time>2009-08-13T09:54:19Z</time>
      </trkpt>
      <trkpt lat="44.4355" lon="1.11477">
        <ele>179.768341</ele>
        <time>2009-08-13T09:54:22Z</time>
      </trkpt>
      <trkpt lat="44.43535" lon="1.11465">
        <ele>179.425919</ele>
        <time>2009-08-13T09:54:26Z</time>
      </trkpt>
      <trkpt lat="44.4352" lon="1.11448">
        <ele>180.699341</ele>
        <time>2009-08-13T09:54:29Z</time>
      </trkpt>
      <trkpt lat="44.43516" lon="1.11441">
        <ele>181.049576</ele>
        <time>2009-08-13T09:54:33Z</time>
      </trkpt>
      <trkpt lat="44.43511" lon="1.11433">
        <ele>181.305969</ele>
        <time>2009-08-13T09:54:36Z</time>
      </trkpt>
      <trkpt lat="44.43508" lon="1.11426">
        <ele>181.410416</ele>
        <time>2009-08-13T09:54:40Z</time>
      </trkpt>
      <trkpt lat="44.43504" lon="1.1142">
        <ele>181.294266</ele>
        <time>2009-08-13T09:54:44Z</time>
      </trkpt>
      <trkpt lat="44.43503" lon="1.11416">
        <ele>181.315643</ele>
        <time>2009-08-13T09:54:47Z</time>
      </trkpt>
      <trkpt lat="44.435" lon="1.1141">
        <ele>181.282196</ele>
        <time>2009-08-13T09:54:50Z</time>
      </trkpt>
      <trkpt lat="44.43499" lon="1.11405">
        <ele>181.450851</ele>
        <time>2009-08-13T09:54:54Z</time>
      </trkpt>
      <trkpt lat="44.435" lon="1.11398">
        <ele>182.310501</ele>
        <time>2009-08-13T09:54:57Z</time>
      </trkpt>
      <trkpt lat="44.43499" lon="1.1139">
        <ele>182.844376</ele>
        <time>2009-08-13T09:55:01Z</time>
      </trkpt>
      <trkpt lat="44.43496" lon="1.11382">
        <ele>183.210327</ele>
        <time>2009-08-13T09:55:06Z</time>
      </trkpt>
      <trkpt lat="44.43494" lon="1.11377">
        <ele>183.36145</ele>
        <time>2009-08-13T09:55:09Z</time>
      </trkpt>
      <trkpt lat="44.43491" lon="1.11369">
        <ele>183.46521</ele>
        <time>2009-08-13T09:55:12Z</time>
      </trkpt>
      <trkpt lat="44.43489" lon="1.11363">
        <ele>183.682739</ele>
        <time>2009-08-13T09:55:16Z</time>
      </trkpt>
      <trkpt lat="44.43486" lon="1.11355">
        <ele>184.006653</ele>
        <time>2009-08-13T09:55:19Z</time>
      </trkpt>
      <trkpt lat="44.43485" lon="1.11349">
        <ele>184.355118</ele>
        <time>2009-08-13T09:55:22Z</time>
      </trkpt>
      <trkpt lat="44.43481" lon="1.11343">
        <ele>184.608276</ele>
        <time>2009-08-13T09:55:25Z</time>
      </trkpt>
      <trkpt lat="44.43478" lon="1.11336">
        <ele>185.811996</ele>
        <time>2009-08-13T09:55:29Z</time>
      </trkpt>
      <trkpt lat="44.43475" lon="1.11328">
        <ele>187.057846</ele>
        <time>2009-08-13T09:55:33Z</time>
      </trkpt>
      <trkpt lat="44.43472" lon="1.1132">
        <ele>188.425003</ele>
        <time>2009-08-13T09:55:38Z</time>
      </trkpt>
      <trkpt lat="44.43471" lon="1.11311">
        <ele>190.022385</ele>
        <time>2009-08-13T09:55:42Z</time>
      </trkpt>
      <trkpt lat="44.43469" lon="1.11305">
        <ele>191.151443</ele>
        <time>2009-08-13T09:55:45Z</time>
      </trkpt>
      <trkpt lat="44.43466" lon="1.11298">
        <ele>191.86232</ele>
        <time>2009-08-13T09:55:48Z</time>
      </trkpt>
      <trkpt lat="44.43462" lon="1.1129">
        <ele>192.706818</ele>
        <time>2009-08-13T09:55:51Z</time>
      </trkpt>
      <trkpt lat="44.4346" lon="1.11282">
        <ele>193.851913</ele>
        <time>2009-08-13T09:55:54Z</time>
      </trkpt>
      <trkpt lat="44.43456" lon="1.11273">
        <ele>194.130234</ele>
        <time>2009-08-13T09:55:58Z</time>
      </trkpt>
      <trkpt lat="44.43453" lon="1.11268">
        <ele>194.060532</ele>
        <time>2009-08-13T09:56:01Z</time>
      </trkpt>
      <trkpt lat="44.43451" lon="1.11259">
        <ele>194.484161</ele>
        <time>2009-08-13T09:56:06Z</time>
      </trkpt>
      <trkpt lat="44.43448" lon="1.11252">
        <ele>194.589615</ele>
        <time>2009-08-13T09:56:10Z</time>
      </trkpt>
      <trkpt lat="44.43445" lon="1.11246">
        <ele>194.483307</ele>
        <time>2009-08-13T09:56:14Z</time>
      </trkpt>
      <trkpt lat="44.43443" lon="1.11239">
        <ele>194.699692</ele>
        <time>2009-08-13T09:56:17Z</time>
      </trkpt>
      <trkpt lat="44.43441" lon="1.11235">
        <ele>194.805252</ele>
        <time>2009-08-13T09:56:21Z</time>
      </trkpt>
      <trkpt lat="44.43437" lon="1.11228">
        <ele>194.692902</ele>
        <time>2009-08-13T09:56:24Z</time>
      </trkpt>
      <trkpt lat="44.43435" lon="1.11223">
        <ele>194.727661</ele>
        <time>2009-08-13T09:56:29Z</time>
      </trkpt>
      <trkpt lat="44.43433" lon="1.11217">
        <ele>194.951981</ele>
        <time>2009-08-13T09:56:35Z</time>
      </trkpt>
      <trkpt lat="44.43431" lon="1.11214">
        <ele>194.890961</ele>
        <time>2009-08-13T09:56:40Z</time>
      </trkpt>
      <trkpt lat="44.43431" lon="1.11212">
        <ele>194.936951</ele>
        <time>2009-08-13T09:56:48Z</time>
      </trkpt>
      <trkpt lat="44.43429" lon="1.11209">
        <ele>194.877243</ele>
        <time>2009-08-13T09:56:52Z</time>
      </trkpt>
      <trkpt lat="44.43428" lon="1.11205">
        <ele>195.053207</ele>
        <time>2009-08-13T09:56:56Z</time>
      </trkpt>
      <trkpt lat="44.43427" lon="1.11202">
        <ele>195.023758</ele>
        <time>2009-08-13T09:57:00Z</time>
      </trkpt>
      <trkpt lat="44.43426" lon="1.11198">
        <ele>195.185791</ele>
        <time>2009-08-13T09:57:04Z</time>
      </trkpt>
      <trkpt lat="44.43425" lon="1.11194">
        <ele>195.328369</ele>
        <time>2009-08-13T09:57:09Z</time>
      </trkpt>
      <trkpt lat="44.43425" lon="1.11189">
        <ele>195.715057</ele>
        <time>2009-08-13T09:57:14Z</time>
      </trkpt>
      <trkpt lat="44.43425" lon="1.11186">
        <ele>196.072784</ele>
        <time>2009-08-13T09:57:18Z</time>
      </trkpt>
      <trkpt lat="44.43426" lon="1.11181">
        <ele>196.687927</ele>
        <time>2009-08-13T09:57:22Z</time>
      </trkpt>
      <trkpt lat="44.43426" lon="1.11178">
        <ele>197.007233</ele>
        <time>2009-08-13T09:57:27Z</time>
      </trkpt>
      <trkpt lat="44.43426" lon="1.11172">
        <ele>197.509964</ele>
        <time>2009-08-13T09:57:32Z</time>
      </trkpt>
      <trkpt lat="44.43426" lon="1.11168">
        <ele>197.855804</ele>
        <time>2009-08-13T09:57:36Z</time>
      </trkpt>
      <trkpt lat="44.43426" lon="1.11164">
        <ele>198.125168</ele>
        <time>2009-08-13T09:57:41Z</time>
      </trkpt>
      <trkpt lat="44.43428" lon="1.1116">
        <ele>199.106949</ele>
        <time>2009-08-13T09:57:46Z</time>
      </trkpt>
      <trkpt lat="44.4343" lon="1.11156">
        <ele>199.906494</ele>
        <time>2009-08-13T09:57:50Z</time>
      </trkpt>
      <trkpt lat="44.43431" lon="1.11153">
        <ele>200.502777</ele>
        <time>2009-08-13T09:57:55Z</time>
      </trkpt>
      <trkpt lat="44.43432" lon="1.11151">
        <ele>200.854385</ele>
        <time>2009-08-13T09:57:58Z</time>
      </trkpt>
      <trkpt lat="44.43433" lon="1.11147">
        <ele>201.381256</ele>
        <time>2009-08-13T09:58:02Z</time>
      </trkpt>
      <trkpt lat="44.43434" lon="1.11144">
        <ele>201.825531</ele>
        <time>2009-08-13T09:58:08Z</time>
      </trkpt>
      <trkpt lat="44.43435" lon="1.1114">
        <ele>202.19664</ele>
        <time>2009-08-13T09:58:12Z</time>
      </trkpt>
      <trkpt lat="44.43435" lon="1.11136">
        <ele>202.531509</ele>
        <time>2009-08-13T09:58:18Z</time>
      </trkpt>
      <trkpt lat="44.43436" lon="1.11131">
        <ele>202.982483</ele>
        <time>2009-08-13T09:58:21Z</time>
      </trkpt>
      <trkpt lat="44.43437" lon="1.11128">
        <ele>203.529831</ele>
        <time>2009-08-13T09:58:25Z</time>
      </trkpt>
      <trkpt lat="44.43438" lon="1.11124">
        <ele>204.063782</ele>
        <time>2009-08-13T09:58:30Z</time>
      </trkpt>
      <trkpt lat="44.4344" lon="1.11119">
        <ele>204.802246</ele>
        <time>2009-08-13T09:58:36Z</time>
      </trkpt>
      <trkpt lat="44.43441" lon="1.11112">
        <ele>205.395599</ele>
        <time>2009-08-13T09:58:41Z</time>
      </trkpt>
      <trkpt lat="44.43444" lon="1.11105">
        <ele>206.461227</ele>
        <time>2009-08-13T09:58:44Z</time>
      </trkpt>
      <trkpt lat="44.43445" lon="1.11099">
        <ele>207.012161</ele>
        <time>2009-08-13T09:58:48Z</time>
      </trkpt>
      <trkpt lat="44.43447" lon="1.11091">
        <ele>207.773376</ele>
        <time>2009-08-13T09:58:51Z</time>
      </trkpt>
      <trkpt lat="44.43447" lon="1.11085">
        <ele>208.075699</ele>
        <time>2009-08-13T09:58:55Z</time>
      </trkpt>
      <trkpt lat="44.43446" lon="1.11081">
        <ele>208.161026</ele>
        <time>2009-08-13T09:58:59Z</time>
      </trkpt>
      <trkpt lat="44.43442" lon="1.11078">
        <ele>207.796631</ele>
        <time>2009-08-13T09:59:03Z</time>
      </trkpt>
      <trkpt lat="44.4344" lon="1.11072">
        <ele>207.77774</ele>
        <time>2009-08-13T09:59:07Z</time>
      </trkpt>
      <trkpt lat="44.4344" lon="1.11066">
        <ele>208.066406</ele>
        <time>2009-08-13T09:59:10Z</time>
      </trkpt>
      <trkpt lat="44.4344" lon="1.11062">
        <ele>208.337006</ele>
        <time>2009-08-13T09:59:13Z</time>
      </trkpt>
      <trkpt lat="44.43438" lon="1.11054">
        <ele>208.598175</ele>
        <time>2009-08-13T09:59:17Z</time>
      </trkpt>
      <trkpt lat="44.43434" lon="1.11049">
        <ele>208.291855</ele>
        <time>2009-08-13T09:59:22Z</time>
      </trkpt>
      <trkpt lat="44.43433" lon="1.11045">
        <ele>208.285355</ele>
        <time>2009-08-13T09:59:27Z</time>
      </trkpt>
      <trkpt lat="44.43431" lon="1.1104">
        <ele>208.30928</ele>
        <time>2009-08-13T09:59:32Z</time>
      </trkpt>
      <trkpt lat="44.43431" lon="1.11038">
        <ele>208.318893</ele>
        <time>2009-08-13T09:59:35Z</time>
      </trkpt>
      <trkpt lat="44.43432" lon="1.11033">
        <ele>208.876816</ele>
        <time>2009-08-13T09:59:39Z</time>
      </trkpt>
      <trkpt lat="44.43432" lon="1.11028">
        <ele>209.311005</ele>
        <time>2009-08-13T09:59:43Z</time>
      </trkpt>
      <trkpt lat="44.43432" lon="1.11023">
        <ele>209.625504</ele>
        <time>2009-08-13T09:59:48Z</time>
      </trkpt>
      <trkpt lat="44.43434" lon="1.1102">
        <ele>210.086594</ele>
        <time>2009-08-13T09:59:51Z</time>
      </trkpt>
      <trkpt lat="44.43437" lon="1.11014">
        <ele>211.02803</ele>
        <time>2009-08-13T09:59:55Z</time>
      </trkpt>
      <trkpt lat="44.43439" lon="1.11008">
        <ele>211.819611</ele>
        <time>2009-08-13T09:59:59Z</time>
      </trkpt>
      <trkpt lat="44.43441" lon="1.11004">
        <ele>212.470108</ele>
        <time>2009-08-13T10:00:03Z</time>
      </trkpt>
      <trkpt lat="44.43444" lon="1.11001">
        <ele>213.143219</ele>
        <time>2009-08-13T10:00:06Z</time>
      </trkpt>
      <trkpt lat="44.43446" lon="1.10998">
        <ele>213.741486</ele>
        <time>2009-08-13T10:00:10Z</time>
      </trkpt>
      <trkpt lat="44.43448" lon="1.10995">
        <ele>214.360657</ele>
        <time>2009-08-13T10:00:16Z</time>
      </trkpt>
      <trkpt lat="44.4345" lon="1.10994">
        <ele>214.678146</ele>
        <time>2009-08-13T10:00:45Z</time>
      </trkpt>
      <trkpt lat="44.43451" lon="1.10992">
        <ele>215.038498</ele>
        <time>2009-08-13T10:00:48Z</time>
      </trkpt>
      <trkpt lat="44.43453" lon="1.10991">
        <ele>215.54361</ele>
        <time>2009-08-13T10:00:51Z</time>
      </trkpt>
      <trkpt lat="44.43456" lon="1.10988">
        <ele>216.351578</ele>
        <time>2009-08-13T10:00:56Z</time>
      </trkpt>
      <trkpt lat="44.4346" lon="1.10986">
        <ele>217.130203</ele>
        <time>2009-08-13T10:01:01Z</time>
      </trkpt>
      <trkpt lat="44.43464" lon="1.10984">
        <ele>218.070816</ele>
        <time>2009-08-13T10:01:06Z</time>
      </trkpt>
      <trkpt lat="44.43467" lon="1.10981">
        <ele>218.849121</ele>
        <time>2009-08-13T10:01:10Z</time>
      </trkpt>
      <trkpt lat="44.43468" lon="1.10979">
        <ele>219.224609</ele>
        <time>2009-08-13T10:01:13Z</time>
      </trkpt>
      <trkpt lat="44.43469" lon="1.10978">
        <ele>219.619049</ele>
        <time>2009-08-13T10:01:18Z</time>
      </trkpt>
      <trkpt lat="44.43473" lon="1.10976">
        <ele>220.437103</ele>
        <time>2009-08-13T10:01:22Z</time>
      </trkpt>
      <trkpt lat="44.43476" lon="1.10973">
        <ele>221.238907</ele>
        <time>2009-08-13T10:01:27Z</time>
      </trkpt>
      <trkpt lat="44.43479" lon="1.10971">
        <ele>222.177505</ele>
        <time>2009-08-13T10:01:31Z</time>
      </trkpt>
      <trkpt lat="44.43483" lon="1.1097">
        <ele>222.944885</ele>
        <time>2009-08-13T10:01:35Z</time>
      </trkpt>
      <trkpt lat="44.43485" lon="1.10967">
        <ele>223.748932</ele>
        <time>2009-08-13T10:01:40Z</time>
      </trkpt>
      <trkpt lat="44.43488" lon="1.10964">
        <ele>224.491272</ele>
        <time>2009-08-13T10:01:44Z</time>
      </trkpt>
      <trkpt lat="44.43489" lon="1.10961">
        <ele>225.070053</ele>
        <time>2009-08-13T10:01:48Z</time>
      </trkpt>
      <trkpt lat="44.43489" lon="1.10957">
        <ele>225.322968</ele>
        <time>2009-08-13T10:01:52Z</time>
      </trkpt>
      <trkpt lat="44.43489" lon="1.10953">
        <ele>225.55809</ele>
        <time>2009-08-13T10:01:55Z</time>
      </trkpt>
      <trkpt lat="44.43488" lon="1.10949">
        <ele>225.795837</ele>
        <time>2009-08-13T10:02:00Z</time>
      </trkpt>
      <trkpt lat="44.43487" lon="1.10944">
        <ele>225.975845</ele>
        <time>2009-08-13T10:02:04Z</time>
      </trkpt>
      <trkpt lat="44.43486" lon="1.10937">
        <ele>226.404053</ele>
        <time>2009-08-13T10:02:07Z</time>
      </trkpt>
      <trkpt lat="44.43484" lon="1.1093">
        <ele>226.437515</ele>
        <time>2009-08-13T10:02:10Z</time>
      </trkpt>
      <trkpt lat="44.43482" lon="1.10925">
        <ele>226.477402</ele>
        <time>2009-08-13T10:02:13Z</time>
      </trkpt>
      <trkpt lat="44.43481" lon="1.10919">
        <ele>226.822464</ele>
        <time>2009-08-13T10:02:16Z</time>
      </trkpt>
      <trkpt lat="44.43479" lon="1.10913">
        <ele>226.938751</ele>
        <time>2009-08-13T10:02:20Z</time>
      </trkpt>
      <trkpt lat="44.43476" lon="1.10906">
        <ele>227.014999</ele>
        <time>2009-08-13T10:02:23Z</time>
      </trkpt>
      <trkpt lat="44.43474" lon="1.109">
        <ele>226.686874</ele>
        <time>2009-08-13T10:02:26Z</time>
      </trkpt>
      <trkpt lat="44.43474" lon="1.1089">
        <ele>226.59375</ele>
        <time>2009-08-13T10:02:31Z</time>
      </trkpt>
      <trkpt lat="44.43474" lon="1.10882">
        <ele>226.467499</ele>
        <time>2009-08-13T10:02:34Z</time>
      </trkpt>
      <trkpt lat="44.43472" lon="1.10873">
        <ele>225.933121</ele>
        <time>2009-08-13T10:02:37Z</time>
      </trkpt>
      <trkpt lat="44.43469" lon="1.10864">
        <ele>225.071243</ele>
        <time>2009-08-13T10:02:41Z</time>
      </trkpt>
      <trkpt lat="44.43465" lon="1.10854">
        <ele>224.232498</ele>
        <time>2009-08-13T10:02:45Z</time>
      </trkpt>
      <trkpt lat="44.43457" lon="1.10844">
        <ele>222.540619</ele>
        <time>2009-08-13T10:02:48Z</time>
      </trkpt>
      <trkpt lat="44.43448" lon="1.10841">
        <ele>220.72612</ele>
        <time>2009-08-13T10:02:51Z</time>
      </trkpt>
      <trkpt lat="44.4344" lon="1.10833">
        <ele>219.476395</ele>
        <time>2009-08-13T10:02:54Z</time>
      </trkpt>
      <trkpt lat="44.43431" lon="1.10818">
        <ele>219.17717</ele>
        <time>2009-08-13T10:02:57Z</time>
      </trkpt>
      <trkpt lat="44.43422" lon="1.10807">
        <ele>218.997131</ele>
        <time>2009-08-13T10:03:01Z</time>
      </trkpt>
      <trkpt lat="44.43418" lon="1.10805">
        <ele>218.832306</ele>
        <time>2009-08-13T10:03:04Z</time>
      </trkpt>
      <trkpt lat="44.43413" lon="1.108">
        <ele>218.865112</ele>
        <time>2009-08-13T10:03:10Z</time>
      </trkpt>
      <trkpt lat="44.43412" lon="1.10797">
        <ele>218.9841</ele>
        <time>2009-08-13T10:03:21Z</time>
      </trkpt>
      <trkpt lat="44.43413" lon="1.10795">
        <ele>219.177002</ele>
        <time>2009-08-13T10:03:25Z</time>
      </trkpt>
      <trkpt lat="44.43413" lon="1.10794">
        <ele>219.306381</ele>
        <time>2009-08-13T10:03:29Z</time>
      </trkpt>
      <trkpt lat="44.43414" lon="1.10795">
        <ele>219.315201</ele>
        <time>2009-08-13T10:03:38Z</time>
      </trkpt>
      <trkpt lat="44.43415" lon="1.10797">
        <ele>219.237854</ele>
        <time>2009-08-13T10:03:54Z</time>
      </trkpt>
      <trkpt lat="44.43414" lon="1.10798">
        <ele>219.089203</ele>
        <time>2009-08-13T10:04:03Z</time>
      </trkpt>
      <trkpt lat="44.43412" lon="1.10798">
        <ele>218.850006</ele>
        <time>2009-08-13T10:04:21Z</time>
      </trkpt>
      <trkpt lat="44.43412" lon="1.108">
        <ele>218.739227</ele>
        <time>2009-08-13T10:04:31Z</time>
      </trkpt>
      <trkpt lat="44.43413" lon="1.10801">
        <ele>218.656082</ele>
        <time>2009-08-13T10:04:41Z</time>
      </trkpt>
      <trkpt lat="44.43413" lon="1.108">
        <ele>218.825195</ele>
        <time>2009-08-13T10:04:48Z</time>
      </trkpt>
      <trkpt lat="44.43413" lon="1.10798">
        <ele>219.010101</ele>
        <time>2009-08-13T10:04:54Z</time>
      </trkpt>
      <trkpt lat="44.43412" lon="1.10796">
        <ele>219.062286</ele>
        <time>2009-08-13T10:05:03Z</time>
      </trkpt>
      <trkpt lat="44.43411" lon="1.10793">
        <ele>219.262817</ele>
        <time>2009-08-13T10:05:09Z</time>
      </trkpt>
      <trkpt lat="44.43409" lon="1.1079">
        <ele>219.416077</ele>
        <time>2009-08-13T10:05:14Z</time>
      </trkpt>
      <trkpt lat="44.43406" lon="1.10786">
        <ele>219.524704</ele>
        <time>2009-08-13T10:05:20Z</time>
      </trkpt>
      <trkpt lat="44.43404" lon="1.10784">
        <ele>219.562317</ele>
        <time>2009-08-13T10:05:23Z</time>
      </trkpt>
      <trkpt lat="44.43402" lon="1.10782">
        <ele>219.643646</ele>
        <time>2009-08-13T10:05:29Z</time>
      </trkpt>
      <trkpt lat="44.434" lon="1.10777">
        <ele>220.437653</ele>
        <time>2009-08-13T10:05:35Z</time>
      </trkpt>
      <trkpt lat="44.43397" lon="1.10775">
        <ele>221.009903</ele>
        <time>2009-08-13T10:05:40Z</time>
      </trkpt>
      <trkpt lat="44.43394" lon="1.10772">
        <ele>221.646378</ele>
        <time>2009-08-13T10:05:44Z</time>
      </trkpt>
      <trkpt lat="44.4339" lon="1.10769">
        <ele>222.300262</ele>
        <time>2009-08-13T10:05:48Z</time>
      </trkpt>
      <trkpt lat="44.43389" lon="1.10768">
        <ele>222.508743</ele>
        <time>2009-08-13T10:05:53Z</time>
      </trkpt>
      <trkpt lat="44.43388" lon="1.10767">
        <ele>222.935669</ele>
        <time>2009-08-13T10:05:56Z</time>
      </trkpt>
      <trkpt lat="44.43386" lon="1.10764">
        <ele>223.571411</ele>
        <time>2009-08-13T10:06:01Z</time>
      </trkpt>
      <trkpt lat="44.43385" lon="1.10762">
        <ele>223.871918</ele>
        <time>2009-08-13T10:06:04Z</time>
      </trkpt>
      <trkpt lat="44.43381" lon="1.10759">
        <ele>224.356949</ele>
        <time>2009-08-13T10:06:08Z</time>
      </trkpt>
      <trkpt lat="44.43377" lon="1.10756">
        <ele>224.881195</ele>
        <time>2009-08-13T10:06:12Z</time>
      </trkpt>
      <trkpt lat="44.43374" lon="1.10752">
        <ele>225.629211</ele>
        <time>2009-08-13T10:06:17Z</time>
      </trkpt>
      <trkpt lat="44.4337" lon="1.10749">
        <ele>226.187714</ele>
        <time>2009-08-13T10:06:21Z</time>
      </trkpt>
      <trkpt lat="44.43369" lon="1.10748">
        <ele>226.1922</ele>
        <time>2009-08-13T10:06:25Z</time>
      </trkpt>
      <trkpt lat="44.43366" lon="1.10745">
        <ele>226.635269</ele>
        <time>2009-08-13T10:06:30Z</time>
      </trkpt>
      <trkpt lat="44.43364" lon="1.10741">
        <ele>227.495697</ele>
        <time>2009-08-13T10:06:38Z</time>
      </trkpt>
      <trkpt lat="44.43361" lon="1.10741">
        <ele>227.157349</ele>
        <time>2009-08-13T10:06:41Z</time>
      </trkpt>
      <trkpt lat="44.43358" lon="1.10739">
        <ele>227.333374</ele>
        <time>2009-08-13T10:06:45Z</time>
      </trkpt>
      <trkpt lat="44.43356" lon="1.10738">
        <ele>227.238281</ele>
        <time>2009-08-13T10:06:48Z</time>
      </trkpt>
      <trkpt lat="44.43353" lon="1.10735">
        <ele>227.636368</ele>
        <time>2009-08-13T10:06:52Z</time>
      </trkpt>
      <trkpt lat="44.43352" lon="1.10731">
        <ele>228.826202</ele>
        <time>2009-08-13T10:06:58Z</time>
      </trkpt>
      <trkpt lat="44.4335" lon="1.10726">
        <ele>229.83551</ele>
        <time>2009-08-13T10:07:04Z</time>
      </trkpt>
      <trkpt lat="44.43347" lon="1.1072">
        <ele>231.079895</ele>
        <time>2009-08-13T10:07:09Z</time>
      </trkpt>
      <trkpt lat="44.43346" lon="1.10717">
        <ele>231.754562</ele>
        <time>2009-08-13T10:07:12Z</time>
      </trkpt>
      <trkpt lat="44.43344" lon="1.10715">
        <ele>232.096863</ele>
        <time>2009-08-13T10:07:29Z</time>
      </trkpt>
      <trkpt lat="44.43345" lon="1.10712">
        <ele>232.810745</ele>
        <time>2009-08-13T10:07:33Z</time>
      </trkpt>
      <trkpt lat="44.43345" lon="1.10709">
        <ele>233.795654</ele>
        <time>2009-08-13T10:07:39Z</time>
      </trkpt>
      <trkpt lat="44.43346" lon="1.10707">
        <ele>234.416412</ele>
        <time>2009-08-13T10:07:45Z</time>
      </trkpt>
      <trkpt lat="44.43349" lon="1.10704">
        <ele>235.556335</ele>
        <time>2009-08-13T10:07:50Z</time>
      </trkpt>
      <trkpt lat="44.4335" lon="1.10701">
        <ele>236.340256</ele>
        <time>2009-08-13T10:07:55Z</time>
      </trkpt>
      <trkpt lat="44.43351" lon="1.10699">
        <ele>237.014816</ele>
        <time>2009-08-13T10:07:59Z</time>
      </trkpt>
      <trkpt lat="44.43351" lon="1.10695">
        <ele>238.096252</ele>
        <time>2009-08-13T10:08:05Z</time>
      </trkpt>
      <trkpt lat="44.43351" lon="1.10692">
        <ele>238.903534</ele>
        <time>2009-08-13T10:08:09Z</time>
      </trkpt>
      <trkpt lat="44.43352" lon="1.10691">
        <ele>239.40799</ele>
        <time>2009-08-13T10:08:21Z</time>
      </trkpt>
      <trkpt lat="44.43353" lon="1.10688">
        <ele>240.259949</ele>
        <time>2009-08-13T10:08:26Z</time>
      </trkpt>
      <trkpt lat="44.43354" lon="1.10685">
        <ele>241.028595</ele>
        <time>2009-08-13T10:08:32Z</time>
      </trkpt>
      <trkpt lat="44.43356" lon="1.10681">
        <ele>242.107315</ele>
        <time>2009-08-13T10:08:37Z</time>
      </trkpt>
      <trkpt lat="44.43357" lon="1.10678">
        <ele>243.125397</ele>
        <time>2009-08-13T10:08:43Z</time>
      </trkpt>
      <trkpt lat="44.43358" lon="1.10674">
        <ele>244.027893</ele>
        <time>2009-08-13T10:08:49Z</time>
      </trkpt>
      <trkpt lat="44.43359" lon="1.1067">
        <ele>245.019424</ele>
        <time>2009-08-13T10:08:54Z</time>
      </trkpt>
      <trkpt lat="44.43359" lon="1.10667">
        <ele>245.78035</ele>
        <time>2009-08-13T10:08:58Z</time>
      </trkpt>
      <trkpt lat="44.4336" lon="1.10664">
        <ele>246.624466</ele>
        <time>2009-08-13T10:09:02Z</time>
      </trkpt>
      <trkpt lat="44.43362" lon="1.1066">
        <ele>247.626083</ele>
        <time>2009-08-13T10:09:14Z</time>
      </trkpt>
      <trkpt lat="44.43363" lon="1.1066">
        <ele>247.86084</ele>
        <time>2009-08-13T10:09:22Z</time>
      </trkpt>
      <trkpt lat="44.43365" lon="1.10657">
        <ele>248.550964</ele>
        <time>2009-08-13T10:09:26Z</time>
      </trkpt>
      <trkpt lat="44.43365" lon="1.10653">
        <ele>249.072128</ele>
        <time>2009-08-13T10:09:30Z</time>
      </trkpt>
      <trkpt lat="44.43367" lon="1.10651">
        <ele>249.260773</ele>
        <time>2009-08-13T10:09:35Z</time>
      </trkpt>
      <trkpt lat="44.43369" lon="1.10649">
        <ele>249.403732</ele>
        <time>2009-08-13T10:09:51Z</time>
      </trkpt>
      <trkpt lat="44.43368" lon="1.10647">
        <ele>249.437668</ele>
        <time>2009-08-13T10:10:25Z</time>
      </trkpt>
      <trkpt lat="44.43368" lon="1.10649">
        <ele>249.335983</ele>
        <time>2009-08-13T10:10:33Z</time>
      </trkpt>
      <trkpt lat="44.43366" lon="1.10652">
        <ele>249.153641</ele>
        <time>2009-08-13T10:10:37Z</time>
      </trkpt>
      <trkpt lat="44.43366" lon="1.10655">
        <ele>249.048645</ele>
        <time>2009-08-13T10:10:40Z</time>
      </trkpt>
      <trkpt lat="44.43365" lon="1.10658">
        <ele>248.285385</ele>
        <time>2009-08-13T10:10:44Z</time>
      </trkpt>
      <trkpt lat="44.43364" lon="1.10661">
        <ele>247.484619</ele>
        <time>2009-08-13T10:10:49Z</time>
      </trkpt>
      <trkpt lat="44.43366" lon="1.10659">
        <ele>248.038773</ele>
        <time>2009-08-13T10:10:56Z</time>
      </trkpt>
      <trkpt lat="44.43367" lon="1.10658">
        <ele>248.326889</ele>
        <time>2009-08-13T10:11:11Z</time>
      </trkpt>
      <trkpt lat="44.43367" lon="1.1066">
        <ele>247.945084</ele>
        <time>2009-08-13T10:11:23Z</time>
      </trkpt>
      <trkpt lat="44.43366" lon="1.10661">
        <ele>247.660202</ele>
        <time>2009-08-13T10:11:35Z</time>
      </trkpt>
      <trkpt lat="44.43364" lon="1.10663">
        <ele>247.137573</ele>
        <time>2009-08-13T10:11:43Z</time>
      </trkpt>
      <trkpt lat="44.43363" lon="1.10663">
        <ele>247.074692</ele>
        <time>2009-08-13T10:11:49Z</time>
      </trkpt>
      <trkpt lat="44.43364" lon="1.10661">
        <ele>247.474609</ele>
        <time>2009-08-13T10:11:57Z</time>
      </trkpt>
      <trkpt lat="44.43363" lon="1.10659">
        <ele>247.899506</ele>
        <time>2009-08-13T10:12:02Z</time>
      </trkpt>
      <trkpt lat="44.43361" lon="1.10659">
        <ele>247.829559</ele>
        <time>2009-08-13T10:12:16Z</time>
      </trkpt>
      <trkpt lat="44.43363" lon="1.10659">
        <ele>248.003494</ele>
        <time>2009-08-13T10:12:59Z</time>
      </trkpt>
      <trkpt lat="44.43364" lon="1.1066">
        <ele>247.892929</ele>
        <time>2009-08-13T10:13:02Z</time>
      </trkpt>
      <trkpt lat="44.43365" lon="1.1066">
        <ele>247.839996</ele>
        <time>2009-08-13T10:13:05Z</time>
      </trkpt>
      <trkpt lat="44.43366" lon="1.1066">
        <ele>247.8461</ele>
        <time>2009-08-13T10:13:10Z</time>
      </trkpt>
      <trkpt lat="44.43368" lon="1.10661">
        <ele>247.693756</ele>
        <time>2009-08-13T10:13:17Z</time>
      </trkpt>
      <trkpt lat="44.43368" lon="1.10663">
        <ele>247.342697</ele>
        <time>2009-08-13T10:13:29Z</time>
      </trkpt>
      <trkpt lat="44.43369" lon="1.10661">
        <ele>247.753708</ele>
        <time>2009-08-13T10:13:53Z</time>
      </trkpt>
      <trkpt lat="44.4337" lon="1.1066">
        <ele>248.111832</ele>
        <time>2009-08-13T10:13:57Z</time>
      </trkpt>
      <trkpt lat="44.4337" lon="1.10658">
        <ele>248.571686</ele>
        <time>2009-08-13T10:14:02Z</time>
      </trkpt>
      <trkpt lat="44.43371" lon="1.10656">
        <ele>248.929138</ele>
        <time>2009-08-13T10:14:11Z</time>
      </trkpt>
      <trkpt lat="44.4337" lon="1.10658">
        <ele>248.488754</ele>
        <time>2009-08-13T10:15:10Z</time>
      </trkpt>
      <trkpt lat="44.43369" lon="1.1066">
        <ele>248.128937</ele>
        <time>2009-08-13T10:15:22Z</time>
      </trkpt>
      <trkpt lat="44.4337" lon="1.10658">
        <ele>248.516876</ele>
        <time>2009-08-13T10:15:26Z</time>
      </trkpt>
      <trkpt lat="44.43369" lon="1.1066">
        <ele>248.076065</ele>
        <time>2009-08-13T10:15:45Z</time>
      </trkpt>
      <trkpt lat="44.43368" lon="1.10662">
        <ele>247.616379</ele>
        <time>2009-08-13T10:15:50Z</time>
      </trkpt>
      <trkpt lat="44.43367" lon="1.10663">
        <ele>247.194183</ele>
        <time>2009-08-13T10:15:53Z</time>
      </trkpt>
      <trkpt lat="44.43366" lon="1.10665">
        <ele>246.805939</ele>
        <time>2009-08-13T10:15:56Z</time>
      </trkpt>
      <trkpt lat="44.43366" lon="1.10666">
        <ele>246.395462</ele>
        <time>2009-08-13T10:16:01Z</time>
      </trkpt>
      <trkpt lat="44.43365" lon="1.10668">
        <ele>245.907776</ele>
        <time>2009-08-13T10:16:06Z</time>
      </trkpt>
      <trkpt lat="44.43364" lon="1.1067">
        <ele>245.506409</ele>
        <time>2009-08-13T10:16:12Z</time>
      </trkpt>
      <trkpt lat="44.43365" lon="1.10668">
        <ele>245.938095</ele>
        <time>2009-08-13T10:16:22Z</time>
      </trkpt>
      <trkpt lat="44.43366" lon="1.10667">
        <ele>246.35022</ele>
        <time>2009-08-13T10:16:29Z</time>
      </trkpt>
      <trkpt lat="44.43367" lon="1.10666">
        <ele>246.49321</ele>
        <time>2009-08-13T10:16:39Z</time>
      </trkpt>
      <trkpt lat="44.43367" lon="1.10664">
        <ele>247.073456</ele>
        <time>2009-08-13T10:16:55Z</time>
      </trkpt>
      <trkpt lat="44.43368" lon="1.10659">
        <ele>248.102493</ele>
        <time>2009-08-13T10:16:58Z</time>
      </trkpt>
      <trkpt lat="44.43371" lon="1.10656">
        <ele>248.950302</ele>
        <time>2009-08-13T10:17:02Z</time>
      </trkpt>
      <trkpt lat="44.43378" lon="1.10646">
        <ele>249.891663</ele>
        <time>2009-08-13T10:17:06Z</time>
      </trkpt>
      <trkpt lat="44.43384" lon="1.1064">
        <ele>250.309036</ele>
        <time>2009-08-13T10:17:11Z</time>
      </trkpt>
      <trkpt lat="44.43384" lon="1.1063">
        <ele>250.660187</ele>
        <time>2009-08-13T10:17:15Z</time>
      </trkpt>
      <trkpt lat="44.43386" lon="1.10622">
        <ele>250.994446</ele>
        <time>2009-08-13T10:17:18Z</time>
      </trkpt>
      <trkpt lat="44.4339" lon="1.10615">
        <ele>251.304993</ele>
        <time>2009-08-13T10:17:22Z</time>
      </trkpt>
      <trkpt lat="44.43391" lon="1.1061">
        <ele>251.511246</ele>
        <time>2009-08-13T10:17:26Z</time>
      </trkpt>
      <trkpt lat="44.43395" lon="1.10603">
        <ele>251.827499</ele>
        <time>2009-08-13T10:17:30Z</time>
      </trkpt>
      <trkpt lat="44.434" lon="1.10599">
        <ele>252.042496</ele>
        <time>2009-08-13T10:17:34Z</time>
      </trkpt>
      <trkpt lat="44.43406" lon="1.10595">
        <ele>252.302505</ele>
        <time>2009-08-13T10:17:37Z</time>
      </trkpt>
      <trkpt lat="44.43411" lon="1.1059">
        <ele>252.559372</ele>
        <time>2009-08-13T10:17:40Z</time>
      </trkpt>
      <trkpt lat="44.43416" lon="1.10583">
        <ele>252.766876</ele>
        <time>2009-08-13T10:17:44Z</time>
      </trkpt>
      <trkpt lat="44.43424" lon="1.10575">
        <ele>253.06813</ele>
        <time>2009-08-13T10:17:48Z</time>
      </trkpt>
      <trkpt lat="44.4343" lon="1.10569">
        <ele>253.322495</ele>
        <time>2009-08-13T10:17:51Z</time>
      </trkpt>
      <trkpt lat="44.43437" lon="1.10561">
        <ele>253.529205</ele>
        <time>2009-08-13T10:17:54Z</time>
      </trkpt>
      <trkpt lat="44.43449" lon="1.1055">
        <ele>253.898285</ele>
        <time>2009-08-13T10:17:59Z</time>
      </trkpt>
      <trkpt lat="44.43459" lon="1.1054">
        <ele>254.291031</ele>
        <time>2009-08-13T10:18:02Z</time>
      </trkpt>
      <trkpt lat="44.43467" lon="1.10531">
        <ele>254.672318</ele>
        <time>2009-08-13T10:18:05Z</time>
      </trkpt>
      <trkpt lat="44.43474" lon="1.10523">
        <ele>254.952499</ele>
        <time>2009-08-13T10:18:09Z</time>
      </trkpt>
      <trkpt lat="44.43483" lon="1.10514">
        <ele>255.034637</ele>
        <time>2009-08-13T10:18:12Z</time>
      </trkpt>
      <trkpt lat="44.43487" lon="1.10508">
        <ele>255.076385</ele>
        <time>2009-08-13T10:18:16Z</time>
      </trkpt>
      <trkpt lat="44.43487" lon="1.10509">
        <ele>255.068298</ele>
        <time>2009-08-13T10:18:22Z</time>
      </trkpt>
      <trkpt lat="44.43487" lon="1.10513">
        <ele>255.052734</ele>
        <time>2009-08-13T10:18:30Z</time>
      </trkpt>
      <trkpt lat="44.43486" lon="1.10514">
        <ele>255.046143</ele>
        <time>2009-08-13T10:18:33Z</time>
      </trkpt>
      <trkpt lat="44.43486" lon="1.10516">
        <ele>255.039352</ele>
        <time>2009-08-13T10:18:40Z</time>
      </trkpt>
      <trkpt lat="44.43485" lon="1.10514">
        <ele>255.041763</ele>
        <time>2009-08-13T10:18:45Z</time>
      </trkpt>
      <trkpt lat="44.43487" lon="1.10515">
        <ele>255.043015</ele>
        <time>2009-08-13T10:18:51Z</time>
      </trkpt>
      <trkpt lat="44.43488" lon="1.10516">
        <ele>255.045807</ele>
        <time>2009-08-13T10:19:00Z</time>
      </trkpt>
      <trkpt lat="44.4349" lon="1.10516">
        <ele>255.052689</ele>
        <time>2009-08-13T10:19:08Z</time>
      </trkpt>
      <trkpt lat="44.43491" lon="1.10516">
        <ele>255.057343</ele>
        <time>2009-08-13T10:19:13Z</time>
      </trkpt>
      <trkpt lat="44.43492" lon="1.10515">
        <ele>255.066116</ele>
        <time>2009-08-13T10:19:34Z</time>
      </trkpt>
      <trkpt lat="44.43491" lon="1.10514">
        <ele>255.066818</ele>
        <time>2009-08-13T10:19:47Z</time>
      </trkpt>
      <trkpt lat="44.4349" lon="1.10513">
        <ele>255.064682</ele>
        <time>2009-08-13T10:19:52Z</time>
      </trkpt>
      <trkpt lat="44.43491" lon="1.10514">
        <ele>255.069504</ele>
        <time>2009-08-13T10:20:01Z</time>
      </trkpt>
      <trkpt lat="44.43492" lon="1.10512">
        <ele>255.081772</ele>
        <time>2009-08-13T10:20:10Z</time>
      </trkpt>
      <trkpt lat="44.43492" lon="1.10511">
        <ele>255.090347</ele>
        <time>2009-08-13T10:20:21Z</time>
      </trkpt>
      <trkpt lat="44.4349" lon="1.10509">
        <ele>255.088287</ele>
        <time>2009-08-13T10:20:24Z</time>
      </trkpt>
      <trkpt lat="44.43489" lon="1.10508">
        <ele>255.085144</ele>
        <time>2009-08-13T10:20:29Z</time>
      </trkpt>
      <trkpt lat="44.43487" lon="1.10507">
        <ele>255.077972</ele>
        <time>2009-08-13T10:20:33Z</time>
      </trkpt>
      <trkpt lat="44.43486" lon="1.10506">
        <ele>255.071915</ele>
        <time>2009-08-13T10:20:37Z</time>
      </trkpt>
      <trkpt lat="44.43485" lon="1.10506">
        <ele>255.065323</ele>
        <time>2009-08-13T10:20:41Z</time>
      </trkpt>
      <trkpt lat="44.43483" lon="1.10505">
        <ele>255.056564</ele>
        <time>2009-08-13T10:20:45Z</time>
      </trkpt>
      <trkpt lat="44.43482" lon="1.10505">
        <ele>255.046387</ele>
        <time>2009-08-13T10:20:50Z</time>
      </trkpt>
      <trkpt lat="44.4348" lon="1.10504">
        <ele>255.03595</ele>
        <time>2009-08-13T10:20:54Z</time>
      </trkpt>
      <trkpt lat="44.43479" lon="1.10503">
        <ele>255.028259</ele>
        <time>2009-08-13T10:20:58Z</time>
      </trkpt>
      <trkpt lat="44.43478" lon="1.10503">
        <ele>255.016388</ele>
        <time>2009-08-13T10:21:03Z</time>
      </trkpt>
      <trkpt lat="44.4348" lon="1.10503">
        <ele>255.030243</ele>
        <time>2009-08-13T10:21:10Z</time>
      </trkpt>
      <trkpt lat="44.43481" lon="1.10503">
        <ele>255.041931</ele>
        <time>2009-08-13T10:21:16Z</time>
      </trkpt>
      <trkpt lat="44.43484" lon="1.10502">
        <ele>255.071106</ele>
        <time>2009-08-13T10:21:20Z</time>
      </trkpt>
      <trkpt lat="44.43493" lon="1.10493">
        <ele>255.201614</ele>
        <time>2009-08-13T10:21:23Z</time>
      </trkpt>
      <trkpt lat="44.43501" lon="1.10484">
        <ele>255.381882</ele>
        <time>2009-08-13T10:21:26Z</time>
      </trkpt>
      <trkpt lat="44.43511" lon="1.10473">
        <ele>255.67511</ele>
        <time>2009-08-13T10:21:29Z</time>
      </trkpt>
      <trkpt lat="44.4352" lon="1.10464">
        <ele>255.991272</ele>
        <time>2009-08-13T10:21:32Z</time>
      </trkpt>
      <trkpt lat="44.4353" lon="1.10455">
        <ele>256.214996</ele>
        <time>2009-08-13T10:21:35Z</time>
      </trkpt>
      <trkpt lat="44.43539" lon="1.10447">
        <ele>256.424988</ele>
        <time>2009-08-13T10:21:38Z</time>
      </trkpt>
      <trkpt lat="44.43553" lon="1.10449">
        <ele>256.734985</ele>
        <time>2009-08-13T10:21:42Z</time>
      </trkpt>
      <trkpt lat="44.43563" lon="1.10456">
        <ele>256.954987</ele>
        <time>2009-08-13T10:21:46Z</time>
      </trkpt>
      <trkpt lat="44.43578" lon="1.10468">
        <ele>256.909363</ele>
        <time>2009-08-13T10:21:49Z</time>
      </trkpt>
      <trkpt lat="44.4359" lon="1.1048">
        <ele>256.713135</ele>
        <time>2009-08-13T10:21:52Z</time>
      </trkpt>
      <trkpt lat="44.436" lon="1.10493">
        <ele>256.494385</ele>
        <time>2009-08-13T10:21:55Z</time>
      </trkpt>
      <trkpt lat="44.43609" lon="1.1051">
        <ele>256.221863</ele>
        <time>2009-08-13T10:21:58Z</time>
      </trkpt>
      <trkpt lat="44.43618" lon="1.10532">
        <ele>256.028748</ele>
        <time>2009-08-13T10:22:01Z</time>
      </trkpt>
      <trkpt lat="44.43627" lon="1.10555">
        <ele>255.850632</ele>
        <time>2009-08-13T10:22:04Z</time>
      </trkpt>
      <trkpt lat="44.43636" lon="1.10578">
        <ele>255.669998</ele>
        <time>2009-08-13T10:22:07Z</time>
      </trkpt>
      <trkpt lat="44.43642" lon="1.10598">
        <ele>255.679596</ele>
        <time>2009-08-13T10:22:11Z</time>
      </trkpt>
      <trkpt lat="44.43648" lon="1.1062">
        <ele>256.011902</ele>
        <time>2009-08-13T10:22:14Z</time>
      </trkpt>
      <trkpt lat="44.43652" lon="1.10635">
        <ele>256.400116</ele>
        <time>2009-08-13T10:22:17Z</time>
      </trkpt>
      <trkpt lat="44.43656" lon="1.10648">
        <ele>256.853851</ele>
        <time>2009-08-13T10:22:20Z</time>
      </trkpt>
      <trkpt lat="44.4366" lon="1.10665">
        <ele>258.292511</ele>
        <time>2009-08-13T10:22:23Z</time>
      </trkpt>
      <trkpt lat="44.43666" lon="1.10681">
        <ele>259.787506</ele>
        <time>2009-08-13T10:22:26Z</time>
      </trkpt>
      <trkpt lat="44.43671" lon="1.10698">
        <ele>261.377502</ele>
        <time>2009-08-13T10:22:29Z</time>
      </trkpt>
      <trkpt lat="44.43676" lon="1.10717">
        <ele>262.869751</ele>
        <time>2009-08-13T10:22:32Z</time>
      </trkpt>
      <trkpt lat="44.43682" lon="1.10735">
        <ele>264.03479</ele>
        <time>2009-08-13T10:22:35Z</time>
      </trkpt>
      <trkpt lat="44.43686" lon="1.1075">
        <ele>264.913513</ele>
        <time>2009-08-13T10:22:38Z</time>
      </trkpt>
      <trkpt lat="44.4369" lon="1.10766">
        <ele>265.808685</ele>
        <time>2009-08-13T10:22:41Z</time>
      </trkpt>
      <trkpt lat="44.43693" lon="1.10784">
        <ele>266.287506</ele>
        <time>2009-08-13T10:22:44Z</time>
      </trkpt>
      <trkpt lat="44.43697" lon="1.10801">
        <ele>266.527496</ele>
        <time>2009-08-13T10:22:47Z</time>
      </trkpt>
      <trkpt lat="44.437" lon="1.10815">
        <ele>266.714996</ele>
        <time>2009-08-13T10:22:50Z</time>
      </trkpt>
      <trkpt lat="44.43703" lon="1.10828">
        <ele>266.924988</ele>
        <time>2009-08-13T10:22:53Z</time>
      </trkpt>
      <trkpt lat="44.43706" lon="1.1084">
        <ele>266.783142</ele>
        <time>2009-08-13T10:22:56Z</time>
      </trkpt>
      <trkpt lat="44.43709" lon="1.10852">
        <ele>266.121246</ele>
        <time>2009-08-13T10:22:59Z</time>
      </trkpt>
      <trkpt lat="44.43712" lon="1.10867">
        <ele>265.336243</ele>
        <time>2009-08-13T10:23:02Z</time>
      </trkpt>
      <trkpt lat="44.43715" lon="1.10884">
        <ele>264.471252</ele>
        <time>2009-08-13T10:23:05Z</time>
      </trkpt>
      <trkpt lat="44.43718" lon="1.10903">
        <ele>263.487305</ele>
        <time>2009-08-13T10:23:08Z</time>
      </trkpt>
      <trkpt lat="44.43721" lon="1.10924">
        <ele>262.308655</ele>
        <time>2009-08-13T10:23:11Z</time>
      </trkpt>
      <trkpt lat="44.43724" lon="1.10947">
        <ele>260.973511</ele>
        <time>2009-08-13T10:23:14Z</time>
      </trkpt>
      <trkpt lat="44.43727" lon="1.10973">
        <ele>259.489838</ele>
        <time>2009-08-13T10:23:17Z</time>
      </trkpt>
      <trkpt lat="44.43735" lon="1.11001">
        <ele>257.967377</ele>
        <time>2009-08-13T10:23:20Z</time>
      </trkpt>
      <trkpt lat="44.43746" lon="1.11029">
        <ele>256.713348</ele>
        <time>2009-08-13T10:23:23Z</time>
      </trkpt>
      <trkpt lat="44.4376" lon="1.11055">
        <ele>255.212585</ele>
        <time>2009-08-13T10:23:26Z</time>
      </trkpt>
      <trkpt lat="44.43774" lon="1.11081">
        <ele>253.683197</ele>
        <time>2009-08-13T10:23:29Z</time>
      </trkpt>
      <trkpt lat="44.43788" lon="1.11108">
        <ele>252.137497</ele>
        <time>2009-08-13T10:23:32Z</time>
      </trkpt>
      <trkpt lat="44.43801" lon="1.11133">
        <ele>250.650787</ele>
        <time>2009-08-13T10:23:35Z</time>
      </trkpt>
      <trkpt lat="44.43814" lon="1.11158">
        <ele>249.889099</ele>
        <time>2009-08-13T10:23:38Z</time>
      </trkpt>
      <trkpt lat="44.43826" lon="1.11181">
        <ele>249.78833</ele>
        <time>2009-08-13T10:23:41Z</time>
      </trkpt>
      <trkpt lat="44.43837" lon="1.11203">
        <ele>249.87616</ele>
        <time>2009-08-13T10:23:44Z</time>
      </trkpt>
      <trkpt lat="44.43848" lon="1.11224">
        <ele>250.02388</ele>
        <time>2009-08-13T10:23:47Z</time>
      </trkpt>
      <trkpt lat="44.43859" lon="1.11245">
        <ele>250.185852</ele>
        <time>2009-08-13T10:23:50Z</time>
      </trkpt>
      <trkpt lat="44.43869" lon="1.11265">
        <ele>250.501404</ele>
        <time>2009-08-13T10:23:53Z</time>
      </trkpt>
      <trkpt lat="44.4388" lon="1.11286">
        <ele>250.644653</ele>
        <time>2009-08-13T10:23:56Z</time>
      </trkpt>
      <trkpt lat="44.43891" lon="1.11308">
        <ele>251.077469</ele>
        <time>2009-08-13T10:23:59Z</time>
      </trkpt>
      <trkpt lat="44.43902" lon="1.11329">
        <ele>251.80455</ele>
        <time>2009-08-13T10:24:02Z</time>
      </trkpt>
      <trkpt lat="44.43913" lon="1.11351">
        <ele>252.553497</ele>
        <time>2009-08-13T10:24:05Z</time>
      </trkpt>
      <trkpt lat="44.43924" lon="1.11372">
        <ele>253.582794</ele>
        <time>2009-08-13T10:24:08Z</time>
      </trkpt>
      <trkpt lat="44.43935" lon="1.11393">
        <ele>254.916946</ele>
        <time>2009-08-13T10:24:11Z</time>
      </trkpt>
      <trkpt lat="44.43945" lon="1.11413">
        <ele>255.412262</ele>
        <time>2009-08-13T10:24:14Z</time>
      </trkpt>
      <trkpt lat="44.43956" lon="1.11434">
        <ele>255.974548</ele>
        <time>2009-08-13T10:24:17Z</time>
      </trkpt>
      <trkpt lat="44.43967" lon="1.11456">
        <ele>256.700439</ele>
        <time>2009-08-13T10:24:20Z</time>
      </trkpt>
      <trkpt lat="44.43976" lon="1.11478">
        <ele>256.450806</ele>
        <time>2009-08-13T10:24:23Z</time>
      </trkpt>
      <trkpt lat="44.43983" lon="1.11499">
        <ele>256.198456</ele>
        <time>2009-08-13T10:24:26Z</time>
      </trkpt>
      <trkpt lat="44.43989" lon="1.11517">
        <ele>255.943481</ele>
        <time>2009-08-13T10:24:29Z</time>
      </trkpt>
      <trkpt lat="44.43995" lon="1.11535">
        <ele>255.512711</ele>
        <time>2009-08-13T10:24:32Z</time>
      </trkpt>
      <trkpt lat="44.44" lon="1.11552">
        <ele>255.088593</ele>
        <time>2009-08-13T10:24:35Z</time>
      </trkpt>
      <trkpt lat="44.44006" lon="1.11571">
        <ele>254.790054</ele>
        <time>2009-08-13T10:24:38Z</time>
      </trkpt>
      <trkpt lat="44.44013" lon="1.11595">
        <ele>254.348907</ele>
        <time>2009-08-13T10:24:41Z</time>
      </trkpt>
      <trkpt lat="44.44022" lon="1.11617">
        <ele>254.43103</ele>
        <time>2009-08-13T10:24:44Z</time>
      </trkpt>
      <trkpt lat="44.44032" lon="1.11637">
        <ele>254.606644</ele>
        <time>2009-08-13T10:24:47Z</time>
      </trkpt>
      <trkpt lat="44.44044" lon="1.11657">
        <ele>254.633743</ele>
        <time>2009-08-13T10:24:50Z</time>
      </trkpt>
      <trkpt lat="44.44056" lon="1.11675">
        <ele>254.848755</ele>
        <time>2009-08-13T10:24:53Z</time>
      </trkpt>
      <trkpt lat="44.44068" lon="1.11692">
        <ele>255.080002</ele>
        <time>2009-08-13T10:24:56Z</time>
      </trkpt>
      <trkpt lat="44.4408" lon="1.11709">
        <ele>255.229477</ele>
        <time>2009-08-13T10:24:59Z</time>
      </trkpt>
      <trkpt lat="44.44091" lon="1.11726">
        <ele>255.689651</ele>
        <time>2009-08-13T10:25:02Z</time>
      </trkpt>
      <trkpt lat="44.44105" lon="1.11744">
        <ele>256.600952</ele>
        <time>2009-08-13T10:25:05Z</time>
      </trkpt>
      <trkpt lat="44.4412" lon="1.11762">
        <ele>257.917938</ele>
        <time>2009-08-13T10:25:08Z</time>
      </trkpt>
      <trkpt lat="44.44132" lon="1.11781">
        <ele>258.178864</ele>
        <time>2009-08-13T10:25:11Z</time>
      </trkpt>
      <trkpt lat="44.44144" lon="1.11797">
        <ele>258.567902</ele>
        <time>2009-08-13T10:25:14Z</time>
      </trkpt>
      <trkpt lat="44.44156" lon="1.11813">
        <ele>259.244965</ele>
        <time>2009-08-13T10:25:17Z</time>
      </trkpt>
      <trkpt lat="44.44168" lon="1.11827">
        <ele>260.018738</ele>
        <time>2009-08-13T10:25:20Z</time>
      </trkpt>
      <trkpt lat="44.44179" lon="1.1184">
        <ele>260.140015</ele>
        <time>2009-08-13T10:25:23Z</time>
      </trkpt>
      <trkpt lat="44.44189" lon="1.11851">
        <ele>260.185638</ele>
        <time>2009-08-13T10:25:26Z</time>
      </trkpt>
      <trkpt lat="44.442" lon="1.11861">
        <ele>260.263763</ele>
        <time>2009-08-13T10:25:29Z</time>
      </trkpt>
      <trkpt lat="44.4421" lon="1.11869">
        <ele>260.350006</ele>
        <time>2009-08-13T10:25:32Z</time>
      </trkpt>
      <trkpt lat="44.44221" lon="1.11878">
        <ele>260.16571</ele>
        <time>2009-08-13T10:25:35Z</time>
      </trkpt>
      <trkpt lat="44.44233" lon="1.11887">
        <ele>260.038177</ele>
        <time>2009-08-13T10:25:38Z</time>
      </trkpt>
      <trkpt lat="44.44246" lon="1.11898">
        <ele>259.755829</ele>
        <time>2009-08-13T10:25:41Z</time>
      </trkpt>
      <trkpt lat="44.44258" lon="1.11911">
        <ele>259.349487</ele>
        <time>2009-08-13T10:25:44Z</time>
      </trkpt>
      <trkpt lat="44.44269" lon="1.11926">
        <ele>258.915405</ele>
        <time>2009-08-13T10:25:47Z</time>
      </trkpt>
      <trkpt lat="44.44279" lon="1.11942">
        <ele>258.667236</ele>
        <time>2009-08-13T10:25:50Z</time>
      </trkpt>
      <trkpt lat="44.44285" lon="1.11963">
        <ele>258.413605</ele>
        <time>2009-08-13T10:25:53Z</time>
      </trkpt>
      <trkpt lat="44.4429" lon="1.11985">
        <ele>258.100403</ele>
        <time>2009-08-13T10:25:56Z</time>
      </trkpt>
      <trkpt lat="44.44295" lon="1.12007">
        <ele>257.838928</ele>
        <time>2009-08-13T10:25:59Z</time>
      </trkpt>
      <trkpt lat="44.44301" lon="1.12027">
        <ele>257.540588</ele>
        <time>2009-08-13T10:26:02Z</time>
      </trkpt>
      <trkpt lat="44.44308" lon="1.12047">
        <ele>257.318756</ele>
        <time>2009-08-13T10:26:05Z</time>
      </trkpt>
      <trkpt lat="44.44316" lon="1.12064">
        <ele>257.244049</ele>
        <time>2009-08-13T10:26:08Z</time>
      </trkpt>
      <trkpt lat="44.44325" lon="1.1208">
        <ele>257.177124</ele>
        <time>2009-08-13T10:26:11Z</time>
      </trkpt>
      <trkpt lat="44.44336" lon="1.12091">
        <ele>256.795776</ele>
        <time>2009-08-13T10:26:14Z</time>
      </trkpt>
      <trkpt lat="44.44348" lon="1.12098">
        <ele>257.01886</ele>
        <time>2009-08-13T10:26:18Z</time>
      </trkpt>
      <trkpt lat="44.4436" lon="1.12101">
        <ele>257.342377</ele>
        <time>2009-08-13T10:26:21Z</time>
      </trkpt>
      <trkpt lat="44.44372" lon="1.12106">
        <ele>257.518494</ele>
        <time>2009-08-13T10:26:24Z</time>
      </trkpt>
      <trkpt lat="44.44383" lon="1.1211">
        <ele>257.767487</ele>
        <time>2009-08-13T10:26:27Z</time>
      </trkpt>
      <trkpt lat="44.44394" lon="1.12115">
        <ele>257.90918</ele>
        <time>2009-08-13T10:26:30Z</time>
      </trkpt>
      <trkpt lat="44.44405" lon="1.12119">
        <ele>257.575806</ele>
        <time>2009-08-13T10:26:33Z</time>
      </trkpt>
      <trkpt lat="44.44417" lon="1.12119">
        <ele>257.601868</ele>
        <time>2009-08-13T10:26:36Z</time>
      </trkpt>
      <trkpt lat="44.4443" lon="1.12113">
        <ele>257.851929</ele>
        <time>2009-08-13T10:26:41Z</time>
      </trkpt>
      <trkpt lat="44.44434" lon="1.12111">
        <ele>257.886108</ele>
        <time>2009-08-13T10:26:45Z</time>
      </trkpt>
      <trkpt lat="44.44435" lon="1.12112">
        <ele>257.869232</ele>
        <time>2009-08-13T10:26:56Z</time>
      </trkpt>
      <trkpt lat="44.44438" lon="1.12109">
        <ele>257.920959</ele>
        <time>2009-08-13T10:27:01Z</time>
      </trkpt>
      <trkpt lat="44.44441" lon="1.12107">
        <ele>257.787323</ele>
        <time>2009-08-13T10:27:06Z</time>
      </trkpt>
      <trkpt lat="44.44443" lon="1.12108">
        <ele>257.567505</ele>
        <time>2009-08-13T10:27:10Z</time>
      </trkpt>
      <trkpt lat="44.44441" lon="1.12107">
        <ele>257.752747</ele>
        <time>2009-08-13T10:27:17Z</time>
      </trkpt>
      <trkpt lat="44.44439" lon="1.12109">
        <ele>257.857239</ele>
        <time>2009-08-13T10:27:20Z</time>
      </trkpt>
      <trkpt lat="44.44443" lon="1.12112">
        <ele>257.462006</ele>
        <time>2009-08-13T10:27:24Z</time>
      </trkpt>
      <trkpt lat="44.4444" lon="1.1211">
        <ele>257.733917</ele>
        <time>2009-08-13T10:27:28Z</time>
      </trkpt>
      <trkpt lat="44.44442" lon="1.12113">
        <ele>257.539856</ele>
        <time>2009-08-13T10:27:32Z</time>
      </trkpt>
    </trkseg>
  </trk>
</gpx>